<?xml version="1.0" encoding="UTF-8" standalone="no" ?>
<gpx xmlns="http://www.topografix.com/GPX/1/1" xmlns:xsi="http://www.w3.org/2001/XMLSchema-instance" xsi:schemaLocation="http://www.topografix.com/GPX/1/1 http://www.topografix.com/GPX/1/1/gpx.xsd" version="1.1" creator="VisuGPX - https://www.visugpx.com">
  <metadata>
    <name>Far_West_Realisé</name>
  </metadata>
  <trk>
    <name><![CDATA[J8 - Far west - Pagolle - Bayonne - last day ! Demain les vagues de l'océan 😍😎]]></name>
    <extensions>
      <line xmlns="http://www.topografix.com/GPX/gpx_style/0/2">
        <color>0000FF</color>
        <width>4</width>
      </line>
    </extensions>
    <trkseg>
      <trkpt lat="43.2259" lon="-0.98993">
        <ele>150.8</ele>
        <time>2022-09-11T06:48:31Z</time>
      </trkpt>
      <trkpt lat="43.2261" lon="-0.98989">
        <ele>150.8</ele>
        <time>2022-09-11T06:48:38Z</time>
      </trkpt>
      <trkpt lat="43.22626" lon="-0.98986">
        <ele>151</ele>
        <time>2022-09-11T06:48:44Z</time>
      </trkpt>
      <trkpt lat="43.2265" lon="-0.98984">
        <ele>151.4</ele>
        <time>2022-09-11T06:48:52Z</time>
      </trkpt>
      <trkpt lat="43.22674" lon="-0.9898">
        <ele>151.8</ele>
        <time>2022-09-11T06:48:59Z</time>
      </trkpt>
      <trkpt lat="43.22678" lon="-0.9898">
        <ele>152</ele>
        <time>2022-09-11T06:49:00Z</time>
      </trkpt>
      <trkpt lat="43.22703" lon="-0.98976">
        <ele>152.4</ele>
        <time>2022-09-11T06:49:07Z</time>
      </trkpt>
      <trkpt lat="43.22724" lon="-0.98972">
        <ele>152.6</ele>
        <time>2022-09-11T06:49:13Z</time>
      </trkpt>
      <trkpt lat="43.22749" lon="-0.98962">
        <ele>153</ele>
        <time>2022-09-11T06:49:20Z</time>
      </trkpt>
      <trkpt lat="43.22753" lon="-0.98961">
        <ele>153</ele>
        <time>2022-09-11T06:49:21Z</time>
      </trkpt>
      <trkpt lat="43.22786" lon="-0.98948">
        <ele>153.2</ele>
        <time>2022-09-11T06:49:30Z</time>
      </trkpt>
      <trkpt lat="43.22821" lon="-0.98937">
        <ele>153</ele>
        <time>2022-09-11T06:49:39Z</time>
      </trkpt>
      <trkpt lat="43.22848" lon="-0.98929">
        <ele>151.8</ele>
        <time>2022-09-11T06:49:45Z</time>
      </trkpt>
      <trkpt lat="43.22854" lon="-0.98927">
        <ele>151.8</ele>
        <time>2022-09-11T06:49:46Z</time>
      </trkpt>
      <trkpt lat="43.22899" lon="-0.9891">
        <ele>151.2</ele>
        <time>2022-09-11T06:49:55Z</time>
      </trkpt>
      <trkpt lat="43.22938" lon="-0.98892">
        <ele>150.8</ele>
        <time>2022-09-11T06:50:03Z</time>
      </trkpt>
      <trkpt lat="43.22942" lon="-0.9889">
        <ele>150.8</ele>
        <time>2022-09-11T06:50:04Z</time>
      </trkpt>
      <trkpt lat="43.22977" lon="-0.98873">
        <ele>150.2</ele>
        <time>2022-09-11T06:50:11Z</time>
      </trkpt>
      <trkpt lat="43.22993" lon="-0.98865">
        <ele>149.8</ele>
        <time>2022-09-11T06:50:14Z</time>
      </trkpt>
      <trkpt lat="43.23022" lon="-0.98854">
        <ele>149.6</ele>
        <time>2022-09-11T06:50:19Z</time>
      </trkpt>
      <trkpt lat="43.23063" lon="-0.98835">
        <ele>150</ele>
        <time>2022-09-11T06:50:27Z</time>
      </trkpt>
      <trkpt lat="43.23097" lon="-0.98819">
        <ele>150.6</ele>
        <time>2022-09-11T06:50:34Z</time>
      </trkpt>
      <trkpt lat="43.23123" lon="-0.98815">
        <ele>150.4</ele>
        <time>2022-09-11T06:50:40Z</time>
      </trkpt>
      <trkpt lat="43.23129" lon="-0.98816">
        <ele>150.4</ele>
        <time>2022-09-11T06:50:41Z</time>
      </trkpt>
      <trkpt lat="43.23144" lon="-0.98824">
        <ele>150.2</ele>
        <time>2022-09-11T06:50:44Z</time>
      </trkpt>
      <trkpt lat="43.23149" lon="-0.98827">
        <ele>150</ele>
        <time>2022-09-11T06:50:45Z</time>
      </trkpt>
      <trkpt lat="43.23175" lon="-0.98848">
        <ele>149.4</ele>
        <time>2022-09-11T06:50:50Z</time>
      </trkpt>
      <trkpt lat="43.23192" lon="-0.98863">
        <ele>148.6</ele>
        <time>2022-09-11T06:50:53Z</time>
      </trkpt>
      <trkpt lat="43.23216" lon="-0.9888">
        <ele>147.6</ele>
        <time>2022-09-11T06:50:57Z</time>
      </trkpt>
      <trkpt lat="43.23222" lon="-0.98884">
        <ele>147.4</ele>
        <time>2022-09-11T06:50:58Z</time>
      </trkpt>
      <trkpt lat="43.23254" lon="-0.98905">
        <ele>146.2</ele>
        <time>2022-09-11T06:51:03Z</time>
      </trkpt>
      <trkpt lat="43.23267" lon="-0.98911">
        <ele>146.2</ele>
        <time>2022-09-11T06:51:05Z</time>
      </trkpt>
      <trkpt lat="43.233" lon="-0.98926">
        <ele>145.2</ele>
        <time>2022-09-11T06:51:10Z</time>
      </trkpt>
      <trkpt lat="43.23319" lon="-0.98935">
        <ele>144.4</ele>
        <time>2022-09-11T06:51:13Z</time>
      </trkpt>
      <trkpt lat="43.23377" lon="-0.98959">
        <ele>144.2</ele>
        <time>2022-09-11T06:51:22Z</time>
      </trkpt>
      <trkpt lat="43.23383" lon="-0.98961">
        <ele>144.2</ele>
        <time>2022-09-11T06:51:23Z</time>
      </trkpt>
      <trkpt lat="43.23389" lon="-0.98963">
        <ele>144.2</ele>
        <time>2022-09-11T06:51:24Z</time>
      </trkpt>
      <trkpt lat="43.2342" lon="-0.98976">
        <ele>143</ele>
        <time>2022-09-11T06:51:29Z</time>
      </trkpt>
      <trkpt lat="43.23427" lon="-0.98979">
        <ele>142.4</ele>
        <time>2022-09-11T06:51:30Z</time>
      </trkpt>
      <trkpt lat="43.23442" lon="-0.98984">
        <ele>141.6</ele>
        <time>2022-09-11T06:51:32Z</time>
      </trkpt>
      <trkpt lat="43.23466" lon="-0.9899">
        <ele>140.8</ele>
        <time>2022-09-11T06:51:35Z</time>
      </trkpt>
      <trkpt lat="43.23482" lon="-0.98993">
        <ele>140.6</ele>
        <time>2022-09-11T06:51:37Z</time>
      </trkpt>
      <trkpt lat="43.23522" lon="-0.99">
        <ele>140.2</ele>
        <time>2022-09-11T06:51:42Z</time>
      </trkpt>
      <trkpt lat="43.23581" lon="-0.99012">
        <ele>139.6</ele>
        <time>2022-09-11T06:51:50Z</time>
      </trkpt>
      <trkpt lat="43.23619" lon="-0.99022">
        <ele>140.2</ele>
        <time>2022-09-11T06:51:56Z</time>
      </trkpt>
      <trkpt lat="43.23654" lon="-0.99035">
        <ele>140.4</ele>
        <time>2022-09-11T06:52:02Z</time>
      </trkpt>
      <trkpt lat="43.23704" lon="-0.99056">
        <ele>141</ele>
        <time>2022-09-11T06:52:12Z</time>
      </trkpt>
      <trkpt lat="43.23717" lon="-0.99062">
        <ele>141</ele>
        <time>2022-09-11T06:52:15Z</time>
      </trkpt>
      <trkpt lat="43.23727" lon="-0.99066">
        <ele>141</ele>
        <time>2022-09-11T06:52:17Z</time>
      </trkpt>
      <trkpt lat="43.23761" lon="-0.9908">
        <ele>139.4</ele>
        <time>2022-09-11T06:52:23Z</time>
      </trkpt>
      <trkpt lat="43.23781" lon="-0.99094">
        <ele>138.4</ele>
        <time>2022-09-11T06:52:26Z</time>
      </trkpt>
      <trkpt lat="43.23794" lon="-0.99108">
        <ele>137.4</ele>
        <time>2022-09-11T06:52:28Z</time>
      </trkpt>
      <trkpt lat="43.23808" lon="-0.99122">
        <ele>136.4</ele>
        <time>2022-09-11T06:52:30Z</time>
      </trkpt>
      <trkpt lat="43.23823" lon="-0.99131">
        <ele>136.2</ele>
        <time>2022-09-11T06:52:32Z</time>
      </trkpt>
      <trkpt lat="43.23839" lon="-0.99136">
        <ele>136</ele>
        <time>2022-09-11T06:52:34Z</time>
      </trkpt>
      <trkpt lat="43.23854" lon="-0.9914">
        <ele>135.6</ele>
        <time>2022-09-11T06:52:36Z</time>
      </trkpt>
      <trkpt lat="43.23869" lon="-0.99143">
        <ele>135.4</ele>
        <time>2022-09-11T06:52:38Z</time>
      </trkpt>
      <trkpt lat="43.23892" lon="-0.99144">
        <ele>135.4</ele>
        <time>2022-09-11T06:52:41Z</time>
      </trkpt>
      <trkpt lat="43.23948" lon="-0.9914">
        <ele>134.2</ele>
        <time>2022-09-11T06:52:48Z</time>
      </trkpt>
      <trkpt lat="43.23956" lon="-0.99139">
        <ele>134</ele>
        <time>2022-09-11T06:52:49Z</time>
      </trkpt>
      <trkpt lat="43.23996" lon="-0.99137">
        <ele>133.8</ele>
        <time>2022-09-11T06:52:54Z</time>
      </trkpt>
      <trkpt lat="43.24004" lon="-0.99139">
        <ele>133.8</ele>
        <time>2022-09-11T06:52:55Z</time>
      </trkpt>
      <trkpt lat="43.24046" lon="-0.99158">
        <ele>134.4</ele>
        <time>2022-09-11T06:53:01Z</time>
      </trkpt>
      <trkpt lat="43.24062" lon="-0.99167">
        <ele>135.4</ele>
        <time>2022-09-11T06:53:04Z</time>
      </trkpt>
      <trkpt lat="43.24071" lon="-0.99171">
        <ele>135.6</ele>
        <time>2022-09-11T06:53:06Z</time>
      </trkpt>
      <trkpt lat="43.241" lon="-0.99187">
        <ele>135.8</ele>
        <time>2022-09-11T06:53:13Z</time>
      </trkpt>
      <trkpt lat="43.24132" lon="-0.99205">
        <ele>135.4</ele>
        <time>2022-09-11T06:53:21Z</time>
      </trkpt>
      <trkpt lat="43.24147" lon="-0.99212">
        <ele>134.8</ele>
        <time>2022-09-11T06:53:24Z</time>
      </trkpt>
      <trkpt lat="43.24159" lon="-0.99214">
        <ele>134</ele>
        <time>2022-09-11T06:53:26Z</time>
      </trkpt>
      <trkpt lat="43.24173" lon="-0.99218">
        <ele>133</ele>
        <time>2022-09-11T06:53:28Z</time>
      </trkpt>
      <trkpt lat="43.24189" lon="-0.99225">
        <ele>132</ele>
        <time>2022-09-11T06:53:30Z</time>
      </trkpt>
      <trkpt lat="43.24217" lon="-0.9925">
        <ele>131.6</ele>
        <time>2022-09-11T06:53:34Z</time>
      </trkpt>
      <trkpt lat="43.2426" lon="-0.99297">
        <ele>131.2</ele>
        <time>2022-09-11T06:53:41Z</time>
      </trkpt>
      <trkpt lat="43.24301" lon="-0.99334">
        <ele>132</ele>
        <time>2022-09-11T06:53:48Z</time>
      </trkpt>
      <trkpt lat="43.24319" lon="-0.99354">
        <ele>132.4</ele>
        <time>2022-09-11T06:53:52Z</time>
      </trkpt>
      <trkpt lat="43.24327" lon="-0.99363">
        <ele>132.6</ele>
        <time>2022-09-11T06:53:54Z</time>
      </trkpt>
      <trkpt lat="43.24336" lon="-0.99369">
        <ele>132.6</ele>
        <time>2022-09-11T06:53:56Z</time>
      </trkpt>
      <trkpt lat="43.24349" lon="-0.99377">
        <ele>132.2</ele>
        <time>2022-09-11T06:53:59Z</time>
      </trkpt>
      <trkpt lat="43.24354" lon="-0.99378">
        <ele>132.2</ele>
        <time>2022-09-11T06:54:00Z</time>
      </trkpt>
      <trkpt lat="43.24365" lon="-0.9938">
        <ele>132</ele>
        <time>2022-09-11T06:54:02Z</time>
      </trkpt>
      <trkpt lat="43.24382" lon="-0.9938">
        <ele>131.8</ele>
        <time>2022-09-11T06:54:05Z</time>
      </trkpt>
      <trkpt lat="43.24406" lon="-0.99376">
        <ele>131</ele>
        <time>2022-09-11T06:54:09Z</time>
      </trkpt>
      <trkpt lat="43.24413" lon="-0.99374">
        <ele>130.8</ele>
        <time>2022-09-11T06:54:10Z</time>
      </trkpt>
      <trkpt lat="43.24419" lon="-0.99372">
        <ele>130.6</ele>
        <time>2022-09-11T06:54:11Z</time>
      </trkpt>
      <trkpt lat="43.24425" lon="-0.99369">
        <ele>130.2</ele>
        <time>2022-09-11T06:54:12Z</time>
      </trkpt>
      <trkpt lat="43.24438" lon="-0.99363">
        <ele>129.8</ele>
        <time>2022-09-11T06:54:14Z</time>
      </trkpt>
      <trkpt lat="43.24458" lon="-0.99352">
        <ele>129.4</ele>
        <time>2022-09-11T06:54:17Z</time>
      </trkpt>
      <trkpt lat="43.24485" lon="-0.99331">
        <ele>129.4</ele>
        <time>2022-09-11T06:54:22Z</time>
      </trkpt>
      <trkpt lat="43.24517" lon="-0.99288">
        <ele>129.6</ele>
        <time>2022-09-11T06:54:29Z</time>
      </trkpt>
      <trkpt lat="43.24544" lon="-0.99247">
        <ele>130.6</ele>
        <time>2022-09-11T06:54:36Z</time>
      </trkpt>
      <trkpt lat="43.24555" lon="-0.99231">
        <ele>131</ele>
        <time>2022-09-11T06:54:39Z</time>
      </trkpt>
      <trkpt lat="43.24566" lon="-0.99218">
        <ele>131.2</ele>
        <time>2022-09-11T06:54:42Z</time>
      </trkpt>
      <trkpt lat="43.24574" lon="-0.99209">
        <ele>131.4</ele>
        <time>2022-09-11T06:54:44Z</time>
      </trkpt>
      <trkpt lat="43.24593" lon="-0.99189">
        <ele>131.6</ele>
        <time>2022-09-11T06:54:49Z</time>
      </trkpt>
      <trkpt lat="43.24629" lon="-0.99159">
        <ele>131.6</ele>
        <time>2022-09-11T06:54:57Z</time>
      </trkpt>
      <trkpt lat="43.24676" lon="-0.99122">
        <ele>131.4</ele>
        <time>2022-09-11T06:55:07Z</time>
      </trkpt>
      <trkpt lat="43.24709" lon="-0.991">
        <ele>131</ele>
        <time>2022-09-11T06:55:14Z</time>
      </trkpt>
      <trkpt lat="43.24747" lon="-0.99076">
        <ele>130</ele>
        <time>2022-09-11T06:55:22Z</time>
      </trkpt>
      <trkpt lat="43.24753" lon="-0.99072">
        <ele>129.8</ele>
        <time>2022-09-11T06:55:23Z</time>
      </trkpt>
      <trkpt lat="43.24776" lon="-0.99064">
        <ele>129</ele>
        <time>2022-09-11T06:55:27Z</time>
      </trkpt>
      <trkpt lat="43.24783" lon="-0.99064">
        <ele>128.6</ele>
        <time>2022-09-11T06:55:28Z</time>
      </trkpt>
      <trkpt lat="43.24797" lon="-0.99067">
        <ele>127.4</ele>
        <time>2022-09-11T06:55:30Z</time>
      </trkpt>
      <trkpt lat="43.24804" lon="-0.9907">
        <ele>126.8</ele>
        <time>2022-09-11T06:55:31Z</time>
      </trkpt>
      <trkpt lat="43.24811" lon="-0.99073">
        <ele>126.2</ele>
        <time>2022-09-11T06:55:32Z</time>
      </trkpt>
      <trkpt lat="43.24827" lon="-0.99079">
        <ele>125</ele>
        <time>2022-09-11T06:55:34Z</time>
      </trkpt>
      <trkpt lat="43.24837" lon="-0.9908">
        <ele>124.2</ele>
        <time>2022-09-11T06:55:35Z</time>
      </trkpt>
      <trkpt lat="43.24846" lon="-0.99078">
        <ele>123.6</ele>
        <time>2022-09-11T06:55:36Z</time>
      </trkpt>
      <trkpt lat="43.24856" lon="-0.99074">
        <ele>123</ele>
        <time>2022-09-11T06:55:37Z</time>
      </trkpt>
      <trkpt lat="43.24871" lon="-0.99059">
        <ele>122.8</ele>
        <time>2022-09-11T06:55:39Z</time>
      </trkpt>
      <trkpt lat="43.24884" lon="-0.99044">
        <ele>122.6</ele>
        <time>2022-09-11T06:55:41Z</time>
      </trkpt>
      <trkpt lat="43.24909" lon="-0.99017">
        <ele>122.4</ele>
        <time>2022-09-11T06:55:45Z</time>
      </trkpt>
      <trkpt lat="43.24922" lon="-0.99004">
        <ele>122.6</ele>
        <time>2022-09-11T06:55:47Z</time>
      </trkpt>
      <trkpt lat="43.24968" lon="-0.98962">
        <ele>122.8</ele>
        <time>2022-09-11T06:55:55Z</time>
      </trkpt>
      <trkpt lat="43.25017" lon="-0.98915">
        <ele>122.4</ele>
        <time>2022-09-11T06:56:04Z</time>
      </trkpt>
      <trkpt lat="43.25065" lon="-0.98869">
        <ele>122.2</ele>
        <time>2022-09-11T06:56:13Z</time>
      </trkpt>
      <trkpt lat="43.25104" lon="-0.98831">
        <ele>122.2</ele>
        <time>2022-09-11T06:56:21Z</time>
      </trkpt>
      <trkpt lat="43.25117" lon="-0.9882">
        <ele>122.6</ele>
        <time>2022-09-11T06:56:24Z</time>
      </trkpt>
      <trkpt lat="43.25126" lon="-0.98816">
        <ele>122.6</ele>
        <time>2022-09-11T06:56:26Z</time>
      </trkpt>
      <trkpt lat="43.25139" lon="-0.98822">
        <ele>122.4</ele>
        <time>2022-09-11T06:56:29Z</time>
      </trkpt>
      <trkpt lat="43.25146" lon="-0.98832">
        <ele>122.2</ele>
        <time>2022-09-11T06:56:31Z</time>
      </trkpt>
      <trkpt lat="43.25153" lon="-0.98844">
        <ele>121.6</ele>
        <time>2022-09-11T06:56:33Z</time>
      </trkpt>
      <trkpt lat="43.25156" lon="-0.98851">
        <ele>121.4</ele>
        <time>2022-09-11T06:56:34Z</time>
      </trkpt>
      <trkpt lat="43.25164" lon="-0.98863">
        <ele>121.6</ele>
        <time>2022-09-11T06:56:36Z</time>
      </trkpt>
      <trkpt lat="43.25173" lon="-0.98873">
        <ele>121.8</ele>
        <time>2022-09-11T06:56:38Z</time>
      </trkpt>
      <trkpt lat="43.25183" lon="-0.98881">
        <ele>122</ele>
        <time>2022-09-11T06:56:40Z</time>
      </trkpt>
      <trkpt lat="43.25197" lon="-0.98891">
        <ele>122.2</ele>
        <time>2022-09-11T06:56:43Z</time>
      </trkpt>
      <trkpt lat="43.25201" lon="-0.98894">
        <ele>122.6</ele>
        <time>2022-09-11T06:56:44Z</time>
      </trkpt>
      <trkpt lat="43.2522" lon="-0.98908">
        <ele>123.8</ele>
        <time>2022-09-11T06:56:49Z</time>
      </trkpt>
      <trkpt lat="43.25223" lon="-0.98911">
        <ele>123.8</ele>
        <time>2022-09-11T06:56:50Z</time>
      </trkpt>
      <trkpt lat="43.25238" lon="-0.98923">
        <ele>124.4</ele>
        <time>2022-09-11T06:56:55Z</time>
      </trkpt>
      <trkpt lat="43.25253" lon="-0.98929">
        <ele>123.8</ele>
        <time>2022-09-11T06:56:59Z</time>
      </trkpt>
      <trkpt lat="43.25258" lon="-0.98929">
        <ele>123.4</ele>
        <time>2022-09-11T06:57:00Z</time>
      </trkpt>
      <trkpt lat="43.25281" lon="-0.98923">
        <ele>123</ele>
        <time>2022-09-11T06:57:04Z</time>
      </trkpt>
      <trkpt lat="43.25291" lon="-0.98915">
        <ele>123</ele>
        <time>2022-09-11T06:57:06Z</time>
      </trkpt>
      <trkpt lat="43.25311" lon="-0.98899">
        <ele>122.8</ele>
        <time>2022-09-11T06:57:10Z</time>
      </trkpt>
      <trkpt lat="43.25316" lon="-0.98894">
        <ele>122.6</ele>
        <time>2022-09-11T06:57:11Z</time>
      </trkpt>
      <trkpt lat="43.25338" lon="-0.98873">
        <ele>122.6</ele>
        <time>2022-09-11T06:57:16Z</time>
      </trkpt>
      <trkpt lat="43.25354" lon="-0.98862">
        <ele>122.2</ele>
        <time>2022-09-11T06:57:19Z</time>
      </trkpt>
      <trkpt lat="43.25365" lon="-0.98858">
        <ele>122</ele>
        <time>2022-09-11T06:57:21Z</time>
      </trkpt>
      <trkpt lat="43.25383" lon="-0.98859">
        <ele>122</ele>
        <time>2022-09-11T06:57:24Z</time>
      </trkpt>
      <trkpt lat="43.25399" lon="-0.98867">
        <ele>122</ele>
        <time>2022-09-11T06:57:27Z</time>
      </trkpt>
      <trkpt lat="43.25409" lon="-0.98873">
        <ele>121.8</ele>
        <time>2022-09-11T06:57:29Z</time>
      </trkpt>
      <trkpt lat="43.25415" lon="-0.98875">
        <ele>121.6</ele>
        <time>2022-09-11T06:57:30Z</time>
      </trkpt>
      <trkpt lat="43.25454" lon="-0.98898">
        <ele>121.6</ele>
        <time>2022-09-11T06:57:37Z</time>
      </trkpt>
      <trkpt lat="43.25458" lon="-0.98902">
        <ele>121.6</ele>
        <time>2022-09-11T06:57:38Z</time>
      </trkpt>
      <trkpt lat="43.25471" lon="-0.98918">
        <ele>121.4</ele>
        <time>2022-09-11T06:57:41Z</time>
      </trkpt>
      <trkpt lat="43.25486" lon="-0.98946">
        <ele>120.6</ele>
        <time>2022-09-11T06:57:45Z</time>
      </trkpt>
      <trkpt lat="43.25502" lon="-0.98959">
        <ele>120.6</ele>
        <time>2022-09-11T06:57:48Z</time>
      </trkpt>
      <trkpt lat="43.25517" lon="-0.98963">
        <ele>121.6</ele>
        <time>2022-09-11T06:57:51Z</time>
      </trkpt>
      <trkpt lat="43.25521" lon="-0.98963">
        <ele>122</ele>
        <time>2022-09-11T06:57:52Z</time>
      </trkpt>
      <trkpt lat="43.25546" lon="-0.98965">
        <ele>122.8</ele>
        <time>2022-09-11T06:57:58Z</time>
      </trkpt>
      <trkpt lat="43.25582" lon="-0.9897">
        <ele>122.4</ele>
        <time>2022-09-11T06:58:06Z</time>
      </trkpt>
      <trkpt lat="43.25617" lon="-0.98971">
        <ele>121</ele>
        <time>2022-09-11T06:58:12Z</time>
      </trkpt>
      <trkpt lat="43.25623" lon="-0.98971">
        <ele>120.8</ele>
        <time>2022-09-11T06:58:13Z</time>
      </trkpt>
      <trkpt lat="43.25661" lon="-0.98969">
        <ele>119.8</ele>
        <time>2022-09-11T06:58:19Z</time>
      </trkpt>
      <trkpt lat="43.2568" lon="-0.98967">
        <ele>119.4</ele>
        <time>2022-09-11T06:58:22Z</time>
      </trkpt>
      <trkpt lat="43.25714" lon="-0.98959">
        <ele>119.2</ele>
        <time>2022-09-11T06:58:28Z</time>
      </trkpt>
      <trkpt lat="43.25748" lon="-0.98948">
        <ele>118.8</ele>
        <time>2022-09-11T06:58:35Z</time>
      </trkpt>
      <trkpt lat="43.25753" lon="-0.98946">
        <ele>118.6</ele>
        <time>2022-09-11T06:58:36Z</time>
      </trkpt>
      <trkpt lat="43.25758" lon="-0.98944">
        <ele>118.4</ele>
        <time>2022-09-11T06:58:37Z</time>
      </trkpt>
      <trkpt lat="43.25774" lon="-0.98933">
        <ele>118</ele>
        <time>2022-09-11T06:58:40Z</time>
      </trkpt>
      <trkpt lat="43.25784" lon="-0.98923">
        <ele>117.6</ele>
        <time>2022-09-11T06:58:42Z</time>
      </trkpt>
      <trkpt lat="43.25806" lon="-0.98897">
        <ele>117.4</ele>
        <time>2022-09-11T06:58:47Z</time>
      </trkpt>
      <trkpt lat="43.25828" lon="-0.98873">
        <ele>118.4</ele>
        <time>2022-09-11T06:58:53Z</time>
      </trkpt>
      <trkpt lat="43.25831" lon="-0.9887">
        <ele>118.8</ele>
        <time>2022-09-11T06:58:54Z</time>
      </trkpt>
      <trkpt lat="43.25843" lon="-0.9886">
        <ele>119.8</ele>
        <time>2022-09-11T06:58:58Z</time>
      </trkpt>
      <trkpt lat="43.25849" lon="-0.98855">
        <ele>120</ele>
        <time>2022-09-11T06:59:00Z</time>
      </trkpt>
      <trkpt lat="43.25858" lon="-0.98849">
        <ele>120.8</ele>
        <time>2022-09-11T06:59:03Z</time>
      </trkpt>
      <trkpt lat="43.25869" lon="-0.98841">
        <ele>121.2</ele>
        <time>2022-09-11T06:59:07Z</time>
      </trkpt>
      <trkpt lat="43.25877" lon="-0.98837">
        <ele>121.8</ele>
        <time>2022-09-11T06:59:10Z</time>
      </trkpt>
      <trkpt lat="43.2589" lon="-0.98831">
        <ele>122.8</ele>
        <time>2022-09-11T06:59:15Z</time>
      </trkpt>
      <trkpt lat="43.25892" lon="-0.98829">
        <ele>122.8</ele>
        <time>2022-09-11T06:59:16Z</time>
      </trkpt>
      <trkpt lat="43.25901" lon="-0.98825">
        <ele>123.2</ele>
        <time>2022-09-11T06:59:20Z</time>
      </trkpt>
      <trkpt lat="43.25918" lon="-0.98821">
        <ele>124</ele>
        <time>2022-09-11T06:59:26Z</time>
      </trkpt>
      <trkpt lat="43.25926" lon="-0.98818">
        <ele>124.6</ele>
        <time>2022-09-11T06:59:29Z</time>
      </trkpt>
      <trkpt lat="43.25933" lon="-0.98817">
        <ele>125</ele>
        <time>2022-09-11T06:59:32Z</time>
      </trkpt>
      <trkpt lat="43.2594" lon="-0.98815">
        <ele>125.6</ele>
        <time>2022-09-11T06:59:35Z</time>
      </trkpt>
      <trkpt lat="43.25944" lon="-0.98814">
        <ele>126</ele>
        <time>2022-09-11T06:59:37Z</time>
      </trkpt>
      <trkpt lat="43.25953" lon="-0.98811">
        <ele>127</ele>
        <time>2022-09-11T06:59:42Z</time>
      </trkpt>
      <trkpt lat="43.25955" lon="-0.98811">
        <ele>127.4</ele>
        <time>2022-09-11T06:59:43Z</time>
      </trkpt>
      <trkpt lat="43.25967" lon="-0.9881">
        <ele>128.4</ele>
        <time>2022-09-11T06:59:50Z</time>
      </trkpt>
      <trkpt lat="43.25968" lon="-0.9881">
        <ele>128.6</ele>
        <time>2022-09-11T06:59:51Z</time>
      </trkpt>
      <trkpt lat="43.25976" lon="-0.98813">
        <ele>129.4</ele>
        <time>2022-09-11T06:59:56Z</time>
      </trkpt>
      <trkpt lat="43.2598" lon="-0.98814">
        <ele>129.6</ele>
        <time>2022-09-11T06:59:58Z</time>
      </trkpt>
      <trkpt lat="43.2599" lon="-0.98819">
        <ele>130.4</ele>
        <time>2022-09-11T07:00:03Z</time>
      </trkpt>
      <trkpt lat="43.25995" lon="-0.98823">
        <ele>130.8</ele>
        <time>2022-09-11T07:00:06Z</time>
      </trkpt>
      <trkpt lat="43.26003" lon="-0.98832">
        <ele>131.6</ele>
        <time>2022-09-11T07:00:11Z</time>
      </trkpt>
      <trkpt lat="43.26007" lon="-0.98842">
        <ele>131.8</ele>
        <time>2022-09-11T07:00:15Z</time>
      </trkpt>
      <trkpt lat="43.26011" lon="-0.98856">
        <ele>131.8</ele>
        <time>2022-09-11T07:00:20Z</time>
      </trkpt>
      <trkpt lat="43.26012" lon="-0.98886">
        <ele>131.4</ele>
        <time>2022-09-11T07:00:27Z</time>
      </trkpt>
      <trkpt lat="43.26014" lon="-0.98923">
        <ele>130.6</ele>
        <time>2022-09-11T07:00:33Z</time>
      </trkpt>
      <trkpt lat="43.26014" lon="-0.98974">
        <ele>129.2</ele>
        <time>2022-09-11T07:00:39Z</time>
      </trkpt>
      <trkpt lat="43.26017" lon="-0.99022">
        <ele>128</ele>
        <time>2022-09-11T07:00:44Z</time>
      </trkpt>
      <trkpt lat="43.2602" lon="-0.99041">
        <ele>127.8</ele>
        <time>2022-09-11T07:00:46Z</time>
      </trkpt>
      <trkpt lat="43.2603" lon="-0.99078">
        <ele>127</ele>
        <time>2022-09-11T07:00:50Z</time>
      </trkpt>
      <trkpt lat="43.26034" lon="-0.99086">
        <ele>126.8</ele>
        <time>2022-09-11T07:00:51Z</time>
      </trkpt>
      <trkpt lat="43.26046" lon="-0.9911">
        <ele>126</ele>
        <time>2022-09-11T07:00:54Z</time>
      </trkpt>
      <trkpt lat="43.26056" lon="-0.99124">
        <ele>125.6</ele>
        <time>2022-09-11T07:00:56Z</time>
      </trkpt>
      <trkpt lat="43.26068" lon="-0.99137">
        <ele>125.6</ele>
        <time>2022-09-11T07:00:58Z</time>
      </trkpt>
      <trkpt lat="43.26088" lon="-0.99152">
        <ele>125.2</ele>
        <time>2022-09-11T07:01:01Z</time>
      </trkpt>
      <trkpt lat="43.26102" lon="-0.99161">
        <ele>125</ele>
        <time>2022-09-11T07:01:03Z</time>
      </trkpt>
      <trkpt lat="43.26128" lon="-0.99178">
        <ele>124.8</ele>
        <time>2022-09-11T07:01:07Z</time>
      </trkpt>
      <trkpt lat="43.2614" lon="-0.99197">
        <ele>124.8</ele>
        <time>2022-09-11T07:01:10Z</time>
      </trkpt>
      <trkpt lat="43.26146" lon="-0.9923">
        <ele>124.6</ele>
        <time>2022-09-11T07:01:14Z</time>
      </trkpt>
      <trkpt lat="43.26145" lon="-0.9924">
        <ele>124.2</ele>
        <time>2022-09-11T07:01:15Z</time>
      </trkpt>
      <trkpt lat="43.26145" lon="-0.9925">
        <ele>123.8</ele>
        <time>2022-09-11T07:01:16Z</time>
      </trkpt>
      <trkpt lat="43.26144" lon="-0.99283">
        <ele>122</ele>
        <time>2022-09-11T07:01:19Z</time>
      </trkpt>
      <trkpt lat="43.26145" lon="-0.99294">
        <ele>121.2</ele>
        <time>2022-09-11T07:01:20Z</time>
      </trkpt>
      <trkpt lat="43.26148" lon="-0.99306">
        <ele>120.4</ele>
        <time>2022-09-11T07:01:21Z</time>
      </trkpt>
      <trkpt lat="43.26153" lon="-0.99317">
        <ele>119.6</ele>
        <time>2022-09-11T07:01:22Z</time>
      </trkpt>
      <trkpt lat="43.2616" lon="-0.99325">
        <ele>118.8</ele>
        <time>2022-09-11T07:01:23Z</time>
      </trkpt>
      <trkpt lat="43.26177" lon="-0.99339">
        <ele>117.2</ele>
        <time>2022-09-11T07:01:25Z</time>
      </trkpt>
      <trkpt lat="43.26194" lon="-0.99355">
        <ele>115.8</ele>
        <time>2022-09-11T07:01:27Z</time>
      </trkpt>
      <trkpt lat="43.26202" lon="-0.99367">
        <ele>115.2</ele>
        <time>2022-09-11T07:01:28Z</time>
      </trkpt>
      <trkpt lat="43.26208" lon="-0.9938">
        <ele>114.6</ele>
        <time>2022-09-11T07:01:29Z</time>
      </trkpt>
      <trkpt lat="43.26213" lon="-0.99395">
        <ele>113.6</ele>
        <time>2022-09-11T07:01:30Z</time>
      </trkpt>
      <trkpt lat="43.26218" lon="-0.9941">
        <ele>112.4</ele>
        <time>2022-09-11T07:01:31Z</time>
      </trkpt>
      <trkpt lat="43.26223" lon="-0.99424">
        <ele>111.4</ele>
        <time>2022-09-11T07:01:32Z</time>
      </trkpt>
      <trkpt lat="43.26229" lon="-0.99437">
        <ele>110.8</ele>
        <time>2022-09-11T07:01:33Z</time>
      </trkpt>
      <trkpt lat="43.26237" lon="-0.99448">
        <ele>110.2</ele>
        <time>2022-09-11T07:01:34Z</time>
      </trkpt>
      <trkpt lat="43.26255" lon="-0.99464">
        <ele>109.2</ele>
        <time>2022-09-11T07:01:36Z</time>
      </trkpt>
      <trkpt lat="43.26265" lon="-0.99469">
        <ele>108.6</ele>
        <time>2022-09-11T07:01:37Z</time>
      </trkpt>
      <trkpt lat="43.26275" lon="-0.99475">
        <ele>108</ele>
        <time>2022-09-11T07:01:38Z</time>
      </trkpt>
      <trkpt lat="43.26301" lon="-0.99495">
        <ele>107</ele>
        <time>2022-09-11T07:01:41Z</time>
      </trkpt>
      <trkpt lat="43.26319" lon="-0.99524">
        <ele>106</ele>
        <time>2022-09-11T07:01:44Z</time>
      </trkpt>
      <trkpt lat="43.26325" lon="-0.99535">
        <ele>106</ele>
        <time>2022-09-11T07:01:45Z</time>
      </trkpt>
      <trkpt lat="43.26347" lon="-0.99572">
        <ele>105.6</ele>
        <time>2022-09-11T07:01:49Z</time>
      </trkpt>
      <trkpt lat="43.26367" lon="-0.99607">
        <ele>105</ele>
        <time>2022-09-11T07:01:53Z</time>
      </trkpt>
      <trkpt lat="43.26371" lon="-0.99617">
        <ele>104.8</ele>
        <time>2022-09-11T07:01:54Z</time>
      </trkpt>
      <trkpt lat="43.26378" lon="-0.99661">
        <ele>104</ele>
        <time>2022-09-11T07:01:58Z</time>
      </trkpt>
      <trkpt lat="43.26373" lon="-0.99695">
        <ele>103</ele>
        <time>2022-09-11T07:02:01Z</time>
      </trkpt>
      <trkpt lat="43.26368" lon="-0.99705">
        <ele>102.8</ele>
        <time>2022-09-11T07:02:02Z</time>
      </trkpt>
      <trkpt lat="43.26364" lon="-0.99714">
        <ele>102.4</ele>
        <time>2022-09-11T07:02:03Z</time>
      </trkpt>
      <trkpt lat="43.26359" lon="-0.99723">
        <ele>102.2</ele>
        <time>2022-09-11T07:02:04Z</time>
      </trkpt>
      <trkpt lat="43.26351" lon="-0.9974">
        <ele>102</ele>
        <time>2022-09-11T07:02:06Z</time>
      </trkpt>
      <trkpt lat="43.26342" lon="-0.99768">
        <ele>102</ele>
        <time>2022-09-11T07:02:09Z</time>
      </trkpt>
      <trkpt lat="43.26338" lon="-0.99786">
        <ele>102</ele>
        <time>2022-09-11T07:02:11Z</time>
      </trkpt>
      <trkpt lat="43.26335" lon="-0.99802">
        <ele>101.8</ele>
        <time>2022-09-11T07:02:13Z</time>
      </trkpt>
      <trkpt lat="43.26335" lon="-0.99808">
        <ele>101.8</ele>
        <time>2022-09-11T07:02:14Z</time>
      </trkpt>
      <trkpt lat="43.26338" lon="-0.99817">
        <ele>101.6</ele>
        <time>2022-09-11T07:02:16Z</time>
      </trkpt>
      <trkpt lat="43.26344" lon="-0.99825">
        <ele>101.8</ele>
        <time>2022-09-11T07:02:18Z</time>
      </trkpt>
      <trkpt lat="43.26352" lon="-0.99831">
        <ele>101.8</ele>
        <time>2022-09-11T07:02:19Z</time>
      </trkpt>
      <trkpt lat="43.26359" lon="-0.99835">
        <ele>101.8</ele>
        <time>2022-09-11T07:02:20Z</time>
      </trkpt>
      <trkpt lat="43.26395" lon="-0.99858">
        <ele>102</ele>
        <time>2022-09-11T07:02:26Z</time>
      </trkpt>
      <trkpt lat="43.26416" lon="-0.99868">
        <ele>101.4</ele>
        <time>2022-09-11T07:02:30Z</time>
      </trkpt>
      <trkpt lat="43.26432" lon="-0.99873">
        <ele>101.4</ele>
        <time>2022-09-11T07:02:33Z</time>
      </trkpt>
      <trkpt lat="43.26442" lon="-0.99874">
        <ele>101.8</ele>
        <time>2022-09-11T07:02:35Z</time>
      </trkpt>
      <trkpt lat="43.26465" lon="-0.99879">
        <ele>102.8</ele>
        <time>2022-09-11T07:02:39Z</time>
      </trkpt>
      <trkpt lat="43.26469" lon="-0.99881">
        <ele>103.2</ele>
        <time>2022-09-11T07:02:40Z</time>
      </trkpt>
      <trkpt lat="43.2648" lon="-0.99887">
        <ele>104.2</ele>
        <time>2022-09-11T07:02:43Z</time>
      </trkpt>
      <trkpt lat="43.26489" lon="-0.99896">
        <ele>105</ele>
        <time>2022-09-11T07:02:46Z</time>
      </trkpt>
      <trkpt lat="43.26492" lon="-0.999">
        <ele>105.2</ele>
        <time>2022-09-11T07:02:47Z</time>
      </trkpt>
      <trkpt lat="43.26502" lon="-0.9992">
        <ele>106.4</ele>
        <time>2022-09-11T07:02:52Z</time>
      </trkpt>
      <trkpt lat="43.26506" lon="-0.99927">
        <ele>106.8</ele>
        <time>2022-09-11T07:02:54Z</time>
      </trkpt>
      <trkpt lat="43.26513" lon="-0.99946">
        <ele>107.4</ele>
        <time>2022-09-11T07:02:59Z</time>
      </trkpt>
      <trkpt lat="43.26519" lon="-0.9996">
        <ele>107.6</ele>
        <time>2022-09-11T07:03:03Z</time>
      </trkpt>
      <trkpt lat="43.26528" lon="-0.99987">
        <ele>108</ele>
        <time>2022-09-11T07:03:10Z</time>
      </trkpt>
      <trkpt lat="43.2654" lon="-1.00023">
        <ele>107.8</ele>
        <time>2022-09-11T07:03:18Z</time>
      </trkpt>
      <trkpt lat="43.26553" lon="-1.00055">
        <ele>106.4</ele>
        <time>2022-09-11T07:03:23Z</time>
      </trkpt>
      <trkpt lat="43.26555" lon="-1.00062">
        <ele>106.4</ele>
        <time>2022-09-11T07:03:24Z</time>
      </trkpt>
      <trkpt lat="43.26561" lon="-1.0008">
        <ele>106.4</ele>
        <time>2022-09-11T07:03:27Z</time>
      </trkpt>
      <trkpt lat="43.26575" lon="-1.00107">
        <ele>106</ele>
        <time>2022-09-11T07:03:32Z</time>
      </trkpt>
      <trkpt lat="43.26583" lon="-1.00123">
        <ele>106</ele>
        <time>2022-09-11T07:03:36Z</time>
      </trkpt>
      <trkpt lat="43.26595" lon="-1.00144">
        <ele>106</ele>
        <time>2022-09-11T07:03:41Z</time>
      </trkpt>
      <trkpt lat="43.26604" lon="-1.00153">
        <ele>106</ele>
        <time>2022-09-11T07:03:43Z</time>
      </trkpt>
      <trkpt lat="43.26617" lon="-1.00164">
        <ele>106</ele>
        <time>2022-09-11T07:03:46Z</time>
      </trkpt>
      <trkpt lat="43.26625" lon="-1.00173">
        <ele>106.2</ele>
        <time>2022-09-11T07:03:48Z</time>
      </trkpt>
      <trkpt lat="43.26631" lon="-1.00184">
        <ele>106.6</ele>
        <time>2022-09-11T07:03:50Z</time>
      </trkpt>
      <trkpt lat="43.26634" lon="-1.00189">
        <ele>106.6</ele>
        <time>2022-09-11T07:03:51Z</time>
      </trkpt>
      <trkpt lat="43.26643" lon="-1.00207">
        <ele>106.8</ele>
        <time>2022-09-11T07:03:54Z</time>
      </trkpt>
      <trkpt lat="43.2665" lon="-1.00224">
        <ele>107.2</ele>
        <time>2022-09-11T07:03:57Z</time>
      </trkpt>
      <trkpt lat="43.26652" lon="-1.00229">
        <ele>107.4</ele>
        <time>2022-09-11T07:03:58Z</time>
      </trkpt>
      <trkpt lat="43.26658" lon="-1.00263">
        <ele>107.8</ele>
        <time>2022-09-11T07:04:04Z</time>
      </trkpt>
      <trkpt lat="43.26659" lon="-1.00279">
        <ele>108.6</ele>
        <time>2022-09-11T07:04:07Z</time>
      </trkpt>
      <trkpt lat="43.26661" lon="-1.00318">
        <ele>108.6</ele>
        <time>2022-09-11T07:04:14Z</time>
      </trkpt>
      <trkpt lat="43.26657" lon="-1.00364">
        <ele>108.4</ele>
        <time>2022-09-11T07:04:21Z</time>
      </trkpt>
      <trkpt lat="43.26649" lon="-1.00402">
        <ele>107.4</ele>
        <time>2022-09-11T07:04:26Z</time>
      </trkpt>
      <trkpt lat="43.26646" lon="-1.00411">
        <ele>107.2</ele>
        <time>2022-09-11T07:04:27Z</time>
      </trkpt>
      <trkpt lat="43.26639" lon="-1.0044">
        <ele>106.4</ele>
        <time>2022-09-11T07:04:30Z</time>
      </trkpt>
      <trkpt lat="43.26633" lon="-1.00462">
        <ele>105</ele>
        <time>2022-09-11T07:04:32Z</time>
      </trkpt>
      <trkpt lat="43.26629" lon="-1.00486">
        <ele>103.8</ele>
        <time>2022-09-11T07:04:34Z</time>
      </trkpt>
      <trkpt lat="43.26625" lon="-1.00509">
        <ele>102.8</ele>
        <time>2022-09-11T07:04:36Z</time>
      </trkpt>
      <trkpt lat="43.26621" lon="-1.00534">
        <ele>102</ele>
        <time>2022-09-11T07:04:38Z</time>
      </trkpt>
      <trkpt lat="43.2662" lon="-1.00546">
        <ele>101.2</ele>
        <time>2022-09-11T07:04:39Z</time>
      </trkpt>
      <trkpt lat="43.26619" lon="-1.00585">
        <ele>99.8</ele>
        <time>2022-09-11T07:04:42Z</time>
      </trkpt>
      <trkpt lat="43.2662" lon="-1.00611">
        <ele>98.8</ele>
        <time>2022-09-11T07:04:44Z</time>
      </trkpt>
      <trkpt lat="43.26622" lon="-1.00623">
        <ele>98.2</ele>
        <time>2022-09-11T07:04:45Z</time>
      </trkpt>
      <trkpt lat="43.26632" lon="-1.00643">
        <ele>97.4</ele>
        <time>2022-09-11T07:04:47Z</time>
      </trkpt>
      <trkpt lat="43.26655" lon="-1.00659">
        <ele>97</ele>
        <time>2022-09-11T07:04:50Z</time>
      </trkpt>
      <trkpt lat="43.26684" lon="-1.00661">
        <ele>96.6</ele>
        <time>2022-09-11T07:04:53Z</time>
      </trkpt>
      <trkpt lat="43.26704" lon="-1.00656">
        <ele>96.2</ele>
        <time>2022-09-11T07:04:55Z</time>
      </trkpt>
      <trkpt lat="43.26728" lon="-1.0065">
        <ele>96.4</ele>
        <time>2022-09-11T07:04:58Z</time>
      </trkpt>
      <trkpt lat="43.26759" lon="-1.00642">
        <ele>96.2</ele>
        <time>2022-09-11T07:05:02Z</time>
      </trkpt>
      <trkpt lat="43.26765" lon="-1.00642">
        <ele>96.4</ele>
        <time>2022-09-11T07:05:03Z</time>
      </trkpt>
      <trkpt lat="43.26784" lon="-1.0065">
        <ele>96.8</ele>
        <time>2022-09-11T07:05:07Z</time>
      </trkpt>
      <trkpt lat="43.26793" lon="-1.00656">
        <ele>97.4</ele>
        <time>2022-09-11T07:05:09Z</time>
      </trkpt>
      <trkpt lat="43.26812" lon="-1.00668">
        <ele>98.8</ele>
        <time>2022-09-11T07:05:13Z</time>
      </trkpt>
      <trkpt lat="43.26817" lon="-1.0067">
        <ele>98.8</ele>
        <time>2022-09-11T07:05:14Z</time>
      </trkpt>
      <trkpt lat="43.26842" lon="-1.00675">
        <ele>98.6</ele>
        <time>2022-09-11T07:05:19Z</time>
      </trkpt>
      <trkpt lat="43.26873" lon="-1.00672">
        <ele>97.8</ele>
        <time>2022-09-11T07:05:24Z</time>
      </trkpt>
      <trkpt lat="43.26879" lon="-1.0067">
        <ele>97.6</ele>
        <time>2022-09-11T07:05:25Z</time>
      </trkpt>
      <trkpt lat="43.26912" lon="-1.0066">
        <ele>96.8</ele>
        <time>2022-09-11T07:05:30Z</time>
      </trkpt>
      <trkpt lat="43.26924" lon="-1.00655">
        <ele>96.4</ele>
        <time>2022-09-11T07:05:32Z</time>
      </trkpt>
      <trkpt lat="43.26968" lon="-1.0064">
        <ele>95.2</ele>
        <time>2022-09-11T07:05:39Z</time>
      </trkpt>
      <trkpt lat="43.26974" lon="-1.00637">
        <ele>95.2</ele>
        <time>2022-09-11T07:05:40Z</time>
      </trkpt>
      <trkpt lat="43.27024" lon="-1.00614">
        <ele>94.4</ele>
        <time>2022-09-11T07:05:48Z</time>
      </trkpt>
      <trkpt lat="43.27029" lon="-1.00611">
        <ele>94.2</ele>
        <time>2022-09-11T07:05:49Z</time>
      </trkpt>
      <trkpt lat="43.27067" lon="-1.00584">
        <ele>93.6</ele>
        <time>2022-09-11T07:05:56Z</time>
      </trkpt>
      <trkpt lat="43.27099" lon="-1.00561">
        <ele>93.2</ele>
        <time>2022-09-11T07:06:02Z</time>
      </trkpt>
      <trkpt lat="43.27105" lon="-1.00558">
        <ele>93</ele>
        <time>2022-09-11T07:06:03Z</time>
      </trkpt>
      <trkpt lat="43.27137" lon="-1.00542">
        <ele>93.2</ele>
        <time>2022-09-11T07:06:09Z</time>
      </trkpt>
      <trkpt lat="43.27146" lon="-1.00538">
        <ele>93.6</ele>
        <time>2022-09-11T07:06:11Z</time>
      </trkpt>
      <trkpt lat="43.27158" lon="-1.00538">
        <ele>94.4</ele>
        <time>2022-09-11T07:06:14Z</time>
      </trkpt>
      <trkpt lat="43.27172" lon="-1.00549">
        <ele>95.2</ele>
        <time>2022-09-11T07:06:18Z</time>
      </trkpt>
      <trkpt lat="43.27174" lon="-1.00553">
        <ele>95.4</ele>
        <time>2022-09-11T07:06:19Z</time>
      </trkpt>
      <trkpt lat="43.27183" lon="-1.00575">
        <ele>96.4</ele>
        <time>2022-09-11T07:06:24Z</time>
      </trkpt>
      <trkpt lat="43.27185" lon="-1.0058">
        <ele>96.4</ele>
        <time>2022-09-11T07:06:25Z</time>
      </trkpt>
      <trkpt lat="43.27198" lon="-1.0062">
        <ele>96.6</ele>
        <time>2022-09-11T07:06:33Z</time>
      </trkpt>
      <trkpt lat="43.27207" lon="-1.00665">
        <ele>96</ele>
        <time>2022-09-11T07:06:40Z</time>
      </trkpt>
      <trkpt lat="43.27208" lon="-1.00688">
        <ele>95.2</ele>
        <time>2022-09-11T07:06:43Z</time>
      </trkpt>
      <trkpt lat="43.27207" lon="-1.00715">
        <ele>94.6</ele>
        <time>2022-09-11T07:06:46Z</time>
      </trkpt>
      <trkpt lat="43.27205" lon="-1.00734">
        <ele>94.2</ele>
        <time>2022-09-11T07:06:48Z</time>
      </trkpt>
      <trkpt lat="43.27198" lon="-1.00763">
        <ele>93.2</ele>
        <time>2022-09-11T07:06:51Z</time>
      </trkpt>
      <trkpt lat="43.27195" lon="-1.00773">
        <ele>93</ele>
        <time>2022-09-11T07:06:52Z</time>
      </trkpt>
      <trkpt lat="43.27189" lon="-1.00823">
        <ele>92</ele>
        <time>2022-09-11T07:06:57Z</time>
      </trkpt>
      <trkpt lat="43.2719" lon="-1.00834">
        <ele>91.8</ele>
        <time>2022-09-11T07:06:58Z</time>
      </trkpt>
      <trkpt lat="43.27197" lon="-1.00861">
        <ele>91.6</ele>
        <time>2022-09-11T07:07:01Z</time>
      </trkpt>
      <trkpt lat="43.27209" lon="-1.00879">
        <ele>92</ele>
        <time>2022-09-11T07:07:04Z</time>
      </trkpt>
      <trkpt lat="43.27214" lon="-1.00885">
        <ele>92</ele>
        <time>2022-09-11T07:07:05Z</time>
      </trkpt>
      <trkpt lat="43.27218" lon="-1.0089">
        <ele>92</ele>
        <time>2022-09-11T07:07:06Z</time>
      </trkpt>
      <trkpt lat="43.27226" lon="-1.00911">
        <ele>92.4</ele>
        <time>2022-09-11T07:07:09Z</time>
      </trkpt>
      <trkpt lat="43.27226" lon="-1.0094">
        <ele>92.6</ele>
        <time>2022-09-11T07:07:13Z</time>
      </trkpt>
      <trkpt lat="43.27227" lon="-1.00953">
        <ele>93</ele>
        <time>2022-09-11T07:07:15Z</time>
      </trkpt>
      <trkpt lat="43.2723" lon="-1.00972">
        <ele>93.4</ele>
        <time>2022-09-11T07:07:18Z</time>
      </trkpt>
      <trkpt lat="43.27243" lon="-1.0101">
        <ele>93.6</ele>
        <time>2022-09-11T07:07:25Z</time>
      </trkpt>
      <trkpt lat="43.27251" lon="-1.01022">
        <ele>93.6</ele>
        <time>2022-09-11T07:07:28Z</time>
      </trkpt>
      <trkpt lat="43.27258" lon="-1.01028">
        <ele>93.6</ele>
        <time>2022-09-11T07:07:30Z</time>
      </trkpt>
      <trkpt lat="43.27262" lon="-1.01031">
        <ele>93.6</ele>
        <time>2022-09-11T07:07:31Z</time>
      </trkpt>
      <trkpt lat="43.27288" lon="-1.01044">
        <ele>93.4</ele>
        <time>2022-09-11T07:07:37Z</time>
      </trkpt>
      <trkpt lat="43.27322" lon="-1.01055">
        <ele>91.8</ele>
        <time>2022-09-11T07:07:43Z</time>
      </trkpt>
      <trkpt lat="43.27342" lon="-1.01062">
        <ele>90.8</ele>
        <time>2022-09-11T07:07:46Z</time>
      </trkpt>
      <trkpt lat="43.27363" lon="-1.01068">
        <ele>90.2</ele>
        <time>2022-09-11T07:07:49Z</time>
      </trkpt>
      <trkpt lat="43.27393" lon="-1.01074">
        <ele>90.4</ele>
        <time>2022-09-11T07:07:54Z</time>
      </trkpt>
      <trkpt lat="43.27433" lon="-1.01084">
        <ele>90.4</ele>
        <time>2022-09-11T07:08:01Z</time>
      </trkpt>
      <trkpt lat="43.2745" lon="-1.01093">
        <ele>89.8</ele>
        <time>2022-09-11T07:08:04Z</time>
      </trkpt>
      <trkpt lat="43.2746" lon="-1.01102">
        <ele>89.8</ele>
        <time>2022-09-11T07:08:06Z</time>
      </trkpt>
      <trkpt lat="43.27465" lon="-1.01107">
        <ele>89.6</ele>
        <time>2022-09-11T07:08:07Z</time>
      </trkpt>
      <trkpt lat="43.27484" lon="-1.0113">
        <ele>89.2</ele>
        <time>2022-09-11T07:08:11Z</time>
      </trkpt>
      <trkpt lat="43.27487" lon="-1.01136">
        <ele>89.2</ele>
        <time>2022-09-11T07:08:12Z</time>
      </trkpt>
      <trkpt lat="43.27497" lon="-1.01158">
        <ele>89</ele>
        <time>2022-09-11T07:08:15Z</time>
      </trkpt>
      <trkpt lat="43.275" lon="-1.01166">
        <ele>89</ele>
        <time>2022-09-11T07:08:16Z</time>
      </trkpt>
      <trkpt lat="43.27507" lon="-1.01198">
        <ele>88.8</ele>
        <time>2022-09-11T07:08:20Z</time>
      </trkpt>
      <trkpt lat="43.27508" lon="-1.01206">
        <ele>88.6</ele>
        <time>2022-09-11T07:08:21Z</time>
      </trkpt>
      <trkpt lat="43.27516" lon="-1.01253">
        <ele>88.4</ele>
        <time>2022-09-11T07:08:27Z</time>
      </trkpt>
      <trkpt lat="43.2752" lon="-1.01275">
        <ele>88.6</ele>
        <time>2022-09-11T07:08:30Z</time>
      </trkpt>
      <trkpt lat="43.27525" lon="-1.01288">
        <ele>88.6</ele>
        <time>2022-09-11T07:08:32Z</time>
      </trkpt>
      <trkpt lat="43.27535" lon="-1.01304">
        <ele>89.2</ele>
        <time>2022-09-11T07:08:35Z</time>
      </trkpt>
      <trkpt lat="43.27542" lon="-1.01312">
        <ele>89.8</ele>
        <time>2022-09-11T07:08:37Z</time>
      </trkpt>
      <trkpt lat="43.27559" lon="-1.01336">
        <ele>90.4</ele>
        <time>2022-09-11T07:08:43Z</time>
      </trkpt>
      <trkpt lat="43.27586" lon="-1.01375">
        <ele>90.6</ele>
        <time>2022-09-11T07:08:52Z</time>
      </trkpt>
      <trkpt lat="43.27608" lon="-1.01404">
        <ele>90.4</ele>
        <time>2022-09-11T07:08:58Z</time>
      </trkpt>
      <trkpt lat="43.27632" lon="-1.01437">
        <ele>90</ele>
        <time>2022-09-11T07:09:04Z</time>
      </trkpt>
      <trkpt lat="43.27656" lon="-1.01472">
        <ele>90</ele>
        <time>2022-09-11T07:09:10Z</time>
      </trkpt>
      <trkpt lat="43.27682" lon="-1.01518">
        <ele>90</ele>
        <time>2022-09-11T07:09:17Z</time>
      </trkpt>
      <trkpt lat="43.27684" lon="-1.01525">
        <ele>89.6</ele>
        <time>2022-09-11T07:09:18Z</time>
      </trkpt>
      <trkpt lat="43.27695" lon="-1.01558">
        <ele>88.6</ele>
        <time>2022-09-11T07:09:22Z</time>
      </trkpt>
      <trkpt lat="43.27705" lon="-1.01609">
        <ele>87.6</ele>
        <time>2022-09-11T07:09:28Z</time>
      </trkpt>
      <trkpt lat="43.27709" lon="-1.01626">
        <ele>87.6</ele>
        <time>2022-09-11T07:09:30Z</time>
      </trkpt>
      <trkpt lat="43.27718" lon="-1.01679">
        <ele>87</ele>
        <time>2022-09-11T07:09:36Z</time>
      </trkpt>
      <trkpt lat="43.27724" lon="-1.01713">
        <ele>86.6</ele>
        <time>2022-09-11T07:09:40Z</time>
      </trkpt>
      <trkpt lat="43.27726" lon="-1.01721">
        <ele>86.6</ele>
        <time>2022-09-11T07:09:41Z</time>
      </trkpt>
      <trkpt lat="43.27728" lon="-1.0173">
        <ele>86.4</ele>
        <time>2022-09-11T07:09:42Z</time>
      </trkpt>
      <trkpt lat="43.27741" lon="-1.01769">
        <ele>86.6</ele>
        <time>2022-09-11T07:09:47Z</time>
      </trkpt>
      <trkpt lat="43.27764" lon="-1.01811">
        <ele>85.8</ele>
        <time>2022-09-11T07:09:53Z</time>
      </trkpt>
      <trkpt lat="43.27791" lon="-1.01842">
        <ele>85.4</ele>
        <time>2022-09-11T07:09:59Z</time>
      </trkpt>
      <trkpt lat="43.27796" lon="-1.01847">
        <ele>85.4</ele>
        <time>2022-09-11T07:10:00Z</time>
      </trkpt>
      <trkpt lat="43.27822" lon="-1.01862">
        <ele>85.2</ele>
        <time>2022-09-11T07:10:05Z</time>
      </trkpt>
      <trkpt lat="43.2784" lon="-1.01873">
        <ele>85.6</ele>
        <time>2022-09-11T07:10:09Z</time>
      </trkpt>
      <trkpt lat="43.27844" lon="-1.01877">
        <ele>85.6</ele>
        <time>2022-09-11T07:10:10Z</time>
      </trkpt>
      <trkpt lat="43.27858" lon="-1.019">
        <ele>86.2</ele>
        <time>2022-09-11T07:10:15Z</time>
      </trkpt>
      <trkpt lat="43.27859" lon="-1.01905">
        <ele>86.4</ele>
        <time>2022-09-11T07:10:16Z</time>
      </trkpt>
      <trkpt lat="43.27863" lon="-1.01918">
        <ele>86.8</ele>
        <time>2022-09-11T07:10:20Z</time>
      </trkpt>
      <trkpt lat="43.27865" lon="-1.01923">
        <ele>86.6</ele>
        <time>2022-09-11T07:10:23Z</time>
      </trkpt>
      <trkpt lat="43.27867" lon="-1.01926">
        <ele>86.6</ele>
        <time>2022-09-11T07:10:26Z</time>
      </trkpt>
      <trkpt lat="43.27865" lon="-1.01932">
        <ele>86.4</ele>
        <time>2022-09-11T07:10:29Z</time>
      </trkpt>
      <trkpt lat="43.27864" lon="-1.01931">
        <ele>86.4</ele>
        <time>2022-09-11T07:10:30Z</time>
      </trkpt>
      <trkpt lat="43.27862" lon="-1.01923">
        <ele>86.6</ele>
        <time>2022-09-11T07:10:34Z</time>
      </trkpt>
      <trkpt lat="43.2786" lon="-1.01917">
        <ele>86.8</ele>
        <time>2022-09-11T07:10:37Z</time>
      </trkpt>
      <trkpt lat="43.27861" lon="-1.01923">
        <ele>87</ele>
        <time>2022-09-11T07:10:59Z</time>
      </trkpt>
      <trkpt lat="43.27864" lon="-1.01929">
        <ele>86.8</ele>
        <time>2022-09-11T07:11:01Z</time>
      </trkpt>
      <trkpt lat="43.27872" lon="-1.01956">
        <ele>86.4</ele>
        <time>2022-09-11T07:11:08Z</time>
      </trkpt>
      <trkpt lat="43.2788" lon="-1.01978">
        <ele>86.4</ele>
        <time>2022-09-11T07:11:14Z</time>
      </trkpt>
      <trkpt lat="43.27884" lon="-1.01988">
        <ele>86</ele>
        <time>2022-09-11T07:11:36Z</time>
      </trkpt>
      <trkpt lat="43.27887" lon="-1.01996">
        <ele>86</ele>
        <time>2022-09-11T07:11:38Z</time>
      </trkpt>
      <trkpt lat="43.27888" lon="-1.02023">
        <ele>85.4</ele>
        <time>2022-09-11T07:11:44Z</time>
      </trkpt>
      <trkpt lat="43.27887" lon="-1.0205">
        <ele>85.6</ele>
        <time>2022-09-11T07:11:50Z</time>
      </trkpt>
      <trkpt lat="43.27884" lon="-1.0207">
        <ele>85.6</ele>
        <time>2022-09-11T07:11:56Z</time>
      </trkpt>
      <trkpt lat="43.27883" lon="-1.02094">
        <ele>86.2</ele>
        <time>2022-09-11T07:12:04Z</time>
      </trkpt>
      <trkpt lat="43.27883" lon="-1.02102">
        <ele>86.4</ele>
        <time>2022-09-11T07:12:07Z</time>
      </trkpt>
      <trkpt lat="43.27884" lon="-1.02118">
        <ele>87</ele>
        <time>2022-09-11T07:12:12Z</time>
      </trkpt>
      <trkpt lat="43.27886" lon="-1.0213">
        <ele>87.4</ele>
        <time>2022-09-11T07:12:16Z</time>
      </trkpt>
      <trkpt lat="43.27888" lon="-1.02138">
        <ele>88</ele>
        <time>2022-09-11T07:12:19Z</time>
      </trkpt>
      <trkpt lat="43.27891" lon="-1.02144">
        <ele>88.6</ele>
        <time>2022-09-11T07:12:22Z</time>
      </trkpt>
      <trkpt lat="43.27895" lon="-1.0215">
        <ele>89.2</ele>
        <time>2022-09-11T07:12:26Z</time>
      </trkpt>
      <trkpt lat="43.27897" lon="-1.02153">
        <ele>89.4</ele>
        <time>2022-09-11T07:12:28Z</time>
      </trkpt>
      <trkpt lat="43.27898" lon="-1.02154">
        <ele>89.8</ele>
        <time>2022-09-11T07:12:29Z</time>
      </trkpt>
      <trkpt lat="43.27905" lon="-1.02155">
        <ele>90.4</ele>
        <time>2022-09-11T07:12:33Z</time>
      </trkpt>
      <trkpt lat="43.27915" lon="-1.02149">
        <ele>90.6</ele>
        <time>2022-09-11T07:12:39Z</time>
      </trkpt>
      <trkpt lat="43.27925" lon="-1.02144">
        <ele>90.8</ele>
        <time>2022-09-11T07:12:43Z</time>
      </trkpt>
      <trkpt lat="43.27934" lon="-1.02138">
        <ele>90.8</ele>
        <time>2022-09-11T07:12:47Z</time>
      </trkpt>
      <trkpt lat="43.27958" lon="-1.02122">
        <ele>91.2</ele>
        <time>2022-09-11T07:12:56Z</time>
      </trkpt>
      <trkpt lat="43.27983" lon="-1.02104">
        <ele>91.4</ele>
        <time>2022-09-11T07:13:05Z</time>
      </trkpt>
      <trkpt lat="43.28005" lon="-1.02089">
        <ele>91.6</ele>
        <time>2022-09-11T07:13:13Z</time>
      </trkpt>
      <trkpt lat="43.28023" lon="-1.02079">
        <ele>91.8</ele>
        <time>2022-09-11T07:13:19Z</time>
      </trkpt>
      <trkpt lat="43.28025" lon="-1.02077">
        <ele>91.8</ele>
        <time>2022-09-11T07:13:20Z</time>
      </trkpt>
      <trkpt lat="43.2804" lon="-1.02061">
        <ele>93</ele>
        <time>2022-09-11T07:13:27Z</time>
      </trkpt>
      <trkpt lat="43.28049" lon="-1.02054">
        <ele>94</ele>
        <time>2022-09-11T07:13:32Z</time>
      </trkpt>
      <trkpt lat="43.28054" lon="-1.0205">
        <ele>94.4</ele>
        <time>2022-09-11T07:13:35Z</time>
      </trkpt>
      <trkpt lat="43.28061" lon="-1.02045">
        <ele>95.2</ele>
        <time>2022-09-11T07:13:39Z</time>
      </trkpt>
      <trkpt lat="43.28069" lon="-1.02038">
        <ele>96</ele>
        <time>2022-09-11T07:13:44Z</time>
      </trkpt>
      <trkpt lat="43.2807" lon="-1.02037">
        <ele>96.2</ele>
        <time>2022-09-11T07:13:45Z</time>
      </trkpt>
      <trkpt lat="43.28078" lon="-1.02031">
        <ele>97.4</ele>
        <time>2022-09-11T07:13:50Z</time>
      </trkpt>
      <trkpt lat="43.28082" lon="-1.02027">
        <ele>97.8</ele>
        <time>2022-09-11T07:13:53Z</time>
      </trkpt>
      <trkpt lat="43.28087" lon="-1.02023">
        <ele>98.6</ele>
        <time>2022-09-11T07:13:57Z</time>
      </trkpt>
      <trkpt lat="43.28091" lon="-1.02019">
        <ele>99</ele>
        <time>2022-09-11T07:14:00Z</time>
      </trkpt>
      <trkpt lat="43.28094" lon="-1.02016">
        <ele>99.6</ele>
        <time>2022-09-11T07:14:03Z</time>
      </trkpt>
      <trkpt lat="43.28099" lon="-1.02011">
        <ele>100.2</ele>
        <time>2022-09-11T07:14:07Z</time>
      </trkpt>
      <trkpt lat="43.281" lon="-1.0201">
        <ele>100.6</ele>
        <time>2022-09-11T07:14:08Z</time>
      </trkpt>
      <trkpt lat="43.28108" lon="-1.02004">
        <ele>101.6</ele>
        <time>2022-09-11T07:14:14Z</time>
      </trkpt>
      <trkpt lat="43.28109" lon="-1.02003">
        <ele>101.8</ele>
        <time>2022-09-11T07:14:15Z</time>
      </trkpt>
      <trkpt lat="43.28117" lon="-1.01996">
        <ele>102.8</ele>
        <time>2022-09-11T07:14:21Z</time>
      </trkpt>
      <trkpt lat="43.28118" lon="-1.01995">
        <ele>102.8</ele>
        <time>2022-09-11T07:14:22Z</time>
      </trkpt>
      <trkpt lat="43.28125" lon="-1.01989">
        <ele>103.8</ele>
        <time>2022-09-11T07:14:28Z</time>
      </trkpt>
      <trkpt lat="43.2813" lon="-1.01987">
        <ele>104.4</ele>
        <time>2022-09-11T07:14:31Z</time>
      </trkpt>
      <trkpt lat="43.28133" lon="-1.01985">
        <ele>104.8</ele>
        <time>2022-09-11T07:14:33Z</time>
      </trkpt>
      <trkpt lat="43.28138" lon="-1.01981">
        <ele>105.8</ele>
        <time>2022-09-11T07:14:38Z</time>
      </trkpt>
      <trkpt lat="43.28139" lon="-1.0198">
        <ele>105.8</ele>
        <time>2022-09-11T07:14:39Z</time>
      </trkpt>
      <trkpt lat="43.28141" lon="-1.01979">
        <ele>106</ele>
        <time>2022-09-11T07:14:40Z</time>
      </trkpt>
      <trkpt lat="43.28144" lon="-1.01975">
        <ele>106.4</ele>
        <time>2022-09-11T07:14:43Z</time>
      </trkpt>
      <trkpt lat="43.28149" lon="-1.01974">
        <ele>107</ele>
        <time>2022-09-11T07:14:46Z</time>
      </trkpt>
      <trkpt lat="43.28153" lon="-1.0197">
        <ele>107.4</ele>
        <time>2022-09-11T07:14:49Z</time>
      </trkpt>
      <trkpt lat="43.28158" lon="-1.01964">
        <ele>108</ele>
        <time>2022-09-11T07:14:53Z</time>
      </trkpt>
      <trkpt lat="43.28162" lon="-1.01964">
        <ele>108.8</ele>
        <time>2022-09-11T07:14:56Z</time>
      </trkpt>
      <trkpt lat="43.28164" lon="-1.0196">
        <ele>109</ele>
        <time>2022-09-11T07:14:58Z</time>
      </trkpt>
      <trkpt lat="43.28165" lon="-1.01958">
        <ele>109.2</ele>
        <time>2022-09-11T07:14:59Z</time>
      </trkpt>
      <trkpt lat="43.28167" lon="-1.01956">
        <ele>109.4</ele>
        <time>2022-09-11T07:15:01Z</time>
      </trkpt>
      <trkpt lat="43.28174" lon="-1.01954">
        <ele>110.2</ele>
        <time>2022-09-11T07:15:06Z</time>
      </trkpt>
      <trkpt lat="43.28175" lon="-1.01953">
        <ele>110.4</ele>
        <time>2022-09-11T07:15:07Z</time>
      </trkpt>
      <trkpt lat="43.28176" lon="-1.0195">
        <ele>110.6</ele>
        <time>2022-09-11T07:15:08Z</time>
      </trkpt>
      <trkpt lat="43.28181" lon="-1.01944">
        <ele>111.2</ele>
        <time>2022-09-11T07:15:12Z</time>
      </trkpt>
      <trkpt lat="43.28182" lon="-1.01944">
        <ele>111.2</ele>
        <time>2022-09-11T07:15:13Z</time>
      </trkpt>
      <trkpt lat="43.28188" lon="-1.01938">
        <ele>112.2</ele>
        <time>2022-09-11T07:15:18Z</time>
      </trkpt>
      <trkpt lat="43.2819" lon="-1.01936">
        <ele>112.4</ele>
        <time>2022-09-11T07:15:19Z</time>
      </trkpt>
      <trkpt lat="43.28195" lon="-1.01934">
        <ele>113.2</ele>
        <time>2022-09-11T07:15:23Z</time>
      </trkpt>
      <trkpt lat="43.28198" lon="-1.01932">
        <ele>113.6</ele>
        <time>2022-09-11T07:15:25Z</time>
      </trkpt>
      <trkpt lat="43.28207" lon="-1.0193">
        <ele>114.2</ele>
        <time>2022-09-11T07:15:31Z</time>
      </trkpt>
      <trkpt lat="43.28212" lon="-1.01931">
        <ele>114.8</ele>
        <time>2022-09-11T07:15:34Z</time>
      </trkpt>
      <trkpt lat="43.28218" lon="-1.01936">
        <ele>115</ele>
        <time>2022-09-11T07:15:38Z</time>
      </trkpt>
      <trkpt lat="43.28228" lon="-1.01951">
        <ele>115.6</ele>
        <time>2022-09-11T07:15:46Z</time>
      </trkpt>
      <trkpt lat="43.2823" lon="-1.01956">
        <ele>115.8</ele>
        <time>2022-09-11T07:15:48Z</time>
      </trkpt>
      <trkpt lat="43.28232" lon="-1.0197">
        <ele>116.4</ele>
        <time>2022-09-11T07:15:53Z</time>
      </trkpt>
      <trkpt lat="43.28232" lon="-1.01989">
        <ele>116.8</ele>
        <time>2022-09-11T07:15:59Z</time>
      </trkpt>
      <trkpt lat="43.28231" lon="-1.01995">
        <ele>117</ele>
        <time>2022-09-11T07:16:01Z</time>
      </trkpt>
      <trkpt lat="43.28226" lon="-1.02016">
        <ele>117.8</ele>
        <time>2022-09-11T07:16:08Z</time>
      </trkpt>
      <trkpt lat="43.28225" lon="-1.02023">
        <ele>118.2</ele>
        <time>2022-09-11T07:16:10Z</time>
      </trkpt>
      <trkpt lat="43.28224" lon="-1.02046">
        <ele>118.8</ele>
        <time>2022-09-11T07:16:16Z</time>
      </trkpt>
      <trkpt lat="43.28233" lon="-1.02071">
        <ele>118.8</ele>
        <time>2022-09-11T07:16:23Z</time>
      </trkpt>
      <trkpt lat="43.28249" lon="-1.02098">
        <ele>118.4</ele>
        <time>2022-09-11T07:16:31Z</time>
      </trkpt>
      <trkpt lat="43.28271" lon="-1.02124">
        <ele>117.6</ele>
        <time>2022-09-11T07:16:38Z</time>
      </trkpt>
      <trkpt lat="43.28301" lon="-1.02147">
        <ele>117</ele>
        <time>2022-09-11T07:16:45Z</time>
      </trkpt>
      <trkpt lat="43.28306" lon="-1.02149">
        <ele>116.8</ele>
        <time>2022-09-11T07:16:46Z</time>
      </trkpt>
      <trkpt lat="43.28345" lon="-1.02166">
        <ele>116.2</ele>
        <time>2022-09-11T07:16:54Z</time>
      </trkpt>
      <trkpt lat="43.28364" lon="-1.02175">
        <ele>115.8</ele>
        <time>2022-09-11T07:16:58Z</time>
      </trkpt>
      <trkpt lat="43.2838" lon="-1.02182">
        <ele>115.4</ele>
        <time>2022-09-11T07:17:01Z</time>
      </trkpt>
      <trkpt lat="43.28403" lon="-1.02192">
        <ele>114.6</ele>
        <time>2022-09-11T07:17:05Z</time>
      </trkpt>
      <trkpt lat="43.28423" lon="-1.02201">
        <ele>113.4</ele>
        <time>2022-09-11T07:17:08Z</time>
      </trkpt>
      <trkpt lat="43.28453" lon="-1.02212">
        <ele>112.2</ele>
        <time>2022-09-11T07:17:12Z</time>
      </trkpt>
      <trkpt lat="43.28477" lon="-1.02222">
        <ele>111.2</ele>
        <time>2022-09-11T07:17:15Z</time>
      </trkpt>
      <trkpt lat="43.28502" lon="-1.02232">
        <ele>109.6</ele>
        <time>2022-09-11T07:17:18Z</time>
      </trkpt>
      <trkpt lat="43.28525" lon="-1.02244">
        <ele>108.4</ele>
        <time>2022-09-11T07:17:21Z</time>
      </trkpt>
      <trkpt lat="43.28576" lon="-1.02269">
        <ele>107.4</ele>
        <time>2022-09-11T07:17:28Z</time>
      </trkpt>
      <trkpt lat="43.28591" lon="-1.02275">
        <ele>106.8</ele>
        <time>2022-09-11T07:17:30Z</time>
      </trkpt>
      <trkpt lat="43.28608" lon="-1.02276">
        <ele>106</ele>
        <time>2022-09-11T07:17:32Z</time>
      </trkpt>
      <trkpt lat="43.28627" lon="-1.02275">
        <ele>104.8</ele>
        <time>2022-09-11T07:17:34Z</time>
      </trkpt>
      <trkpt lat="43.28647" lon="-1.0227">
        <ele>103.6</ele>
        <time>2022-09-11T07:17:36Z</time>
      </trkpt>
      <trkpt lat="43.28666" lon="-1.0226">
        <ele>102.2</ele>
        <time>2022-09-11T07:17:38Z</time>
      </trkpt>
      <trkpt lat="43.28687" lon="-1.02253">
        <ele>101.2</ele>
        <time>2022-09-11T07:17:40Z</time>
      </trkpt>
      <trkpt lat="43.28709" lon="-1.02252">
        <ele>100</ele>
        <time>2022-09-11T07:17:42Z</time>
      </trkpt>
      <trkpt lat="43.2872" lon="-1.02253">
        <ele>99</ele>
        <time>2022-09-11T07:17:43Z</time>
      </trkpt>
      <trkpt lat="43.28732" lon="-1.02256">
        <ele>97.4</ele>
        <time>2022-09-11T07:17:44Z</time>
      </trkpt>
      <trkpt lat="43.28743" lon="-1.02261">
        <ele>96.2</ele>
        <time>2022-09-11T07:17:45Z</time>
      </trkpt>
      <trkpt lat="43.28754" lon="-1.02267">
        <ele>95.4</ele>
        <time>2022-09-11T07:17:46Z</time>
      </trkpt>
      <trkpt lat="43.28764" lon="-1.02276">
        <ele>94.2</ele>
        <time>2022-09-11T07:17:47Z</time>
      </trkpt>
      <trkpt lat="43.28781" lon="-1.02299">
        <ele>92.6</ele>
        <time>2022-09-11T07:17:49Z</time>
      </trkpt>
      <trkpt lat="43.28795" lon="-1.02323">
        <ele>91.8</ele>
        <time>2022-09-11T07:17:51Z</time>
      </trkpt>
      <trkpt lat="43.28808" lon="-1.02345">
        <ele>91.4</ele>
        <time>2022-09-11T07:17:53Z</time>
      </trkpt>
      <trkpt lat="43.28843" lon="-1.02405">
        <ele>91</ele>
        <time>2022-09-11T07:17:59Z</time>
      </trkpt>
      <trkpt lat="43.28879" lon="-1.02466">
        <ele>90.4</ele>
        <time>2022-09-11T07:18:06Z</time>
      </trkpt>
      <trkpt lat="43.28899" lon="-1.02497">
        <ele>91.8</ele>
        <time>2022-09-11T07:18:11Z</time>
      </trkpt>
      <trkpt lat="43.28904" lon="-1.02506">
        <ele>92.6</ele>
        <time>2022-09-11T07:18:13Z</time>
      </trkpt>
      <trkpt lat="43.2891" lon="-1.02516">
        <ele>93.6</ele>
        <time>2022-09-11T07:18:16Z</time>
      </trkpt>
      <trkpt lat="43.28912" lon="-1.02519">
        <ele>93.8</ele>
        <time>2022-09-11T07:18:17Z</time>
      </trkpt>
      <trkpt lat="43.28921" lon="-1.02534">
        <ele>95</ele>
        <time>2022-09-11T07:18:23Z</time>
      </trkpt>
      <trkpt lat="43.28923" lon="-1.02536">
        <ele>95.2</ele>
        <time>2022-09-11T07:18:24Z</time>
      </trkpt>
      <trkpt lat="43.28929" lon="-1.02548">
        <ele>96.2</ele>
        <time>2022-09-11T07:18:29Z</time>
      </trkpt>
      <trkpt lat="43.28932" lon="-1.02552">
        <ele>96.4</ele>
        <time>2022-09-11T07:18:31Z</time>
      </trkpt>
      <trkpt lat="43.28934" lon="-1.02556">
        <ele>96.8</ele>
        <time>2022-09-11T07:18:33Z</time>
      </trkpt>
      <trkpt lat="43.28936" lon="-1.0256">
        <ele>97.4</ele>
        <time>2022-09-11T07:18:35Z</time>
      </trkpt>
      <trkpt lat="43.28943" lon="-1.02572">
        <ele>98.4</ele>
        <time>2022-09-11T07:18:41Z</time>
      </trkpt>
      <trkpt lat="43.2895" lon="-1.02585">
        <ele>99.6</ele>
        <time>2022-09-11T07:18:48Z</time>
      </trkpt>
      <trkpt lat="43.28953" lon="-1.02588">
        <ele>99.8</ele>
        <time>2022-09-11T07:18:50Z</time>
      </trkpt>
      <trkpt lat="43.28958" lon="-1.02598">
        <ele>100.6</ele>
        <time>2022-09-11T07:18:55Z</time>
      </trkpt>
      <trkpt lat="43.28961" lon="-1.02603">
        <ele>101.2</ele>
        <time>2022-09-11T07:18:58Z</time>
      </trkpt>
      <trkpt lat="43.28964" lon="-1.02608">
        <ele>101.8</ele>
        <time>2022-09-11T07:19:01Z</time>
      </trkpt>
      <trkpt lat="43.28973" lon="-1.02624">
        <ele>102.6</ele>
        <time>2022-09-11T07:19:09Z</time>
      </trkpt>
      <trkpt lat="43.28974" lon="-1.02626">
        <ele>102.8</ele>
        <time>2022-09-11T07:19:10Z</time>
      </trkpt>
      <trkpt lat="43.28983" lon="-1.02638">
        <ele>103.6</ele>
        <time>2022-09-11T07:19:16Z</time>
      </trkpt>
      <trkpt lat="43.28984" lon="-1.0264">
        <ele>103.8</ele>
        <time>2022-09-11T07:19:17Z</time>
      </trkpt>
      <trkpt lat="43.28991" lon="-1.02651">
        <ele>104.8</ele>
        <time>2022-09-11T07:19:23Z</time>
      </trkpt>
      <trkpt lat="43.28992" lon="-1.02653">
        <ele>105</ele>
        <time>2022-09-11T07:19:24Z</time>
      </trkpt>
      <trkpt lat="43.29001" lon="-1.02666">
        <ele>105.8</ele>
        <time>2022-09-11T07:19:31Z</time>
      </trkpt>
      <trkpt lat="43.29002" lon="-1.02668">
        <ele>106</ele>
        <time>2022-09-11T07:19:32Z</time>
      </trkpt>
      <trkpt lat="43.29011" lon="-1.02683">
        <ele>107</ele>
        <time>2022-09-11T07:19:39Z</time>
      </trkpt>
      <trkpt lat="43.29018" lon="-1.02695">
        <ele>108</ele>
        <time>2022-09-11T07:19:45Z</time>
      </trkpt>
      <trkpt lat="43.29019" lon="-1.02697">
        <ele>108.2</ele>
        <time>2022-09-11T07:19:46Z</time>
      </trkpt>
      <trkpt lat="43.29027" lon="-1.0271">
        <ele>109.2</ele>
        <time>2022-09-11T07:19:52Z</time>
      </trkpt>
      <trkpt lat="43.2903" lon="-1.02717">
        <ele>109.6</ele>
        <time>2022-09-11T07:19:55Z</time>
      </trkpt>
      <trkpt lat="43.29034" lon="-1.02723">
        <ele>110.2</ele>
        <time>2022-09-11T07:19:58Z</time>
      </trkpt>
      <trkpt lat="43.29035" lon="-1.02728">
        <ele>110.4</ele>
        <time>2022-09-11T07:20:00Z</time>
      </trkpt>
      <trkpt lat="43.29036" lon="-1.02732">
        <ele>110.6</ele>
        <time>2022-09-11T07:20:02Z</time>
      </trkpt>
      <trkpt lat="43.2904" lon="-1.02738">
        <ele>111.2</ele>
        <time>2022-09-11T07:20:05Z</time>
      </trkpt>
      <trkpt lat="43.29042" lon="-1.0274">
        <ele>111.4</ele>
        <time>2022-09-11T07:20:06Z</time>
      </trkpt>
      <trkpt lat="43.29045" lon="-1.02747">
        <ele>111.8</ele>
        <time>2022-09-11T07:20:09Z</time>
      </trkpt>
      <trkpt lat="43.29047" lon="-1.02751">
        <ele>112.4</ele>
        <time>2022-09-11T07:20:11Z</time>
      </trkpt>
      <trkpt lat="43.29049" lon="-1.02754">
        <ele>112.4</ele>
        <time>2022-09-11T07:20:12Z</time>
      </trkpt>
      <trkpt lat="43.29051" lon="-1.02758">
        <ele>112.6</ele>
        <time>2022-09-11T07:20:14Z</time>
      </trkpt>
      <trkpt lat="43.29056" lon="-1.02772">
        <ele>113.6</ele>
        <time>2022-09-11T07:20:20Z</time>
      </trkpt>
      <trkpt lat="43.29062" lon="-1.02791">
        <ele>114.6</ele>
        <time>2022-09-11T07:20:27Z</time>
      </trkpt>
      <trkpt lat="43.29063" lon="-1.02794">
        <ele>114.6</ele>
        <time>2022-09-11T07:20:28Z</time>
      </trkpt>
      <trkpt lat="43.29069" lon="-1.0281">
        <ele>115.4</ele>
        <time>2022-09-11T07:20:34Z</time>
      </trkpt>
      <trkpt lat="43.29077" lon="-1.02828">
        <ele>115.6</ele>
        <time>2022-09-11T07:20:41Z</time>
      </trkpt>
      <trkpt lat="43.29078" lon="-1.02831">
        <ele>115.6</ele>
        <time>2022-09-11T07:20:42Z</time>
      </trkpt>
      <trkpt lat="43.29089" lon="-1.02851">
        <ele>116</ele>
        <time>2022-09-11T07:20:49Z</time>
      </trkpt>
      <trkpt lat="43.29105" lon="-1.0287">
        <ele>116.4</ele>
        <time>2022-09-11T07:20:57Z</time>
      </trkpt>
      <trkpt lat="43.29119" lon="-1.02881">
        <ele>116.8</ele>
        <time>2022-09-11T07:21:02Z</time>
      </trkpt>
      <trkpt lat="43.29127" lon="-1.02887">
        <ele>116.8</ele>
        <time>2022-09-11T07:21:05Z</time>
      </trkpt>
      <trkpt lat="43.29152" lon="-1.02906">
        <ele>117.2</ele>
        <time>2022-09-11T07:21:14Z</time>
      </trkpt>
      <trkpt lat="43.29175" lon="-1.02928">
        <ele>117</ele>
        <time>2022-09-11T07:21:22Z</time>
      </trkpt>
      <trkpt lat="43.29195" lon="-1.02958">
        <ele>116.6</ele>
        <time>2022-09-11T07:21:29Z</time>
      </trkpt>
      <trkpt lat="43.29223" lon="-1.03002">
        <ele>116.2</ele>
        <time>2022-09-11T07:21:39Z</time>
      </trkpt>
      <trkpt lat="43.29244" lon="-1.03036">
        <ele>116</ele>
        <time>2022-09-11T07:21:48Z</time>
      </trkpt>
      <trkpt lat="43.29264" lon="-1.03069">
        <ele>117</ele>
        <time>2022-09-11T07:21:57Z</time>
      </trkpt>
      <trkpt lat="43.29276" lon="-1.03089">
        <ele>117.8</ele>
        <time>2022-09-11T07:22:03Z</time>
      </trkpt>
      <trkpt lat="43.29283" lon="-1.03102">
        <ele>118.4</ele>
        <time>2022-09-11T07:22:07Z</time>
      </trkpt>
      <trkpt lat="43.29285" lon="-1.03105">
        <ele>119</ele>
        <time>2022-09-11T07:22:08Z</time>
      </trkpt>
      <trkpt lat="43.29296" lon="-1.03122">
        <ele>120.2</ele>
        <time>2022-09-11T07:22:14Z</time>
      </trkpt>
      <trkpt lat="43.29299" lon="-1.03127">
        <ele>120.6</ele>
        <time>2022-09-11T07:22:16Z</time>
      </trkpt>
      <trkpt lat="43.29306" lon="-1.03138">
        <ele>121.2</ele>
        <time>2022-09-11T07:22:20Z</time>
      </trkpt>
      <trkpt lat="43.29311" lon="-1.03147">
        <ele>121.8</ele>
        <time>2022-09-11T07:22:23Z</time>
      </trkpt>
      <trkpt lat="43.29318" lon="-1.03158">
        <ele>122.4</ele>
        <time>2022-09-11T07:22:27Z</time>
      </trkpt>
      <trkpt lat="43.29323" lon="-1.03166">
        <ele>123</ele>
        <time>2022-09-11T07:22:30Z</time>
      </trkpt>
      <trkpt lat="43.29326" lon="-1.03171">
        <ele>123.4</ele>
        <time>2022-09-11T07:22:32Z</time>
      </trkpt>
      <trkpt lat="43.29336" lon="-1.03185">
        <ele>124.2</ele>
        <time>2022-09-11T07:22:38Z</time>
      </trkpt>
      <trkpt lat="43.29341" lon="-1.03193">
        <ele>124.4</ele>
        <time>2022-09-11T07:22:41Z</time>
      </trkpt>
      <trkpt lat="43.29347" lon="-1.03201">
        <ele>124.8</ele>
        <time>2022-09-11T07:22:44Z</time>
      </trkpt>
      <trkpt lat="43.29349" lon="-1.03204">
        <ele>125</ele>
        <time>2022-09-11T07:22:45Z</time>
      </trkpt>
      <trkpt lat="43.29366" lon="-1.03223">
        <ele>125.6</ele>
        <time>2022-09-11T07:22:53Z</time>
      </trkpt>
      <trkpt lat="43.29387" lon="-1.03241">
        <ele>126.2</ele>
        <time>2022-09-11T07:23:01Z</time>
      </trkpt>
      <trkpt lat="43.29402" lon="-1.03249">
        <ele>126.6</ele>
        <time>2022-09-11T07:23:06Z</time>
      </trkpt>
      <trkpt lat="43.29411" lon="-1.03255">
        <ele>126.6</ele>
        <time>2022-09-11T07:23:09Z</time>
      </trkpt>
      <trkpt lat="43.29438" lon="-1.0327">
        <ele>127</ele>
        <time>2022-09-11T07:23:17Z</time>
      </trkpt>
      <trkpt lat="43.29469" lon="-1.03288">
        <ele>127.2</ele>
        <time>2022-09-11T07:23:26Z</time>
      </trkpt>
      <trkpt lat="43.29493" lon="-1.03301">
        <ele>127.6</ele>
        <time>2022-09-11T07:23:33Z</time>
      </trkpt>
      <trkpt lat="43.29496" lon="-1.03304">
        <ele>127.6</ele>
        <time>2022-09-11T07:23:34Z</time>
      </trkpt>
      <trkpt lat="43.2952" lon="-1.03317">
        <ele>128</ele>
        <time>2022-09-11T07:23:41Z</time>
      </trkpt>
      <trkpt lat="43.29533" lon="-1.03324">
        <ele>128.6</ele>
        <time>2022-09-11T07:23:45Z</time>
      </trkpt>
      <trkpt lat="43.29546" lon="-1.03331">
        <ele>129.2</ele>
        <time>2022-09-11T07:23:49Z</time>
      </trkpt>
      <trkpt lat="43.29558" lon="-1.03337">
        <ele>129.6</ele>
        <time>2022-09-11T07:23:53Z</time>
      </trkpt>
      <trkpt lat="43.29572" lon="-1.03345">
        <ele>130.4</ele>
        <time>2022-09-11T07:23:58Z</time>
      </trkpt>
      <trkpt lat="43.29577" lon="-1.03348">
        <ele>130.6</ele>
        <time>2022-09-11T07:24:00Z</time>
      </trkpt>
      <trkpt lat="43.29592" lon="-1.03357">
        <ele>131.4</ele>
        <time>2022-09-11T07:24:06Z</time>
      </trkpt>
      <trkpt lat="43.29597" lon="-1.03359">
        <ele>131.8</ele>
        <time>2022-09-11T07:24:08Z</time>
      </trkpt>
      <trkpt lat="43.29611" lon="-1.03368">
        <ele>132.8</ele>
        <time>2022-09-11T07:24:14Z</time>
      </trkpt>
      <trkpt lat="43.29624" lon="-1.03376">
        <ele>133.6</ele>
        <time>2022-09-11T07:24:20Z</time>
      </trkpt>
      <trkpt lat="43.29628" lon="-1.03379">
        <ele>133.8</ele>
        <time>2022-09-11T07:24:22Z</time>
      </trkpt>
      <trkpt lat="43.29644" lon="-1.03387">
        <ele>134.6</ele>
        <time>2022-09-11T07:24:29Z</time>
      </trkpt>
      <trkpt lat="43.29646" lon="-1.03388">
        <ele>134.8</ele>
        <time>2022-09-11T07:24:30Z</time>
      </trkpt>
      <trkpt lat="43.2966" lon="-1.03398">
        <ele>136</ele>
        <time>2022-09-11T07:24:37Z</time>
      </trkpt>
      <trkpt lat="43.29662" lon="-1.034">
        <ele>136</ele>
        <time>2022-09-11T07:24:38Z</time>
      </trkpt>
      <trkpt lat="43.29676" lon="-1.03411">
        <ele>137.2</ele>
        <time>2022-09-11T07:24:45Z</time>
      </trkpt>
      <trkpt lat="43.29691" lon="-1.03425">
        <ele>138.2</ele>
        <time>2022-09-11T07:24:53Z</time>
      </trkpt>
      <trkpt lat="43.29701" lon="-1.03433">
        <ele>139.2</ele>
        <time>2022-09-11T07:24:58Z</time>
      </trkpt>
      <trkpt lat="43.29703" lon="-1.03435">
        <ele>139.4</ele>
        <time>2022-09-11T07:24:59Z</time>
      </trkpt>
      <trkpt lat="43.29714" lon="-1.03444">
        <ele>140.4</ele>
        <time>2022-09-11T07:25:05Z</time>
      </trkpt>
      <trkpt lat="43.29718" lon="-1.03448">
        <ele>140.6</ele>
        <time>2022-09-11T07:25:07Z</time>
      </trkpt>
      <trkpt lat="43.2973" lon="-1.03456">
        <ele>141.4</ele>
        <time>2022-09-11T07:25:13Z</time>
      </trkpt>
      <trkpt lat="43.29732" lon="-1.03458">
        <ele>141.6</ele>
        <time>2022-09-11T07:25:14Z</time>
      </trkpt>
      <trkpt lat="43.29744" lon="-1.03471">
        <ele>142.8</ele>
        <time>2022-09-11T07:25:21Z</time>
      </trkpt>
      <trkpt lat="43.29757" lon="-1.03484">
        <ele>144</ele>
        <time>2022-09-11T07:25:29Z</time>
      </trkpt>
      <trkpt lat="43.29759" lon="-1.03484">
        <ele>144</ele>
        <time>2022-09-11T07:25:30Z</time>
      </trkpt>
      <trkpt lat="43.29765" lon="-1.03488">
        <ele>144.6</ele>
        <time>2022-09-11T07:25:34Z</time>
      </trkpt>
      <trkpt lat="43.2977" lon="-1.03492">
        <ele>145</ele>
        <time>2022-09-11T07:25:37Z</time>
      </trkpt>
      <trkpt lat="43.29782" lon="-1.03502">
        <ele>146.2</ele>
        <time>2022-09-11T07:25:44Z</time>
      </trkpt>
      <trkpt lat="43.29785" lon="-1.03505">
        <ele>146.6</ele>
        <time>2022-09-11T07:25:46Z</time>
      </trkpt>
      <trkpt lat="43.29793" lon="-1.03511">
        <ele>147.4</ele>
        <time>2022-09-11T07:25:51Z</time>
      </trkpt>
      <trkpt lat="43.29798" lon="-1.03514">
        <ele>147.8</ele>
        <time>2022-09-11T07:25:54Z</time>
      </trkpt>
      <trkpt lat="43.29803" lon="-1.03517">
        <ele>148.4</ele>
        <time>2022-09-11T07:25:57Z</time>
      </trkpt>
      <trkpt lat="43.29809" lon="-1.0352">
        <ele>148.8</ele>
        <time>2022-09-11T07:26:00Z</time>
      </trkpt>
      <trkpt lat="43.29816" lon="-1.03524">
        <ele>149.4</ele>
        <time>2022-09-11T07:26:04Z</time>
      </trkpt>
      <trkpt lat="43.29824" lon="-1.03528">
        <ele>150</ele>
        <time>2022-09-11T07:26:08Z</time>
      </trkpt>
      <trkpt lat="43.29827" lon="-1.03529">
        <ele>150.6</ele>
        <time>2022-09-11T07:26:10Z</time>
      </trkpt>
      <trkpt lat="43.29838" lon="-1.03532">
        <ele>151.6</ele>
        <time>2022-09-11T07:26:16Z</time>
      </trkpt>
      <trkpt lat="43.29851" lon="-1.03538">
        <ele>152.6</ele>
        <time>2022-09-11T07:26:23Z</time>
      </trkpt>
      <trkpt lat="43.29857" lon="-1.03539">
        <ele>153</ele>
        <time>2022-09-11T07:26:26Z</time>
      </trkpt>
      <trkpt lat="43.29869" lon="-1.03544">
        <ele>153.8</ele>
        <time>2022-09-11T07:26:32Z</time>
      </trkpt>
      <trkpt lat="43.29871" lon="-1.03545">
        <ele>154</ele>
        <time>2022-09-11T07:26:33Z</time>
      </trkpt>
      <trkpt lat="43.29888" lon="-1.03551">
        <ele>154.8</ele>
        <time>2022-09-11T07:26:41Z</time>
      </trkpt>
      <trkpt lat="43.29905" lon="-1.03555">
        <ele>155.8</ele>
        <time>2022-09-11T07:26:49Z</time>
      </trkpt>
      <trkpt lat="43.29909" lon="-1.03555">
        <ele>156</ele>
        <time>2022-09-11T07:26:51Z</time>
      </trkpt>
      <trkpt lat="43.29917" lon="-1.03556">
        <ele>156.4</ele>
        <time>2022-09-11T07:26:56Z</time>
      </trkpt>
      <trkpt lat="43.29922" lon="-1.03551">
        <ele>157</ele>
        <time>2022-09-11T07:27:02Z</time>
      </trkpt>
      <trkpt lat="43.29921" lon="-1.03549">
        <ele>157</ele>
        <time>2022-09-11T07:27:03Z</time>
      </trkpt>
      <trkpt lat="43.29917" lon="-1.03543">
        <ele>157</ele>
        <time>2022-09-11T07:27:06Z</time>
      </trkpt>
      <trkpt lat="43.29906" lon="-1.03521">
        <ele>157.4</ele>
        <time>2022-09-11T07:27:14Z</time>
      </trkpt>
      <trkpt lat="43.29897" lon="-1.035">
        <ele>157.2</ele>
        <time>2022-09-11T07:27:21Z</time>
      </trkpt>
      <trkpt lat="43.29897" lon="-1.0348">
        <ele>156.8</ele>
        <time>2022-09-11T07:27:27Z</time>
      </trkpt>
      <trkpt lat="43.29905" lon="-1.03473">
        <ele>156.8</ele>
        <time>2022-09-11T07:27:31Z</time>
      </trkpt>
      <trkpt lat="43.29908" lon="-1.03471">
        <ele>157</ele>
        <time>2022-09-11T07:27:33Z</time>
      </trkpt>
      <trkpt lat="43.29914" lon="-1.03469">
        <ele>157.8</ele>
        <time>2022-09-11T07:27:37Z</time>
      </trkpt>
      <trkpt lat="43.29917" lon="-1.03467">
        <ele>158</ele>
        <time>2022-09-11T07:27:39Z</time>
      </trkpt>
      <trkpt lat="43.29925" lon="-1.03462">
        <ele>158.8</ele>
        <time>2022-09-11T07:27:44Z</time>
      </trkpt>
      <trkpt lat="43.29926" lon="-1.0346">
        <ele>159.2</ele>
        <time>2022-09-11T07:27:45Z</time>
      </trkpt>
      <trkpt lat="43.29931" lon="-1.03452">
        <ele>159.8</ele>
        <time>2022-09-11T07:27:51Z</time>
      </trkpt>
      <trkpt lat="43.29931" lon="-1.03449">
        <ele>160</ele>
        <time>2022-09-11T07:27:53Z</time>
      </trkpt>
      <trkpt lat="43.29935" lon="-1.03445">
        <ele>160.6</ele>
        <time>2022-09-11T07:34:58Z</time>
      </trkpt>
      <trkpt lat="43.29937" lon="-1.03446">
        <ele>160.6</ele>
        <time>2022-09-11T07:34:59Z</time>
      </trkpt>
      <trkpt lat="43.29946" lon="-1.03447">
        <ele>161.6</ele>
        <time>2022-09-11T07:35:05Z</time>
      </trkpt>
      <trkpt lat="43.29948" lon="-1.03447">
        <ele>161.8</ele>
        <time>2022-09-11T07:35:06Z</time>
      </trkpt>
      <trkpt lat="43.29951" lon="-1.03448">
        <ele>162</ele>
        <time>2022-09-11T07:35:08Z</time>
      </trkpt>
      <trkpt lat="43.29959" lon="-1.03452">
        <ele>162.6</ele>
        <time>2022-09-11T07:35:13Z</time>
      </trkpt>
      <trkpt lat="43.29967" lon="-1.0346">
        <ele>163.4</ele>
        <time>2022-09-11T07:35:20Z</time>
      </trkpt>
      <trkpt lat="43.29968" lon="-1.03461">
        <ele>163.8</ele>
        <time>2022-09-11T07:35:21Z</time>
      </trkpt>
      <trkpt lat="43.29975" lon="-1.03467">
        <ele>164.6</ele>
        <time>2022-09-11T07:35:26Z</time>
      </trkpt>
      <trkpt lat="43.29977" lon="-1.03468">
        <ele>164.8</ele>
        <time>2022-09-11T07:35:28Z</time>
      </trkpt>
      <trkpt lat="43.29984" lon="-1.03473">
        <ele>165.8</ele>
        <time>2022-09-11T07:35:33Z</time>
      </trkpt>
      <trkpt lat="43.29991" lon="-1.03478">
        <ele>166.6</ele>
        <time>2022-09-11T07:35:39Z</time>
      </trkpt>
      <trkpt lat="43.29994" lon="-1.03478">
        <ele>167</ele>
        <time>2022-09-11T07:35:41Z</time>
      </trkpt>
      <trkpt lat="43.30002" lon="-1.03482">
        <ele>168</ele>
        <time>2022-09-11T07:35:46Z</time>
      </trkpt>
      <trkpt lat="43.30003" lon="-1.03483">
        <ele>168.2</ele>
        <time>2022-09-11T07:35:47Z</time>
      </trkpt>
      <trkpt lat="43.30011" lon="-1.03487">
        <ele>169.2</ele>
        <time>2022-09-11T07:35:53Z</time>
      </trkpt>
      <trkpt lat="43.30012" lon="-1.03487">
        <ele>169.4</ele>
        <time>2022-09-11T07:35:54Z</time>
      </trkpt>
      <trkpt lat="43.3002" lon="-1.0349">
        <ele>170.4</ele>
        <time>2022-09-11T07:35:59Z</time>
      </trkpt>
      <trkpt lat="43.30024" lon="-1.0349">
        <ele>170.8</ele>
        <time>2022-09-11T07:36:02Z</time>
      </trkpt>
      <trkpt lat="43.3003" lon="-1.03489">
        <ele>171.4</ele>
        <time>2022-09-11T07:36:06Z</time>
      </trkpt>
      <trkpt lat="43.30036" lon="-1.0349">
        <ele>172.4</ele>
        <time>2022-09-11T07:36:10Z</time>
      </trkpt>
      <trkpt lat="43.30037" lon="-1.0349">
        <ele>172.6</ele>
        <time>2022-09-11T07:36:11Z</time>
      </trkpt>
      <trkpt lat="43.30038" lon="-1.03488">
        <ele>172.6</ele>
        <time>2022-09-11T07:36:12Z</time>
      </trkpt>
      <trkpt lat="43.30043" lon="-1.03487">
        <ele>173.4</ele>
        <time>2022-09-11T07:36:16Z</time>
      </trkpt>
      <trkpt lat="43.3005" lon="-1.03485">
        <ele>174.2</ele>
        <time>2022-09-11T07:36:21Z</time>
      </trkpt>
      <trkpt lat="43.30051" lon="-1.03486">
        <ele>174.4</ele>
        <time>2022-09-11T07:36:22Z</time>
      </trkpt>
      <trkpt lat="43.30056" lon="-1.03487">
        <ele>175</ele>
        <time>2022-09-11T07:36:25Z</time>
      </trkpt>
      <trkpt lat="43.30058" lon="-1.03482">
        <ele>175.6</ele>
        <time>2022-09-11T07:36:28Z</time>
      </trkpt>
      <trkpt lat="43.30059" lon="-1.03481">
        <ele>175.6</ele>
        <time>2022-09-11T07:36:29Z</time>
      </trkpt>
      <trkpt lat="43.30065" lon="-1.03483">
        <ele>176.6</ele>
        <time>2022-09-11T07:36:34Z</time>
      </trkpt>
      <trkpt lat="43.30067" lon="-1.03484">
        <ele>176.8</ele>
        <time>2022-09-11T07:36:35Z</time>
      </trkpt>
      <trkpt lat="43.30068" lon="-1.03484">
        <ele>177</ele>
        <time>2022-09-11T07:36:36Z</time>
      </trkpt>
      <trkpt lat="43.30071" lon="-1.03482">
        <ele>177.8</ele>
        <time>2022-09-11T07:36:39Z</time>
      </trkpt>
      <trkpt lat="43.30073" lon="-1.03482">
        <ele>178</ele>
        <time>2022-09-11T07:36:40Z</time>
      </trkpt>
      <trkpt lat="43.30081" lon="-1.03482">
        <ele>178.6</ele>
        <time>2022-09-11T07:36:46Z</time>
      </trkpt>
      <trkpt lat="43.30083" lon="-1.03482">
        <ele>178.8</ele>
        <time>2022-09-11T07:36:47Z</time>
      </trkpt>
      <trkpt lat="43.30084" lon="-1.03482">
        <ele>179</ele>
        <time>2022-09-11T07:36:48Z</time>
      </trkpt>
      <trkpt lat="43.30091" lon="-1.03481">
        <ele>179.8</ele>
        <time>2022-09-11T07:36:53Z</time>
      </trkpt>
      <trkpt lat="43.30102" lon="-1.03484">
        <ele>180.8</ele>
        <time>2022-09-11T07:37:01Z</time>
      </trkpt>
      <trkpt lat="43.30105" lon="-1.03483">
        <ele>180.8</ele>
        <time>2022-09-11T07:37:03Z</time>
      </trkpt>
      <trkpt lat="43.30115" lon="-1.0348">
        <ele>181.6</ele>
        <time>2022-09-11T07:37:09Z</time>
      </trkpt>
      <trkpt lat="43.30118" lon="-1.0348">
        <ele>181.8</ele>
        <time>2022-09-11T07:37:11Z</time>
      </trkpt>
      <trkpt lat="43.30124" lon="-1.03478">
        <ele>182.6</ele>
        <time>2022-09-11T07:37:16Z</time>
      </trkpt>
      <trkpt lat="43.30128" lon="-1.03479">
        <ele>182.8</ele>
        <time>2022-09-11T07:37:18Z</time>
      </trkpt>
      <trkpt lat="43.30134" lon="-1.03481">
        <ele>183.6</ele>
        <time>2022-09-11T07:37:22Z</time>
      </trkpt>
      <trkpt lat="43.30139" lon="-1.03479">
        <ele>184</ele>
        <time>2022-09-11T07:37:25Z</time>
      </trkpt>
      <trkpt lat="43.30147" lon="-1.0348">
        <ele>184.6</ele>
        <time>2022-09-11T07:37:29Z</time>
      </trkpt>
      <trkpt lat="43.30152" lon="-1.0348">
        <ele>185</ele>
        <time>2022-09-11T07:37:32Z</time>
      </trkpt>
      <trkpt lat="43.30159" lon="-1.0348">
        <ele>185.8</ele>
        <time>2022-09-11T07:37:36Z</time>
      </trkpt>
      <trkpt lat="43.30163" lon="-1.03482">
        <ele>186</ele>
        <time>2022-09-11T07:37:38Z</time>
      </trkpt>
      <trkpt lat="43.30169" lon="-1.03485">
        <ele>186.6</ele>
        <time>2022-09-11T07:37:42Z</time>
      </trkpt>
      <trkpt lat="43.30174" lon="-1.03488">
        <ele>187.4</ele>
        <time>2022-09-11T07:37:46Z</time>
      </trkpt>
      <trkpt lat="43.30175" lon="-1.03489">
        <ele>187.6</ele>
        <time>2022-09-11T07:37:47Z</time>
      </trkpt>
      <trkpt lat="43.30182" lon="-1.03492">
        <ele>188.4</ele>
        <time>2022-09-11T07:37:52Z</time>
      </trkpt>
      <trkpt lat="43.30184" lon="-1.03493">
        <ele>188.6</ele>
        <time>2022-09-11T07:37:53Z</time>
      </trkpt>
      <trkpt lat="43.30185" lon="-1.03495">
        <ele>188.8</ele>
        <time>2022-09-11T07:37:54Z</time>
      </trkpt>
      <trkpt lat="43.3019" lon="-1.03501">
        <ele>189.2</ele>
        <time>2022-09-11T07:37:58Z</time>
      </trkpt>
      <trkpt lat="43.30193" lon="-1.03501">
        <ele>189.6</ele>
        <time>2022-09-11T07:38:00Z</time>
      </trkpt>
      <trkpt lat="43.30197" lon="-1.03505">
        <ele>190</ele>
        <time>2022-09-11T07:38:03Z</time>
      </trkpt>
      <trkpt lat="43.30205" lon="-1.03513">
        <ele>190.6</ele>
        <time>2022-09-11T07:38:09Z</time>
      </trkpt>
      <trkpt lat="43.3021" lon="-1.03515">
        <ele>191</ele>
        <time>2022-09-11T07:38:12Z</time>
      </trkpt>
      <trkpt lat="43.30217" lon="-1.03517">
        <ele>191.6</ele>
        <time>2022-09-11T07:38:16Z</time>
      </trkpt>
      <trkpt lat="43.30224" lon="-1.03521">
        <ele>192</ele>
        <time>2022-09-11T07:38:20Z</time>
      </trkpt>
      <trkpt lat="43.30236" lon="-1.03523">
        <ele>192.8</ele>
        <time>2022-09-11T07:38:27Z</time>
      </trkpt>
      <trkpt lat="43.3025" lon="-1.03523">
        <ele>194</ele>
        <time>2022-09-11T07:38:34Z</time>
      </trkpt>
      <trkpt lat="43.30256" lon="-1.03524">
        <ele>194.6</ele>
        <time>2022-09-11T07:38:37Z</time>
      </trkpt>
      <trkpt lat="43.30261" lon="-1.03526">
        <ele>195.2</ele>
        <time>2022-09-11T07:38:40Z</time>
      </trkpt>
      <trkpt lat="43.30267" lon="-1.03527">
        <ele>195.4</ele>
        <time>2022-09-11T07:38:43Z</time>
      </trkpt>
      <trkpt lat="43.30278" lon="-1.0353">
        <ele>196.2</ele>
        <time>2022-09-11T07:38:48Z</time>
      </trkpt>
      <trkpt lat="43.30286" lon="-1.03534">
        <ele>196.6</ele>
        <time>2022-09-11T07:38:52Z</time>
      </trkpt>
      <trkpt lat="43.30294" lon="-1.03537">
        <ele>197.4</ele>
        <time>2022-09-11T07:38:56Z</time>
      </trkpt>
      <trkpt lat="43.30302" lon="-1.03542">
        <ele>197.8</ele>
        <time>2022-09-11T07:39:00Z</time>
      </trkpt>
      <trkpt lat="43.30317" lon="-1.03556">
        <ele>198</ele>
        <time>2022-09-11T07:39:08Z</time>
      </trkpt>
      <trkpt lat="43.30336" lon="-1.03567">
        <ele>198</ele>
        <time>2022-09-11T07:39:17Z</time>
      </trkpt>
      <trkpt lat="43.30345" lon="-1.03568">
        <ele>197.8</ele>
        <time>2022-09-11T07:39:21Z</time>
      </trkpt>
      <trkpt lat="43.30345" lon="-1.03566">
        <ele>198</ele>
        <time>2022-09-11T07:39:22Z</time>
      </trkpt>
      <trkpt lat="43.3035" lon="-1.03573">
        <ele>198</ele>
        <time>2022-09-11T07:39:30Z</time>
      </trkpt>
      <trkpt lat="43.30356" lon="-1.03575">
        <ele>197.8</ele>
        <time>2022-09-11T07:39:32Z</time>
      </trkpt>
      <trkpt lat="43.30377" lon="-1.0358">
        <ele>197</ele>
        <time>2022-09-11T07:39:37Z</time>
      </trkpt>
      <trkpt lat="43.30395" lon="-1.03584">
        <ele>196.2</ele>
        <time>2022-09-11T07:39:40Z</time>
      </trkpt>
      <trkpt lat="43.30401" lon="-1.03587">
        <ele>196</ele>
        <time>2022-09-11T07:39:41Z</time>
      </trkpt>
      <trkpt lat="43.30408" lon="-1.0359">
        <ele>195.8</ele>
        <time>2022-09-11T07:39:42Z</time>
      </trkpt>
      <trkpt lat="43.30419" lon="-1.03595">
        <ele>194.8</ele>
        <time>2022-09-11T07:39:44Z</time>
      </trkpt>
      <trkpt lat="43.30426" lon="-1.03598">
        <ele>193.2</ele>
        <time>2022-09-11T07:39:46Z</time>
      </trkpt>
      <trkpt lat="43.30438" lon="-1.03604">
        <ele>192.2</ele>
        <time>2022-09-11T07:39:49Z</time>
      </trkpt>
      <trkpt lat="43.30445" lon="-1.03606">
        <ele>191.2</ele>
        <time>2022-09-11T07:39:51Z</time>
      </trkpt>
      <trkpt lat="43.30454" lon="-1.03607">
        <ele>190.6</ele>
        <time>2022-09-11T07:39:53Z</time>
      </trkpt>
      <trkpt lat="43.30465" lon="-1.0361">
        <ele>189.8</ele>
        <time>2022-09-11T07:39:55Z</time>
      </trkpt>
      <trkpt lat="43.3048" lon="-1.03611">
        <ele>189.2</ele>
        <time>2022-09-11T07:39:57Z</time>
      </trkpt>
      <trkpt lat="43.30494" lon="-1.03611">
        <ele>188.6</ele>
        <time>2022-09-11T07:39:59Z</time>
      </trkpt>
      <trkpt lat="43.3051" lon="-1.03609">
        <ele>187.6</ele>
        <time>2022-09-11T07:40:01Z</time>
      </trkpt>
      <trkpt lat="43.30518" lon="-1.03607">
        <ele>186.8</ele>
        <time>2022-09-11T07:40:02Z</time>
      </trkpt>
      <trkpt lat="43.30525" lon="-1.03605">
        <ele>186</ele>
        <time>2022-09-11T07:40:03Z</time>
      </trkpt>
      <trkpt lat="43.30541" lon="-1.03597">
        <ele>184.2</ele>
        <time>2022-09-11T07:40:05Z</time>
      </trkpt>
      <trkpt lat="43.30548" lon="-1.03593">
        <ele>183.2</ele>
        <time>2022-09-11T07:40:06Z</time>
      </trkpt>
      <trkpt lat="43.30562" lon="-1.03583">
        <ele>181.4</ele>
        <time>2022-09-11T07:40:08Z</time>
      </trkpt>
      <trkpt lat="43.30574" lon="-1.03574">
        <ele>178.4</ele>
        <time>2022-09-11T07:40:10Z</time>
      </trkpt>
      <trkpt lat="43.30578" lon="-1.03569">
        <ele>177.4</ele>
        <time>2022-09-11T07:40:11Z</time>
      </trkpt>
      <trkpt lat="43.30583" lon="-1.03562">
        <ele>176.4</ele>
        <time>2022-09-11T07:40:12Z</time>
      </trkpt>
      <trkpt lat="43.30589" lon="-1.03554">
        <ele>175</ele>
        <time>2022-09-11T07:40:13Z</time>
      </trkpt>
      <trkpt lat="43.30593" lon="-1.03546">
        <ele>173.8</ele>
        <time>2022-09-11T07:40:14Z</time>
      </trkpt>
      <trkpt lat="43.30597" lon="-1.03538">
        <ele>172.6</ele>
        <time>2022-09-11T07:40:15Z</time>
      </trkpt>
      <trkpt lat="43.306" lon="-1.03533">
        <ele>171.6</ele>
        <time>2022-09-11T07:40:16Z</time>
      </trkpt>
      <trkpt lat="43.30604" lon="-1.03528">
        <ele>171</ele>
        <time>2022-09-11T07:40:17Z</time>
      </trkpt>
      <trkpt lat="43.30609" lon="-1.03524">
        <ele>170.8</ele>
        <time>2022-09-11T07:40:18Z</time>
      </trkpt>
      <trkpt lat="43.30628" lon="-1.03504">
        <ele>170.2</ele>
        <time>2022-09-11T07:40:22Z</time>
      </trkpt>
      <trkpt lat="43.30634" lon="-1.03501">
        <ele>169.8</ele>
        <time>2022-09-11T07:40:23Z</time>
      </trkpt>
      <trkpt lat="43.3064" lon="-1.03499">
        <ele>169.6</ele>
        <time>2022-09-11T07:40:24Z</time>
      </trkpt>
      <trkpt lat="43.30668" lon="-1.03502">
        <ele>168.6</ele>
        <time>2022-09-11T07:40:28Z</time>
      </trkpt>
      <trkpt lat="43.30675" lon="-1.03505">
        <ele>168.2</ele>
        <time>2022-09-11T07:40:29Z</time>
      </trkpt>
      <trkpt lat="43.30715" lon="-1.03517">
        <ele>167.8</ele>
        <time>2022-09-11T07:40:35Z</time>
      </trkpt>
      <trkpt lat="43.30728" lon="-1.03521">
        <ele>167.4</ele>
        <time>2022-09-11T07:40:37Z</time>
      </trkpt>
      <trkpt lat="43.30771" lon="-1.03533">
        <ele>166.8</ele>
        <time>2022-09-11T07:40:44Z</time>
      </trkpt>
      <trkpt lat="43.30789" lon="-1.03538">
        <ele>166.4</ele>
        <time>2022-09-11T07:40:47Z</time>
      </trkpt>
      <trkpt lat="43.30814" lon="-1.03546">
        <ele>166</ele>
        <time>2022-09-11T07:40:51Z</time>
      </trkpt>
      <trkpt lat="43.30835" lon="-1.03552">
        <ele>165.4</ele>
        <time>2022-09-11T07:40:54Z</time>
      </trkpt>
      <trkpt lat="43.30842" lon="-1.03555">
        <ele>165.2</ele>
        <time>2022-09-11T07:40:55Z</time>
      </trkpt>
      <trkpt lat="43.30847" lon="-1.03561">
        <ele>165</ele>
        <time>2022-09-11T07:40:56Z</time>
      </trkpt>
      <trkpt lat="43.30857" lon="-1.03574">
        <ele>164.2</ele>
        <time>2022-09-11T07:40:58Z</time>
      </trkpt>
      <trkpt lat="43.30869" lon="-1.03597">
        <ele>164</ele>
        <time>2022-09-11T07:41:01Z</time>
      </trkpt>
      <trkpt lat="43.30893" lon="-1.03635">
        <ele>163</ele>
        <time>2022-09-11T07:41:07Z</time>
      </trkpt>
      <trkpt lat="43.30915" lon="-1.03662">
        <ele>162</ele>
        <time>2022-09-11T07:41:13Z</time>
      </trkpt>
      <trkpt lat="43.30921" lon="-1.0367">
        <ele>161.4</ele>
        <time>2022-09-11T07:41:15Z</time>
      </trkpt>
      <trkpt lat="43.30924" lon="-1.0368">
        <ele>160.8</ele>
        <time>2022-09-11T07:41:18Z</time>
      </trkpt>
      <trkpt lat="43.30925" lon="-1.03682">
        <ele>160.6</ele>
        <time>2022-09-11T07:41:19Z</time>
      </trkpt>
      <trkpt lat="43.30936" lon="-1.03688">
        <ele>160</ele>
        <time>2022-09-11T07:42:12Z</time>
      </trkpt>
      <trkpt lat="43.30938" lon="-1.0369">
        <ele>160</ele>
        <time>2022-09-11T07:42:13Z</time>
      </trkpt>
      <trkpt lat="43.30939" lon="-1.03692">
        <ele>159.8</ele>
        <time>2022-09-11T07:42:14Z</time>
      </trkpt>
      <trkpt lat="43.30941" lon="-1.03693">
        <ele>159.8</ele>
        <time>2022-09-11T07:42:15Z</time>
      </trkpt>
      <trkpt lat="43.30951" lon="-1.03695">
        <ele>159.6</ele>
        <time>2022-09-11T07:42:19Z</time>
      </trkpt>
      <trkpt lat="43.30967" lon="-1.03701">
        <ele>159.2</ele>
        <time>2022-09-11T07:42:23Z</time>
      </trkpt>
      <trkpt lat="43.30971" lon="-1.03701">
        <ele>159</ele>
        <time>2022-09-11T07:42:24Z</time>
      </trkpt>
      <trkpt lat="43.3099" lon="-1.03706">
        <ele>158.6</ele>
        <time>2022-09-11T07:42:28Z</time>
      </trkpt>
      <trkpt lat="43.31" lon="-1.03709">
        <ele>158.2</ele>
        <time>2022-09-11T07:42:30Z</time>
      </trkpt>
      <trkpt lat="43.31023" lon="-1.03715">
        <ele>157.6</ele>
        <time>2022-09-11T07:42:34Z</time>
      </trkpt>
      <trkpt lat="43.31029" lon="-1.03717">
        <ele>157.2</ele>
        <time>2022-09-11T07:42:35Z</time>
      </trkpt>
      <trkpt lat="43.31042" lon="-1.0372">
        <ele>156.4</ele>
        <time>2022-09-11T07:42:37Z</time>
      </trkpt>
      <trkpt lat="43.31075" lon="-1.03735">
        <ele>155.4</ele>
        <time>2022-09-11T07:42:42Z</time>
      </trkpt>
      <trkpt lat="43.31125" lon="-1.03765">
        <ele>153.8</ele>
        <time>2022-09-11T07:42:49Z</time>
      </trkpt>
      <trkpt lat="43.31139" lon="-1.03774">
        <ele>153</ele>
        <time>2022-09-11T07:42:51Z</time>
      </trkpt>
      <trkpt lat="43.31147" lon="-1.03779">
        <ele>152.6</ele>
        <time>2022-09-11T07:42:52Z</time>
      </trkpt>
      <trkpt lat="43.31176" lon="-1.03795">
        <ele>151.6</ele>
        <time>2022-09-11T07:42:56Z</time>
      </trkpt>
      <trkpt lat="43.3119" lon="-1.038">
        <ele>150.8</ele>
        <time>2022-09-11T07:42:58Z</time>
      </trkpt>
      <trkpt lat="43.31203" lon="-1.03802">
        <ele>150.6</ele>
        <time>2022-09-11T07:43:00Z</time>
      </trkpt>
      <trkpt lat="43.3121" lon="-1.03802">
        <ele>150.4</ele>
        <time>2022-09-11T07:43:01Z</time>
      </trkpt>
      <trkpt lat="43.31216" lon="-1.038">
        <ele>150.2</ele>
        <time>2022-09-11T07:43:02Z</time>
      </trkpt>
      <trkpt lat="43.31234" lon="-1.03792">
        <ele>149.8</ele>
        <time>2022-09-11T07:43:05Z</time>
      </trkpt>
      <trkpt lat="43.31245" lon="-1.03786">
        <ele>149.6</ele>
        <time>2022-09-11T07:43:07Z</time>
      </trkpt>
      <trkpt lat="43.31252" lon="-1.03783">
        <ele>149.4</ele>
        <time>2022-09-11T07:43:08Z</time>
      </trkpt>
      <trkpt lat="43.31278" lon="-1.03767">
        <ele>148.2</ele>
        <time>2022-09-11T07:43:12Z</time>
      </trkpt>
      <trkpt lat="43.31301" lon="-1.0375">
        <ele>146.8</ele>
        <time>2022-09-11T07:43:15Z</time>
      </trkpt>
      <trkpt lat="43.31316" lon="-1.03737">
        <ele>145.8</ele>
        <time>2022-09-11T07:43:17Z</time>
      </trkpt>
      <trkpt lat="43.31341" lon="-1.03716">
        <ele>144.4</ele>
        <time>2022-09-11T07:43:20Z</time>
      </trkpt>
      <trkpt lat="43.31359" lon="-1.03702">
        <ele>143</ele>
        <time>2022-09-11T07:43:22Z</time>
      </trkpt>
      <trkpt lat="43.31368" lon="-1.03696">
        <ele>142.4</ele>
        <time>2022-09-11T07:43:23Z</time>
      </trkpt>
      <trkpt lat="43.31378" lon="-1.03692">
        <ele>142.2</ele>
        <time>2022-09-11T07:43:24Z</time>
      </trkpt>
      <trkpt lat="43.31388" lon="-1.03689">
        <ele>141.4</ele>
        <time>2022-09-11T07:43:25Z</time>
      </trkpt>
      <trkpt lat="43.31399" lon="-1.03689">
        <ele>140.6</ele>
        <time>2022-09-11T07:43:26Z</time>
      </trkpt>
      <trkpt lat="43.3141" lon="-1.03689">
        <ele>139.6</ele>
        <time>2022-09-11T07:43:27Z</time>
      </trkpt>
      <trkpt lat="43.31433" lon="-1.0369">
        <ele>138.6</ele>
        <time>2022-09-11T07:43:29Z</time>
      </trkpt>
      <trkpt lat="43.31457" lon="-1.03691">
        <ele>137.2</ele>
        <time>2022-09-11T07:43:31Z</time>
      </trkpt>
      <trkpt lat="43.3148" lon="-1.03691">
        <ele>135.2</ele>
        <time>2022-09-11T07:43:33Z</time>
      </trkpt>
      <trkpt lat="43.31505" lon="-1.0369">
        <ele>133.6</ele>
        <time>2022-09-11T07:43:35Z</time>
      </trkpt>
      <trkpt lat="43.3153" lon="-1.03687">
        <ele>132.2</ele>
        <time>2022-09-11T07:43:37Z</time>
      </trkpt>
      <trkpt lat="43.31555" lon="-1.03681">
        <ele>130.6</ele>
        <time>2022-09-11T07:43:39Z</time>
      </trkpt>
      <trkpt lat="43.3158" lon="-1.03674">
        <ele>128.4</ele>
        <time>2022-09-11T07:43:41Z</time>
      </trkpt>
      <trkpt lat="43.31593" lon="-1.03671">
        <ele>127.2</ele>
        <time>2022-09-11T07:43:42Z</time>
      </trkpt>
      <trkpt lat="43.31618" lon="-1.03667">
        <ele>125.4</ele>
        <time>2022-09-11T07:43:44Z</time>
      </trkpt>
      <trkpt lat="43.31645" lon="-1.03665">
        <ele>121.8</ele>
        <time>2022-09-11T07:43:46Z</time>
      </trkpt>
      <trkpt lat="43.31657" lon="-1.03665">
        <ele>120.4</ele>
        <time>2022-09-11T07:43:47Z</time>
      </trkpt>
      <trkpt lat="43.31669" lon="-1.03665">
        <ele>119</ele>
        <time>2022-09-11T07:43:48Z</time>
      </trkpt>
      <trkpt lat="43.31681" lon="-1.03666">
        <ele>117.8</ele>
        <time>2022-09-11T07:43:49Z</time>
      </trkpt>
      <trkpt lat="43.31692" lon="-1.03668">
        <ele>117</ele>
        <time>2022-09-11T07:43:50Z</time>
      </trkpt>
      <trkpt lat="43.31702" lon="-1.03674">
        <ele>116.4</ele>
        <time>2022-09-11T07:43:51Z</time>
      </trkpt>
      <trkpt lat="43.31711" lon="-1.03682">
        <ele>115.6</ele>
        <time>2022-09-11T07:43:52Z</time>
      </trkpt>
      <trkpt lat="43.3172" lon="-1.03693">
        <ele>114.6</ele>
        <time>2022-09-11T07:43:53Z</time>
      </trkpt>
      <trkpt lat="43.31736" lon="-1.03716">
        <ele>113.2</ele>
        <time>2022-09-11T07:43:55Z</time>
      </trkpt>
      <trkpt lat="43.3175" lon="-1.03741">
        <ele>111.6</ele>
        <time>2022-09-11T07:43:57Z</time>
      </trkpt>
      <trkpt lat="43.31756" lon="-1.03752">
        <ele>110.2</ele>
        <time>2022-09-11T07:43:58Z</time>
      </trkpt>
      <trkpt lat="43.3176" lon="-1.03763">
        <ele>108.6</ele>
        <time>2022-09-11T07:43:59Z</time>
      </trkpt>
      <trkpt lat="43.31765" lon="-1.03785">
        <ele>107.2</ele>
        <time>2022-09-11T07:44:01Z</time>
      </trkpt>
      <trkpt lat="43.31767" lon="-1.03797">
        <ele>107</ele>
        <time>2022-09-11T07:44:02Z</time>
      </trkpt>
      <trkpt lat="43.31769" lon="-1.03809">
        <ele>106.6</ele>
        <time>2022-09-11T07:44:03Z</time>
      </trkpt>
      <trkpt lat="43.3177" lon="-1.03822">
        <ele>106</ele>
        <time>2022-09-11T07:44:04Z</time>
      </trkpt>
      <trkpt lat="43.31774" lon="-1.03845">
        <ele>104.2</ele>
        <time>2022-09-11T07:44:06Z</time>
      </trkpt>
      <trkpt lat="43.31782" lon="-1.03865">
        <ele>102.8</ele>
        <time>2022-09-11T07:44:08Z</time>
      </trkpt>
      <trkpt lat="43.31788" lon="-1.03872">
        <ele>101.8</ele>
        <time>2022-09-11T07:44:09Z</time>
      </trkpt>
      <trkpt lat="43.31795" lon="-1.03875">
        <ele>99.8</ele>
        <time>2022-09-11T07:44:10Z</time>
      </trkpt>
      <trkpt lat="43.31804" lon="-1.03875">
        <ele>99</ele>
        <time>2022-09-11T07:44:11Z</time>
      </trkpt>
      <trkpt lat="43.31812" lon="-1.03871">
        <ele>98.4</ele>
        <time>2022-09-11T07:44:12Z</time>
      </trkpt>
      <trkpt lat="43.31826" lon="-1.03857">
        <ele>97.4</ele>
        <time>2022-09-11T07:44:14Z</time>
      </trkpt>
      <trkpt lat="43.31834" lon="-1.03834">
        <ele>96.4</ele>
        <time>2022-09-11T07:44:16Z</time>
      </trkpt>
      <trkpt lat="43.31838" lon="-1.03808">
        <ele>95.2</ele>
        <time>2022-09-11T07:44:18Z</time>
      </trkpt>
      <trkpt lat="43.31844" lon="-1.03782">
        <ele>93.6</ele>
        <time>2022-09-11T07:44:20Z</time>
      </trkpt>
      <trkpt lat="43.31852" lon="-1.03757">
        <ele>92.2</ele>
        <time>2022-09-11T07:44:22Z</time>
      </trkpt>
      <trkpt lat="43.31864" lon="-1.03734">
        <ele>90.2</ele>
        <time>2022-09-11T07:44:24Z</time>
      </trkpt>
      <trkpt lat="43.31881" lon="-1.03716">
        <ele>88.2</ele>
        <time>2022-09-11T07:44:26Z</time>
      </trkpt>
      <trkpt lat="43.3189" lon="-1.03709">
        <ele>87.4</ele>
        <time>2022-09-11T07:44:27Z</time>
      </trkpt>
      <trkpt lat="43.319" lon="-1.03702">
        <ele>86.4</ele>
        <time>2022-09-11T07:44:28Z</time>
      </trkpt>
      <trkpt lat="43.31911" lon="-1.03695">
        <ele>85.8</ele>
        <time>2022-09-11T07:44:29Z</time>
      </trkpt>
      <trkpt lat="43.31921" lon="-1.03689">
        <ele>85</ele>
        <time>2022-09-11T07:44:30Z</time>
      </trkpt>
      <trkpt lat="43.31932" lon="-1.03684">
        <ele>84.4</ele>
        <time>2022-09-11T07:44:31Z</time>
      </trkpt>
      <trkpt lat="43.31943" lon="-1.03678">
        <ele>83.6</ele>
        <time>2022-09-11T07:44:32Z</time>
      </trkpt>
      <trkpt lat="43.31953" lon="-1.03673">
        <ele>82.6</ele>
        <time>2022-09-11T07:44:33Z</time>
      </trkpt>
      <trkpt lat="43.31964" lon="-1.03668">
        <ele>81</ele>
        <time>2022-09-11T07:44:34Z</time>
      </trkpt>
      <trkpt lat="43.31985" lon="-1.03658">
        <ele>80</ele>
        <time>2022-09-11T07:44:36Z</time>
      </trkpt>
      <trkpt lat="43.32016" lon="-1.03643">
        <ele>79</ele>
        <time>2022-09-11T07:44:39Z</time>
      </trkpt>
      <trkpt lat="43.32035" lon="-1.03634">
        <ele>77.8</ele>
        <time>2022-09-11T07:44:41Z</time>
      </trkpt>
      <trkpt lat="43.32053" lon="-1.03625">
        <ele>76.6</ele>
        <time>2022-09-11T07:44:43Z</time>
      </trkpt>
      <trkpt lat="43.32078" lon="-1.03613">
        <ele>75.4</ele>
        <time>2022-09-11T07:44:46Z</time>
      </trkpt>
      <trkpt lat="43.32086" lon="-1.03609">
        <ele>74.8</ele>
        <time>2022-09-11T07:44:47Z</time>
      </trkpt>
      <trkpt lat="43.32101" lon="-1.03602">
        <ele>74.2</ele>
        <time>2022-09-11T07:44:49Z</time>
      </trkpt>
      <trkpt lat="43.32124" lon="-1.0359">
        <ele>73</ele>
        <time>2022-09-11T07:44:52Z</time>
      </trkpt>
      <trkpt lat="43.32146" lon="-1.0358">
        <ele>72</ele>
        <time>2022-09-11T07:44:55Z</time>
      </trkpt>
      <trkpt lat="43.32154" lon="-1.03576">
        <ele>71.6</ele>
        <time>2022-09-11T07:44:56Z</time>
      </trkpt>
      <trkpt lat="43.3217" lon="-1.03569">
        <ele>70.6</ele>
        <time>2022-09-11T07:44:58Z</time>
      </trkpt>
      <trkpt lat="43.32193" lon="-1.03557">
        <ele>69.6</ele>
        <time>2022-09-11T07:45:01Z</time>
      </trkpt>
      <trkpt lat="43.32201" lon="-1.03553">
        <ele>69.2</ele>
        <time>2022-09-11T07:45:02Z</time>
      </trkpt>
      <trkpt lat="43.32234" lon="-1.03538">
        <ele>68.4</ele>
        <time>2022-09-11T07:45:06Z</time>
      </trkpt>
      <trkpt lat="43.32274" lon="-1.03518">
        <ele>67.2</ele>
        <time>2022-09-11T07:45:11Z</time>
      </trkpt>
      <trkpt lat="43.3229" lon="-1.0351">
        <ele>66.8</ele>
        <time>2022-09-11T07:45:13Z</time>
      </trkpt>
      <trkpt lat="43.32314" lon="-1.03499">
        <ele>66</ele>
        <time>2022-09-11T07:45:16Z</time>
      </trkpt>
      <trkpt lat="43.32343" lon="-1.03484">
        <ele>65.2</ele>
        <time>2022-09-11T07:45:20Z</time>
      </trkpt>
      <trkpt lat="43.32349" lon="-1.03481">
        <ele>64.6</ele>
        <time>2022-09-11T07:45:21Z</time>
      </trkpt>
      <trkpt lat="43.3236" lon="-1.03475">
        <ele>63.6</ele>
        <time>2022-09-11T07:45:23Z</time>
      </trkpt>
      <trkpt lat="43.32364" lon="-1.03473">
        <ele>63.4</ele>
        <time>2022-09-11T07:45:24Z</time>
      </trkpt>
      <trkpt lat="43.32378" lon="-1.03467">
        <ele>62.4</ele>
        <time>2022-09-11T07:45:28Z</time>
      </trkpt>
      <trkpt lat="43.32381" lon="-1.03465">
        <ele>62.2</ele>
        <time>2022-09-11T07:45:29Z</time>
      </trkpt>
      <trkpt lat="43.32385" lon="-1.03462">
        <ele>61.8</ele>
        <time>2022-09-11T07:45:33Z</time>
      </trkpt>
      <trkpt lat="43.3239" lon="-1.03461">
        <ele>61.8</ele>
        <time>2022-09-11T07:45:41Z</time>
      </trkpt>
      <trkpt lat="43.32392" lon="-1.03461">
        <ele>62</ele>
        <time>2022-09-11T07:45:42Z</time>
      </trkpt>
      <trkpt lat="43.32407" lon="-1.03456">
        <ele>61.6</ele>
        <time>2022-09-11T07:45:47Z</time>
      </trkpt>
      <trkpt lat="43.3242" lon="-1.03451">
        <ele>61.2</ele>
        <time>2022-09-11T07:45:51Z</time>
      </trkpt>
      <trkpt lat="43.32429" lon="-1.03447">
        <ele>61</ele>
        <time>2022-09-11T07:45:54Z</time>
      </trkpt>
      <trkpt lat="43.32449" lon="-1.03436">
        <ele>60.8</ele>
        <time>2022-09-11T07:46:01Z</time>
      </trkpt>
      <trkpt lat="43.32469" lon="-1.03428">
        <ele>60.4</ele>
        <time>2022-09-11T07:46:08Z</time>
      </trkpt>
      <trkpt lat="43.32479" lon="-1.03423">
        <ele>60.2</ele>
        <time>2022-09-11T07:46:11Z</time>
      </trkpt>
      <trkpt lat="43.32491" lon="-1.03416">
        <ele>60</ele>
        <time>2022-09-11T07:46:15Z</time>
      </trkpt>
      <trkpt lat="43.32509" lon="-1.03408">
        <ele>59.8</ele>
        <time>2022-09-11T07:46:21Z</time>
      </trkpt>
      <trkpt lat="43.32527" lon="-1.03404">
        <ele>59.4</ele>
        <time>2022-09-11T07:46:27Z</time>
      </trkpt>
      <trkpt lat="43.32554" lon="-1.03396">
        <ele>59.4</ele>
        <time>2022-09-11T07:46:35Z</time>
      </trkpt>
      <trkpt lat="43.32561" lon="-1.03393">
        <ele>59.2</ele>
        <time>2022-09-11T07:46:37Z</time>
      </trkpt>
      <trkpt lat="43.32573" lon="-1.0339">
        <ele>59</ele>
        <time>2022-09-11T07:46:41Z</time>
      </trkpt>
      <trkpt lat="43.32587" lon="-1.03381">
        <ele>58.8</ele>
        <time>2022-09-11T07:46:47Z</time>
      </trkpt>
      <trkpt lat="43.32604" lon="-1.0337">
        <ele>58.4</ele>
        <time>2022-09-11T07:46:52Z</time>
      </trkpt>
      <trkpt lat="43.32613" lon="-1.03365">
        <ele>58.2</ele>
        <time>2022-09-11T07:46:55Z</time>
      </trkpt>
      <trkpt lat="43.32625" lon="-1.03358">
        <ele>58</ele>
        <time>2022-09-11T07:46:59Z</time>
      </trkpt>
      <trkpt lat="43.32642" lon="-1.03344">
        <ele>57.8</ele>
        <time>2022-09-11T07:47:06Z</time>
      </trkpt>
      <trkpt lat="43.32661" lon="-1.03322">
        <ele>57.2</ele>
        <time>2022-09-11T07:47:14Z</time>
      </trkpt>
      <trkpt lat="43.32666" lon="-1.03317">
        <ele>57</ele>
        <time>2022-09-11T07:47:16Z</time>
      </trkpt>
      <trkpt lat="43.32684" lon="-1.03293">
        <ele>56.8</ele>
        <time>2022-09-11T07:47:24Z</time>
      </trkpt>
      <trkpt lat="43.32698" lon="-1.03275">
        <ele>56.2</ele>
        <time>2022-09-11T07:47:32Z</time>
      </trkpt>
      <trkpt lat="43.32706" lon="-1.03261">
        <ele>56.2</ele>
        <time>2022-09-11T07:47:38Z</time>
      </trkpt>
      <trkpt lat="43.32707" lon="-1.03259">
        <ele>56</ele>
        <time>2022-09-11T07:47:39Z</time>
      </trkpt>
      <trkpt lat="43.3271" lon="-1.03252">
        <ele>56</ele>
        <time>2022-09-11T07:47:42Z</time>
      </trkpt>
      <trkpt lat="43.32714" lon="-1.03249">
        <ele>56</ele>
        <time>2022-09-11T07:47:45Z</time>
      </trkpt>
      <trkpt lat="43.32718" lon="-1.03246">
        <ele>56</ele>
        <time>2022-09-11T07:47:49Z</time>
      </trkpt>
      <trkpt lat="43.32722" lon="-1.03247">
        <ele>56</ele>
        <time>2022-09-11T07:47:51Z</time>
      </trkpt>
      <trkpt lat="43.32727" lon="-1.03253">
        <ele>56</ele>
        <time>2022-09-11T07:47:54Z</time>
      </trkpt>
      <trkpt lat="43.3273" lon="-1.03259">
        <ele>56</ele>
        <time>2022-09-11T07:47:56Z</time>
      </trkpt>
      <trkpt lat="43.32744" lon="-1.03283">
        <ele>56</ele>
        <time>2022-09-11T07:48:04Z</time>
      </trkpt>
      <trkpt lat="43.32761" lon="-1.03311">
        <ele>56.4</ele>
        <time>2022-09-11T07:48:14Z</time>
      </trkpt>
      <trkpt lat="43.32779" lon="-1.03338">
        <ele>57</ele>
        <time>2022-09-11T07:48:24Z</time>
      </trkpt>
      <trkpt lat="43.32795" lon="-1.03359">
        <ele>57.6</ele>
        <time>2022-09-11T07:48:32Z</time>
      </trkpt>
      <trkpt lat="43.32804" lon="-1.03371">
        <ele>58.2</ele>
        <time>2022-09-11T07:48:37Z</time>
      </trkpt>
      <trkpt lat="43.32808" lon="-1.03375">
        <ele>58.4</ele>
        <time>2022-09-11T07:48:40Z</time>
      </trkpt>
      <trkpt lat="43.32817" lon="-1.03384">
        <ele>58.8</ele>
        <time>2022-09-11T07:48:47Z</time>
      </trkpt>
      <trkpt lat="43.32823" lon="-1.03392">
        <ele>59</ele>
        <time>2022-09-11T07:48:54Z</time>
      </trkpt>
      <trkpt lat="43.32825" lon="-1.03394">
        <ele>59</ele>
        <time>2022-09-11T07:48:56Z</time>
      </trkpt>
      <trkpt lat="43.32827" lon="-1.034">
        <ele>59.2</ele>
        <time>2022-09-11T07:48:59Z</time>
      </trkpt>
      <trkpt lat="43.32823" lon="-1.03398">
        <ele>59.4</ele>
        <time>2022-09-11T07:49:18Z</time>
      </trkpt>
      <trkpt lat="43.32821" lon="-1.03397">
        <ele>59.4</ele>
        <time>2022-09-11T07:49:19Z</time>
      </trkpt>
      <trkpt lat="43.32812" lon="-1.03395">
        <ele>59.2</ele>
        <time>2022-09-11T07:49:24Z</time>
      </trkpt>
      <trkpt lat="43.3281" lon="-1.03396">
        <ele>59.2</ele>
        <time>2022-09-11T07:49:25Z</time>
      </trkpt>
      <trkpt lat="43.32801" lon="-1.03406">
        <ele>59.8</ele>
        <time>2022-09-11T07:49:31Z</time>
      </trkpt>
      <trkpt lat="43.32792" lon="-1.03421">
        <ele>59.8</ele>
        <time>2022-09-11T07:49:38Z</time>
      </trkpt>
      <trkpt lat="43.32784" lon="-1.03427">
        <ele>59.8</ele>
        <time>2022-09-11T07:49:44Z</time>
      </trkpt>
      <trkpt lat="43.32779" lon="-1.03431">
        <ele>59.8</ele>
        <time>2022-09-11T07:49:50Z</time>
      </trkpt>
      <trkpt lat="43.32785" lon="-1.03432">
        <ele>60.4</ele>
        <time>2022-09-11T07:54:38Z</time>
      </trkpt>
      <trkpt lat="43.32791" lon="-1.03444">
        <ele>60.6</ele>
        <time>2022-09-11T07:54:42Z</time>
      </trkpt>
      <trkpt lat="43.32799" lon="-1.03457">
        <ele>61</ele>
        <time>2022-09-11T07:54:48Z</time>
      </trkpt>
      <trkpt lat="43.32808" lon="-1.03474">
        <ele>61.4</ele>
        <time>2022-09-11T07:54:55Z</time>
      </trkpt>
      <trkpt lat="43.3281" lon="-1.03478">
        <ele>61.4</ele>
        <time>2022-09-11T07:54:57Z</time>
      </trkpt>
      <trkpt lat="43.32815" lon="-1.03492">
        <ele>61.6</ele>
        <time>2022-09-11T07:55:02Z</time>
      </trkpt>
      <trkpt lat="43.32821" lon="-1.03503">
        <ele>62</ele>
        <time>2022-09-11T07:55:08Z</time>
      </trkpt>
      <trkpt lat="43.32828" lon="-1.03519">
        <ele>62</ele>
        <time>2022-09-11T07:55:16Z</time>
      </trkpt>
      <trkpt lat="43.32836" lon="-1.03534">
        <ele>62</ele>
        <time>2022-09-11T07:55:25Z</time>
      </trkpt>
      <trkpt lat="43.32849" lon="-1.03533">
        <ele>62.2</ele>
        <time>2022-09-11T07:57:50Z</time>
      </trkpt>
      <trkpt lat="43.32857" lon="-1.03521">
        <ele>62.2</ele>
        <time>2022-09-11T07:57:55Z</time>
      </trkpt>
      <trkpt lat="43.32864" lon="-1.0351">
        <ele>62.4</ele>
        <time>2022-09-11T07:58:00Z</time>
      </trkpt>
      <trkpt lat="43.32873" lon="-1.03498">
        <ele>62.6</ele>
        <time>2022-09-11T07:58:06Z</time>
      </trkpt>
      <trkpt lat="43.3288" lon="-1.03488">
        <ele>62.8</ele>
        <time>2022-09-11T07:58:12Z</time>
      </trkpt>
      <trkpt lat="43.32889" lon="-1.03483">
        <ele>62.8</ele>
        <time>2022-09-11T07:58:36Z</time>
      </trkpt>
      <trkpt lat="43.32892" lon="-1.03483">
        <ele>62.8</ele>
        <time>2022-09-11T07:58:37Z</time>
      </trkpt>
      <trkpt lat="43.32903" lon="-1.03491">
        <ele>62.8</ele>
        <time>2022-09-11T07:58:41Z</time>
      </trkpt>
      <trkpt lat="43.3291" lon="-1.03497">
        <ele>62.8</ele>
        <time>2022-09-11T07:58:43Z</time>
      </trkpt>
      <trkpt lat="43.32943" lon="-1.0352">
        <ele>62.4</ele>
        <time>2022-09-11T07:58:52Z</time>
      </trkpt>
      <trkpt lat="43.32969" lon="-1.03538">
        <ele>61.2</ele>
        <time>2022-09-11T07:58:57Z</time>
      </trkpt>
      <trkpt lat="43.32974" lon="-1.03542">
        <ele>61</ele>
        <time>2022-09-11T07:58:58Z</time>
      </trkpt>
      <trkpt lat="43.32992" lon="-1.03554">
        <ele>60.2</ele>
        <time>2022-09-11T07:59:01Z</time>
      </trkpt>
      <trkpt lat="43.33004" lon="-1.03564">
        <ele>59.6</ele>
        <time>2022-09-11T07:59:03Z</time>
      </trkpt>
      <trkpt lat="43.3301" lon="-1.03571">
        <ele>59.4</ele>
        <time>2022-09-11T07:59:04Z</time>
      </trkpt>
      <trkpt lat="43.33015" lon="-1.0358">
        <ele>59</ele>
        <time>2022-09-11T07:59:05Z</time>
      </trkpt>
      <trkpt lat="43.33021" lon="-1.03599">
        <ele>58.6</ele>
        <time>2022-09-11T07:59:07Z</time>
      </trkpt>
      <trkpt lat="43.33023" lon="-1.03619">
        <ele>58.2</ele>
        <time>2022-09-11T07:59:09Z</time>
      </trkpt>
      <trkpt lat="43.33024" lon="-1.03628">
        <ele>58</ele>
        <time>2022-09-11T07:59:10Z</time>
      </trkpt>
      <trkpt lat="43.33025" lon="-1.03637">
        <ele>57.8</ele>
        <time>2022-09-11T07:59:11Z</time>
      </trkpt>
      <trkpt lat="43.33035" lon="-1.03694">
        <ele>57</ele>
        <time>2022-09-11T07:59:18Z</time>
      </trkpt>
      <trkpt lat="43.33037" lon="-1.03702">
        <ele>57</ele>
        <time>2022-09-11T07:59:19Z</time>
      </trkpt>
      <trkpt lat="43.3305" lon="-1.03755">
        <ele>56.2</ele>
        <time>2022-09-11T07:59:26Z</time>
      </trkpt>
      <trkpt lat="43.33056" lon="-1.03783">
        <ele>56</ele>
        <time>2022-09-11T07:59:30Z</time>
      </trkpt>
      <trkpt lat="43.3306" lon="-1.03802">
        <ele>56</ele>
        <time>2022-09-11T07:59:33Z</time>
      </trkpt>
      <trkpt lat="43.33061" lon="-1.03807">
        <ele>56</ele>
        <time>2022-09-11T07:59:34Z</time>
      </trkpt>
      <trkpt lat="43.33064" lon="-1.03827">
        <ele>56.2</ele>
        <time>2022-09-11T07:59:38Z</time>
      </trkpt>
      <trkpt lat="43.33056" lon="-1.03837">
        <ele>55.8</ele>
        <time>2022-09-11T07:59:41Z</time>
      </trkpt>
      <trkpt lat="43.33043" lon="-1.03844">
        <ele>55.4</ele>
        <time>2022-09-11T07:59:44Z</time>
      </trkpt>
      <trkpt lat="43.33033" lon="-1.0385">
        <ele>55.2</ele>
        <time>2022-09-11T07:59:46Z</time>
      </trkpt>
      <trkpt lat="43.33015" lon="-1.03863">
        <ele>54.8</ele>
        <time>2022-09-11T07:59:50Z</time>
      </trkpt>
      <trkpt lat="43.33002" lon="-1.03875">
        <ele>54.8</ele>
        <time>2022-09-11T07:59:53Z</time>
      </trkpt>
      <trkpt lat="43.32971" lon="-1.0392">
        <ele>55.2</ele>
        <time>2022-09-11T08:00:02Z</time>
      </trkpt>
      <trkpt lat="43.32959" lon="-1.03934">
        <ele>56</ele>
        <time>2022-09-11T08:00:06Z</time>
      </trkpt>
      <trkpt lat="43.32953" lon="-1.0394">
        <ele>56.2</ele>
        <time>2022-09-11T08:00:08Z</time>
      </trkpt>
      <trkpt lat="43.3293" lon="-1.03952">
        <ele>56.8</ele>
        <time>2022-09-11T08:00:15Z</time>
      </trkpt>
      <trkpt lat="43.3292" lon="-1.03956">
        <ele>57</ele>
        <time>2022-09-11T08:00:18Z</time>
      </trkpt>
      <trkpt lat="43.32903" lon="-1.03965">
        <ele>57.4</ele>
        <time>2022-09-11T08:00:23Z</time>
      </trkpt>
      <trkpt lat="43.32872" lon="-1.03984">
        <ele>57.8</ele>
        <time>2022-09-11T08:00:32Z</time>
      </trkpt>
      <trkpt lat="43.32856" lon="-1.03996">
        <ele>58.2</ele>
        <time>2022-09-11T08:00:37Z</time>
      </trkpt>
      <trkpt lat="43.32843" lon="-1.04006">
        <ele>58.4</ele>
        <time>2022-09-11T08:00:41Z</time>
      </trkpt>
      <trkpt lat="43.3282" lon="-1.0403">
        <ele>59</ele>
        <time>2022-09-11T08:00:49Z</time>
      </trkpt>
      <trkpt lat="43.32812" lon="-1.04041">
        <ele>59.2</ele>
        <time>2022-09-11T08:00:52Z</time>
      </trkpt>
      <trkpt lat="43.32795" lon="-1.04063">
        <ele>59.8</ele>
        <time>2022-09-11T08:00:59Z</time>
      </trkpt>
      <trkpt lat="43.3279" lon="-1.04074">
        <ele>60.2</ele>
        <time>2022-09-11T08:01:02Z</time>
      </trkpt>
      <trkpt lat="43.3279" lon="-1.04079">
        <ele>60.2</ele>
        <time>2022-09-11T08:01:03Z</time>
      </trkpt>
      <trkpt lat="43.32788" lon="-1.04087">
        <ele>60.4</ele>
        <time>2022-09-11T08:01:05Z</time>
      </trkpt>
      <trkpt lat="43.32783" lon="-1.041">
        <ele>60.6</ele>
        <time>2022-09-11T08:01:08Z</time>
      </trkpt>
      <trkpt lat="43.32767" lon="-1.04137">
        <ele>61</ele>
        <time>2022-09-11T08:01:17Z</time>
      </trkpt>
      <trkpt lat="43.32762" lon="-1.04149">
        <ele>61.4</ele>
        <time>2022-09-11T08:01:20Z</time>
      </trkpt>
      <trkpt lat="43.32756" lon="-1.04166">
        <ele>61.8</ele>
        <time>2022-09-11T08:01:24Z</time>
      </trkpt>
      <trkpt lat="43.3274" lon="-1.04198">
        <ele>62</ele>
        <time>2022-09-11T08:01:32Z</time>
      </trkpt>
      <trkpt lat="43.32723" lon="-1.04233">
        <ele>62</ele>
        <time>2022-09-11T08:01:40Z</time>
      </trkpt>
      <trkpt lat="43.32712" lon="-1.04261">
        <ele>62.4</ele>
        <time>2022-09-11T08:01:46Z</time>
      </trkpt>
      <trkpt lat="43.32709" lon="-1.04271">
        <ele>62.6</ele>
        <time>2022-09-11T08:01:48Z</time>
      </trkpt>
      <trkpt lat="43.32694" lon="-1.04311">
        <ele>62.8</ele>
        <time>2022-09-11T08:01:56Z</time>
      </trkpt>
      <trkpt lat="43.32685" lon="-1.0433">
        <ele>63.6</ele>
        <time>2022-09-11T08:02:01Z</time>
      </trkpt>
      <trkpt lat="43.32683" lon="-1.04333">
        <ele>63.8</ele>
        <time>2022-09-11T08:02:02Z</time>
      </trkpt>
      <trkpt lat="43.32673" lon="-1.04357">
        <ele>64.6</ele>
        <time>2022-09-11T08:02:09Z</time>
      </trkpt>
      <trkpt lat="43.32672" lon="-1.0436">
        <ele>64.8</ele>
        <time>2022-09-11T08:02:10Z</time>
      </trkpt>
      <trkpt lat="43.32671" lon="-1.04381">
        <ele>65</ele>
        <time>2022-09-11T08:02:15Z</time>
      </trkpt>
      <trkpt lat="43.32677" lon="-1.04406">
        <ele>64.4</ele>
        <time>2022-09-11T08:02:20Z</time>
      </trkpt>
      <trkpt lat="43.3268" lon="-1.04418">
        <ele>64.2</ele>
        <time>2022-09-11T08:02:22Z</time>
      </trkpt>
      <trkpt lat="43.32679" lon="-1.04436">
        <ele>64.2</ele>
        <time>2022-09-11T08:02:25Z</time>
      </trkpt>
      <trkpt lat="43.32678" lon="-1.04448">
        <ele>64.2</ele>
        <time>2022-09-11T08:02:27Z</time>
      </trkpt>
      <trkpt lat="43.32673" lon="-1.04482">
        <ele>65</ele>
        <time>2022-09-11T08:02:33Z</time>
      </trkpt>
      <trkpt lat="43.32671" lon="-1.04503">
        <ele>65.8</ele>
        <time>2022-09-11T08:02:37Z</time>
      </trkpt>
      <trkpt lat="43.3267" lon="-1.04515">
        <ele>65.8</ele>
        <time>2022-09-11T08:02:39Z</time>
      </trkpt>
      <trkpt lat="43.32669" lon="-1.04547">
        <ele>66</ele>
        <time>2022-09-11T08:02:45Z</time>
      </trkpt>
      <trkpt lat="43.32668" lon="-1.04559">
        <ele>66.2</ele>
        <time>2022-09-11T08:02:47Z</time>
      </trkpt>
      <trkpt lat="43.32661" lon="-1.04621">
        <ele>66.6</ele>
        <time>2022-09-11T08:02:58Z</time>
      </trkpt>
      <trkpt lat="43.32659" lon="-1.04632">
        <ele>66.8</ele>
        <time>2022-09-11T08:03:00Z</time>
      </trkpt>
      <trkpt lat="43.32655" lon="-1.04656">
        <ele>67.4</ele>
        <time>2022-09-11T08:03:05Z</time>
      </trkpt>
      <trkpt lat="43.32654" lon="-1.04673">
        <ele>68</ele>
        <time>2022-09-11T08:03:09Z</time>
      </trkpt>
      <trkpt lat="43.32652" lon="-1.04689">
        <ele>68.6</ele>
        <time>2022-09-11T08:03:13Z</time>
      </trkpt>
      <trkpt lat="43.32649" lon="-1.0471">
        <ele>68.8</ele>
        <time>2022-09-11T08:03:18Z</time>
      </trkpt>
      <trkpt lat="43.32646" lon="-1.04727">
        <ele>69.2</ele>
        <time>2022-09-11T08:03:22Z</time>
      </trkpt>
      <trkpt lat="43.32643" lon="-1.04742">
        <ele>69.4</ele>
        <time>2022-09-11T08:03:25Z</time>
      </trkpt>
      <trkpt lat="43.32636" lon="-1.04779">
        <ele>70</ele>
        <time>2022-09-11T08:03:33Z</time>
      </trkpt>
      <trkpt lat="43.32631" lon="-1.04806">
        <ele>70.2</ele>
        <time>2022-09-11T08:03:39Z</time>
      </trkpt>
      <trkpt lat="43.32628" lon="-1.0482">
        <ele>70.2</ele>
        <time>2022-09-11T08:03:42Z</time>
      </trkpt>
      <trkpt lat="43.32623" lon="-1.04863">
        <ele>70.6</ele>
        <time>2022-09-11T08:03:51Z</time>
      </trkpt>
      <trkpt lat="43.32618" lon="-1.04901">
        <ele>71</ele>
        <time>2022-09-11T08:03:59Z</time>
      </trkpt>
      <trkpt lat="43.32615" lon="-1.04913">
        <ele>71.2</ele>
        <time>2022-09-11T08:04:02Z</time>
      </trkpt>
      <trkpt lat="43.32608" lon="-1.04929">
        <ele>72</ele>
        <time>2022-09-11T08:04:06Z</time>
      </trkpt>
      <trkpt lat="43.32602" lon="-1.0494">
        <ele>72.2</ele>
        <time>2022-09-11T08:04:09Z</time>
      </trkpt>
      <trkpt lat="43.32595" lon="-1.04958">
        <ele>72.8</ele>
        <time>2022-09-11T08:04:13Z</time>
      </trkpt>
      <trkpt lat="43.32584" lon="-1.04989">
        <ele>72.6</ele>
        <time>2022-09-11T08:04:20Z</time>
      </trkpt>
      <trkpt lat="43.32575" lon="-1.05019">
        <ele>72.4</ele>
        <time>2022-09-11T08:04:26Z</time>
      </trkpt>
      <trkpt lat="43.32568" lon="-1.0504">
        <ele>72.2</ele>
        <time>2022-09-11T08:04:31Z</time>
      </trkpt>
      <trkpt lat="43.3257" lon="-1.05064">
        <ele>71.6</ele>
        <time>2022-09-11T08:04:35Z</time>
      </trkpt>
      <trkpt lat="43.32573" lon="-1.05071">
        <ele>70.8</ele>
        <time>2022-09-11T08:04:36Z</time>
      </trkpt>
      <trkpt lat="43.32583" lon="-1.05095">
        <ele>69.8</ele>
        <time>2022-09-11T08:04:39Z</time>
      </trkpt>
      <trkpt lat="43.32587" lon="-1.05103">
        <ele>69.6</ele>
        <time>2022-09-11T08:04:40Z</time>
      </trkpt>
      <trkpt lat="43.32602" lon="-1.05143">
        <ele>68.6</ele>
        <time>2022-09-11T08:04:45Z</time>
      </trkpt>
      <trkpt lat="43.32605" lon="-1.05151">
        <ele>68.4</ele>
        <time>2022-09-11T08:04:46Z</time>
      </trkpt>
      <trkpt lat="43.32617" lon="-1.05195">
        <ele>67.8</ele>
        <time>2022-09-11T08:04:52Z</time>
      </trkpt>
      <trkpt lat="43.32631" lon="-1.05239">
        <ele>68</ele>
        <time>2022-09-11T08:04:59Z</time>
      </trkpt>
      <trkpt lat="43.3264" lon="-1.05271">
        <ele>68.4</ele>
        <time>2022-09-11T08:05:04Z</time>
      </trkpt>
      <trkpt lat="43.32642" lon="-1.05276">
        <ele>68.6</ele>
        <time>2022-09-11T08:05:05Z</time>
      </trkpt>
      <trkpt lat="43.32656" lon="-1.05321">
        <ele>68.6</ele>
        <time>2022-09-11T08:05:13Z</time>
      </trkpt>
      <trkpt lat="43.32664" lon="-1.05347">
        <ele>69</ele>
        <time>2022-09-11T08:05:19Z</time>
      </trkpt>
      <trkpt lat="43.32671" lon="-1.05371">
        <ele>69</ele>
        <time>2022-09-11T08:05:26Z</time>
      </trkpt>
      <trkpt lat="43.32672" lon="-1.05402">
        <ele>68.4</ele>
        <time>2022-09-11T08:05:32Z</time>
      </trkpt>
      <trkpt lat="43.32672" lon="-1.05428">
        <ele>68.8</ele>
        <time>2022-09-11T08:05:37Z</time>
      </trkpt>
      <trkpt lat="43.32677" lon="-1.05444">
        <ele>69.6</ele>
        <time>2022-09-11T08:05:42Z</time>
      </trkpt>
      <trkpt lat="43.32679" lon="-1.05447">
        <ele>69.6</ele>
        <time>2022-09-11T08:05:43Z</time>
      </trkpt>
      <trkpt lat="43.32686" lon="-1.0546">
        <ele>70.6</ele>
        <time>2022-09-11T08:05:50Z</time>
      </trkpt>
      <trkpt lat="43.32689" lon="-1.05465">
        <ele>70.8</ele>
        <time>2022-09-11T08:05:52Z</time>
      </trkpt>
      <trkpt lat="43.32698" lon="-1.05481">
        <ele>71.6</ele>
        <time>2022-09-11T08:05:59Z</time>
      </trkpt>
      <trkpt lat="43.32699" lon="-1.05483">
        <ele>71.8</ele>
        <time>2022-09-11T08:06:00Z</time>
      </trkpt>
      <trkpt lat="43.3271" lon="-1.05507">
        <ele>72.8</ele>
        <time>2022-09-11T08:06:10Z</time>
      </trkpt>
      <trkpt lat="43.32719" lon="-1.0552">
        <ele>73.6</ele>
        <time>2022-09-11T08:06:17Z</time>
      </trkpt>
      <trkpt lat="43.32722" lon="-1.05524">
        <ele>73.8</ele>
        <time>2022-09-11T08:06:19Z</time>
      </trkpt>
      <trkpt lat="43.32731" lon="-1.05532">
        <ele>74</ele>
        <time>2022-09-11T08:06:24Z</time>
      </trkpt>
      <trkpt lat="43.32743" lon="-1.05544">
        <ele>74.8</ele>
        <time>2022-09-11T08:06:30Z</time>
      </trkpt>
      <trkpt lat="43.32745" lon="-1.05546">
        <ele>75</ele>
        <time>2022-09-11T08:06:31Z</time>
      </trkpt>
      <trkpt lat="43.3276" lon="-1.05558">
        <ele>75.6</ele>
        <time>2022-09-11T08:06:39Z</time>
      </trkpt>
      <trkpt lat="43.32765" lon="-1.05561">
        <ele>75.8</ele>
        <time>2022-09-11T08:06:41Z</time>
      </trkpt>
      <trkpt lat="43.32784" lon="-1.05569">
        <ele>76</ele>
        <time>2022-09-11T08:06:48Z</time>
      </trkpt>
      <trkpt lat="43.32804" lon="-1.05579">
        <ele>76</ele>
        <time>2022-09-11T08:06:56Z</time>
      </trkpt>
      <trkpt lat="43.32823" lon="-1.05585">
        <ele>76.2</ele>
        <time>2022-09-11T08:07:03Z</time>
      </trkpt>
      <trkpt lat="43.32844" lon="-1.05591">
        <ele>76.4</ele>
        <time>2022-09-11T08:07:11Z</time>
      </trkpt>
      <trkpt lat="43.32861" lon="-1.05597">
        <ele>76.6</ele>
        <time>2022-09-11T08:07:18Z</time>
      </trkpt>
      <trkpt lat="43.32863" lon="-1.05599">
        <ele>76.8</ele>
        <time>2022-09-11T08:07:19Z</time>
      </trkpt>
      <trkpt lat="43.32869" lon="-1.05606">
        <ele>77.4</ele>
        <time>2022-09-11T08:07:23Z</time>
      </trkpt>
      <trkpt lat="43.32872" lon="-1.05608">
        <ele>78</ele>
        <time>2022-09-11T08:07:25Z</time>
      </trkpt>
      <trkpt lat="43.32878" lon="-1.05612">
        <ele>78.6</ele>
        <time>2022-09-11T08:07:29Z</time>
      </trkpt>
      <trkpt lat="43.32882" lon="-1.05613">
        <ele>79.2</ele>
        <time>2022-09-11T08:07:32Z</time>
      </trkpt>
      <trkpt lat="43.32888" lon="-1.05614">
        <ele>79.6</ele>
        <time>2022-09-11T08:07:35Z</time>
      </trkpt>
      <trkpt lat="43.32897" lon="-1.05616">
        <ele>80.2</ele>
        <time>2022-09-11T08:07:40Z</time>
      </trkpt>
      <trkpt lat="43.32901" lon="-1.05617">
        <ele>80.4</ele>
        <time>2022-09-11T08:07:42Z</time>
      </trkpt>
      <trkpt lat="43.32912" lon="-1.05618">
        <ele>81.2</ele>
        <time>2022-09-11T08:07:48Z</time>
      </trkpt>
      <trkpt lat="43.32914" lon="-1.05618">
        <ele>81.4</ele>
        <time>2022-09-11T08:07:49Z</time>
      </trkpt>
      <trkpt lat="43.32925" lon="-1.0562">
        <ele>81.4</ele>
        <time>2022-09-11T08:07:54Z</time>
      </trkpt>
      <trkpt lat="43.3294" lon="-1.05624">
        <ele>81.6</ele>
        <time>2022-09-11T08:08:00Z</time>
      </trkpt>
      <trkpt lat="43.32952" lon="-1.05626">
        <ele>82.2</ele>
        <time>2022-09-11T08:08:07Z</time>
      </trkpt>
      <trkpt lat="43.3296" lon="-1.05629">
        <ele>82.4</ele>
        <time>2022-09-11T08:08:12Z</time>
      </trkpt>
      <trkpt lat="43.32965" lon="-1.0563">
        <ele>82.4</ele>
        <time>2022-09-11T08:08:15Z</time>
      </trkpt>
      <trkpt lat="43.32992" lon="-1.05637">
        <ele>82.6</ele>
        <time>2022-09-11T08:10:30Z</time>
      </trkpt>
      <trkpt lat="43.32996" lon="-1.05637">
        <ele>82.6</ele>
        <time>2022-09-11T08:10:32Z</time>
      </trkpt>
      <trkpt lat="43.33011" lon="-1.05636">
        <ele>82.8</ele>
        <time>2022-09-11T08:10:38Z</time>
      </trkpt>
      <trkpt lat="43.33028" lon="-1.05631">
        <ele>83</ele>
        <time>2022-09-11T08:10:45Z</time>
      </trkpt>
      <trkpt lat="43.33038" lon="-1.05627">
        <ele>82.8</ele>
        <time>2022-09-11T08:10:50Z</time>
      </trkpt>
      <trkpt lat="43.33049" lon="-1.05624">
        <ele>83.2</ele>
        <time>2022-09-11T08:10:56Z</time>
      </trkpt>
      <trkpt lat="43.3305" lon="-1.05623">
        <ele>83.2</ele>
        <time>2022-09-11T08:10:57Z</time>
      </trkpt>
      <trkpt lat="43.33061" lon="-1.05625">
        <ele>83.4</ele>
        <time>2022-09-11T08:11:15Z</time>
      </trkpt>
      <trkpt lat="43.3307" lon="-1.05626">
        <ele>83.8</ele>
        <time>2022-09-11T08:11:20Z</time>
      </trkpt>
      <trkpt lat="43.33073" lon="-1.05628">
        <ele>84</ele>
        <time>2022-09-11T08:11:22Z</time>
      </trkpt>
      <trkpt lat="43.33079" lon="-1.0563">
        <ele>84.6</ele>
        <time>2022-09-11T08:11:26Z</time>
      </trkpt>
      <trkpt lat="43.33083" lon="-1.05631">
        <ele>85.2</ele>
        <time>2022-09-11T08:11:28Z</time>
      </trkpt>
      <trkpt lat="43.33094" lon="-1.05634">
        <ele>85.6</ele>
        <time>2022-09-11T08:11:33Z</time>
      </trkpt>
      <trkpt lat="43.33106" lon="-1.05638">
        <ele>86.4</ele>
        <time>2022-09-11T08:11:39Z</time>
      </trkpt>
      <trkpt lat="43.33114" lon="-1.05641">
        <ele>86.6</ele>
        <time>2022-09-11T08:11:43Z</time>
      </trkpt>
      <trkpt lat="43.33121" lon="-1.05644">
        <ele>87</ele>
        <time>2022-09-11T08:11:46Z</time>
      </trkpt>
      <trkpt lat="43.33131" lon="-1.05646">
        <ele>87.8</ele>
        <time>2022-09-11T08:11:50Z</time>
      </trkpt>
      <trkpt lat="43.33133" lon="-1.05646">
        <ele>87.8</ele>
        <time>2022-09-11T08:11:51Z</time>
      </trkpt>
      <trkpt lat="43.33143" lon="-1.0565">
        <ele>88.4</ele>
        <time>2022-09-11T08:11:57Z</time>
      </trkpt>
      <trkpt lat="43.33153" lon="-1.05654">
        <ele>88.8</ele>
        <time>2022-09-11T08:12:04Z</time>
      </trkpt>
      <trkpt lat="43.33161" lon="-1.05656">
        <ele>89</ele>
        <time>2022-09-11T08:12:10Z</time>
      </trkpt>
      <trkpt lat="43.33172" lon="-1.0566">
        <ele>89.4</ele>
        <time>2022-09-11T08:12:18Z</time>
      </trkpt>
      <trkpt lat="43.33182" lon="-1.05664">
        <ele>90</ele>
        <time>2022-09-11T08:12:25Z</time>
      </trkpt>
      <trkpt lat="43.33183" lon="-1.05664">
        <ele>90</ele>
        <time>2022-09-11T08:12:26Z</time>
      </trkpt>
      <trkpt lat="43.33192" lon="-1.05667">
        <ele>90.8</ele>
        <time>2022-09-11T08:12:34Z</time>
      </trkpt>
      <trkpt lat="43.33197" lon="-1.05668">
        <ele>91.2</ele>
        <time>2022-09-11T08:12:38Z</time>
      </trkpt>
      <trkpt lat="43.33198" lon="-1.05668">
        <ele>91.4</ele>
        <time>2022-09-11T08:12:40Z</time>
      </trkpt>
      <trkpt lat="43.33249" lon="-1.05665">
        <ele>96.8</ele>
        <time>2022-09-11T08:13:23Z</time>
      </trkpt>
      <trkpt lat="43.33253" lon="-1.05665">
        <ele>97.2</ele>
        <time>2022-09-11T08:13:26Z</time>
      </trkpt>
      <trkpt lat="43.33259" lon="-1.05664">
        <ele>97.6</ele>
        <time>2022-09-11T08:13:31Z</time>
      </trkpt>
      <trkpt lat="43.33262" lon="-1.05664">
        <ele>97.8</ele>
        <time>2022-09-11T08:13:33Z</time>
      </trkpt>
      <trkpt lat="43.33263" lon="-1.05664">
        <ele>97.8</ele>
        <time>2022-09-11T08:13:34Z</time>
      </trkpt>
      <trkpt lat="43.33269" lon="-1.05663">
        <ele>98.4</ele>
        <time>2022-09-11T08:13:39Z</time>
      </trkpt>
      <trkpt lat="43.33273" lon="-1.05661">
        <ele>98.4</ele>
        <time>2022-09-11T08:13:43Z</time>
      </trkpt>
      <trkpt lat="43.33274" lon="-1.0566">
        <ele>98.4</ele>
        <time>2022-09-11T08:13:46Z</time>
      </trkpt>
      <trkpt lat="43.33283" lon="-1.05657">
        <ele>99</ele>
        <time>2022-09-11T08:13:52Z</time>
      </trkpt>
      <trkpt lat="43.33286" lon="-1.05656">
        <ele>99.4</ele>
        <time>2022-09-11T08:13:54Z</time>
      </trkpt>
      <trkpt lat="43.33297" lon="-1.05653">
        <ele>100</ele>
        <time>2022-09-11T08:14:00Z</time>
      </trkpt>
      <trkpt lat="43.33298" lon="-1.05653">
        <ele>100.2</ele>
        <time>2022-09-11T08:14:01Z</time>
      </trkpt>
      <trkpt lat="43.3331" lon="-1.05651">
        <ele>101</ele>
        <time>2022-09-11T08:14:08Z</time>
      </trkpt>
      <trkpt lat="43.33312" lon="-1.05652">
        <ele>101.2</ele>
        <time>2022-09-11T08:14:09Z</time>
      </trkpt>
      <trkpt lat="43.33321" lon="-1.05651">
        <ele>102.2</ele>
        <time>2022-09-11T08:14:14Z</time>
      </trkpt>
      <trkpt lat="43.33322" lon="-1.0565">
        <ele>102.4</ele>
        <time>2022-09-11T08:14:15Z</time>
      </trkpt>
      <trkpt lat="43.33332" lon="-1.05648">
        <ele>103.2</ele>
        <time>2022-09-11T08:14:21Z</time>
      </trkpt>
      <trkpt lat="43.33341" lon="-1.05648">
        <ele>104.2</ele>
        <time>2022-09-11T08:14:26Z</time>
      </trkpt>
      <trkpt lat="43.33343" lon="-1.05648">
        <ele>104.6</ele>
        <time>2022-09-11T08:14:27Z</time>
      </trkpt>
      <trkpt lat="43.33354" lon="-1.05647">
        <ele>105.4</ele>
        <time>2022-09-11T08:14:32Z</time>
      </trkpt>
      <trkpt lat="43.33356" lon="-1.05646">
        <ele>105.4</ele>
        <time>2022-09-11T08:14:33Z</time>
      </trkpt>
      <trkpt lat="43.33366" lon="-1.05645">
        <ele>106.4</ele>
        <time>2022-09-11T08:14:38Z</time>
      </trkpt>
      <trkpt lat="43.33378" lon="-1.05646">
        <ele>107</ele>
        <time>2022-09-11T08:14:44Z</time>
      </trkpt>
      <trkpt lat="43.33391" lon="-1.05647">
        <ele>107.4</ele>
        <time>2022-09-11T08:14:50Z</time>
      </trkpt>
      <trkpt lat="43.33393" lon="-1.05647">
        <ele>107.4</ele>
        <time>2022-09-11T08:14:51Z</time>
      </trkpt>
      <trkpt lat="43.33412" lon="-1.05651">
        <ele>107</ele>
        <time>2022-09-11T08:14:58Z</time>
      </trkpt>
      <trkpt lat="43.33427" lon="-1.05659">
        <ele>107.2</ele>
        <time>2022-09-11T08:15:04Z</time>
      </trkpt>
      <trkpt lat="43.3344" lon="-1.05667">
        <ele>107.2</ele>
        <time>2022-09-11T08:15:10Z</time>
      </trkpt>
      <trkpt lat="43.3346" lon="-1.05673">
        <ele>107.2</ele>
        <time>2022-09-11T08:15:16Z</time>
      </trkpt>
      <trkpt lat="43.33486" lon="-1.05683">
        <ele>107.4</ele>
        <time>2022-09-11T08:15:22Z</time>
      </trkpt>
      <trkpt lat="43.335" lon="-1.05689">
        <ele>107</ele>
        <time>2022-09-11T08:15:27Z</time>
      </trkpt>
      <trkpt lat="43.33523" lon="-1.05703">
        <ele>106.8</ele>
        <time>2022-09-11T08:15:33Z</time>
      </trkpt>
      <trkpt lat="43.33547" lon="-1.05721">
        <ele>107.4</ele>
        <time>2022-09-11T08:15:40Z</time>
      </trkpt>
      <trkpt lat="43.33561" lon="-1.05733">
        <ele>107.8</ele>
        <time>2022-09-11T08:15:45Z</time>
      </trkpt>
      <trkpt lat="43.33572" lon="-1.05745">
        <ele>108.4</ele>
        <time>2022-09-11T08:15:50Z</time>
      </trkpt>
      <trkpt lat="43.33574" lon="-1.05746">
        <ele>108.6</ele>
        <time>2022-09-11T08:15:51Z</time>
      </trkpt>
      <trkpt lat="43.33586" lon="-1.05756">
        <ele>109</ele>
        <time>2022-09-11T08:15:57Z</time>
      </trkpt>
      <trkpt lat="43.33595" lon="-1.05768">
        <ele>109.4</ele>
        <time>2022-09-11T08:16:03Z</time>
      </trkpt>
      <trkpt lat="43.33598" lon="-1.05774">
        <ele>109.6</ele>
        <time>2022-09-11T08:16:05Z</time>
      </trkpt>
      <trkpt lat="43.33607" lon="-1.05783">
        <ele>110</ele>
        <time>2022-09-11T08:16:09Z</time>
      </trkpt>
      <trkpt lat="43.33615" lon="-1.05793">
        <ele>110.6</ele>
        <time>2022-09-11T08:16:14Z</time>
      </trkpt>
      <trkpt lat="43.33623" lon="-1.05804">
        <ele>111.4</ele>
        <time>2022-09-11T08:16:20Z</time>
      </trkpt>
      <trkpt lat="43.33626" lon="-1.05808">
        <ele>111.6</ele>
        <time>2022-09-11T08:16:22Z</time>
      </trkpt>
      <trkpt lat="43.33659" lon="-1.05837">
        <ele>113.2</ele>
        <time>2022-09-11T08:17:09Z</time>
      </trkpt>
      <trkpt lat="43.33664" lon="-1.05841">
        <ele>113.6</ele>
        <time>2022-09-11T08:17:12Z</time>
      </trkpt>
      <trkpt lat="43.33675" lon="-1.05851">
        <ele>114.4</ele>
        <time>2022-09-11T08:17:19Z</time>
      </trkpt>
      <trkpt lat="43.33676" lon="-1.05852">
        <ele>114.4</ele>
        <time>2022-09-11T08:17:20Z</time>
      </trkpt>
      <trkpt lat="43.33686" lon="-1.05858">
        <ele>115.4</ele>
        <time>2022-09-11T08:17:26Z</time>
      </trkpt>
      <trkpt lat="43.33696" lon="-1.05866">
        <ele>116</ele>
        <time>2022-09-11T08:17:32Z</time>
      </trkpt>
      <trkpt lat="43.337" lon="-1.05869">
        <ele>116.4</ele>
        <time>2022-09-11T08:17:35Z</time>
      </trkpt>
      <trkpt lat="43.33706" lon="-1.05876">
        <ele>116.8</ele>
        <time>2022-09-11T08:17:39Z</time>
      </trkpt>
      <trkpt lat="43.33714" lon="-1.05882">
        <ele>117.4</ele>
        <time>2022-09-11T08:17:44Z</time>
      </trkpt>
      <trkpt lat="43.33718" lon="-1.05884">
        <ele>118</ele>
        <time>2022-09-11T08:17:47Z</time>
      </trkpt>
      <trkpt lat="43.33723" lon="-1.05889">
        <ele>118.6</ele>
        <time>2022-09-11T08:17:51Z</time>
      </trkpt>
      <trkpt lat="43.33727" lon="-1.05893">
        <ele>118.8</ele>
        <time>2022-09-11T08:17:54Z</time>
      </trkpt>
      <trkpt lat="43.33734" lon="-1.05899">
        <ele>119.6</ele>
        <time>2022-09-11T08:18:00Z</time>
      </trkpt>
      <trkpt lat="43.33741" lon="-1.05904">
        <ele>120.2</ele>
        <time>2022-09-11T08:18:05Z</time>
      </trkpt>
      <trkpt lat="43.33744" lon="-1.05907">
        <ele>120.6</ele>
        <time>2022-09-11T08:18:08Z</time>
      </trkpt>
      <trkpt lat="43.33748" lon="-1.0591">
        <ele>120.8</ele>
        <time>2022-09-11T08:18:11Z</time>
      </trkpt>
      <trkpt lat="43.33754" lon="-1.05915">
        <ele>121.4</ele>
        <time>2022-09-11T08:18:15Z</time>
      </trkpt>
      <trkpt lat="43.33757" lon="-1.05917">
        <ele>121.6</ele>
        <time>2022-09-11T08:18:17Z</time>
      </trkpt>
      <trkpt lat="43.33763" lon="-1.0592">
        <ele>122.4</ele>
        <time>2022-09-11T08:18:21Z</time>
      </trkpt>
      <trkpt lat="43.33766" lon="-1.05923">
        <ele>122.8</ele>
        <time>2022-09-11T08:18:24Z</time>
      </trkpt>
      <trkpt lat="43.33774" lon="-1.05927">
        <ele>123.6</ele>
        <time>2022-09-11T08:18:29Z</time>
      </trkpt>
      <trkpt lat="43.33777" lon="-1.05928">
        <ele>123.8</ele>
        <time>2022-09-11T08:18:31Z</time>
      </trkpt>
      <trkpt lat="43.33784" lon="-1.05932">
        <ele>124.6</ele>
        <time>2022-09-11T08:18:36Z</time>
      </trkpt>
      <trkpt lat="43.33787" lon="-1.05934">
        <ele>125</ele>
        <time>2022-09-11T08:18:38Z</time>
      </trkpt>
      <trkpt lat="43.33799" lon="-1.05938">
        <ele>126</ele>
        <time>2022-09-11T08:18:45Z</time>
      </trkpt>
      <trkpt lat="43.338" lon="-1.05939">
        <ele>126.2</ele>
        <time>2022-09-11T08:18:46Z</time>
      </trkpt>
      <trkpt lat="43.33812" lon="-1.05945">
        <ele>127</ele>
        <time>2022-09-11T08:18:54Z</time>
      </trkpt>
      <trkpt lat="43.33814" lon="-1.05945">
        <ele>127.2</ele>
        <time>2022-09-11T08:18:55Z</time>
      </trkpt>
      <trkpt lat="43.33822" lon="-1.0595">
        <ele>128.4</ele>
        <time>2022-09-11T08:19:02Z</time>
      </trkpt>
      <trkpt lat="43.33831" lon="-1.05954">
        <ele>129.6</ele>
        <time>2022-09-11T08:19:09Z</time>
      </trkpt>
      <trkpt lat="43.3384" lon="-1.05959">
        <ele>130.6</ele>
        <time>2022-09-11T08:19:16Z</time>
      </trkpt>
      <trkpt lat="43.33841" lon="-1.0596">
        <ele>130.8</ele>
        <time>2022-09-11T08:19:17Z</time>
      </trkpt>
      <trkpt lat="43.3385" lon="-1.05965">
        <ele>132</ele>
        <time>2022-09-11T08:19:24Z</time>
      </trkpt>
      <trkpt lat="43.33851" lon="-1.05966">
        <ele>132</ele>
        <time>2022-09-11T08:19:25Z</time>
      </trkpt>
      <trkpt lat="43.33856" lon="-1.05968">
        <ele>133</ele>
        <time>2022-09-11T08:19:29Z</time>
      </trkpt>
      <trkpt lat="43.33862" lon="-1.05971">
        <ele>134</ele>
        <time>2022-09-11T08:19:34Z</time>
      </trkpt>
      <trkpt lat="43.33863" lon="-1.05972">
        <ele>134.2</ele>
        <time>2022-09-11T08:19:35Z</time>
      </trkpt>
      <trkpt lat="43.3387" lon="-1.05979">
        <ele>135.2</ele>
        <time>2022-09-11T08:19:42Z</time>
      </trkpt>
      <trkpt lat="43.33872" lon="-1.0598">
        <ele>135.4</ele>
        <time>2022-09-11T08:19:43Z</time>
      </trkpt>
      <trkpt lat="43.33881" lon="-1.05987">
        <ele>136.4</ele>
        <time>2022-09-11T08:19:50Z</time>
      </trkpt>
      <trkpt lat="43.33882" lon="-1.05988">
        <ele>136.6</ele>
        <time>2022-09-11T08:19:51Z</time>
      </trkpt>
      <trkpt lat="43.33891" lon="-1.05995">
        <ele>137.4</ele>
        <time>2022-09-11T08:19:58Z</time>
      </trkpt>
      <trkpt lat="43.33892" lon="-1.05997">
        <ele>137.6</ele>
        <time>2022-09-11T08:19:59Z</time>
      </trkpt>
      <trkpt lat="43.33904" lon="-1.06005">
        <ele>138.2</ele>
        <time>2022-09-11T08:20:07Z</time>
      </trkpt>
      <trkpt lat="43.33907" lon="-1.06007">
        <ele>138.6</ele>
        <time>2022-09-11T08:20:09Z</time>
      </trkpt>
      <trkpt lat="43.33917" lon="-1.06012">
        <ele>139</ele>
        <time>2022-09-11T08:20:14Z</time>
      </trkpt>
      <trkpt lat="43.3393" lon="-1.06019">
        <ele>139.6</ele>
        <time>2022-09-11T08:20:22Z</time>
      </trkpt>
      <trkpt lat="43.33932" lon="-1.0602">
        <ele>139.8</ele>
        <time>2022-09-11T08:20:23Z</time>
      </trkpt>
      <trkpt lat="43.33937" lon="-1.06028">
        <ele>140.6</ele>
        <time>2022-09-11T08:20:28Z</time>
      </trkpt>
      <trkpt lat="43.33938" lon="-1.0603">
        <ele>140.8</ele>
        <time>2022-09-11T08:20:29Z</time>
      </trkpt>
      <trkpt lat="43.33942" lon="-1.06038">
        <ele>141.4</ele>
        <time>2022-09-11T08:20:34Z</time>
      </trkpt>
      <trkpt lat="43.33946" lon="-1.06039">
        <ele>142</ele>
        <time>2022-09-11T08:20:38Z</time>
      </trkpt>
      <trkpt lat="43.33946" lon="-1.0604">
        <ele>142.2</ele>
        <time>2022-09-11T08:20:39Z</time>
      </trkpt>
      <trkpt lat="43.33948" lon="-1.06042">
        <ele>142.2</ele>
        <time>2022-09-11T08:20:41Z</time>
      </trkpt>
      <trkpt lat="43.33946" lon="-1.06046">
        <ele>142.4</ele>
        <time>2022-09-11T08:20:44Z</time>
      </trkpt>
      <trkpt lat="43.33948" lon="-1.06048">
        <ele>142.6</ele>
        <time>2022-09-11T08:21:46Z</time>
      </trkpt>
      <trkpt lat="43.33951" lon="-1.06048">
        <ele>142.6</ele>
        <time>2022-09-11T08:21:47Z</time>
      </trkpt>
      <trkpt lat="43.33962" lon="-1.06056">
        <ele>142.6</ele>
        <time>2022-09-11T08:21:52Z</time>
      </trkpt>
      <trkpt lat="43.33976" lon="-1.06071">
        <ele>142.8</ele>
        <time>2022-09-11T08:21:59Z</time>
      </trkpt>
      <trkpt lat="43.33995" lon="-1.06094">
        <ele>142.4</ele>
        <time>2022-09-11T08:22:08Z</time>
      </trkpt>
      <trkpt lat="43.34006" lon="-1.06109">
        <ele>141.8</ele>
        <time>2022-09-11T08:22:11Z</time>
      </trkpt>
      <trkpt lat="43.34009" lon="-1.06115">
        <ele>141.6</ele>
        <time>2022-09-11T08:22:12Z</time>
      </trkpt>
      <trkpt lat="43.34013" lon="-1.0613">
        <ele>140.8</ele>
        <time>2022-09-11T08:22:14Z</time>
      </trkpt>
      <trkpt lat="43.34017" lon="-1.06135">
        <ele>140.4</ele>
        <time>2022-09-11T08:22:15Z</time>
      </trkpt>
      <trkpt lat="43.34022" lon="-1.06139">
        <ele>139.6</ele>
        <time>2022-09-11T08:22:16Z</time>
      </trkpt>
      <trkpt lat="43.34033" lon="-1.06138">
        <ele>138.4</ele>
        <time>2022-09-11T08:22:18Z</time>
      </trkpt>
      <trkpt lat="43.34048" lon="-1.06151">
        <ele>136.6</ele>
        <time>2022-09-11T08:22:21Z</time>
      </trkpt>
      <trkpt lat="43.34051" lon="-1.06156">
        <ele>135.6</ele>
        <time>2022-09-11T08:22:22Z</time>
      </trkpt>
      <trkpt lat="43.34054" lon="-1.06158">
        <ele>134.6</ele>
        <time>2022-09-11T08:22:23Z</time>
      </trkpt>
      <trkpt lat="43.34059" lon="-1.06156">
        <ele>133.8</ele>
        <time>2022-09-11T08:22:24Z</time>
      </trkpt>
      <trkpt lat="43.34063" lon="-1.06149">
        <ele>133.2</ele>
        <time>2022-09-11T08:22:25Z</time>
      </trkpt>
      <trkpt lat="43.34066" lon="-1.0614">
        <ele>132.4</ele>
        <time>2022-09-11T08:22:26Z</time>
      </trkpt>
      <trkpt lat="43.3407" lon="-1.06131">
        <ele>131.2</ele>
        <time>2022-09-11T08:22:27Z</time>
      </trkpt>
      <trkpt lat="43.34075" lon="-1.06123">
        <ele>130</ele>
        <time>2022-09-11T08:22:28Z</time>
      </trkpt>
      <trkpt lat="43.34079" lon="-1.06116">
        <ele>129</ele>
        <time>2022-09-11T08:22:29Z</time>
      </trkpt>
      <trkpt lat="43.34086" lon="-1.06111">
        <ele>128.2</ele>
        <time>2022-09-11T08:22:30Z</time>
      </trkpt>
      <trkpt lat="43.34093" lon="-1.06109">
        <ele>127.6</ele>
        <time>2022-09-11T08:22:31Z</time>
      </trkpt>
      <trkpt lat="43.34108" lon="-1.0611">
        <ele>127.4</ele>
        <time>2022-09-11T08:22:33Z</time>
      </trkpt>
      <trkpt lat="43.3412" lon="-1.06113">
        <ele>127.2</ele>
        <time>2022-09-11T08:22:35Z</time>
      </trkpt>
      <trkpt lat="43.34129" lon="-1.06115">
        <ele>128</ele>
        <time>2022-09-11T08:22:37Z</time>
      </trkpt>
      <trkpt lat="43.34132" lon="-1.06115">
        <ele>128.8</ele>
        <time>2022-09-11T08:22:38Z</time>
      </trkpt>
      <trkpt lat="43.34138" lon="-1.06115">
        <ele>130</ele>
        <time>2022-09-11T08:22:40Z</time>
      </trkpt>
      <trkpt lat="43.3414" lon="-1.06115">
        <ele>130.4</ele>
        <time>2022-09-11T08:22:41Z</time>
      </trkpt>
      <trkpt lat="43.34145" lon="-1.06115">
        <ele>131</ele>
        <time>2022-09-11T08:22:43Z</time>
      </trkpt>
      <trkpt lat="43.3415" lon="-1.06116">
        <ele>131.8</ele>
        <time>2022-09-11T08:22:46Z</time>
      </trkpt>
      <trkpt lat="43.34152" lon="-1.06115">
        <ele>131.8</ele>
        <time>2022-09-11T08:22:47Z</time>
      </trkpt>
      <trkpt lat="43.34155" lon="-1.06115">
        <ele>132.2</ele>
        <time>2022-09-11T08:22:49Z</time>
      </trkpt>
      <trkpt lat="43.34161" lon="-1.06115">
        <ele>132.8</ele>
        <time>2022-09-11T08:22:52Z</time>
      </trkpt>
      <trkpt lat="43.34166" lon="-1.06115">
        <ele>133</ele>
        <time>2022-09-11T08:22:54Z</time>
      </trkpt>
      <trkpt lat="43.34169" lon="-1.06116">
        <ele>133.4</ele>
        <time>2022-09-11T08:22:56Z</time>
      </trkpt>
      <trkpt lat="43.34176" lon="-1.06114">
        <ele>134.4</ele>
        <time>2022-09-11T08:23:00Z</time>
      </trkpt>
      <trkpt lat="43.34177" lon="-1.06115">
        <ele>134.6</ele>
        <time>2022-09-11T08:23:01Z</time>
      </trkpt>
      <trkpt lat="43.34179" lon="-1.06114">
        <ele>134.8</ele>
        <time>2022-09-11T08:23:02Z</time>
      </trkpt>
      <trkpt lat="43.34183" lon="-1.06113">
        <ele>135.2</ele>
        <time>2022-09-11T08:23:05Z</time>
      </trkpt>
      <trkpt lat="43.34197" lon="-1.06112">
        <ele>134.8</ele>
        <time>2022-09-11T08:23:10Z</time>
      </trkpt>
      <trkpt lat="43.34221" lon="-1.06105">
        <ele>134.6</ele>
        <time>2022-09-11T08:23:17Z</time>
      </trkpt>
      <trkpt lat="43.34244" lon="-1.06101">
        <ele>134</ele>
        <time>2022-09-11T08:23:23Z</time>
      </trkpt>
      <trkpt lat="43.3426" lon="-1.06109">
        <ele>133.6</ele>
        <time>2022-09-11T08:23:27Z</time>
      </trkpt>
      <trkpt lat="43.34263" lon="-1.06113">
        <ele>133.6</ele>
        <time>2022-09-11T08:23:28Z</time>
      </trkpt>
      <trkpt lat="43.34267" lon="-1.06116">
        <ele>133.4</ele>
        <time>2022-09-11T08:23:29Z</time>
      </trkpt>
      <trkpt lat="43.343" lon="-1.06144">
        <ele>132.4</ele>
        <time>2022-09-11T08:23:37Z</time>
      </trkpt>
      <trkpt lat="43.34304" lon="-1.06147">
        <ele>132.2</ele>
        <time>2022-09-11T08:23:38Z</time>
      </trkpt>
      <trkpt lat="43.3433" lon="-1.06165">
        <ele>131.4</ele>
        <time>2022-09-11T08:23:44Z</time>
      </trkpt>
      <trkpt lat="43.34335" lon="-1.06166">
        <ele>131.4</ele>
        <time>2022-09-11T08:23:45Z</time>
      </trkpt>
      <trkpt lat="43.34363" lon="-1.06173">
        <ele>131.2</ele>
        <time>2022-09-11T08:23:51Z</time>
      </trkpt>
      <trkpt lat="43.34388" lon="-1.06176">
        <ele>131.6</ele>
        <time>2022-09-11T08:23:58Z</time>
      </trkpt>
      <trkpt lat="43.34412" lon="-1.06182">
        <ele>132.2</ele>
        <time>2022-09-11T08:24:06Z</time>
      </trkpt>
      <trkpt lat="43.3442" lon="-1.06184">
        <ele>132.6</ele>
        <time>2022-09-11T08:24:09Z</time>
      </trkpt>
      <trkpt lat="43.34437" lon="-1.06189">
        <ele>133.4</ele>
        <time>2022-09-11T08:24:15Z</time>
      </trkpt>
      <trkpt lat="43.34445" lon="-1.06192">
        <ele>133.6</ele>
        <time>2022-09-11T08:24:18Z</time>
      </trkpt>
      <trkpt lat="43.34461" lon="-1.06193">
        <ele>134.4</ele>
        <time>2022-09-11T08:24:24Z</time>
      </trkpt>
      <trkpt lat="43.34469" lon="-1.06192">
        <ele>134.8</ele>
        <time>2022-09-11T08:24:27Z</time>
      </trkpt>
      <trkpt lat="43.34483" lon="-1.06189">
        <ele>135.2</ele>
        <time>2022-09-11T08:24:32Z</time>
      </trkpt>
      <trkpt lat="43.34501" lon="-1.06187">
        <ele>135.8</ele>
        <time>2022-09-11T08:24:39Z</time>
      </trkpt>
      <trkpt lat="43.34524" lon="-1.06181">
        <ele>136.8</ele>
        <time>2022-09-11T08:24:47Z</time>
      </trkpt>
      <trkpt lat="43.34527" lon="-1.0618">
        <ele>137</ele>
        <time>2022-09-11T08:24:48Z</time>
      </trkpt>
      <trkpt lat="43.3454" lon="-1.06176">
        <ele>137.2</ele>
        <time>2022-09-11T08:24:54Z</time>
      </trkpt>
      <trkpt lat="43.34554" lon="-1.06171">
        <ele>137.2</ele>
        <time>2022-09-11T08:25:00Z</time>
      </trkpt>
      <trkpt lat="43.34575" lon="-1.06161">
        <ele>136.8</ele>
        <time>2022-09-11T08:25:08Z</time>
      </trkpt>
      <trkpt lat="43.34597" lon="-1.06146">
        <ele>136.2</ele>
        <time>2022-09-11T08:25:14Z</time>
      </trkpt>
      <trkpt lat="43.34602" lon="-1.06144">
        <ele>136</ele>
        <time>2022-09-11T08:25:15Z</time>
      </trkpt>
      <trkpt lat="43.34624" lon="-1.0613">
        <ele>135</ele>
        <time>2022-09-11T08:25:20Z</time>
      </trkpt>
      <trkpt lat="43.34628" lon="-1.06126">
        <ele>134.6</ele>
        <time>2022-09-11T08:25:21Z</time>
      </trkpt>
      <trkpt lat="43.34641" lon="-1.06114">
        <ele>133.8</ele>
        <time>2022-09-11T08:25:24Z</time>
      </trkpt>
      <trkpt lat="43.34645" lon="-1.06108">
        <ele>133.4</ele>
        <time>2022-09-11T08:25:25Z</time>
      </trkpt>
      <trkpt lat="43.34653" lon="-1.06097">
        <ele>132.6</ele>
        <time>2022-09-11T08:25:27Z</time>
      </trkpt>
      <trkpt lat="43.34663" lon="-1.06085">
        <ele>132</ele>
        <time>2022-09-11T08:25:29Z</time>
      </trkpt>
      <trkpt lat="43.34668" lon="-1.06078">
        <ele>131.4</ele>
        <time>2022-09-11T08:25:30Z</time>
      </trkpt>
      <trkpt lat="43.3468" lon="-1.06065">
        <ele>130.6</ele>
        <time>2022-09-11T08:25:32Z</time>
      </trkpt>
      <trkpt lat="43.34686" lon="-1.06058">
        <ele>130.2</ele>
        <time>2022-09-11T08:25:33Z</time>
      </trkpt>
      <trkpt lat="43.34697" lon="-1.06047">
        <ele>128.8</ele>
        <time>2022-09-11T08:25:35Z</time>
      </trkpt>
      <trkpt lat="43.34706" lon="-1.0604">
        <ele>128</ele>
        <time>2022-09-11T08:25:37Z</time>
      </trkpt>
      <trkpt lat="43.3471" lon="-1.06038">
        <ele>128</ele>
        <time>2022-09-11T08:25:38Z</time>
      </trkpt>
      <trkpt lat="43.34714" lon="-1.06039">
        <ele>127.6</ele>
        <time>2022-09-11T08:25:39Z</time>
      </trkpt>
      <trkpt lat="43.34718" lon="-1.0604">
        <ele>127.4</ele>
        <time>2022-09-11T08:25:40Z</time>
      </trkpt>
      <trkpt lat="43.34732" lon="-1.06041">
        <ele>127</ele>
        <time>2022-09-11T08:25:45Z</time>
      </trkpt>
      <trkpt lat="43.34734" lon="-1.0604">
        <ele>126.8</ele>
        <time>2022-09-11T08:25:46Z</time>
      </trkpt>
      <trkpt lat="43.3474" lon="-1.06037">
        <ele>126.6</ele>
        <time>2022-09-11T08:25:49Z</time>
      </trkpt>
      <trkpt lat="43.34747" lon="-1.06032">
        <ele>126.6</ele>
        <time>2022-09-11T08:25:53Z</time>
      </trkpt>
      <trkpt lat="43.34751" lon="-1.0603">
        <ele>126.2</ele>
        <time>2022-09-11T08:25:58Z</time>
      </trkpt>
      <trkpt lat="43.34756" lon="-1.06027">
        <ele>126.2</ele>
        <time>2022-09-11T08:26:08Z</time>
      </trkpt>
      <trkpt lat="43.34762" lon="-1.06026">
        <ele>126.4</ele>
        <time>2022-09-11T08:26:10Z</time>
      </trkpt>
      <trkpt lat="43.34771" lon="-1.06029">
        <ele>126.4</ele>
        <time>2022-09-11T08:26:13Z</time>
      </trkpt>
      <trkpt lat="43.34782" lon="-1.06033">
        <ele>126</ele>
        <time>2022-09-11T08:26:16Z</time>
      </trkpt>
      <trkpt lat="43.34805" lon="-1.06045">
        <ele>125.6</ele>
        <time>2022-09-11T08:26:22Z</time>
      </trkpt>
      <trkpt lat="43.3481" lon="-1.06048">
        <ele>125.4</ele>
        <time>2022-09-11T08:26:23Z</time>
      </trkpt>
      <trkpt lat="43.3482" lon="-1.06052">
        <ele>124.6</ele>
        <time>2022-09-11T08:26:26Z</time>
      </trkpt>
      <trkpt lat="43.34825" lon="-1.06049">
        <ele>124.4</ele>
        <time>2022-09-11T08:26:28Z</time>
      </trkpt>
      <trkpt lat="43.34828" lon="-1.06046">
        <ele>123.8</ele>
        <time>2022-09-11T08:26:32Z</time>
      </trkpt>
      <trkpt lat="43.34835" lon="-1.06045">
        <ele>123.6</ele>
        <time>2022-09-11T08:26:36Z</time>
      </trkpt>
      <trkpt lat="43.34837" lon="-1.06044">
        <ele>123.2</ele>
        <time>2022-09-11T08:26:37Z</time>
      </trkpt>
      <trkpt lat="43.34842" lon="-1.06042">
        <ele>121.4</ele>
        <time>2022-09-11T08:26:39Z</time>
      </trkpt>
      <trkpt lat="43.34851" lon="-1.06042">
        <ele>120.4</ele>
        <time>2022-09-11T08:26:42Z</time>
      </trkpt>
      <trkpt lat="43.34857" lon="-1.06046">
        <ele>119</ele>
        <time>2022-09-11T08:26:45Z</time>
      </trkpt>
      <trkpt lat="43.34864" lon="-1.06052">
        <ele>118.4</ele>
        <time>2022-09-11T08:26:47Z</time>
      </trkpt>
      <trkpt lat="43.34872" lon="-1.06058">
        <ele>117.8</ele>
        <time>2022-09-11T08:26:49Z</time>
      </trkpt>
      <trkpt lat="43.34884" lon="-1.06067">
        <ele>116.8</ele>
        <time>2022-09-11T08:26:53Z</time>
      </trkpt>
      <trkpt lat="43.34898" lon="-1.06065">
        <ele>115.6</ele>
        <time>2022-09-11T08:26:57Z</time>
      </trkpt>
      <trkpt lat="43.34904" lon="-1.06061">
        <ele>115.2</ele>
        <time>2022-09-11T08:26:59Z</time>
      </trkpt>
      <trkpt lat="43.34912" lon="-1.06059">
        <ele>114.6</ele>
        <time>2022-09-11T08:27:02Z</time>
      </trkpt>
      <trkpt lat="43.34918" lon="-1.0606">
        <ele>113.4</ele>
        <time>2022-09-11T08:27:04Z</time>
      </trkpt>
      <trkpt lat="43.34928" lon="-1.06064">
        <ele>112.2</ele>
        <time>2022-09-11T08:27:07Z</time>
      </trkpt>
      <trkpt lat="43.34939" lon="-1.06069">
        <ele>111.2</ele>
        <time>2022-09-11T08:27:12Z</time>
      </trkpt>
      <trkpt lat="43.34942" lon="-1.0607">
        <ele>111</ele>
        <time>2022-09-11T08:27:13Z</time>
      </trkpt>
      <trkpt lat="43.34964" lon="-1.06071">
        <ele>110.2</ele>
        <time>2022-09-11T08:27:19Z</time>
      </trkpt>
      <trkpt lat="43.34972" lon="-1.06071">
        <ele>110</ele>
        <time>2022-09-11T08:27:21Z</time>
      </trkpt>
      <trkpt lat="43.34989" lon="-1.06073">
        <ele>109.4</ele>
        <time>2022-09-11T08:27:26Z</time>
      </trkpt>
      <trkpt lat="43.3501" lon="-1.06073">
        <ele>108.8</ele>
        <time>2022-09-11T08:27:32Z</time>
      </trkpt>
      <trkpt lat="43.35017" lon="-1.06074">
        <ele>108.6</ele>
        <time>2022-09-11T08:27:34Z</time>
      </trkpt>
      <trkpt lat="43.35044" lon="-1.06084">
        <ele>108</ele>
        <time>2022-09-11T08:27:41Z</time>
      </trkpt>
      <trkpt lat="43.35055" lon="-1.06088">
        <ele>107.8</ele>
        <time>2022-09-11T08:27:44Z</time>
      </trkpt>
      <trkpt lat="43.35064" lon="-1.06091">
        <ele>107.6</ele>
        <time>2022-09-11T08:27:47Z</time>
      </trkpt>
      <trkpt lat="43.35077" lon="-1.06086">
        <ele>107.8</ele>
        <time>2022-09-11T08:27:53Z</time>
      </trkpt>
      <trkpt lat="43.35082" lon="-1.06086">
        <ele>107.4</ele>
        <time>2022-09-11T08:27:55Z</time>
      </trkpt>
      <trkpt lat="43.35088" lon="-1.06086">
        <ele>106.4</ele>
        <time>2022-09-11T08:27:57Z</time>
      </trkpt>
      <trkpt lat="43.3509" lon="-1.06086">
        <ele>106</ele>
        <time>2022-09-11T08:27:58Z</time>
      </trkpt>
      <trkpt lat="43.35097" lon="-1.06089">
        <ele>105.2</ele>
        <time>2022-09-11T08:28:01Z</time>
      </trkpt>
      <trkpt lat="43.35104" lon="-1.0609">
        <ele>104.8</ele>
        <time>2022-09-11T08:28:03Z</time>
      </trkpt>
      <trkpt lat="43.35106" lon="-1.06091">
        <ele>104.8</ele>
        <time>2022-09-11T08:28:04Z</time>
      </trkpt>
      <trkpt lat="43.35116" lon="-1.06094">
        <ele>104.2</ele>
        <time>2022-09-11T08:28:07Z</time>
      </trkpt>
      <trkpt lat="43.3512" lon="-1.06096">
        <ele>104</ele>
        <time>2022-09-11T08:28:08Z</time>
      </trkpt>
      <trkpt lat="43.35143" lon="-1.06107">
        <ele>104.4</ele>
        <time>2022-09-11T08:28:14Z</time>
      </trkpt>
      <trkpt lat="43.35143" lon="-1.06108">
        <ele>105.2</ele>
        <time>2022-09-11T08:28:16Z</time>
      </trkpt>
      <trkpt lat="43.35172" lon="-1.06113">
        <ele>104.4</ele>
        <time>2022-09-11T08:28:27Z</time>
      </trkpt>
      <trkpt lat="43.35175" lon="-1.06112">
        <ele>104.4</ele>
        <time>2022-09-11T08:28:28Z</time>
      </trkpt>
      <trkpt lat="43.35197" lon="-1.06107">
        <ele>105.2</ele>
        <time>2022-09-11T08:28:38Z</time>
      </trkpt>
      <trkpt lat="43.352" lon="-1.06107">
        <ele>105</ele>
        <time>2022-09-11T08:28:39Z</time>
      </trkpt>
      <trkpt lat="43.35222" lon="-1.06104">
        <ele>104.4</ele>
        <time>2022-09-11T08:28:45Z</time>
      </trkpt>
      <trkpt lat="43.35232" lon="-1.06098">
        <ele>104.4</ele>
        <time>2022-09-11T08:28:48Z</time>
      </trkpt>
      <trkpt lat="43.35234" lon="-1.06095">
        <ele>104.4</ele>
        <time>2022-09-11T08:28:49Z</time>
      </trkpt>
      <trkpt lat="43.35242" lon="-1.06086">
        <ele>104.2</ele>
        <time>2022-09-11T08:28:52Z</time>
      </trkpt>
      <trkpt lat="43.35249" lon="-1.06076">
        <ele>103.6</ele>
        <time>2022-09-11T08:28:54Z</time>
      </trkpt>
      <trkpt lat="43.35254" lon="-1.06071">
        <ele>103.2</ele>
        <time>2022-09-11T08:28:55Z</time>
      </trkpt>
      <trkpt lat="43.35258" lon="-1.06066">
        <ele>103</ele>
        <time>2022-09-11T08:28:56Z</time>
      </trkpt>
      <trkpt lat="43.35268" lon="-1.06053">
        <ele>102.6</ele>
        <time>2022-09-11T08:28:58Z</time>
      </trkpt>
      <trkpt lat="43.35278" lon="-1.0604">
        <ele>101.8</ele>
        <time>2022-09-11T08:29:00Z</time>
      </trkpt>
      <trkpt lat="43.35292" lon="-1.06022">
        <ele>100.6</ele>
        <time>2022-09-11T08:29:03Z</time>
      </trkpt>
      <trkpt lat="43.353" lon="-1.0601">
        <ele>100.4</ele>
        <time>2022-09-11T08:29:05Z</time>
      </trkpt>
      <trkpt lat="43.35318" lon="-1.05987">
        <ele>99.6</ele>
        <time>2022-09-11T08:29:09Z</time>
      </trkpt>
      <trkpt lat="43.35323" lon="-1.05984">
        <ele>99.6</ele>
        <time>2022-09-11T08:29:10Z</time>
      </trkpt>
      <trkpt lat="43.35328" lon="-1.05981">
        <ele>99.6</ele>
        <time>2022-09-11T08:29:11Z</time>
      </trkpt>
      <trkpt lat="43.3534" lon="-1.05981">
        <ele>99.4</ele>
        <time>2022-09-11T08:29:14Z</time>
      </trkpt>
      <trkpt lat="43.35351" lon="-1.05988">
        <ele>100.4</ele>
        <time>2022-09-11T08:29:18Z</time>
      </trkpt>
      <trkpt lat="43.35353" lon="-1.05989">
        <ele>100.6</ele>
        <time>2022-09-11T08:29:19Z</time>
      </trkpt>
      <trkpt lat="43.35358" lon="-1.05992">
        <ele>101.8</ele>
        <time>2022-09-11T08:29:23Z</time>
      </trkpt>
      <trkpt lat="43.35357" lon="-1.05991">
        <ele>102</ele>
        <time>2022-09-11T08:29:24Z</time>
      </trkpt>
      <trkpt lat="43.35375" lon="-1.06001">
        <ele>103.6</ele>
        <time>2022-09-11T08:29:50Z</time>
      </trkpt>
      <trkpt lat="43.35379" lon="-1.06002">
        <ele>104</ele>
        <time>2022-09-11T08:29:52Z</time>
      </trkpt>
      <trkpt lat="43.35389" lon="-1.06005">
        <ele>104.8</ele>
        <time>2022-09-11T08:29:57Z</time>
      </trkpt>
      <trkpt lat="43.35391" lon="-1.06006">
        <ele>104.8</ele>
        <time>2022-09-11T08:29:58Z</time>
      </trkpt>
      <trkpt lat="43.354" lon="-1.0601">
        <ele>105.8</ele>
        <time>2022-09-11T08:30:03Z</time>
      </trkpt>
      <trkpt lat="43.35406" lon="-1.06013">
        <ele>106.2</ele>
        <time>2022-09-11T08:30:06Z</time>
      </trkpt>
      <trkpt lat="43.3542" lon="-1.06017">
        <ele>106.8</ele>
        <time>2022-09-11T08:30:12Z</time>
      </trkpt>
      <trkpt lat="43.35422" lon="-1.06018">
        <ele>107</ele>
        <time>2022-09-11T08:30:13Z</time>
      </trkpt>
      <trkpt lat="43.35441" lon="-1.06023">
        <ele>106.8</ele>
        <time>2022-09-11T08:30:20Z</time>
      </trkpt>
      <trkpt lat="43.35469" lon="-1.06033">
        <ele>106.4</ele>
        <time>2022-09-11T08:30:29Z</time>
      </trkpt>
      <trkpt lat="43.35497" lon="-1.06041">
        <ele>106.2</ele>
        <time>2022-09-11T08:30:36Z</time>
      </trkpt>
      <trkpt lat="43.35512" lon="-1.06044">
        <ele>105.8</ele>
        <time>2022-09-11T08:30:40Z</time>
      </trkpt>
      <trkpt lat="43.35529" lon="-1.06048">
        <ele>105.4</ele>
        <time>2022-09-11T08:30:45Z</time>
      </trkpt>
      <trkpt lat="43.35549" lon="-1.06051">
        <ele>105.8</ele>
        <time>2022-09-11T08:30:51Z</time>
      </trkpt>
      <trkpt lat="43.35577" lon="-1.06053">
        <ele>106.6</ele>
        <time>2022-09-11T08:31:00Z</time>
      </trkpt>
      <trkpt lat="43.3558" lon="-1.06053">
        <ele>106.8</ele>
        <time>2022-09-11T08:31:01Z</time>
      </trkpt>
      <trkpt lat="43.35585" lon="-1.06054">
        <ele>107.8</ele>
        <time>2022-09-11T08:31:04Z</time>
      </trkpt>
      <trkpt lat="43.35587" lon="-1.06054">
        <ele>108</ele>
        <time>2022-09-11T08:31:05Z</time>
      </trkpt>
      <trkpt lat="43.35605" lon="-1.06055">
        <ele>108.4</ele>
        <time>2022-09-11T08:31:13Z</time>
      </trkpt>
      <trkpt lat="43.35609" lon="-1.06056">
        <ele>108.8</ele>
        <time>2022-09-11T08:31:16Z</time>
      </trkpt>
      <trkpt lat="43.35614" lon="-1.06057">
        <ele>109.4</ele>
        <time>2022-09-11T08:31:19Z</time>
      </trkpt>
      <trkpt lat="43.35622" lon="-1.06057">
        <ele>110</ele>
        <time>2022-09-11T08:31:23Z</time>
      </trkpt>
      <trkpt lat="43.35629" lon="-1.06058">
        <ele>110.4</ele>
        <time>2022-09-11T08:31:27Z</time>
      </trkpt>
      <trkpt lat="43.35631" lon="-1.06059">
        <ele>110.6</ele>
        <time>2022-09-11T08:31:28Z</time>
      </trkpt>
      <trkpt lat="43.35636" lon="-1.06059">
        <ele>111</ele>
        <time>2022-09-11T08:31:31Z</time>
      </trkpt>
      <trkpt lat="43.35647" lon="-1.06061">
        <ele>111.6</ele>
        <time>2022-09-11T08:31:37Z</time>
      </trkpt>
      <trkpt lat="43.35667" lon="-1.06065">
        <ele>111.8</ele>
        <time>2022-09-11T08:31:46Z</time>
      </trkpt>
      <trkpt lat="43.35682" lon="-1.06069">
        <ele>111.6</ele>
        <time>2022-09-11T08:31:53Z</time>
      </trkpt>
      <trkpt lat="43.35706" lon="-1.06078">
        <ele>110.4</ele>
        <time>2022-09-11T08:32:01Z</time>
      </trkpt>
      <trkpt lat="43.35712" lon="-1.06082">
        <ele>110</ele>
        <time>2022-09-11T08:32:04Z</time>
      </trkpt>
      <trkpt lat="43.35722" lon="-1.06088">
        <ele>109.4</ele>
        <time>2022-09-11T08:32:08Z</time>
      </trkpt>
      <trkpt lat="43.35731" lon="-1.06091">
        <ele>109</ele>
        <time>2022-09-11T08:32:11Z</time>
      </trkpt>
      <trkpt lat="43.3574" lon="-1.06094">
        <ele>108.4</ele>
        <time>2022-09-11T08:32:14Z</time>
      </trkpt>
      <trkpt lat="43.35753" lon="-1.06096">
        <ele>108</ele>
        <time>2022-09-11T08:32:18Z</time>
      </trkpt>
      <trkpt lat="43.35768" lon="-1.06098">
        <ele>107.2</ele>
        <time>2022-09-11T08:32:22Z</time>
      </trkpt>
      <trkpt lat="43.35774" lon="-1.061">
        <ele>106.8</ele>
        <time>2022-09-11T08:32:24Z</time>
      </trkpt>
      <trkpt lat="43.35796" lon="-1.061">
        <ele>106.2</ele>
        <time>2022-09-11T08:32:31Z</time>
      </trkpt>
      <trkpt lat="43.35799" lon="-1.061">
        <ele>106.2</ele>
        <time>2022-09-11T08:33:13Z</time>
      </trkpt>
      <trkpt lat="43.35804" lon="-1.06098">
        <ele>106.2</ele>
        <time>2022-09-11T08:33:15Z</time>
      </trkpt>
      <trkpt lat="43.3582" lon="-1.06093">
        <ele>105.8</ele>
        <time>2022-09-11T08:33:20Z</time>
      </trkpt>
      <trkpt lat="43.35824" lon="-1.06091">
        <ele>105.6</ele>
        <time>2022-09-11T08:33:21Z</time>
      </trkpt>
      <trkpt lat="43.35834" lon="-1.06086">
        <ele>104.8</ele>
        <time>2022-09-11T08:33:25Z</time>
      </trkpt>
      <trkpt lat="43.35837" lon="-1.06084">
        <ele>104.4</ele>
        <time>2022-09-11T08:33:26Z</time>
      </trkpt>
      <trkpt lat="43.35841" lon="-1.06083">
        <ele>103.8</ele>
        <time>2022-09-11T08:33:27Z</time>
      </trkpt>
      <trkpt lat="43.35845" lon="-1.06081">
        <ele>103.6</ele>
        <time>2022-09-11T08:33:28Z</time>
      </trkpt>
      <trkpt lat="43.35862" lon="-1.06073">
        <ele>102.8</ele>
        <time>2022-09-11T08:33:32Z</time>
      </trkpt>
      <trkpt lat="43.35866" lon="-1.0607">
        <ele>102.6</ele>
        <time>2022-09-11T08:33:33Z</time>
      </trkpt>
      <trkpt lat="43.35882" lon="-1.0606">
        <ele>102</ele>
        <time>2022-09-11T08:33:37Z</time>
      </trkpt>
      <trkpt lat="43.3591" lon="-1.06046">
        <ele>101.2</ele>
        <time>2022-09-11T08:33:44Z</time>
      </trkpt>
      <trkpt lat="43.35929" lon="-1.06035">
        <ele>100</ele>
        <time>2022-09-11T08:33:49Z</time>
      </trkpt>
      <trkpt lat="43.35933" lon="-1.06033">
        <ele>99.8</ele>
        <time>2022-09-11T08:33:50Z</time>
      </trkpt>
      <trkpt lat="43.35938" lon="-1.06031">
        <ele>99.2</ele>
        <time>2022-09-11T08:33:51Z</time>
      </trkpt>
      <trkpt lat="43.35942" lon="-1.06029">
        <ele>98.8</ele>
        <time>2022-09-11T08:33:52Z</time>
      </trkpt>
      <trkpt lat="43.35954" lon="-1.0602">
        <ele>97.4</ele>
        <time>2022-09-11T08:33:55Z</time>
      </trkpt>
      <trkpt lat="43.35958" lon="-1.06019">
        <ele>97.2</ele>
        <time>2022-09-11T08:33:56Z</time>
      </trkpt>
      <trkpt lat="43.35968" lon="-1.06015">
        <ele>97</ele>
        <time>2022-09-11T08:33:58Z</time>
      </trkpt>
      <trkpt lat="43.35975" lon="-1.06013">
        <ele>96.8</ele>
        <time>2022-09-11T08:33:59Z</time>
      </trkpt>
      <trkpt lat="43.35998" lon="-1.0601">
        <ele>96</ele>
        <time>2022-09-11T08:34:08Z</time>
      </trkpt>
      <trkpt lat="43.36" lon="-1.06011">
        <ele>96</ele>
        <time>2022-09-11T08:34:09Z</time>
      </trkpt>
      <trkpt lat="43.36007" lon="-1.06025">
        <ele>95.6</ele>
        <time>2022-09-11T08:34:14Z</time>
      </trkpt>
      <trkpt lat="43.36008" lon="-1.06028">
        <ele>95.4</ele>
        <time>2022-09-11T08:34:15Z</time>
      </trkpt>
      <trkpt lat="43.36009" lon="-1.0603">
        <ele>95.2</ele>
        <time>2022-09-11T08:34:16Z</time>
      </trkpt>
      <trkpt lat="43.36013" lon="-1.06039">
        <ele>95</ele>
        <time>2022-09-11T08:34:19Z</time>
      </trkpt>
      <trkpt lat="43.36017" lon="-1.0605">
        <ele>94</ele>
        <time>2022-09-11T08:34:23Z</time>
      </trkpt>
      <trkpt lat="43.36022" lon="-1.06058">
        <ele>93.2</ele>
        <time>2022-09-11T08:34:26Z</time>
      </trkpt>
      <trkpt lat="43.36024" lon="-1.06061">
        <ele>92.8</ele>
        <time>2022-09-11T08:34:27Z</time>
      </trkpt>
      <trkpt lat="43.3603" lon="-1.06068">
        <ele>91.4</ele>
        <time>2022-09-11T08:34:30Z</time>
      </trkpt>
      <trkpt lat="43.36033" lon="-1.06073">
        <ele>90.6</ele>
        <time>2022-09-11T08:34:32Z</time>
      </trkpt>
      <trkpt lat="43.36034" lon="-1.06075">
        <ele>90.2</ele>
        <time>2022-09-11T08:34:33Z</time>
      </trkpt>
      <trkpt lat="43.3604" lon="-1.06083">
        <ele>89.2</ele>
        <time>2022-09-11T08:34:37Z</time>
      </trkpt>
      <trkpt lat="43.36041" lon="-1.06084">
        <ele>89</ele>
        <time>2022-09-11T08:34:38Z</time>
      </trkpt>
      <trkpt lat="43.36045" lon="-1.06086">
        <ele>88.6</ele>
        <time>2022-09-11T08:34:40Z</time>
      </trkpt>
      <trkpt lat="43.36048" lon="-1.06084">
        <ele>88.8</ele>
        <time>2022-09-11T08:34:42Z</time>
      </trkpt>
      <trkpt lat="43.36053" lon="-1.06081">
        <ele>89.6</ele>
        <time>2022-09-11T08:34:45Z</time>
      </trkpt>
      <trkpt lat="43.36061" lon="-1.06077">
        <ele>89.6</ele>
        <time>2022-09-11T08:34:49Z</time>
      </trkpt>
      <trkpt lat="43.36085" lon="-1.06063">
        <ele>88.8</ele>
        <time>2022-09-11T08:34:56Z</time>
      </trkpt>
      <trkpt lat="43.36102" lon="-1.06049">
        <ele>88</ele>
        <time>2022-09-11T08:35:00Z</time>
      </trkpt>
      <trkpt lat="43.36114" lon="-1.06037">
        <ele>87.4</ele>
        <time>2022-09-11T08:35:03Z</time>
      </trkpt>
      <trkpt lat="43.36126" lon="-1.06016">
        <ele>87</ele>
        <time>2022-09-11T08:35:08Z</time>
      </trkpt>
      <trkpt lat="43.36126" lon="-1.06004">
        <ele>87.4</ele>
        <time>2022-09-11T08:35:13Z</time>
      </trkpt>
      <trkpt lat="43.36124" lon="-1.05995">
        <ele>87.8</ele>
        <time>2022-09-11T08:35:18Z</time>
      </trkpt>
      <trkpt lat="43.36124" lon="-1.05993">
        <ele>87.8</ele>
        <time>2022-09-11T08:35:19Z</time>
      </trkpt>
      <trkpt lat="43.36125" lon="-1.05984">
        <ele>87.6</ele>
        <time>2022-09-11T08:39:43Z</time>
      </trkpt>
      <trkpt lat="43.36125" lon="-1.05988">
        <ele>87.6</ele>
        <time>2022-09-11T08:39:44Z</time>
      </trkpt>
      <trkpt lat="43.36126" lon="-1.0601">
        <ele>87</ele>
        <time>2022-09-11T08:39:50Z</time>
      </trkpt>
      <trkpt lat="43.36126" lon="-1.06013">
        <ele>87</ele>
        <time>2022-09-11T08:39:51Z</time>
      </trkpt>
      <trkpt lat="43.36126" lon="-1.0602">
        <ele>86.4</ele>
        <time>2022-09-11T08:39:54Z</time>
      </trkpt>
      <trkpt lat="43.36129" lon="-1.0602">
        <ele>85.6</ele>
        <time>2022-09-11T08:39:57Z</time>
      </trkpt>
      <trkpt lat="43.36129" lon="-1.06019">
        <ele>85.2</ele>
        <time>2022-09-11T08:39:58Z</time>
      </trkpt>
      <trkpt lat="43.36151" lon="-1.06017">
        <ele>75</ele>
        <time>2022-09-11T08:40:20Z</time>
      </trkpt>
      <trkpt lat="43.36154" lon="-1.06017">
        <ele>74.4</ele>
        <time>2022-09-11T08:40:21Z</time>
      </trkpt>
      <trkpt lat="43.36157" lon="-1.06016">
        <ele>73.8</ele>
        <time>2022-09-11T08:40:22Z</time>
      </trkpt>
      <trkpt lat="43.36166" lon="-1.06012">
        <ele>72.6</ele>
        <time>2022-09-11T08:40:25Z</time>
      </trkpt>
      <trkpt lat="43.36168" lon="-1.0601">
        <ele>72.2</ele>
        <time>2022-09-11T08:40:26Z</time>
      </trkpt>
      <trkpt lat="43.36174" lon="-1.06006">
        <ele>71.2</ele>
        <time>2022-09-11T08:40:28Z</time>
      </trkpt>
      <trkpt lat="43.36178" lon="-1.06002">
        <ele>70.2</ele>
        <time>2022-09-11T08:40:30Z</time>
      </trkpt>
      <trkpt lat="43.36186" lon="-1.05998">
        <ele>69.2</ele>
        <time>2022-09-11T08:40:32Z</time>
      </trkpt>
      <trkpt lat="43.36189" lon="-1.05997">
        <ele>68.8</ele>
        <time>2022-09-11T08:40:33Z</time>
      </trkpt>
      <trkpt lat="43.36207" lon="-1.05988">
        <ele>65.8</ele>
        <time>2022-09-11T08:40:39Z</time>
      </trkpt>
      <trkpt lat="43.3621" lon="-1.05987">
        <ele>64.6</ele>
        <time>2022-09-11T08:40:40Z</time>
      </trkpt>
      <trkpt lat="43.36216" lon="-1.05983">
        <ele>64.2</ele>
        <time>2022-09-11T08:40:42Z</time>
      </trkpt>
      <trkpt lat="43.36271" lon="-1.05952">
        <ele>62.4</ele>
        <time>2022-09-11T08:42:12Z</time>
      </trkpt>
      <trkpt lat="43.36274" lon="-1.05947">
        <ele>62.2</ele>
        <time>2022-09-11T08:42:14Z</time>
      </trkpt>
      <trkpt lat="43.3628" lon="-1.05939">
        <ele>62.2</ele>
        <time>2022-09-11T08:42:20Z</time>
      </trkpt>
      <trkpt lat="43.36287" lon="-1.05934">
        <ele>62</ele>
        <time>2022-09-11T08:42:25Z</time>
      </trkpt>
      <trkpt lat="43.36289" lon="-1.05932">
        <ele>62</ele>
        <time>2022-09-11T08:42:26Z</time>
      </trkpt>
      <trkpt lat="43.363" lon="-1.05928">
        <ele>61.6</ele>
        <time>2022-09-11T08:42:32Z</time>
      </trkpt>
      <trkpt lat="43.36306" lon="-1.05927">
        <ele>61.4</ele>
        <time>2022-09-11T08:42:36Z</time>
      </trkpt>
      <trkpt lat="43.36312" lon="-1.05927">
        <ele>61.2</ele>
        <time>2022-09-11T08:42:38Z</time>
      </trkpt>
      <trkpt lat="43.36322" lon="-1.05926">
        <ele>61</ele>
        <time>2022-09-11T08:42:43Z</time>
      </trkpt>
      <trkpt lat="43.36323" lon="-1.05925">
        <ele>61</ele>
        <time>2022-09-11T08:42:44Z</time>
      </trkpt>
      <trkpt lat="43.36336" lon="-1.05916">
        <ele>60.2</ele>
        <time>2022-09-11T08:42:52Z</time>
      </trkpt>
      <trkpt lat="43.36349" lon="-1.05911">
        <ele>59.8</ele>
        <time>2022-09-11T08:42:58Z</time>
      </trkpt>
      <trkpt lat="43.36368" lon="-1.05907">
        <ele>59.6</ele>
        <time>2022-09-11T08:43:06Z</time>
      </trkpt>
      <trkpt lat="43.36388" lon="-1.05903">
        <ele>59.8</ele>
        <time>2022-09-11T08:43:13Z</time>
      </trkpt>
      <trkpt lat="43.3641" lon="-1.05892">
        <ele>59.2</ele>
        <time>2022-09-11T08:43:19Z</time>
      </trkpt>
      <trkpt lat="43.36432" lon="-1.05882">
        <ele>58.8</ele>
        <time>2022-09-11T08:43:25Z</time>
      </trkpt>
      <trkpt lat="43.36448" lon="-1.0588">
        <ele>59.4</ele>
        <time>2022-09-11T08:43:30Z</time>
      </trkpt>
      <trkpt lat="43.36456" lon="-1.0588">
        <ele>59.8</ele>
        <time>2022-09-11T08:43:32Z</time>
      </trkpt>
      <trkpt lat="43.36465" lon="-1.05884">
        <ele>60.2</ele>
        <time>2022-09-11T08:43:35Z</time>
      </trkpt>
      <trkpt lat="43.36467" lon="-1.05885">
        <ele>60.4</ele>
        <time>2022-09-11T08:43:36Z</time>
      </trkpt>
      <trkpt lat="43.36474" lon="-1.05897">
        <ele>61.2</ele>
        <time>2022-09-11T08:43:43Z</time>
      </trkpt>
      <trkpt lat="43.36475" lon="-1.05899">
        <ele>61.2</ele>
        <time>2022-09-11T08:43:44Z</time>
      </trkpt>
      <trkpt lat="43.36477" lon="-1.05909">
        <ele>61.6</ele>
        <time>2022-09-11T08:43:48Z</time>
      </trkpt>
      <trkpt lat="43.36482" lon="-1.05914">
        <ele>61.6</ele>
        <time>2022-09-11T08:43:51Z</time>
      </trkpt>
      <trkpt lat="43.36485" lon="-1.05918">
        <ele>62.4</ele>
        <time>2022-09-11T08:43:53Z</time>
      </trkpt>
      <trkpt lat="43.36492" lon="-1.05925">
        <ele>62.8</ele>
        <time>2022-09-11T08:43:58Z</time>
      </trkpt>
      <trkpt lat="43.36496" lon="-1.05933">
        <ele>63.4</ele>
        <time>2022-09-11T08:44:02Z</time>
      </trkpt>
      <trkpt lat="43.36498" lon="-1.05937">
        <ele>63.8</ele>
        <time>2022-09-11T08:44:04Z</time>
      </trkpt>
      <trkpt lat="43.36502" lon="-1.05952">
        <ele>64.4</ele>
        <time>2022-09-11T08:44:11Z</time>
      </trkpt>
      <trkpt lat="43.36503" lon="-1.05954">
        <ele>64.6</ele>
        <time>2022-09-11T08:44:12Z</time>
      </trkpt>
      <trkpt lat="43.36506" lon="-1.05964">
        <ele>65.4</ele>
        <time>2022-09-11T08:44:19Z</time>
      </trkpt>
      <trkpt lat="43.36507" lon="-1.05966">
        <ele>65.6</ele>
        <time>2022-09-11T08:44:20Z</time>
      </trkpt>
      <trkpt lat="43.36508" lon="-1.05969">
        <ele>65.8</ele>
        <time>2022-09-11T08:44:22Z</time>
      </trkpt>
      <trkpt lat="43.36512" lon="-1.05977">
        <ele>66.2</ele>
        <time>2022-09-11T08:44:26Z</time>
      </trkpt>
      <trkpt lat="43.36517" lon="-1.05982">
        <ele>66.6</ele>
        <time>2022-09-11T08:44:30Z</time>
      </trkpt>
      <trkpt lat="43.36521" lon="-1.0598">
        <ele>66.4</ele>
        <time>2022-09-11T08:44:32Z</time>
      </trkpt>
      <trkpt lat="43.36526" lon="-1.05977">
        <ele>66.6</ele>
        <time>2022-09-11T08:44:35Z</time>
      </trkpt>
      <trkpt lat="43.36534" lon="-1.05975">
        <ele>66.8</ele>
        <time>2022-09-11T08:44:39Z</time>
      </trkpt>
      <trkpt lat="43.3655" lon="-1.05974">
        <ele>66.8</ele>
        <time>2022-09-11T08:44:46Z</time>
      </trkpt>
      <trkpt lat="43.3657" lon="-1.05966">
        <ele>66.2</ele>
        <time>2022-09-11T08:44:53Z</time>
      </trkpt>
      <trkpt lat="43.36588" lon="-1.05956">
        <ele>66.2</ele>
        <time>2022-09-11T08:45:00Z</time>
      </trkpt>
      <trkpt lat="43.36591" lon="-1.05956">
        <ele>66.2</ele>
        <time>2022-09-11T08:45:01Z</time>
      </trkpt>
      <trkpt lat="43.36597" lon="-1.0596">
        <ele>66.6</ele>
        <time>2022-09-11T08:45:05Z</time>
      </trkpt>
      <trkpt lat="43.36599" lon="-1.05961">
        <ele>66.8</ele>
        <time>2022-09-11T08:45:06Z</time>
      </trkpt>
      <trkpt lat="43.36603" lon="-1.05967">
        <ele>67.4</ele>
        <time>2022-09-11T08:45:10Z</time>
      </trkpt>
      <trkpt lat="43.36604" lon="-1.05969">
        <ele>67.8</ele>
        <time>2022-09-11T08:45:12Z</time>
      </trkpt>
      <trkpt lat="43.36608" lon="-1.05973">
        <ele>68.2</ele>
        <time>2022-09-11T08:45:16Z</time>
      </trkpt>
      <trkpt lat="43.3661" lon="-1.05977">
        <ele>68.8</ele>
        <time>2022-09-11T08:45:19Z</time>
      </trkpt>
      <trkpt lat="43.36614" lon="-1.05983">
        <ele>69.8</ele>
        <time>2022-09-11T08:45:23Z</time>
      </trkpt>
      <trkpt lat="43.36618" lon="-1.05987">
        <ele>71</ele>
        <time>2022-09-11T08:45:27Z</time>
      </trkpt>
      <trkpt lat="43.36681" lon="-1.06024">
        <ele>89.6</ele>
        <time>2022-09-11T08:50:45Z</time>
      </trkpt>
      <trkpt lat="43.36692" lon="-1.0601">
        <ele>89.2</ele>
        <time>2022-09-11T08:50:50Z</time>
      </trkpt>
      <trkpt lat="43.36694" lon="-1.06008">
        <ele>89.4</ele>
        <time>2022-09-11T08:50:51Z</time>
      </trkpt>
      <trkpt lat="43.36701" lon="-1.06003">
        <ele>89.8</ele>
        <time>2022-09-11T08:50:54Z</time>
      </trkpt>
      <trkpt lat="43.36708" lon="-1.05994">
        <ele>90.6</ele>
        <time>2022-09-11T08:50:59Z</time>
      </trkpt>
      <trkpt lat="43.36709" lon="-1.05992">
        <ele>90.6</ele>
        <time>2022-09-11T08:51:00Z</time>
      </trkpt>
      <trkpt lat="43.36718" lon="-1.05982">
        <ele>90.8</ele>
        <time>2022-09-11T08:51:05Z</time>
      </trkpt>
      <trkpt lat="43.36725" lon="-1.05978">
        <ele>90.8</ele>
        <time>2022-09-11T08:51:09Z</time>
      </trkpt>
      <trkpt lat="43.36727" lon="-1.05978">
        <ele>91</ele>
        <time>2022-09-11T08:51:10Z</time>
      </trkpt>
      <trkpt lat="43.36732" lon="-1.05982">
        <ele>92</ele>
        <time>2022-09-11T08:51:13Z</time>
      </trkpt>
      <trkpt lat="43.36734" lon="-1.05983">
        <ele>92.4</ele>
        <time>2022-09-11T08:51:14Z</time>
      </trkpt>
      <trkpt lat="43.36736" lon="-1.05984">
        <ele>93</ele>
        <time>2022-09-11T08:51:16Z</time>
      </trkpt>
      <trkpt lat="43.36738" lon="-1.05984">
        <ele>93.2</ele>
        <time>2022-09-11T08:51:18Z</time>
      </trkpt>
      <trkpt lat="43.36746" lon="-1.05982">
        <ele>94</ele>
        <time>2022-09-11T08:51:23Z</time>
      </trkpt>
      <trkpt lat="43.36747" lon="-1.05982">
        <ele>94</ele>
        <time>2022-09-11T08:51:24Z</time>
      </trkpt>
      <trkpt lat="43.36755" lon="-1.05983">
        <ele>94</ele>
        <time>2022-09-11T08:51:28Z</time>
      </trkpt>
      <trkpt lat="43.36764" lon="-1.05984">
        <ele>94.2</ele>
        <time>2022-09-11T08:51:34Z</time>
      </trkpt>
      <trkpt lat="43.36775" lon="-1.05988">
        <ele>94.6</ele>
        <time>2022-09-11T08:51:39Z</time>
      </trkpt>
      <trkpt lat="43.36794" lon="-1.05997">
        <ele>94</ele>
        <time>2022-09-11T08:51:46Z</time>
      </trkpt>
      <trkpt lat="43.36804" lon="-1.06">
        <ele>93.2</ele>
        <time>2022-09-11T08:51:50Z</time>
      </trkpt>
      <trkpt lat="43.36811" lon="-1.06002">
        <ele>92.6</ele>
        <time>2022-09-11T08:51:52Z</time>
      </trkpt>
      <trkpt lat="43.36819" lon="-1.06004">
        <ele>91.6</ele>
        <time>2022-09-11T08:51:55Z</time>
      </trkpt>
      <trkpt lat="43.36833" lon="-1.0601">
        <ele>91.6</ele>
        <time>2022-09-11T08:52:03Z</time>
      </trkpt>
      <trkpt lat="43.36844" lon="-1.06017">
        <ele>91.8</ele>
        <time>2022-09-11T08:52:14Z</time>
      </trkpt>
      <trkpt lat="43.36855" lon="-1.06025">
        <ele>91.6</ele>
        <time>2022-09-11T08:52:19Z</time>
      </trkpt>
      <trkpt lat="43.36863" lon="-1.06034">
        <ele>90.8</ele>
        <time>2022-09-11T08:52:23Z</time>
      </trkpt>
      <trkpt lat="43.36873" lon="-1.06044">
        <ele>90.4</ele>
        <time>2022-09-11T08:52:26Z</time>
      </trkpt>
      <trkpt lat="43.36875" lon="-1.06049">
        <ele>90.2</ele>
        <time>2022-09-11T08:52:27Z</time>
      </trkpt>
      <trkpt lat="43.36876" lon="-1.06053">
        <ele>90.2</ele>
        <time>2022-09-11T08:52:28Z</time>
      </trkpt>
      <trkpt lat="43.36881" lon="-1.06061">
        <ele>90.2</ele>
        <time>2022-09-11T08:52:31Z</time>
      </trkpt>
      <trkpt lat="43.36883" lon="-1.06069">
        <ele>90</ele>
        <time>2022-09-11T08:52:33Z</time>
      </trkpt>
      <trkpt lat="43.36889" lon="-1.06082">
        <ele>89</ele>
        <time>2022-09-11T08:52:36Z</time>
      </trkpt>
      <trkpt lat="43.36891" lon="-1.06086">
        <ele>88.2</ele>
        <time>2022-09-11T08:52:37Z</time>
      </trkpt>
      <trkpt lat="43.36893" lon="-1.06089">
        <ele>87.6</ele>
        <time>2022-09-11T08:52:38Z</time>
      </trkpt>
      <trkpt lat="43.36897" lon="-1.06096">
        <ele>86.4</ele>
        <time>2022-09-11T08:52:40Z</time>
      </trkpt>
      <trkpt lat="43.36902" lon="-1.06105">
        <ele>85.4</ele>
        <time>2022-09-11T08:52:43Z</time>
      </trkpt>
      <trkpt lat="43.36904" lon="-1.06108">
        <ele>85</ele>
        <time>2022-09-11T08:52:44Z</time>
      </trkpt>
      <trkpt lat="43.36908" lon="-1.06114">
        <ele>84.2</ele>
        <time>2022-09-11T08:52:46Z</time>
      </trkpt>
      <trkpt lat="43.36923" lon="-1.06104">
        <ele>83.6</ele>
        <time>2022-09-11T08:52:50Z</time>
      </trkpt>
      <trkpt lat="43.36936" lon="-1.06089">
        <ele>83.2</ele>
        <time>2022-09-11T08:52:53Z</time>
      </trkpt>
      <trkpt lat="43.3695" lon="-1.0607">
        <ele>82.2</ele>
        <time>2022-09-11T08:52:56Z</time>
      </trkpt>
      <trkpt lat="43.36971" lon="-1.0604">
        <ele>80.8</ele>
        <time>2022-09-11T08:53:00Z</time>
      </trkpt>
      <trkpt lat="43.36982" lon="-1.06025">
        <ele>80.6</ele>
        <time>2022-09-11T08:53:02Z</time>
      </trkpt>
      <trkpt lat="43.36997" lon="-1.06003">
        <ele>79.6</ele>
        <time>2022-09-11T08:53:05Z</time>
      </trkpt>
      <trkpt lat="43.37022" lon="-1.05968">
        <ele>79</ele>
        <time>2022-09-11T08:53:10Z</time>
      </trkpt>
      <trkpt lat="43.3704" lon="-1.05941">
        <ele>78.6</ele>
        <time>2022-09-11T08:53:14Z</time>
      </trkpt>
      <trkpt lat="43.37049" lon="-1.05929">
        <ele>78</ele>
        <time>2022-09-11T08:53:16Z</time>
      </trkpt>
      <trkpt lat="43.37057" lon="-1.05918">
        <ele>77.4</ele>
        <time>2022-09-11T08:53:18Z</time>
      </trkpt>
      <trkpt lat="43.37061" lon="-1.05914">
        <ele>76.8</ele>
        <time>2022-09-11T08:53:19Z</time>
      </trkpt>
      <trkpt lat="43.37071" lon="-1.05909">
        <ele>76.2</ele>
        <time>2022-09-11T08:53:21Z</time>
      </trkpt>
      <trkpt lat="43.37084" lon="-1.05906">
        <ele>75.6</ele>
        <time>2022-09-11T08:53:23Z</time>
      </trkpt>
      <trkpt lat="43.37099" lon="-1.05902">
        <ele>74.6</ele>
        <time>2022-09-11T08:53:25Z</time>
      </trkpt>
      <trkpt lat="43.37115" lon="-1.05903">
        <ele>73.6</ele>
        <time>2022-09-11T08:53:27Z</time>
      </trkpt>
      <trkpt lat="43.37125" lon="-1.05905">
        <ele>73</ele>
        <time>2022-09-11T08:53:28Z</time>
      </trkpt>
      <trkpt lat="43.37134" lon="-1.05908">
        <ele>72.2</ele>
        <time>2022-09-11T08:53:29Z</time>
      </trkpt>
      <trkpt lat="43.37164" lon="-1.0592">
        <ele>71.2</ele>
        <time>2022-09-11T08:53:32Z</time>
      </trkpt>
      <trkpt lat="43.37184" lon="-1.05928">
        <ele>69.6</ele>
        <time>2022-09-11T08:53:34Z</time>
      </trkpt>
      <trkpt lat="43.37224" lon="-1.05944">
        <ele>68.6</ele>
        <time>2022-09-11T08:53:38Z</time>
      </trkpt>
      <trkpt lat="43.37233" lon="-1.05948">
        <ele>68.2</ele>
        <time>2022-09-11T08:53:39Z</time>
      </trkpt>
      <trkpt lat="43.37251" lon="-1.05956">
        <ele>67.4</ele>
        <time>2022-09-11T08:53:41Z</time>
      </trkpt>
      <trkpt lat="43.37278" lon="-1.05966">
        <ele>66.2</ele>
        <time>2022-09-11T08:53:44Z</time>
      </trkpt>
      <trkpt lat="43.37295" lon="-1.05973">
        <ele>65.4</ele>
        <time>2022-09-11T08:53:46Z</time>
      </trkpt>
      <trkpt lat="43.37311" lon="-1.0598">
        <ele>65</ele>
        <time>2022-09-11T08:53:48Z</time>
      </trkpt>
      <trkpt lat="43.37357" lon="-1.06">
        <ele>64.6</ele>
        <time>2022-09-11T08:53:54Z</time>
      </trkpt>
      <trkpt lat="43.37379" lon="-1.06009">
        <ele>63.8</ele>
        <time>2022-09-11T08:53:57Z</time>
      </trkpt>
      <trkpt lat="43.37429" lon="-1.06029">
        <ele>63.6</ele>
        <time>2022-09-11T08:54:04Z</time>
      </trkpt>
      <trkpt lat="43.37483" lon="-1.06052">
        <ele>63</ele>
        <time>2022-09-11T08:54:12Z</time>
      </trkpt>
      <trkpt lat="43.37494" lon="-1.06057">
        <ele>63.2</ele>
        <time>2022-09-11T08:54:14Z</time>
      </trkpt>
      <trkpt lat="43.37516" lon="-1.06068">
        <ele>64.2</ele>
        <time>2022-09-11T08:54:19Z</time>
      </trkpt>
      <trkpt lat="43.37545" lon="-1.06082">
        <ele>64.8</ele>
        <time>2022-09-11T08:54:27Z</time>
      </trkpt>
      <trkpt lat="43.37549" lon="-1.06084">
        <ele>64.8</ele>
        <time>2022-09-11T08:54:28Z</time>
      </trkpt>
      <trkpt lat="43.37565" lon="-1.0609">
        <ele>65.2</ele>
        <time>2022-09-11T08:54:33Z</time>
      </trkpt>
      <trkpt lat="43.37587" lon="-1.06096">
        <ele>65</ele>
        <time>2022-09-11T08:54:39Z</time>
      </trkpt>
      <trkpt lat="43.37598" lon="-1.06096">
        <ele>64</ele>
        <time>2022-09-11T08:54:41Z</time>
      </trkpt>
      <trkpt lat="43.37604" lon="-1.06096">
        <ele>63.8</ele>
        <time>2022-09-11T08:54:42Z</time>
      </trkpt>
      <trkpt lat="43.37611" lon="-1.06097">
        <ele>63.4</ele>
        <time>2022-09-11T08:54:43Z</time>
      </trkpt>
      <trkpt lat="43.37617" lon="-1.06098">
        <ele>63.2</ele>
        <time>2022-09-11T08:54:44Z</time>
      </trkpt>
      <trkpt lat="43.37637" lon="-1.06106">
        <ele>62.6</ele>
        <time>2022-09-11T08:54:47Z</time>
      </trkpt>
      <trkpt lat="43.37686" lon="-1.06127">
        <ele>61.8</ele>
        <time>2022-09-11T08:54:54Z</time>
      </trkpt>
      <trkpt lat="43.37708" lon="-1.06123">
        <ele>61.8</ele>
        <time>2022-09-11T08:54:57Z</time>
      </trkpt>
      <trkpt lat="43.37714" lon="-1.06119">
        <ele>61.4</ele>
        <time>2022-09-11T08:54:58Z</time>
      </trkpt>
      <trkpt lat="43.3772" lon="-1.06114">
        <ele>61.4</ele>
        <time>2022-09-11T08:54:59Z</time>
      </trkpt>
      <trkpt lat="43.37732" lon="-1.06107">
        <ele>61.2</ele>
        <time>2022-09-11T08:55:01Z</time>
      </trkpt>
      <trkpt lat="43.37745" lon="-1.06102">
        <ele>61</ele>
        <time>2022-09-11T08:55:03Z</time>
      </trkpt>
      <trkpt lat="43.37759" lon="-1.06101">
        <ele>60.4</ele>
        <time>2022-09-11T08:55:05Z</time>
      </trkpt>
      <trkpt lat="43.37773" lon="-1.06102">
        <ele>60.2</ele>
        <time>2022-09-11T08:55:07Z</time>
      </trkpt>
      <trkpt lat="43.37802" lon="-1.06105">
        <ele>59.6</ele>
        <time>2022-09-11T08:55:11Z</time>
      </trkpt>
      <trkpt lat="43.3781" lon="-1.06107">
        <ele>59.2</ele>
        <time>2022-09-11T08:55:12Z</time>
      </trkpt>
      <trkpt lat="43.37833" lon="-1.06112">
        <ele>58</ele>
        <time>2022-09-11T08:55:15Z</time>
      </trkpt>
      <trkpt lat="43.37849" lon="-1.06115">
        <ele>57.2</ele>
        <time>2022-09-11T08:55:17Z</time>
      </trkpt>
      <trkpt lat="43.37856" lon="-1.06115">
        <ele>57</ele>
        <time>2022-09-11T08:55:18Z</time>
      </trkpt>
      <trkpt lat="43.37881" lon="-1.06114">
        <ele>55.8</ele>
        <time>2022-09-11T08:55:21Z</time>
      </trkpt>
      <trkpt lat="43.37889" lon="-1.06115">
        <ele>55.2</ele>
        <time>2022-09-11T08:55:22Z</time>
      </trkpt>
      <trkpt lat="43.37896" lon="-1.06117">
        <ele>54.6</ele>
        <time>2022-09-11T08:55:23Z</time>
      </trkpt>
      <trkpt lat="43.37917" lon="-1.06127">
        <ele>53.8</ele>
        <time>2022-09-11T08:55:26Z</time>
      </trkpt>
      <trkpt lat="43.37928" lon="-1.06133">
        <ele>53.6</ele>
        <time>2022-09-11T08:55:28Z</time>
      </trkpt>
      <trkpt lat="43.37938" lon="-1.06136">
        <ele>53</ele>
        <time>2022-09-11T08:55:30Z</time>
      </trkpt>
      <trkpt lat="43.37942" lon="-1.06139">
        <ele>53</ele>
        <time>2022-09-11T08:55:31Z</time>
      </trkpt>
      <trkpt lat="43.3795" lon="-1.06148">
        <ele>53.2</ele>
        <time>2022-09-11T08:55:34Z</time>
      </trkpt>
      <trkpt lat="43.37958" lon="-1.06172">
        <ele>53.8</ele>
        <time>2022-09-11T08:55:40Z</time>
      </trkpt>
      <trkpt lat="43.37959" lon="-1.06176">
        <ele>54</ele>
        <time>2022-09-11T08:55:41Z</time>
      </trkpt>
      <trkpt lat="43.37962" lon="-1.0618">
        <ele>54.6</ele>
        <time>2022-09-11T08:55:43Z</time>
      </trkpt>
      <trkpt lat="43.37965" lon="-1.06184">
        <ele>55</ele>
        <time>2022-09-11T08:55:45Z</time>
      </trkpt>
      <trkpt lat="43.37969" lon="-1.06184">
        <ele>55.4</ele>
        <time>2022-09-11T08:55:47Z</time>
      </trkpt>
      <trkpt lat="43.37971" lon="-1.06183">
        <ele>55.6</ele>
        <time>2022-09-11T08:55:48Z</time>
      </trkpt>
      <trkpt lat="43.37974" lon="-1.06182">
        <ele>55.8</ele>
        <time>2022-09-11T08:55:49Z</time>
      </trkpt>
      <trkpt lat="43.3798" lon="-1.06178">
        <ele>55.6</ele>
        <time>2022-09-11T08:55:51Z</time>
      </trkpt>
      <trkpt lat="43.37992" lon="-1.06171">
        <ele>55.8</ele>
        <time>2022-09-11T08:55:56Z</time>
      </trkpt>
      <trkpt lat="43.3801" lon="-1.06161">
        <ele>56.8</ele>
        <time>2022-09-11T08:56:02Z</time>
      </trkpt>
      <trkpt lat="43.38015" lon="-1.06158">
        <ele>57.4</ele>
        <time>2022-09-11T08:56:04Z</time>
      </trkpt>
      <trkpt lat="43.38021" lon="-1.06156">
        <ele>58</ele>
        <time>2022-09-11T08:56:06Z</time>
      </trkpt>
      <trkpt lat="43.38034" lon="-1.0615">
        <ele>59</ele>
        <time>2022-09-11T08:56:11Z</time>
      </trkpt>
      <trkpt lat="43.38036" lon="-1.06149">
        <ele>59.2</ele>
        <time>2022-09-11T08:56:12Z</time>
      </trkpt>
      <trkpt lat="43.3805" lon="-1.06142">
        <ele>60.4</ele>
        <time>2022-09-11T08:56:18Z</time>
      </trkpt>
      <trkpt lat="43.38052" lon="-1.06141">
        <ele>60.6</ele>
        <time>2022-09-11T08:56:19Z</time>
      </trkpt>
      <trkpt lat="43.38065" lon="-1.06135">
        <ele>61.6</ele>
        <time>2022-09-11T08:56:25Z</time>
      </trkpt>
      <trkpt lat="43.38068" lon="-1.06134">
        <ele>61.8</ele>
        <time>2022-09-11T08:56:26Z</time>
      </trkpt>
      <trkpt lat="43.3808" lon="-1.06126">
        <ele>62.8</ele>
        <time>2022-09-11T08:56:31Z</time>
      </trkpt>
      <trkpt lat="43.38085" lon="-1.06123">
        <ele>63.2</ele>
        <time>2022-09-11T08:56:33Z</time>
      </trkpt>
      <trkpt lat="43.38098" lon="-1.06117">
        <ele>63.8</ele>
        <time>2022-09-11T08:56:38Z</time>
      </trkpt>
      <trkpt lat="43.38101" lon="-1.06116">
        <ele>63.8</ele>
        <time>2022-09-11T08:56:39Z</time>
      </trkpt>
      <trkpt lat="43.3812" lon="-1.06105">
        <ele>64.2</ele>
        <time>2022-09-11T08:56:46Z</time>
      </trkpt>
      <trkpt lat="43.38152" lon="-1.06088">
        <ele>64.4</ele>
        <time>2022-09-11T08:56:56Z</time>
      </trkpt>
      <trkpt lat="43.38185" lon="-1.06072">
        <ele>64</ele>
        <time>2022-09-11T08:57:05Z</time>
      </trkpt>
      <trkpt lat="43.3821" lon="-1.06058">
        <ele>63.6</ele>
        <time>2022-09-11T08:57:12Z</time>
      </trkpt>
      <trkpt lat="43.38217" lon="-1.06053">
        <ele>63.6</ele>
        <time>2022-09-11T08:57:14Z</time>
      </trkpt>
      <trkpt lat="43.38231" lon="-1.06039">
        <ele>63.4</ele>
        <time>2022-09-11T08:57:18Z</time>
      </trkpt>
      <trkpt lat="43.38241" lon="-1.06026">
        <ele>63.4</ele>
        <time>2022-09-11T08:57:21Z</time>
      </trkpt>
      <trkpt lat="43.38251" lon="-1.06011">
        <ele>63.2</ele>
        <time>2022-09-11T08:57:24Z</time>
      </trkpt>
      <trkpt lat="43.38254" lon="-1.06005">
        <ele>63.2</ele>
        <time>2022-09-11T08:57:25Z</time>
      </trkpt>
      <trkpt lat="43.38264" lon="-1.05972">
        <ele>63.2</ele>
        <time>2022-09-11T08:57:30Z</time>
      </trkpt>
      <trkpt lat="43.38274" lon="-1.05915">
        <ele>64.6</ele>
        <time>2022-09-11T08:57:39Z</time>
      </trkpt>
      <trkpt lat="43.38275" lon="-1.0591">
        <ele>64.8</ele>
        <time>2022-09-11T08:57:40Z</time>
      </trkpt>
      <trkpt lat="43.38281" lon="-1.05879">
        <ele>65.8</ele>
        <time>2022-09-11T08:57:46Z</time>
      </trkpt>
      <trkpt lat="43.38282" lon="-1.05874">
        <ele>66</ele>
        <time>2022-09-11T08:57:47Z</time>
      </trkpt>
      <trkpt lat="43.38289" lon="-1.05842">
        <ele>67.2</ele>
        <time>2022-09-11T08:57:54Z</time>
      </trkpt>
      <trkpt lat="43.38294" lon="-1.05814">
        <ele>68.2</ele>
        <time>2022-09-11T08:58:01Z</time>
      </trkpt>
      <trkpt lat="43.38302" lon="-1.05788">
        <ele>69</ele>
        <time>2022-09-11T08:58:08Z</time>
      </trkpt>
      <trkpt lat="43.38307" lon="-1.0577">
        <ele>69.2</ele>
        <time>2022-09-11T08:58:13Z</time>
      </trkpt>
      <trkpt lat="43.38312" lon="-1.05758">
        <ele>69.6</ele>
        <time>2022-09-11T08:58:16Z</time>
      </trkpt>
      <trkpt lat="43.38323" lon="-1.05724">
        <ele>69.4</ele>
        <time>2022-09-11T08:58:24Z</time>
      </trkpt>
      <trkpt lat="43.38328" lon="-1.05695">
        <ele>69</ele>
        <time>2022-09-11T08:58:30Z</time>
      </trkpt>
      <trkpt lat="43.38331" lon="-1.0567">
        <ele>69</ele>
        <time>2022-09-11T08:58:35Z</time>
      </trkpt>
      <trkpt lat="43.38345" lon="-1.05662">
        <ele>68.8</ele>
        <time>2022-09-11T08:58:39Z</time>
      </trkpt>
      <trkpt lat="43.38359" lon="-1.05665">
        <ele>69</ele>
        <time>2022-09-11T08:58:44Z</time>
      </trkpt>
      <trkpt lat="43.38373" lon="-1.05682">
        <ele>69.4</ele>
        <time>2022-09-11T08:58:50Z</time>
      </trkpt>
      <trkpt lat="43.38392" lon="-1.05707">
        <ele>70</ele>
        <time>2022-09-11T08:58:58Z</time>
      </trkpt>
      <trkpt lat="43.38397" lon="-1.05713">
        <ele>70.2</ele>
        <time>2022-09-11T08:59:00Z</time>
      </trkpt>
      <trkpt lat="43.38417" lon="-1.05727">
        <ele>70.8</ele>
        <time>2022-09-11T08:59:06Z</time>
      </trkpt>
      <trkpt lat="43.38432" lon="-1.05737">
        <ele>71.4</ele>
        <time>2022-09-11T08:59:11Z</time>
      </trkpt>
      <trkpt lat="43.38438" lon="-1.0574">
        <ele>71.6</ele>
        <time>2022-09-11T08:59:13Z</time>
      </trkpt>
      <trkpt lat="43.38458" lon="-1.05758">
        <ele>71.6</ele>
        <time>2022-09-11T08:59:21Z</time>
      </trkpt>
      <trkpt lat="43.38481" lon="-1.05785">
        <ele>71.2</ele>
        <time>2022-09-11T08:59:30Z</time>
      </trkpt>
      <trkpt lat="43.38503" lon="-1.05812">
        <ele>70.4</ele>
        <time>2022-09-11T08:59:36Z</time>
      </trkpt>
      <trkpt lat="43.38506" lon="-1.05818">
        <ele>70.2</ele>
        <time>2022-09-11T08:59:37Z</time>
      </trkpt>
      <trkpt lat="43.38516" lon="-1.05843">
        <ele>69.4</ele>
        <time>2022-09-11T08:59:40Z</time>
      </trkpt>
      <trkpt lat="43.3852" lon="-1.05851">
        <ele>69</ele>
        <time>2022-09-11T08:59:41Z</time>
      </trkpt>
      <trkpt lat="43.38524" lon="-1.05859">
        <ele>68.8</ele>
        <time>2022-09-11T08:59:42Z</time>
      </trkpt>
      <trkpt lat="43.38542" lon="-1.05879">
        <ele>68.4</ele>
        <time>2022-09-11T08:59:45Z</time>
      </trkpt>
      <trkpt lat="43.38548" lon="-1.05884">
        <ele>68.4</ele>
        <time>2022-09-11T08:59:46Z</time>
      </trkpt>
      <trkpt lat="43.38567" lon="-1.05896">
        <ele>67.6</ele>
        <time>2022-09-11T08:59:49Z</time>
      </trkpt>
      <trkpt lat="43.3858" lon="-1.05903">
        <ele>67.2</ele>
        <time>2022-09-11T08:59:51Z</time>
      </trkpt>
      <trkpt lat="43.386" lon="-1.05913">
        <ele>66.6</ele>
        <time>2022-09-11T08:59:54Z</time>
      </trkpt>
      <trkpt lat="43.38637" lon="-1.05936">
        <ele>65.6</ele>
        <time>2022-09-11T09:00:00Z</time>
      </trkpt>
      <trkpt lat="43.38643" lon="-1.05941">
        <ele>65.6</ele>
        <time>2022-09-11T09:00:01Z</time>
      </trkpt>
      <trkpt lat="43.38674" lon="-1.05965">
        <ele>64.4</ele>
        <time>2022-09-11T09:00:06Z</time>
      </trkpt>
      <trkpt lat="43.38686" lon="-1.05975">
        <ele>64.2</ele>
        <time>2022-09-11T09:00:08Z</time>
      </trkpt>
      <trkpt lat="43.38712" lon="-1.05995">
        <ele>63.4</ele>
        <time>2022-09-11T09:00:12Z</time>
      </trkpt>
      <trkpt lat="43.38739" lon="-1.06015">
        <ele>62.4</ele>
        <time>2022-09-11T09:00:16Z</time>
      </trkpt>
      <trkpt lat="43.38746" lon="-1.0602">
        <ele>62.2</ele>
        <time>2022-09-11T09:00:17Z</time>
      </trkpt>
      <trkpt lat="43.38788" lon="-1.06047">
        <ele>60.8</ele>
        <time>2022-09-11T09:00:23Z</time>
      </trkpt>
      <trkpt lat="43.38826" lon="-1.06065">
        <ele>59.2</ele>
        <time>2022-09-11T09:00:28Z</time>
      </trkpt>
      <trkpt lat="43.3885" lon="-1.06074">
        <ele>58.4</ele>
        <time>2022-09-11T09:00:31Z</time>
      </trkpt>
      <trkpt lat="43.38858" lon="-1.06077">
        <ele>58</ele>
        <time>2022-09-11T09:00:32Z</time>
      </trkpt>
      <trkpt lat="43.38904" lon="-1.06094">
        <ele>57.4</ele>
        <time>2022-09-11T09:00:38Z</time>
      </trkpt>
      <trkpt lat="43.38912" lon="-1.06097">
        <ele>57</ele>
        <time>2022-09-11T09:00:39Z</time>
      </trkpt>
      <trkpt lat="43.38944" lon="-1.06104">
        <ele>56</ele>
        <time>2022-09-11T09:00:43Z</time>
      </trkpt>
      <trkpt lat="43.38952" lon="-1.06104">
        <ele>55.8</ele>
        <time>2022-09-11T09:00:44Z</time>
      </trkpt>
      <trkpt lat="43.38992" lon="-1.06099">
        <ele>54.8</ele>
        <time>2022-09-11T09:00:49Z</time>
      </trkpt>
      <trkpt lat="43.38999" lon="-1.06097">
        <ele>54.6</ele>
        <time>2022-09-11T09:00:50Z</time>
      </trkpt>
      <trkpt lat="43.3904" lon="-1.06091">
        <ele>53.8</ele>
        <time>2022-09-11T09:00:56Z</time>
      </trkpt>
      <trkpt lat="43.39047" lon="-1.06091">
        <ele>53.6</ele>
        <time>2022-09-11T09:00:57Z</time>
      </trkpt>
      <trkpt lat="43.39065" lon="-1.06094">
        <ele>54</ele>
        <time>2022-09-11T09:01:00Z</time>
      </trkpt>
      <trkpt lat="43.39078" lon="-1.06097">
        <ele>54</ele>
        <time>2022-09-11T09:01:02Z</time>
      </trkpt>
      <trkpt lat="43.39104" lon="-1.061">
        <ele>52.6</ele>
        <time>2022-09-11T09:01:06Z</time>
      </trkpt>
      <trkpt lat="43.3911" lon="-1.061">
        <ele>52.6</ele>
        <time>2022-09-11T09:01:07Z</time>
      </trkpt>
      <trkpt lat="43.39116" lon="-1.06099">
        <ele>52.8</ele>
        <time>2022-09-11T09:01:08Z</time>
      </trkpt>
      <trkpt lat="43.39132" lon="-1.06094">
        <ele>54</ele>
        <time>2022-09-11T09:01:11Z</time>
      </trkpt>
      <trkpt lat="43.39143" lon="-1.0609">
        <ele>53.8</ele>
        <time>2022-09-11T09:01:13Z</time>
      </trkpt>
      <trkpt lat="43.3919" lon="-1.06078">
        <ele>54.6</ele>
        <time>2022-09-11T09:01:22Z</time>
      </trkpt>
      <trkpt lat="43.39233" lon="-1.06077">
        <ele>54.6</ele>
        <time>2022-09-11T09:01:30Z</time>
      </trkpt>
      <trkpt lat="43.39271" lon="-1.06087">
        <ele>54.2</ele>
        <time>2022-09-11T09:01:37Z</time>
      </trkpt>
      <trkpt lat="43.39318" lon="-1.06106">
        <ele>53.2</ele>
        <time>2022-09-11T09:01:45Z</time>
      </trkpt>
      <trkpt lat="43.39355" lon="-1.06119">
        <ele>54.2</ele>
        <time>2022-09-11T09:01:52Z</time>
      </trkpt>
      <trkpt lat="43.39378" lon="-1.06111">
        <ele>54.4</ele>
        <time>2022-09-11T09:01:57Z</time>
      </trkpt>
      <trkpt lat="43.39383" lon="-1.06109">
        <ele>54.2</ele>
        <time>2022-09-11T09:01:58Z</time>
      </trkpt>
      <trkpt lat="43.39398" lon="-1.0611">
        <ele>54</ele>
        <time>2022-09-11T09:02:01Z</time>
      </trkpt>
      <trkpt lat="43.39414" lon="-1.06115">
        <ele>53.8</ele>
        <time>2022-09-11T09:02:04Z</time>
      </trkpt>
      <trkpt lat="43.39428" lon="-1.0612">
        <ele>53.8</ele>
        <time>2022-09-11T09:02:07Z</time>
      </trkpt>
      <trkpt lat="43.39455" lon="-1.06123">
        <ele>53.4</ele>
        <time>2022-09-11T09:02:12Z</time>
      </trkpt>
      <trkpt lat="43.39478" lon="-1.06112">
        <ele>53.2</ele>
        <time>2022-09-11T09:02:16Z</time>
      </trkpt>
      <trkpt lat="43.39484" lon="-1.06109">
        <ele>53.2</ele>
        <time>2022-09-11T09:02:17Z</time>
      </trkpt>
      <trkpt lat="43.39499" lon="-1.06098">
        <ele>52.8</ele>
        <time>2022-09-11T09:02:20Z</time>
      </trkpt>
      <trkpt lat="43.39504" lon="-1.06093">
        <ele>52.8</ele>
        <time>2022-09-11T09:02:21Z</time>
      </trkpt>
      <trkpt lat="43.39513" lon="-1.06083">
        <ele>53</ele>
        <time>2022-09-11T09:02:23Z</time>
      </trkpt>
      <trkpt lat="43.39517" lon="-1.06077">
        <ele>52.8</ele>
        <time>2022-09-11T09:02:24Z</time>
      </trkpt>
      <trkpt lat="43.39532" lon="-1.06054">
        <ele>53.4</ele>
        <time>2022-09-11T09:02:28Z</time>
      </trkpt>
      <trkpt lat="43.3954" lon="-1.06038">
        <ele>53.4</ele>
        <time>2022-09-11T09:02:31Z</time>
      </trkpt>
      <trkpt lat="43.39543" lon="-1.06033">
        <ele>53.4</ele>
        <time>2022-09-11T09:02:32Z</time>
      </trkpt>
      <trkpt lat="43.39544" lon="-1.06028">
        <ele>53.4</ele>
        <time>2022-09-11T09:02:33Z</time>
      </trkpt>
      <trkpt lat="43.39557" lon="-1.05982">
        <ele>53.6</ele>
        <time>2022-09-11T09:02:41Z</time>
      </trkpt>
      <trkpt lat="43.39564" lon="-1.0594">
        <ele>53.8</ele>
        <time>2022-09-11T09:02:48Z</time>
      </trkpt>
      <trkpt lat="43.39568" lon="-1.05909">
        <ele>53.8</ele>
        <time>2022-09-11T09:02:53Z</time>
      </trkpt>
      <trkpt lat="43.39569" lon="-1.05897">
        <ele>53.4</ele>
        <time>2022-09-11T09:02:55Z</time>
      </trkpt>
      <trkpt lat="43.39575" lon="-1.05855">
        <ele>52.8</ele>
        <time>2022-09-11T09:03:01Z</time>
      </trkpt>
      <trkpt lat="43.39575" lon="-1.05847">
        <ele>52.6</ele>
        <time>2022-09-11T09:03:02Z</time>
      </trkpt>
      <trkpt lat="43.3958" lon="-1.05812">
        <ele>51.4</ele>
        <time>2022-09-11T09:03:06Z</time>
      </trkpt>
      <trkpt lat="43.39584" lon="-1.05794">
        <ele>51</ele>
        <time>2022-09-11T09:03:08Z</time>
      </trkpt>
      <trkpt lat="43.39589" lon="-1.05776">
        <ele>50</ele>
        <time>2022-09-11T09:03:10Z</time>
      </trkpt>
      <trkpt lat="43.39601" lon="-1.05741">
        <ele>49</ele>
        <time>2022-09-11T09:03:14Z</time>
      </trkpt>
      <trkpt lat="43.39605" lon="-1.05733">
        <ele>48.6</ele>
        <time>2022-09-11T09:03:15Z</time>
      </trkpt>
      <trkpt lat="43.39614" lon="-1.05717">
        <ele>48</ele>
        <time>2022-09-11T09:03:17Z</time>
      </trkpt>
      <trkpt lat="43.39626" lon="-1.05706">
        <ele>48</ele>
        <time>2022-09-11T09:03:19Z</time>
      </trkpt>
      <trkpt lat="43.39632" lon="-1.05699">
        <ele>47.8</ele>
        <time>2022-09-11T09:03:20Z</time>
      </trkpt>
      <trkpt lat="43.39637" lon="-1.05691">
        <ele>47.2</ele>
        <time>2022-09-11T09:03:21Z</time>
      </trkpt>
      <trkpt lat="43.39641" lon="-1.0568">
        <ele>47.2</ele>
        <time>2022-09-11T09:03:22Z</time>
      </trkpt>
      <trkpt lat="43.39644" lon="-1.05646">
        <ele>46</ele>
        <time>2022-09-11T09:03:25Z</time>
      </trkpt>
      <trkpt lat="43.39647" lon="-1.05607">
        <ele>44.8</ele>
        <time>2022-09-11T09:03:28Z</time>
      </trkpt>
      <trkpt lat="43.3965" lon="-1.05578">
        <ele>42.2</ele>
        <time>2022-09-11T09:03:30Z</time>
      </trkpt>
      <trkpt lat="43.39667" lon="-1.05542">
        <ele>41.4</ele>
        <time>2022-09-11T09:03:33Z</time>
      </trkpt>
      <trkpt lat="43.39675" lon="-1.05533">
        <ele>40.6</ele>
        <time>2022-09-11T09:03:34Z</time>
      </trkpt>
      <trkpt lat="43.39683" lon="-1.05525">
        <ele>40.4</ele>
        <time>2022-09-11T09:03:35Z</time>
      </trkpt>
      <trkpt lat="43.39691" lon="-1.05518">
        <ele>40.2</ele>
        <time>2022-09-11T09:03:36Z</time>
      </trkpt>
      <trkpt lat="43.39714" lon="-1.05497">
        <ele>39.2</ele>
        <time>2022-09-11T09:03:39Z</time>
      </trkpt>
      <trkpt lat="43.39742" lon="-1.0547">
        <ele>38.6</ele>
        <time>2022-09-11T09:03:43Z</time>
      </trkpt>
      <trkpt lat="43.39763" lon="-1.05454">
        <ele>38.2</ele>
        <time>2022-09-11T09:03:46Z</time>
      </trkpt>
      <trkpt lat="43.39777" lon="-1.05446">
        <ele>38.2</ele>
        <time>2022-09-11T09:03:48Z</time>
      </trkpt>
      <trkpt lat="43.39816" lon="-1.05425">
        <ele>39</ele>
        <time>2022-09-11T09:03:54Z</time>
      </trkpt>
      <trkpt lat="43.39859" lon="-1.054">
        <ele>38</ele>
        <time>2022-09-11T09:04:01Z</time>
      </trkpt>
      <trkpt lat="43.39902" lon="-1.05384">
        <ele>38</ele>
        <time>2022-09-11T09:04:08Z</time>
      </trkpt>
      <trkpt lat="43.39955" lon="-1.05366">
        <ele>38.2</ele>
        <time>2022-09-11T09:04:18Z</time>
      </trkpt>
      <trkpt lat="43.39975" lon="-1.05358">
        <ele>37.8</ele>
        <time>2022-09-11T09:04:22Z</time>
      </trkpt>
      <trkpt lat="43.39984" lon="-1.05352">
        <ele>37.8</ele>
        <time>2022-09-11T09:04:24Z</time>
      </trkpt>
      <trkpt lat="43.39999" lon="-1.0535">
        <ele>37.6</ele>
        <time>2022-09-11T09:04:27Z</time>
      </trkpt>
      <trkpt lat="43.40008" lon="-1.05349">
        <ele>37.4</ele>
        <time>2022-09-11T09:04:29Z</time>
      </trkpt>
      <trkpt lat="43.40041" lon="-1.05343">
        <ele>38</ele>
        <time>2022-09-11T09:04:36Z</time>
      </trkpt>
      <trkpt lat="43.40055" lon="-1.05344">
        <ele>38</ele>
        <time>2022-09-11T09:04:39Z</time>
      </trkpt>
      <trkpt lat="43.40068" lon="-1.0535">
        <ele>38.2</ele>
        <time>2022-09-11T09:04:42Z</time>
      </trkpt>
      <trkpt lat="43.40071" lon="-1.05353">
        <ele>38.2</ele>
        <time>2022-09-11T09:04:43Z</time>
      </trkpt>
      <trkpt lat="43.40079" lon="-1.05358">
        <ele>38.4</ele>
        <time>2022-09-11T09:04:46Z</time>
      </trkpt>
      <trkpt lat="43.4009" lon="-1.0535">
        <ele>38</ele>
        <time>2022-09-11T09:04:50Z</time>
      </trkpt>
      <trkpt lat="43.40096" lon="-1.05344">
        <ele>37.4</ele>
        <time>2022-09-11T09:04:52Z</time>
      </trkpt>
      <trkpt lat="43.40107" lon="-1.05338">
        <ele>37.6</ele>
        <time>2022-09-11T09:04:56Z</time>
      </trkpt>
      <trkpt lat="43.40122" lon="-1.0534">
        <ele>37.4</ele>
        <time>2022-09-11T09:05:02Z</time>
      </trkpt>
      <trkpt lat="43.40131" lon="-1.05341">
        <ele>38</ele>
        <time>2022-09-11T09:05:07Z</time>
      </trkpt>
      <trkpt lat="43.40139" lon="-1.05342">
        <ele>38</ele>
        <time>2022-09-11T09:05:13Z</time>
      </trkpt>
      <trkpt lat="43.40142" lon="-1.05342">
        <ele>38</ele>
        <time>2022-09-11T09:05:15Z</time>
      </trkpt>
      <trkpt lat="43.4015" lon="-1.0534">
        <ele>38</ele>
        <time>2022-09-11T09:05:19Z</time>
      </trkpt>
      <trkpt lat="43.40154" lon="-1.05339">
        <ele>38</ele>
        <time>2022-09-11T09:05:21Z</time>
      </trkpt>
      <trkpt lat="43.40164" lon="-1.05338">
        <ele>37.8</ele>
        <time>2022-09-11T09:05:24Z</time>
      </trkpt>
      <trkpt lat="43.40177" lon="-1.05342">
        <ele>37.8</ele>
        <time>2022-09-11T09:05:29Z</time>
      </trkpt>
      <trkpt lat="43.4019" lon="-1.05342">
        <ele>37.8</ele>
        <time>2022-09-11T09:05:36Z</time>
      </trkpt>
      <trkpt lat="43.40204" lon="-1.05338">
        <ele>37.2</ele>
        <time>2022-09-11T09:05:42Z</time>
      </trkpt>
      <trkpt lat="43.40207" lon="-1.05337">
        <ele>37.2</ele>
        <time>2022-09-11T09:05:43Z</time>
      </trkpt>
      <trkpt lat="43.40221" lon="-1.05335">
        <ele>37.4</ele>
        <time>2022-09-11T09:05:48Z</time>
      </trkpt>
      <trkpt lat="43.40235" lon="-1.05334">
        <ele>37</ele>
        <time>2022-09-11T09:05:53Z</time>
      </trkpt>
      <trkpt lat="43.40239" lon="-1.05333">
        <ele>37.2</ele>
        <time>2022-09-11T09:05:55Z</time>
      </trkpt>
      <trkpt lat="43.40252" lon="-1.05333">
        <ele>37</ele>
        <time>2022-09-11T09:06:01Z</time>
      </trkpt>
      <trkpt lat="43.4026" lon="-1.05331">
        <ele>36.8</ele>
        <time>2022-09-11T09:06:05Z</time>
      </trkpt>
      <trkpt lat="43.40278" lon="-1.05332">
        <ele>36.8</ele>
        <time>2022-09-11T09:06:12Z</time>
      </trkpt>
      <trkpt lat="43.40298" lon="-1.05334">
        <ele>36.8</ele>
        <time>2022-09-11T09:06:19Z</time>
      </trkpt>
      <trkpt lat="43.40318" lon="-1.05332">
        <ele>36.8</ele>
        <time>2022-09-11T09:06:26Z</time>
      </trkpt>
      <trkpt lat="43.4034" lon="-1.0533">
        <ele>36.6</ele>
        <time>2022-09-11T09:06:34Z</time>
      </trkpt>
      <trkpt lat="43.40362" lon="-1.05333">
        <ele>36.6</ele>
        <time>2022-09-11T09:06:42Z</time>
      </trkpt>
      <trkpt lat="43.40381" lon="-1.0534">
        <ele>36.8</ele>
        <time>2022-09-11T09:06:49Z</time>
      </trkpt>
      <trkpt lat="43.40399" lon="-1.0535">
        <ele>36.8</ele>
        <time>2022-09-11T09:06:56Z</time>
      </trkpt>
      <trkpt lat="43.40416" lon="-1.05355">
        <ele>37</ele>
        <time>2022-09-11T09:07:03Z</time>
      </trkpt>
      <trkpt lat="43.40433" lon="-1.05354">
        <ele>36.8</ele>
        <time>2022-09-11T09:07:10Z</time>
      </trkpt>
      <trkpt lat="43.40447" lon="-1.05355">
        <ele>36.8</ele>
        <time>2022-09-11T09:07:15Z</time>
      </trkpt>
      <trkpt lat="43.40454" lon="-1.05357">
        <ele>36.8</ele>
        <time>2022-09-11T09:07:18Z</time>
      </trkpt>
      <trkpt lat="43.40476" lon="-1.05361">
        <ele>36.8</ele>
        <time>2022-09-11T09:07:26Z</time>
      </trkpt>
      <trkpt lat="43.40493" lon="-1.05365">
        <ele>36.8</ele>
        <time>2022-09-11T09:07:33Z</time>
      </trkpt>
      <trkpt lat="43.40507" lon="-1.05373">
        <ele>37</ele>
        <time>2022-09-11T09:07:39Z</time>
      </trkpt>
      <trkpt lat="43.40526" lon="-1.05381">
        <ele>36.8</ele>
        <time>2022-09-11T09:07:46Z</time>
      </trkpt>
      <trkpt lat="43.40547" lon="-1.05388">
        <ele>36.8</ele>
        <time>2022-09-11T09:07:53Z</time>
      </trkpt>
      <trkpt lat="43.40571" lon="-1.05398">
        <ele>36.8</ele>
        <time>2022-09-11T09:08:00Z</time>
      </trkpt>
      <trkpt lat="43.40593" lon="-1.05408">
        <ele>36.8</ele>
        <time>2022-09-11T09:08:07Z</time>
      </trkpt>
      <trkpt lat="43.40612" lon="-1.05417">
        <ele>36.6</ele>
        <time>2022-09-11T09:08:13Z</time>
      </trkpt>
      <trkpt lat="43.40636" lon="-1.05436">
        <ele>36.8</ele>
        <time>2022-09-11T09:08:21Z</time>
      </trkpt>
      <trkpt lat="43.40651" lon="-1.05451">
        <ele>36.6</ele>
        <time>2022-09-11T09:08:28Z</time>
      </trkpt>
      <trkpt lat="43.40665" lon="-1.05466">
        <ele>36.2</ele>
        <time>2022-09-11T09:08:33Z</time>
      </trkpt>
      <trkpt lat="43.40668" lon="-1.05469">
        <ele>36</ele>
        <time>2022-09-11T09:08:34Z</time>
      </trkpt>
      <trkpt lat="43.40685" lon="-1.05475">
        <ele>35.8</ele>
        <time>2022-09-11T09:08:39Z</time>
      </trkpt>
      <trkpt lat="43.40704" lon="-1.05467">
        <ele>35.8</ele>
        <time>2022-09-11T09:08:44Z</time>
      </trkpt>
      <trkpt lat="43.40732" lon="-1.05459">
        <ele>36</ele>
        <time>2022-09-11T09:08:51Z</time>
      </trkpt>
      <trkpt lat="43.40756" lon="-1.05462">
        <ele>36.6</ele>
        <time>2022-09-11T09:08:57Z</time>
      </trkpt>
      <trkpt lat="43.40775" lon="-1.05469">
        <ele>37.2</ele>
        <time>2022-09-11T09:09:02Z</time>
      </trkpt>
      <trkpt lat="43.40783" lon="-1.05472">
        <ele>37.4</ele>
        <time>2022-09-11T09:09:04Z</time>
      </trkpt>
      <trkpt lat="43.40819" lon="-1.05487">
        <ele>37.6</ele>
        <time>2022-09-11T09:09:13Z</time>
      </trkpt>
      <trkpt lat="43.40835" lon="-1.05495">
        <ele>38.2</ele>
        <time>2022-09-11T09:09:17Z</time>
      </trkpt>
      <trkpt lat="43.40854" lon="-1.05506">
        <ele>38.2</ele>
        <time>2022-09-11T09:09:22Z</time>
      </trkpt>
      <trkpt lat="43.40886" lon="-1.05527">
        <ele>38.2</ele>
        <time>2022-09-11T09:09:30Z</time>
      </trkpt>
      <trkpt lat="43.40915" lon="-1.05546">
        <ele>38</ele>
        <time>2022-09-11T09:09:38Z</time>
      </trkpt>
      <trkpt lat="43.4095" lon="-1.05567">
        <ele>38.4</ele>
        <time>2022-09-11T09:09:47Z</time>
      </trkpt>
      <trkpt lat="43.40978" lon="-1.05587">
        <ele>38.6</ele>
        <time>2022-09-11T09:09:55Z</time>
      </trkpt>
      <trkpt lat="43.40999" lon="-1.05599">
        <ele>38.4</ele>
        <time>2022-09-11T09:10:01Z</time>
      </trkpt>
      <trkpt lat="43.41011" lon="-1.05604">
        <ele>38</ele>
        <time>2022-09-11T09:10:04Z</time>
      </trkpt>
      <trkpt lat="43.4102" lon="-1.05607">
        <ele>37.8</ele>
        <time>2022-09-11T09:10:06Z</time>
      </trkpt>
      <trkpt lat="43.41039" lon="-1.05619">
        <ele>37.4</ele>
        <time>2022-09-11T09:10:12Z</time>
      </trkpt>
      <trkpt lat="43.41047" lon="-1.05624">
        <ele>37.2</ele>
        <time>2022-09-11T09:10:15Z</time>
      </trkpt>
      <trkpt lat="43.41056" lon="-1.05628">
        <ele>37.2</ele>
        <time>2022-09-11T09:10:18Z</time>
      </trkpt>
      <trkpt lat="43.41085" lon="-1.05641">
        <ele>36.6</ele>
        <time>2022-09-11T09:10:26Z</time>
      </trkpt>
      <trkpt lat="43.41103" lon="-1.05651">
        <ele>36.4</ele>
        <time>2022-09-11T09:10:32Z</time>
      </trkpt>
      <trkpt lat="43.41125" lon="-1.05666">
        <ele>36.4</ele>
        <time>2022-09-11T09:10:39Z</time>
      </trkpt>
      <trkpt lat="43.41134" lon="-1.05674">
        <ele>36.2</ele>
        <time>2022-09-11T09:10:42Z</time>
      </trkpt>
      <trkpt lat="43.41146" lon="-1.05685">
        <ele>36</ele>
        <time>2022-09-11T09:10:46Z</time>
      </trkpt>
      <trkpt lat="43.4116" lon="-1.05704">
        <ele>35.6</ele>
        <time>2022-09-11T09:10:52Z</time>
      </trkpt>
      <trkpt lat="43.41174" lon="-1.05719">
        <ele>36</ele>
        <time>2022-09-11T09:10:58Z</time>
      </trkpt>
      <trkpt lat="43.41194" lon="-1.05741">
        <ele>36.4</ele>
        <time>2022-09-11T09:11:06Z</time>
      </trkpt>
      <trkpt lat="43.41214" lon="-1.05758">
        <ele>36.4</ele>
        <time>2022-09-11T09:11:13Z</time>
      </trkpt>
      <trkpt lat="43.41229" lon="-1.05772">
        <ele>36.4</ele>
        <time>2022-09-11T09:11:18Z</time>
      </trkpt>
      <trkpt lat="43.41244" lon="-1.05782">
        <ele>36.2</ele>
        <time>2022-09-11T09:11:24Z</time>
      </trkpt>
      <trkpt lat="43.41256" lon="-1.05791">
        <ele>36</ele>
        <time>2022-09-11T09:11:29Z</time>
      </trkpt>
      <trkpt lat="43.41267" lon="-1.05799">
        <ele>36.2</ele>
        <time>2022-09-11T09:11:35Z</time>
      </trkpt>
      <trkpt lat="43.41276" lon="-1.058">
        <ele>35.6</ele>
        <time>2022-09-11T09:15:37Z</time>
      </trkpt>
      <trkpt lat="43.4128" lon="-1.05798">
        <ele>35.2</ele>
        <time>2022-09-11T09:15:38Z</time>
      </trkpt>
      <trkpt lat="43.41284" lon="-1.05797">
        <ele>35</ele>
        <time>2022-09-11T09:15:39Z</time>
      </trkpt>
      <trkpt lat="43.41296" lon="-1.05796">
        <ele>34.8</ele>
        <time>2022-09-11T09:15:42Z</time>
      </trkpt>
      <trkpt lat="43.41304" lon="-1.05798">
        <ele>34.8</ele>
        <time>2022-09-11T09:15:44Z</time>
      </trkpt>
      <trkpt lat="43.41318" lon="-1.05805">
        <ele>34.4</ele>
        <time>2022-09-11T09:15:48Z</time>
      </trkpt>
      <trkpt lat="43.41333" lon="-1.05818">
        <ele>34.4</ele>
        <time>2022-09-11T09:15:54Z</time>
      </trkpt>
      <trkpt lat="43.41346" lon="-1.05828">
        <ele>34.4</ele>
        <time>2022-09-11T09:16:00Z</time>
      </trkpt>
      <trkpt lat="43.41361" lon="-1.05841">
        <ele>34.4</ele>
        <time>2022-09-11T09:16:06Z</time>
      </trkpt>
      <trkpt lat="43.41379" lon="-1.05856">
        <ele>34.6</ele>
        <time>2022-09-11T09:16:12Z</time>
      </trkpt>
      <trkpt lat="43.41395" lon="-1.05874">
        <ele>35.2</ele>
        <time>2022-09-11T09:16:19Z</time>
      </trkpt>
      <trkpt lat="43.41413" lon="-1.05893">
        <ele>35.4</ele>
        <time>2022-09-11T09:16:27Z</time>
      </trkpt>
      <trkpt lat="43.41426" lon="-1.05905">
        <ele>35.4</ele>
        <time>2022-09-11T09:16:33Z</time>
      </trkpt>
      <trkpt lat="43.41445" lon="-1.05924">
        <ele>35.6</ele>
        <time>2022-09-11T09:16:42Z</time>
      </trkpt>
      <trkpt lat="43.41464" lon="-1.05941">
        <ele>35.4</ele>
        <time>2022-09-11T09:16:50Z</time>
      </trkpt>
      <trkpt lat="43.41482" lon="-1.05956">
        <ele>35.4</ele>
        <time>2022-09-11T09:16:58Z</time>
      </trkpt>
      <trkpt lat="43.41496" lon="-1.05976">
        <ele>35.4</ele>
        <time>2022-09-11T09:17:05Z</time>
      </trkpt>
      <trkpt lat="43.41509" lon="-1.05994">
        <ele>35.4</ele>
        <time>2022-09-11T09:17:12Z</time>
      </trkpt>
      <trkpt lat="43.41522" lon="-1.06011">
        <ele>35.2</ele>
        <time>2022-09-11T09:17:19Z</time>
      </trkpt>
      <trkpt lat="43.41532" lon="-1.06031">
        <ele>35</ele>
        <time>2022-09-11T09:17:26Z</time>
      </trkpt>
      <trkpt lat="43.41538" lon="-1.0605">
        <ele>34.8</ele>
        <time>2022-09-11T09:17:32Z</time>
      </trkpt>
      <trkpt lat="43.41541" lon="-1.06067">
        <ele>34</ele>
        <time>2022-09-11T09:17:38Z</time>
      </trkpt>
      <trkpt lat="43.41536" lon="-1.06081">
        <ele>34</ele>
        <time>2022-09-11T09:17:42Z</time>
      </trkpt>
      <trkpt lat="43.41534" lon="-1.06084">
        <ele>33.8</ele>
        <time>2022-09-11T09:17:43Z</time>
      </trkpt>
      <trkpt lat="43.41523" lon="-1.06113">
        <ele>34</ele>
        <time>2022-09-11T09:17:49Z</time>
      </trkpt>
      <trkpt lat="43.41511" lon="-1.0614">
        <ele>35.2</ele>
        <time>2022-09-11T09:17:56Z</time>
      </trkpt>
      <trkpt lat="43.41508" lon="-1.06155">
        <ele>36.2</ele>
        <time>2022-09-11T09:18:01Z</time>
      </trkpt>
      <trkpt lat="43.41508" lon="-1.06158">
        <ele>36.4</ele>
        <time>2022-09-11T09:18:02Z</time>
      </trkpt>
      <trkpt lat="43.41514" lon="-1.06181">
        <ele>36.6</ele>
        <time>2022-09-11T09:18:09Z</time>
      </trkpt>
      <trkpt lat="43.4152" lon="-1.06207">
        <ele>36.8</ele>
        <time>2022-09-11T09:18:16Z</time>
      </trkpt>
      <trkpt lat="43.41524" lon="-1.06221">
        <ele>37.4</ele>
        <time>2022-09-11T09:18:20Z</time>
      </trkpt>
      <trkpt lat="43.41527" lon="-1.06232">
        <ele>38</ele>
        <time>2022-09-11T09:18:23Z</time>
      </trkpt>
      <trkpt lat="43.41534" lon="-1.06261">
        <ele>38.4</ele>
        <time>2022-09-11T09:18:31Z</time>
      </trkpt>
      <trkpt lat="43.41538" lon="-1.06273">
        <ele>38.6</ele>
        <time>2022-09-11T09:18:34Z</time>
      </trkpt>
      <trkpt lat="43.41543" lon="-1.06293">
        <ele>39</ele>
        <time>2022-09-11T09:18:39Z</time>
      </trkpt>
      <trkpt lat="43.41547" lon="-1.06312">
        <ele>39.6</ele>
        <time>2022-09-11T09:18:44Z</time>
      </trkpt>
      <trkpt lat="43.4155" lon="-1.06323">
        <ele>40</ele>
        <time>2022-09-11T09:18:47Z</time>
      </trkpt>
      <trkpt lat="43.41553" lon="-1.06333">
        <ele>40.6</ele>
        <time>2022-09-11T09:18:50Z</time>
      </trkpt>
      <trkpt lat="43.41558" lon="-1.06353">
        <ele>41.6</ele>
        <time>2022-09-11T09:18:56Z</time>
      </trkpt>
      <trkpt lat="43.4156" lon="-1.06357">
        <ele>41.8</ele>
        <time>2022-09-11T09:18:58Z</time>
      </trkpt>
      <trkpt lat="43.41562" lon="-1.06366">
        <ele>42.4</ele>
        <time>2022-09-11T09:19:02Z</time>
      </trkpt>
      <trkpt lat="43.41565" lon="-1.06374">
        <ele>43</ele>
        <time>2022-09-11T09:19:05Z</time>
      </trkpt>
      <trkpt lat="43.41568" lon="-1.06383">
        <ele>43.6</ele>
        <time>2022-09-11T09:19:09Z</time>
      </trkpt>
      <trkpt lat="43.4157" lon="-1.06388">
        <ele>44</ele>
        <time>2022-09-11T09:19:11Z</time>
      </trkpt>
      <trkpt lat="43.41575" lon="-1.06401">
        <ele>44.8</ele>
        <time>2022-09-11T09:19:17Z</time>
      </trkpt>
      <trkpt lat="43.41577" lon="-1.0641">
        <ele>45</ele>
        <time>2022-09-11T09:19:20Z</time>
      </trkpt>
      <trkpt lat="43.41581" lon="-1.06424">
        <ele>45.6</ele>
        <time>2022-09-11T09:19:25Z</time>
      </trkpt>
      <trkpt lat="43.41584" lon="-1.06432">
        <ele>46</ele>
        <time>2022-09-11T09:19:28Z</time>
      </trkpt>
      <trkpt lat="43.4159" lon="-1.06444">
        <ele>46.6</ele>
        <time>2022-09-11T09:19:33Z</time>
      </trkpt>
      <trkpt lat="43.41599" lon="-1.06467">
        <ele>47</ele>
        <time>2022-09-11T09:19:41Z</time>
      </trkpt>
      <trkpt lat="43.416" lon="-1.0647">
        <ele>47.2</ele>
        <time>2022-09-11T09:19:42Z</time>
      </trkpt>
      <trkpt lat="43.4161" lon="-1.06494">
        <ele>47.6</ele>
        <time>2022-09-11T09:19:50Z</time>
      </trkpt>
      <trkpt lat="43.41615" lon="-1.06506">
        <ele>48.2</ele>
        <time>2022-09-11T09:19:54Z</time>
      </trkpt>
      <trkpt lat="43.41625" lon="-1.0653">
        <ele>48.4</ele>
        <time>2022-09-11T09:20:01Z</time>
      </trkpt>
      <trkpt lat="43.41633" lon="-1.06565">
        <ele>48.6</ele>
        <time>2022-09-11T09:20:09Z</time>
      </trkpt>
      <trkpt lat="43.41643" lon="-1.06601">
        <ele>48.8</ele>
        <time>2022-09-11T09:20:16Z</time>
      </trkpt>
      <trkpt lat="43.41659" lon="-1.06635">
        <ele>48.8</ele>
        <time>2022-09-11T09:20:23Z</time>
      </trkpt>
      <trkpt lat="43.41689" lon="-1.06683">
        <ele>49.2</ele>
        <time>2022-09-11T09:20:34Z</time>
      </trkpt>
      <trkpt lat="43.41715" lon="-1.06724">
        <ele>49.6</ele>
        <time>2022-09-11T09:20:43Z</time>
      </trkpt>
      <trkpt lat="43.41747" lon="-1.06774">
        <ele>49.8</ele>
        <time>2022-09-11T09:20:54Z</time>
      </trkpt>
      <trkpt lat="43.41772" lon="-1.06813">
        <ele>50.2</ele>
        <time>2022-09-11T09:21:03Z</time>
      </trkpt>
      <trkpt lat="43.41798" lon="-1.06854">
        <ele>50.6</ele>
        <time>2022-09-11T09:21:12Z</time>
      </trkpt>
      <trkpt lat="43.41821" lon="-1.06894">
        <ele>51.2</ele>
        <time>2022-09-11T09:21:21Z</time>
      </trkpt>
      <trkpt lat="43.41824" lon="-1.06898">
        <ele>51.4</ele>
        <time>2022-09-11T09:21:22Z</time>
      </trkpt>
      <trkpt lat="43.41835" lon="-1.06917">
        <ele>52.2</ele>
        <time>2022-09-11T09:21:27Z</time>
      </trkpt>
      <trkpt lat="43.4184" lon="-1.06928">
        <ele>52.8</ele>
        <time>2022-09-11T09:21:30Z</time>
      </trkpt>
      <trkpt lat="43.41845" lon="-1.06938">
        <ele>53.4</ele>
        <time>2022-09-11T09:21:33Z</time>
      </trkpt>
      <trkpt lat="43.4185" lon="-1.06948">
        <ele>54</ele>
        <time>2022-09-11T09:21:36Z</time>
      </trkpt>
      <trkpt lat="43.41855" lon="-1.06958">
        <ele>54.4</ele>
        <time>2022-09-11T09:21:39Z</time>
      </trkpt>
      <trkpt lat="43.41865" lon="-1.06974">
        <ele>55.6</ele>
        <time>2022-09-11T09:21:45Z</time>
      </trkpt>
      <trkpt lat="43.41873" lon="-1.06984">
        <ele>56</ele>
        <time>2022-09-11T09:21:49Z</time>
      </trkpt>
      <trkpt lat="43.41882" lon="-1.06998">
        <ele>56.4</ele>
        <time>2022-09-11T09:21:54Z</time>
      </trkpt>
      <trkpt lat="43.41887" lon="-1.07004">
        <ele>56.6</ele>
        <time>2022-09-11T09:21:56Z</time>
      </trkpt>
      <trkpt lat="43.419" lon="-1.07024">
        <ele>57.4</ele>
        <time>2022-09-11T09:22:03Z</time>
      </trkpt>
      <trkpt lat="43.41906" lon="-1.07037">
        <ele>57.8</ele>
        <time>2022-09-11T09:22:07Z</time>
      </trkpt>
      <trkpt lat="43.41911" lon="-1.07048">
        <ele>57.8</ele>
        <time>2022-09-11T09:22:10Z</time>
      </trkpt>
      <trkpt lat="43.41917" lon="-1.07087">
        <ele>58.6</ele>
        <time>2022-09-11T09:22:19Z</time>
      </trkpt>
      <trkpt lat="43.41918" lon="-1.07096">
        <ele>58.8</ele>
        <time>2022-09-11T09:22:21Z</time>
      </trkpt>
      <trkpt lat="43.41919" lon="-1.07127">
        <ele>59.6</ele>
        <time>2022-09-11T09:22:28Z</time>
      </trkpt>
      <trkpt lat="43.4192" lon="-1.07135">
        <ele>60</ele>
        <time>2022-09-11T09:22:30Z</time>
      </trkpt>
      <trkpt lat="43.41923" lon="-1.07169">
        <ele>61</ele>
        <time>2022-09-11T09:22:38Z</time>
      </trkpt>
      <trkpt lat="43.41927" lon="-1.07194">
        <ele>62</ele>
        <time>2022-09-11T09:22:45Z</time>
      </trkpt>
      <trkpt lat="43.41927" lon="-1.07198">
        <ele>62.2</ele>
        <time>2022-09-11T09:22:46Z</time>
      </trkpt>
      <trkpt lat="43.41929" lon="-1.07213">
        <ele>63.2</ele>
        <time>2022-09-11T09:22:51Z</time>
      </trkpt>
      <trkpt lat="43.4193" lon="-1.07222">
        <ele>63.4</ele>
        <time>2022-09-11T09:22:54Z</time>
      </trkpt>
      <trkpt lat="43.41931" lon="-1.07235">
        <ele>64.2</ele>
        <time>2022-09-11T09:22:58Z</time>
      </trkpt>
      <trkpt lat="43.41933" lon="-1.07251">
        <ele>64.8</ele>
        <time>2022-09-11T09:23:03Z</time>
      </trkpt>
      <trkpt lat="43.41936" lon="-1.07264">
        <ele>65.2</ele>
        <time>2022-09-11T09:23:07Z</time>
      </trkpt>
      <trkpt lat="43.4194" lon="-1.0727">
        <ele>65.6</ele>
        <time>2022-09-11T09:23:10Z</time>
      </trkpt>
      <trkpt lat="43.41952" lon="-1.07285">
        <ele>65.6</ele>
        <time>2022-09-11T09:23:17Z</time>
      </trkpt>
      <trkpt lat="43.41962" lon="-1.07296">
        <ele>66.4</ele>
        <time>2022-09-11T09:23:22Z</time>
      </trkpt>
      <trkpt lat="43.41966" lon="-1.073">
        <ele>66.8</ele>
        <time>2022-09-11T09:23:25Z</time>
      </trkpt>
      <trkpt lat="43.41971" lon="-1.07305">
        <ele>67.4</ele>
        <time>2022-09-11T09:23:29Z</time>
      </trkpt>
      <trkpt lat="43.41976" lon="-1.0731">
        <ele>68.2</ele>
        <time>2022-09-11T09:23:33Z</time>
      </trkpt>
      <trkpt lat="43.41978" lon="-1.07313">
        <ele>68.4</ele>
        <time>2022-09-11T09:23:35Z</time>
      </trkpt>
      <trkpt lat="43.41981" lon="-1.07315">
        <ele>68.8</ele>
        <time>2022-09-11T09:23:37Z</time>
      </trkpt>
      <trkpt lat="43.41986" lon="-1.07317">
        <ele>69.4</ele>
        <time>2022-09-11T09:23:40Z</time>
      </trkpt>
      <trkpt lat="43.41987" lon="-1.07317">
        <ele>69.6</ele>
        <time>2022-09-11T09:23:41Z</time>
      </trkpt>
      <trkpt lat="43.41992" lon="-1.0732">
        <ele>70.4</ele>
        <time>2022-09-11T09:23:45Z</time>
      </trkpt>
      <trkpt lat="43.41993" lon="-1.07321">
        <ele>70.6</ele>
        <time>2022-09-11T09:23:46Z</time>
      </trkpt>
      <trkpt lat="43.42" lon="-1.0733">
        <ele>71.8</ele>
        <time>2022-09-11T09:23:52Z</time>
      </trkpt>
      <trkpt lat="43.42001" lon="-1.07332">
        <ele>71.8</ele>
        <time>2022-09-11T09:23:53Z</time>
      </trkpt>
      <trkpt lat="43.42003" lon="-1.07335">
        <ele>72.2</ele>
        <time>2022-09-11T09:23:55Z</time>
      </trkpt>
      <trkpt lat="43.42004" lon="-1.07338">
        <ele>72.8</ele>
        <time>2022-09-11T09:23:57Z</time>
      </trkpt>
      <trkpt lat="43.42006" lon="-1.07344">
        <ele>73.4</ele>
        <time>2022-09-11T09:24:00Z</time>
      </trkpt>
      <trkpt lat="43.42006" lon="-1.07349">
        <ele>73.6</ele>
        <time>2022-09-11T09:24:03Z</time>
      </trkpt>
      <trkpt lat="43.42006" lon="-1.07351">
        <ele>74</ele>
        <time>2022-09-11T09:24:04Z</time>
      </trkpt>
      <trkpt lat="43.42006" lon="-1.07356">
        <ele>74.6</ele>
        <time>2022-09-11T09:24:07Z</time>
      </trkpt>
      <trkpt lat="43.42007" lon="-1.07361">
        <ele>75</ele>
        <time>2022-09-11T09:24:10Z</time>
      </trkpt>
      <trkpt lat="43.42006" lon="-1.07364">
        <ele>75.4</ele>
        <time>2022-09-11T09:24:12Z</time>
      </trkpt>
      <trkpt lat="43.42007" lon="-1.07372">
        <ele>76.2</ele>
        <time>2022-09-11T09:24:17Z</time>
      </trkpt>
      <trkpt lat="43.42007" lon="-1.07382">
        <ele>77.2</ele>
        <time>2022-09-11T09:24:23Z</time>
      </trkpt>
      <trkpt lat="43.42007" lon="-1.07383">
        <ele>77.2</ele>
        <time>2022-09-11T09:24:24Z</time>
      </trkpt>
      <trkpt lat="43.42008" lon="-1.07386">
        <ele>77.8</ele>
        <time>2022-09-11T09:24:27Z</time>
      </trkpt>
      <trkpt lat="43.42008" lon="-1.07389">
        <ele>78</ele>
        <time>2022-09-11T09:24:29Z</time>
      </trkpt>
      <trkpt lat="43.42008" lon="-1.0739">
        <ele>78.2</ele>
        <time>2022-09-11T09:24:30Z</time>
      </trkpt>
      <trkpt lat="43.42009" lon="-1.07398">
        <ele>78.8</ele>
        <time>2022-09-11T09:24:35Z</time>
      </trkpt>
      <trkpt lat="43.42011" lon="-1.07402">
        <ele>79.2</ele>
        <time>2022-09-11T09:24:38Z</time>
      </trkpt>
      <trkpt lat="43.42011" lon="-1.07411">
        <ele>80.2</ele>
        <time>2022-09-11T09:24:43Z</time>
      </trkpt>
      <trkpt lat="43.42011" lon="-1.07413">
        <ele>80.6</ele>
        <time>2022-09-11T09:24:44Z</time>
      </trkpt>
      <trkpt lat="43.42013" lon="-1.07418">
        <ele>81</ele>
        <time>2022-09-11T09:24:47Z</time>
      </trkpt>
      <trkpt lat="43.42013" lon="-1.07422">
        <ele>81.4</ele>
        <time>2022-09-11T09:24:50Z</time>
      </trkpt>
      <trkpt lat="43.42013" lon="-1.07424">
        <ele>81.6</ele>
        <time>2022-09-11T09:24:51Z</time>
      </trkpt>
      <trkpt lat="43.42015" lon="-1.07431">
        <ele>82.2</ele>
        <time>2022-09-11T09:24:55Z</time>
      </trkpt>
      <trkpt lat="43.42015" lon="-1.07432">
        <ele>82.2</ele>
        <time>2022-09-11T09:24:56Z</time>
      </trkpt>
      <trkpt lat="43.42016" lon="-1.07432">
        <ele>82.4</ele>
        <time>2022-09-11T09:24:57Z</time>
      </trkpt>
      <trkpt lat="43.42018" lon="-1.07432">
        <ele>82.6</ele>
        <time>2022-09-11T09:24:58Z</time>
      </trkpt>
      <trkpt lat="43.4202" lon="-1.07436">
        <ele>83.2</ele>
        <time>2022-09-11T09:25:02Z</time>
      </trkpt>
      <trkpt lat="43.42023" lon="-1.07437">
        <ele>83.6</ele>
        <time>2022-09-11T09:25:05Z</time>
      </trkpt>
      <trkpt lat="43.42024" lon="-1.07438">
        <ele>83.8</ele>
        <time>2022-09-11T09:25:06Z</time>
      </trkpt>
      <trkpt lat="43.42028" lon="-1.07444">
        <ele>84.8</ele>
        <time>2022-09-11T09:25:11Z</time>
      </trkpt>
      <trkpt lat="43.42029" lon="-1.07446">
        <ele>85</ele>
        <time>2022-09-11T09:25:12Z</time>
      </trkpt>
      <trkpt lat="43.4203" lon="-1.07446">
        <ele>85</ele>
        <time>2022-09-11T09:25:13Z</time>
      </trkpt>
      <trkpt lat="43.42034" lon="-1.07451">
        <ele>85.8</ele>
        <time>2022-09-11T09:25:19Z</time>
      </trkpt>
      <trkpt lat="43.42039" lon="-1.07455">
        <ele>86.6</ele>
        <time>2022-09-11T09:25:24Z</time>
      </trkpt>
      <trkpt lat="43.4204" lon="-1.07456">
        <ele>86.8</ele>
        <time>2022-09-11T09:25:25Z</time>
      </trkpt>
      <trkpt lat="43.42048" lon="-1.07464">
        <ele>87.8</ele>
        <time>2022-09-11T09:25:32Z</time>
      </trkpt>
      <trkpt lat="43.42049" lon="-1.07466">
        <ele>88</ele>
        <time>2022-09-11T09:25:33Z</time>
      </trkpt>
      <trkpt lat="43.42056" lon="-1.07471">
        <ele>89</ele>
        <time>2022-09-11T09:25:39Z</time>
      </trkpt>
      <trkpt lat="43.42056" lon="-1.07473">
        <ele>89</ele>
        <time>2022-09-11T09:25:40Z</time>
      </trkpt>
      <trkpt lat="43.42066" lon="-1.07483">
        <ele>89.8</ele>
        <time>2022-09-11T09:25:48Z</time>
      </trkpt>
      <trkpt lat="43.42072" lon="-1.07489">
        <ele>90</ele>
        <time>2022-09-11T09:25:53Z</time>
      </trkpt>
      <trkpt lat="43.42076" lon="-1.07491">
        <ele>90.6</ele>
        <time>2022-09-11T09:25:56Z</time>
      </trkpt>
      <trkpt lat="43.42082" lon="-1.07497">
        <ele>91</ele>
        <time>2022-09-11T09:26:00Z</time>
      </trkpt>
      <trkpt lat="43.42084" lon="-1.07502">
        <ele>91.6</ele>
        <time>2022-09-11T09:26:03Z</time>
      </trkpt>
      <trkpt lat="43.42087" lon="-1.07507">
        <ele>92.2</ele>
        <time>2022-09-11T09:26:06Z</time>
      </trkpt>
      <trkpt lat="43.42093" lon="-1.07511">
        <ele>92.6</ele>
        <time>2022-09-11T09:26:10Z</time>
      </trkpt>
      <trkpt lat="43.42095" lon="-1.07515">
        <ele>93.4</ele>
        <time>2022-09-11T09:26:13Z</time>
      </trkpt>
      <trkpt lat="43.42098" lon="-1.07519">
        <ele>93.6</ele>
        <time>2022-09-11T09:26:16Z</time>
      </trkpt>
      <trkpt lat="43.42099" lon="-1.0752">
        <ele>93.6</ele>
        <time>2022-09-11T09:26:17Z</time>
      </trkpt>
      <trkpt lat="43.42103" lon="-1.07522">
        <ele>94.4</ele>
        <time>2022-09-11T09:26:20Z</time>
      </trkpt>
      <trkpt lat="43.42105" lon="-1.07524">
        <ele>94.6</ele>
        <time>2022-09-11T09:26:22Z</time>
      </trkpt>
      <trkpt lat="43.42107" lon="-1.07527">
        <ele>95</ele>
        <time>2022-09-11T09:26:24Z</time>
      </trkpt>
      <trkpt lat="43.42111" lon="-1.07531">
        <ele>95.4</ele>
        <time>2022-09-11T09:26:27Z</time>
      </trkpt>
      <trkpt lat="43.42113" lon="-1.07533">
        <ele>95.8</ele>
        <time>2022-09-11T09:26:29Z</time>
      </trkpt>
      <trkpt lat="43.42119" lon="-1.07538">
        <ele>96.6</ele>
        <time>2022-09-11T09:26:34Z</time>
      </trkpt>
      <trkpt lat="43.42121" lon="-1.07538">
        <ele>96.8</ele>
        <time>2022-09-11T09:26:35Z</time>
      </trkpt>
      <trkpt lat="43.42122" lon="-1.07538">
        <ele>97</ele>
        <time>2022-09-11T09:26:36Z</time>
      </trkpt>
      <trkpt lat="43.42127" lon="-1.07543">
        <ele>97.4</ele>
        <time>2022-09-11T09:26:40Z</time>
      </trkpt>
      <trkpt lat="43.42128" lon="-1.07544">
        <ele>97.6</ele>
        <time>2022-09-11T09:26:41Z</time>
      </trkpt>
      <trkpt lat="43.42129" lon="-1.07545">
        <ele>97.6</ele>
        <time>2022-09-11T09:26:42Z</time>
      </trkpt>
      <trkpt lat="43.4213" lon="-1.07546">
        <ele>97.8</ele>
        <time>2022-09-11T09:26:43Z</time>
      </trkpt>
      <trkpt lat="43.42135" lon="-1.07548">
        <ele>98.4</ele>
        <time>2022-09-11T09:26:46Z</time>
      </trkpt>
      <trkpt lat="43.42137" lon="-1.0755">
        <ele>98.8</ele>
        <time>2022-09-11T09:26:48Z</time>
      </trkpt>
      <trkpt lat="43.42139" lon="-1.07551">
        <ele>99</ele>
        <time>2022-09-11T09:26:50Z</time>
      </trkpt>
      <trkpt lat="43.42146" lon="-1.07555">
        <ele>99.6</ele>
        <time>2022-09-11T09:26:55Z</time>
      </trkpt>
      <trkpt lat="43.42147" lon="-1.07556">
        <ele>99.8</ele>
        <time>2022-09-11T09:26:56Z</time>
      </trkpt>
      <trkpt lat="43.42159" lon="-1.07567">
        <ele>100.8</ele>
        <time>2022-09-11T09:27:05Z</time>
      </trkpt>
      <trkpt lat="43.4216" lon="-1.07569">
        <ele>100.8</ele>
        <time>2022-09-11T09:27:06Z</time>
      </trkpt>
      <trkpt lat="43.42171" lon="-1.07581">
        <ele>101.8</ele>
        <time>2022-09-11T09:27:15Z</time>
      </trkpt>
      <trkpt lat="43.42173" lon="-1.07582">
        <ele>102</ele>
        <time>2022-09-11T09:27:16Z</time>
      </trkpt>
      <trkpt lat="43.42177" lon="-1.07587">
        <ele>102.6</ele>
        <time>2022-09-11T09:27:20Z</time>
      </trkpt>
      <trkpt lat="43.42183" lon="-1.07595">
        <ele>103</ele>
        <time>2022-09-11T09:27:25Z</time>
      </trkpt>
      <trkpt lat="43.42186" lon="-1.07599">
        <ele>103.4</ele>
        <time>2022-09-11T09:27:28Z</time>
      </trkpt>
      <trkpt lat="43.42194" lon="-1.07608">
        <ele>104.2</ele>
        <time>2022-09-11T09:27:34Z</time>
      </trkpt>
      <trkpt lat="43.42198" lon="-1.07613">
        <ele>104.6</ele>
        <time>2022-09-11T09:27:37Z</time>
      </trkpt>
      <trkpt lat="43.42205" lon="-1.07618">
        <ele>105.2</ele>
        <time>2022-09-11T09:27:42Z</time>
      </trkpt>
      <trkpt lat="43.42209" lon="-1.0762">
        <ele>105.6</ele>
        <time>2022-09-11T09:27:45Z</time>
      </trkpt>
      <trkpt lat="43.42216" lon="-1.07624">
        <ele>106.2</ele>
        <time>2022-09-11T09:27:49Z</time>
      </trkpt>
      <trkpt lat="43.42222" lon="-1.07625">
        <ele>107</ele>
        <time>2022-09-11T09:27:53Z</time>
      </trkpt>
      <trkpt lat="43.42225" lon="-1.07627">
        <ele>107.4</ele>
        <time>2022-09-11T09:27:55Z</time>
      </trkpt>
      <trkpt lat="43.42229" lon="-1.07627">
        <ele>107.8</ele>
        <time>2022-09-11T09:27:58Z</time>
      </trkpt>
      <trkpt lat="43.42233" lon="-1.07629">
        <ele>108.4</ele>
        <time>2022-09-11T09:28:01Z</time>
      </trkpt>
      <trkpt lat="43.42239" lon="-1.07631">
        <ele>108.8</ele>
        <time>2022-09-11T09:28:05Z</time>
      </trkpt>
      <trkpt lat="43.42246" lon="-1.07634">
        <ele>109.4</ele>
        <time>2022-09-11T09:28:10Z</time>
      </trkpt>
      <trkpt lat="43.42251" lon="-1.07634">
        <ele>109.8</ele>
        <time>2022-09-11T09:28:13Z</time>
      </trkpt>
      <trkpt lat="43.42257" lon="-1.07635">
        <ele>110.6</ele>
        <time>2022-09-11T09:28:17Z</time>
      </trkpt>
      <trkpt lat="43.42262" lon="-1.07636">
        <ele>111</ele>
        <time>2022-09-11T09:28:20Z</time>
      </trkpt>
      <trkpt lat="43.42266" lon="-1.07637">
        <ele>111.2</ele>
        <time>2022-09-11T09:28:22Z</time>
      </trkpt>
      <trkpt lat="43.42269" lon="-1.07637">
        <ele>111.6</ele>
        <time>2022-09-11T09:28:24Z</time>
      </trkpt>
      <trkpt lat="43.42275" lon="-1.07639">
        <ele>112.2</ele>
        <time>2022-09-11T09:28:28Z</time>
      </trkpt>
      <trkpt lat="43.42283" lon="-1.0764">
        <ele>112.6</ele>
        <time>2022-09-11T09:28:32Z</time>
      </trkpt>
      <trkpt lat="43.42287" lon="-1.07641">
        <ele>113</ele>
        <time>2022-09-11T09:28:34Z</time>
      </trkpt>
      <trkpt lat="43.42293" lon="-1.07642">
        <ele>113.6</ele>
        <time>2022-09-11T09:28:38Z</time>
      </trkpt>
      <trkpt lat="43.42296" lon="-1.07642">
        <ele>113.8</ele>
        <time>2022-09-11T09:28:40Z</time>
      </trkpt>
      <trkpt lat="43.42304" lon="-1.07645">
        <ele>114.6</ele>
        <time>2022-09-11T09:28:44Z</time>
      </trkpt>
      <trkpt lat="43.42309" lon="-1.07648">
        <ele>115</ele>
        <time>2022-09-11T09:28:47Z</time>
      </trkpt>
      <trkpt lat="43.42316" lon="-1.07654">
        <ele>115.8</ele>
        <time>2022-09-11T09:28:52Z</time>
      </trkpt>
      <trkpt lat="43.42319" lon="-1.0766">
        <ele>116</ele>
        <time>2022-09-11T09:28:55Z</time>
      </trkpt>
      <trkpt lat="43.42325" lon="-1.07681">
        <ele>116.4</ele>
        <time>2022-09-11T09:29:03Z</time>
      </trkpt>
      <trkpt lat="43.42324" lon="-1.07698">
        <ele>116.8</ele>
        <time>2022-09-11T09:29:08Z</time>
      </trkpt>
      <trkpt lat="43.42323" lon="-1.07706">
        <ele>117.4</ele>
        <time>2022-09-11T09:29:11Z</time>
      </trkpt>
      <trkpt lat="43.42321" lon="-1.07725">
        <ele>117.8</ele>
        <time>2022-09-11T09:29:17Z</time>
      </trkpt>
      <trkpt lat="43.4232" lon="-1.07735">
        <ele>118</ele>
        <time>2022-09-11T09:29:20Z</time>
      </trkpt>
      <trkpt lat="43.42316" lon="-1.0776">
        <ele>119</ele>
        <time>2022-09-11T09:29:28Z</time>
      </trkpt>
      <trkpt lat="43.42315" lon="-1.07765">
        <ele>119.2</ele>
        <time>2022-09-11T09:29:30Z</time>
      </trkpt>
      <trkpt lat="43.42314" lon="-1.07782">
        <ele>119.6</ele>
        <time>2022-09-11T09:29:36Z</time>
      </trkpt>
      <trkpt lat="43.4231" lon="-1.07814">
        <ele>119.8</ele>
        <time>2022-09-11T09:29:44Z</time>
      </trkpt>
      <trkpt lat="43.42308" lon="-1.07835">
        <ele>120</ele>
        <time>2022-09-11T09:29:49Z</time>
      </trkpt>
      <trkpt lat="43.42306" lon="-1.07856">
        <ele>120.4</ele>
        <time>2022-09-11T09:29:54Z</time>
      </trkpt>
      <trkpt lat="43.42304" lon="-1.07885">
        <ele>121.2</ele>
        <time>2022-09-11T09:30:01Z</time>
      </trkpt>
      <trkpt lat="43.42304" lon="-1.0789">
        <ele>121.2</ele>
        <time>2022-09-11T09:30:02Z</time>
      </trkpt>
      <trkpt lat="43.42302" lon="-1.07923">
        <ele>122</ele>
        <time>2022-09-11T09:30:10Z</time>
      </trkpt>
      <trkpt lat="43.42302" lon="-1.0793">
        <ele>122.2</ele>
        <time>2022-09-11T09:30:12Z</time>
      </trkpt>
      <trkpt lat="43.42304" lon="-1.07945">
        <ele>123</ele>
        <time>2022-09-11T09:30:17Z</time>
      </trkpt>
      <trkpt lat="43.42304" lon="-1.0795">
        <ele>123.2</ele>
        <time>2022-09-11T09:30:19Z</time>
      </trkpt>
      <trkpt lat="43.42308" lon="-1.07965">
        <ele>123.8</ele>
        <time>2022-09-11T09:30:24Z</time>
      </trkpt>
      <trkpt lat="43.42313" lon="-1.07985">
        <ele>124.2</ele>
        <time>2022-09-11T09:30:31Z</time>
      </trkpt>
      <trkpt lat="43.42317" lon="-1.08">
        <ele>124.2</ele>
        <time>2022-09-11T09:30:35Z</time>
      </trkpt>
      <trkpt lat="43.42319" lon="-1.08011">
        <ele>124.4</ele>
        <time>2022-09-11T09:30:38Z</time>
      </trkpt>
      <trkpt lat="43.42323" lon="-1.08037">
        <ele>125.2</ele>
        <time>2022-09-11T09:30:45Z</time>
      </trkpt>
      <trkpt lat="43.42323" lon="-1.08046">
        <ele>125.8</ele>
        <time>2022-09-11T09:30:48Z</time>
      </trkpt>
      <trkpt lat="43.42324" lon="-1.08058">
        <ele>126.4</ele>
        <time>2022-09-11T09:30:53Z</time>
      </trkpt>
      <trkpt lat="43.42324" lon="-1.0806">
        <ele>126.6</ele>
        <time>2022-09-11T09:30:54Z</time>
      </trkpt>
      <trkpt lat="43.42325" lon="-1.08074">
        <ele>127.4</ele>
        <time>2022-09-11T09:31:00Z</time>
      </trkpt>
      <trkpt lat="43.42324" lon="-1.08089">
        <ele>128.6</ele>
        <time>2022-09-11T09:31:07Z</time>
      </trkpt>
      <trkpt lat="43.42323" lon="-1.081">
        <ele>129.6</ele>
        <time>2022-09-11T09:31:12Z</time>
      </trkpt>
      <trkpt lat="43.42322" lon="-1.08106">
        <ele>130</ele>
        <time>2022-09-11T09:31:15Z</time>
      </trkpt>
      <trkpt lat="43.42322" lon="-1.08113">
        <ele>130.4</ele>
        <time>2022-09-11T09:31:18Z</time>
      </trkpt>
      <trkpt lat="43.42323" lon="-1.08117">
        <ele>130.6</ele>
        <time>2022-09-11T09:31:20Z</time>
      </trkpt>
      <trkpt lat="43.42322" lon="-1.08119">
        <ele>130.8</ele>
        <time>2022-09-11T09:31:21Z</time>
      </trkpt>
      <trkpt lat="43.42321" lon="-1.08135">
        <ele>131.6</ele>
        <time>2022-09-11T09:31:28Z</time>
      </trkpt>
      <trkpt lat="43.42321" lon="-1.08138">
        <ele>131.8</ele>
        <time>2022-09-11T09:31:29Z</time>
      </trkpt>
      <trkpt lat="43.42321" lon="-1.08142">
        <ele>132</ele>
        <time>2022-09-11T09:31:31Z</time>
      </trkpt>
      <trkpt lat="43.4232" lon="-1.08159">
        <ele>132.6</ele>
        <time>2022-09-11T09:31:38Z</time>
      </trkpt>
      <trkpt lat="43.4232" lon="-1.08167">
        <ele>132.8</ele>
        <time>2022-09-11T09:31:41Z</time>
      </trkpt>
      <trkpt lat="43.42319" lon="-1.08177">
        <ele>133.2</ele>
        <time>2022-09-11T09:31:45Z</time>
      </trkpt>
      <trkpt lat="43.42317" lon="-1.08199">
        <ele>134</ele>
        <time>2022-09-11T09:31:53Z</time>
      </trkpt>
      <trkpt lat="43.42315" lon="-1.08225">
        <ele>135</ele>
        <time>2022-09-11T09:32:02Z</time>
      </trkpt>
      <trkpt lat="43.42315" lon="-1.08228">
        <ele>135</ele>
        <time>2022-09-11T09:32:03Z</time>
      </trkpt>
      <trkpt lat="43.42314" lon="-1.08247">
        <ele>136.2</ele>
        <time>2022-09-11T09:32:10Z</time>
      </trkpt>
      <trkpt lat="43.42314" lon="-1.08275">
        <ele>137.2</ele>
        <time>2022-09-11T09:32:19Z</time>
      </trkpt>
      <trkpt lat="43.42315" lon="-1.08278">
        <ele>137.4</ele>
        <time>2022-09-11T09:32:20Z</time>
      </trkpt>
      <trkpt lat="43.42319" lon="-1.08308">
        <ele>138.2</ele>
        <time>2022-09-11T09:32:29Z</time>
      </trkpt>
      <trkpt lat="43.42322" lon="-1.08327">
        <ele>139</ele>
        <time>2022-09-11T09:32:35Z</time>
      </trkpt>
      <trkpt lat="43.42323" lon="-1.08339">
        <ele>139.4</ele>
        <time>2022-09-11T09:32:39Z</time>
      </trkpt>
      <trkpt lat="43.42324" lon="-1.08345">
        <ele>139.6</ele>
        <time>2022-09-11T09:32:41Z</time>
      </trkpt>
      <trkpt lat="43.42329" lon="-1.08364">
        <ele>140.4</ele>
        <time>2022-09-11T09:32:47Z</time>
      </trkpt>
      <trkpt lat="43.4233" lon="-1.0837">
        <ele>140.8</ele>
        <time>2022-09-11T09:32:49Z</time>
      </trkpt>
      <trkpt lat="43.42336" lon="-1.08389">
        <ele>141.6</ele>
        <time>2022-09-11T09:32:55Z</time>
      </trkpt>
      <trkpt lat="43.42338" lon="-1.08397">
        <ele>142</ele>
        <time>2022-09-11T09:32:58Z</time>
      </trkpt>
      <trkpt lat="43.42343" lon="-1.08413">
        <ele>142.6</ele>
        <time>2022-09-11T09:33:04Z</time>
      </trkpt>
      <trkpt lat="43.42345" lon="-1.08421">
        <ele>143</ele>
        <time>2022-09-11T09:33:07Z</time>
      </trkpt>
      <trkpt lat="43.42349" lon="-1.0843">
        <ele>143.8</ele>
        <time>2022-09-11T09:33:11Z</time>
      </trkpt>
      <trkpt lat="43.4235" lon="-1.08436">
        <ele>144</ele>
        <time>2022-09-11T09:33:13Z</time>
      </trkpt>
      <trkpt lat="43.42355" lon="-1.08454">
        <ele>144.8</ele>
        <time>2022-09-11T09:33:20Z</time>
      </trkpt>
      <trkpt lat="43.42357" lon="-1.0846">
        <ele>145</ele>
        <time>2022-09-11T09:33:22Z</time>
      </trkpt>
      <trkpt lat="43.42362" lon="-1.08478">
        <ele>145.6</ele>
        <time>2022-09-11T09:33:29Z</time>
      </trkpt>
      <trkpt lat="43.42364" lon="-1.08487">
        <ele>145.8</ele>
        <time>2022-09-11T09:33:32Z</time>
      </trkpt>
      <trkpt lat="43.42367" lon="-1.085">
        <ele>146.6</ele>
        <time>2022-09-11T09:33:37Z</time>
      </trkpt>
      <trkpt lat="43.42369" lon="-1.08506">
        <ele>147</ele>
        <time>2022-09-11T09:33:39Z</time>
      </trkpt>
      <trkpt lat="43.42372" lon="-1.08522">
        <ele>147.8</ele>
        <time>2022-09-11T09:33:45Z</time>
      </trkpt>
      <trkpt lat="43.42373" lon="-1.08524">
        <ele>148</ele>
        <time>2022-09-11T09:33:46Z</time>
      </trkpt>
      <trkpt lat="43.42378" lon="-1.08546">
        <ele>148.8</ele>
        <time>2022-09-11T09:33:54Z</time>
      </trkpt>
      <trkpt lat="43.4238" lon="-1.08552">
        <ele>149.2</ele>
        <time>2022-09-11T09:33:56Z</time>
      </trkpt>
      <trkpt lat="43.42384" lon="-1.08565">
        <ele>149.8</ele>
        <time>2022-09-11T09:34:01Z</time>
      </trkpt>
      <trkpt lat="43.42385" lon="-1.08571">
        <ele>150.2</ele>
        <time>2022-09-11T09:34:03Z</time>
      </trkpt>
      <trkpt lat="43.42389" lon="-1.0859">
        <ele>151.2</ele>
        <time>2022-09-11T09:34:10Z</time>
      </trkpt>
      <trkpt lat="43.42391" lon="-1.08595">
        <ele>151.4</ele>
        <time>2022-09-11T09:34:12Z</time>
      </trkpt>
      <trkpt lat="43.42394" lon="-1.08611">
        <ele>152.4</ele>
        <time>2022-09-11T09:34:18Z</time>
      </trkpt>
      <trkpt lat="43.42395" lon="-1.08613">
        <ele>152.6</ele>
        <time>2022-09-11T09:34:19Z</time>
      </trkpt>
      <trkpt lat="43.42398" lon="-1.08631">
        <ele>153.4</ele>
        <time>2022-09-11T09:34:27Z</time>
      </trkpt>
      <trkpt lat="43.42399" lon="-1.08636">
        <ele>153.6</ele>
        <time>2022-09-11T09:34:29Z</time>
      </trkpt>
      <trkpt lat="43.42402" lon="-1.08652">
        <ele>154</ele>
        <time>2022-09-11T09:34:35Z</time>
      </trkpt>
      <trkpt lat="43.42406" lon="-1.08676">
        <ele>154.2</ele>
        <time>2022-09-11T09:34:43Z</time>
      </trkpt>
      <trkpt lat="43.42408" lon="-1.08695">
        <ele>154.6</ele>
        <time>2022-09-11T09:34:49Z</time>
      </trkpt>
      <trkpt lat="43.4241" lon="-1.08711">
        <ele>155</ele>
        <time>2022-09-11T09:34:54Z</time>
      </trkpt>
      <trkpt lat="43.42412" lon="-1.08731">
        <ele>155.6</ele>
        <time>2022-09-11T09:35:00Z</time>
      </trkpt>
      <trkpt lat="43.42411" lon="-1.08735">
        <ele>155.8</ele>
        <time>2022-09-11T09:35:01Z</time>
      </trkpt>
      <trkpt lat="43.42407" lon="-1.08758">
        <ele>155.8</ele>
        <time>2022-09-11T09:35:08Z</time>
      </trkpt>
      <trkpt lat="43.42399" lon="-1.0878">
        <ele>155.4</ele>
        <time>2022-09-11T09:35:13Z</time>
      </trkpt>
      <trkpt lat="43.42388" lon="-1.08808">
        <ele>154.6</ele>
        <time>2022-09-11T09:35:18Z</time>
      </trkpt>
      <trkpt lat="43.42385" lon="-1.08814">
        <ele>154.4</ele>
        <time>2022-09-11T09:35:19Z</time>
      </trkpt>
      <trkpt lat="43.4237" lon="-1.08862">
        <ele>154</ele>
        <time>2022-09-11T09:35:26Z</time>
      </trkpt>
      <trkpt lat="43.42365" lon="-1.08906">
        <ele>153.6</ele>
        <time>2022-09-11T09:35:32Z</time>
      </trkpt>
      <trkpt lat="43.42359" lon="-1.08964">
        <ele>153.8</ele>
        <time>2022-09-11T09:35:40Z</time>
      </trkpt>
      <trkpt lat="43.42352" lon="-1.09013">
        <ele>153.8</ele>
        <time>2022-09-11T09:35:48Z</time>
      </trkpt>
      <trkpt lat="43.42347" lon="-1.09048">
        <ele>153.6</ele>
        <time>2022-09-11T09:35:53Z</time>
      </trkpt>
      <trkpt lat="43.42344" lon="-1.09062">
        <ele>153.4</ele>
        <time>2022-09-11T09:35:55Z</time>
      </trkpt>
      <trkpt lat="43.42337" lon="-1.09117">
        <ele>153.8</ele>
        <time>2022-09-11T09:36:03Z</time>
      </trkpt>
      <trkpt lat="43.42331" lon="-1.09163">
        <ele>154.6</ele>
        <time>2022-09-11T09:36:11Z</time>
      </trkpt>
      <trkpt lat="43.4233" lon="-1.09173">
        <ele>154.6</ele>
        <time>2022-09-11T09:36:13Z</time>
      </trkpt>
      <trkpt lat="43.42326" lon="-1.09217">
        <ele>155</ele>
        <time>2022-09-11T09:36:21Z</time>
      </trkpt>
      <trkpt lat="43.42325" lon="-1.09254">
        <ele>155</ele>
        <time>2022-09-11T09:36:28Z</time>
      </trkpt>
      <trkpt lat="43.42324" lon="-1.09282">
        <ele>155.4</ele>
        <time>2022-09-11T09:36:34Z</time>
      </trkpt>
      <trkpt lat="43.42322" lon="-1.09311">
        <ele>155.8</ele>
        <time>2022-09-11T09:36:40Z</time>
      </trkpt>
      <trkpt lat="43.42322" lon="-1.09321">
        <ele>156</ele>
        <time>2022-09-11T09:36:42Z</time>
      </trkpt>
      <trkpt lat="43.42321" lon="-1.09352">
        <ele>156.8</ele>
        <time>2022-09-11T09:36:48Z</time>
      </trkpt>
      <trkpt lat="43.42319" lon="-1.09375">
        <ele>157.4</ele>
        <time>2022-09-11T09:36:53Z</time>
      </trkpt>
      <trkpt lat="43.42319" lon="-1.09392">
        <ele>157.8</ele>
        <time>2022-09-11T09:36:57Z</time>
      </trkpt>
      <trkpt lat="43.42319" lon="-1.09405">
        <ele>158.2</ele>
        <time>2022-09-11T09:37:00Z</time>
      </trkpt>
      <trkpt lat="43.42317" lon="-1.09434">
        <ele>158.6</ele>
        <time>2022-09-11T09:37:07Z</time>
      </trkpt>
      <trkpt lat="43.42317" lon="-1.09459">
        <ele>158.8</ele>
        <time>2022-09-11T09:37:13Z</time>
      </trkpt>
      <trkpt lat="43.42317" lon="-1.09464">
        <ele>158.8</ele>
        <time>2022-09-11T09:37:14Z</time>
      </trkpt>
      <trkpt lat="43.42317" lon="-1.09501">
        <ele>159</ele>
        <time>2022-09-11T09:37:22Z</time>
      </trkpt>
      <trkpt lat="43.42316" lon="-1.0954">
        <ele>159.8</ele>
        <time>2022-09-11T09:37:30Z</time>
      </trkpt>
      <trkpt lat="43.42315" lon="-1.09545">
        <ele>160</ele>
        <time>2022-09-11T09:37:31Z</time>
      </trkpt>
      <trkpt lat="43.42314" lon="-1.09575">
        <ele>160</ele>
        <time>2022-09-11T09:37:37Z</time>
      </trkpt>
      <trkpt lat="43.42312" lon="-1.09616">
        <ele>161</ele>
        <time>2022-09-11T09:37:46Z</time>
      </trkpt>
      <trkpt lat="43.42312" lon="-1.09645">
        <ele>162</ele>
        <time>2022-09-11T09:37:54Z</time>
      </trkpt>
      <trkpt lat="43.42311" lon="-1.09649">
        <ele>162.2</ele>
        <time>2022-09-11T09:37:55Z</time>
      </trkpt>
      <trkpt lat="43.4231" lon="-1.09675">
        <ele>163</ele>
        <time>2022-09-11T09:38:02Z</time>
      </trkpt>
      <trkpt lat="43.42309" lon="-1.09689">
        <ele>163.2</ele>
        <time>2022-09-11T09:38:06Z</time>
      </trkpt>
      <trkpt lat="43.42309" lon="-1.097">
        <ele>163.6</ele>
        <time>2022-09-11T09:38:09Z</time>
      </trkpt>
      <trkpt lat="43.42309" lon="-1.0972">
        <ele>164</ele>
        <time>2022-09-11T09:38:15Z</time>
      </trkpt>
      <trkpt lat="43.4231" lon="-1.0973">
        <ele>164.4</ele>
        <time>2022-09-11T09:38:18Z</time>
      </trkpt>
      <trkpt lat="43.42312" lon="-1.09741">
        <ele>164.4</ele>
        <time>2022-09-11T09:38:22Z</time>
      </trkpt>
      <trkpt lat="43.42313" lon="-1.09749">
        <ele>164.2</ele>
        <time>2022-09-11T09:38:25Z</time>
      </trkpt>
      <trkpt lat="43.42314" lon="-1.09755">
        <ele>164.2</ele>
        <time>2022-09-11T09:38:28Z</time>
      </trkpt>
      <trkpt lat="43.42316" lon="-1.09761">
        <ele>164.2</ele>
        <time>2022-09-11T09:38:30Z</time>
      </trkpt>
      <trkpt lat="43.42319" lon="-1.09772">
        <ele>163.8</ele>
        <time>2022-09-11T09:38:33Z</time>
      </trkpt>
      <trkpt lat="43.4232" lon="-1.09777">
        <ele>163.6</ele>
        <time>2022-09-11T09:38:34Z</time>
      </trkpt>
      <trkpt lat="43.42321" lon="-1.09788">
        <ele>163.6</ele>
        <time>2022-09-11T09:38:36Z</time>
      </trkpt>
      <trkpt lat="43.42321" lon="-1.09799">
        <ele>163.2</ele>
        <time>2022-09-11T09:38:38Z</time>
      </trkpt>
      <trkpt lat="43.42321" lon="-1.09804">
        <ele>163.2</ele>
        <time>2022-09-11T09:38:39Z</time>
      </trkpt>
      <trkpt lat="43.42318" lon="-1.09838">
        <ele>163</ele>
        <time>2022-09-11T09:38:45Z</time>
      </trkpt>
      <trkpt lat="43.42314" lon="-1.0988">
        <ele>162.6</ele>
        <time>2022-09-11T09:38:52Z</time>
      </trkpt>
      <trkpt lat="43.4231" lon="-1.09918">
        <ele>162.6</ele>
        <time>2022-09-11T09:38:59Z</time>
      </trkpt>
      <trkpt lat="43.42306" lon="-1.09954">
        <ele>163</ele>
        <time>2022-09-11T09:39:06Z</time>
      </trkpt>
      <trkpt lat="43.42301" lon="-1.09993">
        <ele>163.4</ele>
        <time>2022-09-11T09:39:14Z</time>
      </trkpt>
      <trkpt lat="43.423" lon="-1.10013">
        <ele>164.2</ele>
        <time>2022-09-11T09:39:19Z</time>
      </trkpt>
      <trkpt lat="43.423" lon="-1.10016">
        <ele>164.6</ele>
        <time>2022-09-11T09:39:20Z</time>
      </trkpt>
      <trkpt lat="43.423" lon="-1.10029">
        <ele>165.4</ele>
        <time>2022-09-11T09:39:24Z</time>
      </trkpt>
      <trkpt lat="43.42301" lon="-1.10032">
        <ele>165.6</ele>
        <time>2022-09-11T09:39:25Z</time>
      </trkpt>
      <trkpt lat="43.42303" lon="-1.1005">
        <ele>166.4</ele>
        <time>2022-09-11T09:39:31Z</time>
      </trkpt>
      <trkpt lat="43.42304" lon="-1.10053">
        <ele>166.6</ele>
        <time>2022-09-11T09:39:32Z</time>
      </trkpt>
      <trkpt lat="43.42307" lon="-1.10065">
        <ele>167.6</ele>
        <time>2022-09-11T09:39:37Z</time>
      </trkpt>
      <trkpt lat="43.42309" lon="-1.1007">
        <ele>167.8</ele>
        <time>2022-09-11T09:39:39Z</time>
      </trkpt>
      <trkpt lat="43.42315" lon="-1.10085">
        <ele>168.6</ele>
        <time>2022-09-11T09:39:44Z</time>
      </trkpt>
      <trkpt lat="43.42316" lon="-1.10094">
        <ele>169</ele>
        <time>2022-09-11T09:39:47Z</time>
      </trkpt>
      <trkpt lat="43.42323" lon="-1.10112">
        <ele>169.6</ele>
        <time>2022-09-11T09:39:52Z</time>
      </trkpt>
      <trkpt lat="43.42325" lon="-1.10118">
        <ele>169.8</ele>
        <time>2022-09-11T09:39:54Z</time>
      </trkpt>
      <trkpt lat="43.42333" lon="-1.10144">
        <ele>170.6</ele>
        <time>2022-09-11T09:40:02Z</time>
      </trkpt>
      <trkpt lat="43.42342" lon="-1.10169">
        <ele>170.6</ele>
        <time>2022-09-11T09:40:10Z</time>
      </trkpt>
      <trkpt lat="43.42348" lon="-1.1019">
        <ele>170.4</ele>
        <time>2022-09-11T09:40:16Z</time>
      </trkpt>
      <trkpt lat="43.42353" lon="-1.10211">
        <ele>170.2</ele>
        <time>2022-09-11T09:40:23Z</time>
      </trkpt>
      <trkpt lat="43.42356" lon="-1.10219">
        <ele>170.6</ele>
        <time>2022-09-11T09:42:44Z</time>
      </trkpt>
      <trkpt lat="43.42365" lon="-1.10222">
        <ele>171</ele>
        <time>2022-09-11T09:42:48Z</time>
      </trkpt>
      <trkpt lat="43.42368" lon="-1.10223">
        <ele>170.8</ele>
        <time>2022-09-11T09:42:49Z</time>
      </trkpt>
      <trkpt lat="43.4238" lon="-1.10226">
        <ele>170.4</ele>
        <time>2022-09-11T09:42:52Z</time>
      </trkpt>
      <trkpt lat="43.42389" lon="-1.10229">
        <ele>170</ele>
        <time>2022-09-11T09:42:54Z</time>
      </trkpt>
      <trkpt lat="43.42405" lon="-1.10233">
        <ele>169.6</ele>
        <time>2022-09-11T09:42:57Z</time>
      </trkpt>
      <trkpt lat="43.42423" lon="-1.10238">
        <ele>168.8</ele>
        <time>2022-09-11T09:43:00Z</time>
      </trkpt>
      <trkpt lat="43.42436" lon="-1.10241">
        <ele>168.4</ele>
        <time>2022-09-11T09:43:02Z</time>
      </trkpt>
      <trkpt lat="43.42471" lon="-1.10248">
        <ele>167.2</ele>
        <time>2022-09-11T09:43:07Z</time>
      </trkpt>
      <trkpt lat="43.42509" lon="-1.10245">
        <ele>166.2</ele>
        <time>2022-09-11T09:43:12Z</time>
      </trkpt>
      <trkpt lat="43.42516" lon="-1.10244">
        <ele>166.2</ele>
        <time>2022-09-11T09:43:13Z</time>
      </trkpt>
      <trkpt lat="43.42545" lon="-1.10236">
        <ele>165</ele>
        <time>2022-09-11T09:43:17Z</time>
      </trkpt>
      <trkpt lat="43.42551" lon="-1.10232">
        <ele>164.6</ele>
        <time>2022-09-11T09:43:18Z</time>
      </trkpt>
      <trkpt lat="43.42588" lon="-1.10209">
        <ele>164</ele>
        <time>2022-09-11T09:43:24Z</time>
      </trkpt>
      <trkpt lat="43.42593" lon="-1.10205">
        <ele>163.8</ele>
        <time>2022-09-11T09:43:25Z</time>
      </trkpt>
      <trkpt lat="43.4263" lon="-1.10174">
        <ele>165</ele>
        <time>2022-09-11T09:43:32Z</time>
      </trkpt>
      <trkpt lat="43.42635" lon="-1.10169">
        <ele>165</ele>
        <time>2022-09-11T09:43:33Z</time>
      </trkpt>
      <trkpt lat="43.42676" lon="-1.10144">
        <ele>164.6</ele>
        <time>2022-09-11T09:43:41Z</time>
      </trkpt>
      <trkpt lat="43.42712" lon="-1.10133">
        <ele>165</ele>
        <time>2022-09-11T09:43:48Z</time>
      </trkpt>
      <trkpt lat="43.42751" lon="-1.10129">
        <ele>166.2</ele>
        <time>2022-09-11T09:43:56Z</time>
      </trkpt>
      <trkpt lat="43.42776" lon="-1.10133">
        <ele>167.2</ele>
        <time>2022-09-11T09:44:02Z</time>
      </trkpt>
      <trkpt lat="43.42787" lon="-1.10135">
        <ele>167.4</ele>
        <time>2022-09-11T09:44:05Z</time>
      </trkpt>
      <trkpt lat="43.42812" lon="-1.10144">
        <ele>168</ele>
        <time>2022-09-11T09:44:13Z</time>
      </trkpt>
      <trkpt lat="43.42818" lon="-1.10147">
        <ele>168.2</ele>
        <time>2022-09-11T09:44:15Z</time>
      </trkpt>
      <trkpt lat="43.42835" lon="-1.10157">
        <ele>169.4</ele>
        <time>2022-09-11T09:44:21Z</time>
      </trkpt>
      <trkpt lat="43.42838" lon="-1.10159">
        <ele>169.4</ele>
        <time>2022-09-11T09:44:22Z</time>
      </trkpt>
      <trkpt lat="43.42856" lon="-1.10171">
        <ele>170.4</ele>
        <time>2022-09-11T09:44:29Z</time>
      </trkpt>
      <trkpt lat="43.42858" lon="-1.10173">
        <ele>170.6</ele>
        <time>2022-09-11T09:44:30Z</time>
      </trkpt>
      <trkpt lat="43.42872" lon="-1.10186">
        <ele>171.6</ele>
        <time>2022-09-11T09:44:36Z</time>
      </trkpt>
      <trkpt lat="43.42879" lon="-1.10193">
        <ele>172</ele>
        <time>2022-09-11T09:44:39Z</time>
      </trkpt>
      <trkpt lat="43.42891" lon="-1.10207">
        <ele>172.8</ele>
        <time>2022-09-11T09:44:45Z</time>
      </trkpt>
      <trkpt lat="43.42895" lon="-1.10213">
        <ele>173.2</ele>
        <time>2022-09-11T09:44:47Z</time>
      </trkpt>
      <trkpt lat="43.42903" lon="-1.10223">
        <ele>173.8</ele>
        <time>2022-09-11T09:44:51Z</time>
      </trkpt>
      <trkpt lat="43.42909" lon="-1.10233">
        <ele>174.6</ele>
        <time>2022-09-11T09:44:55Z</time>
      </trkpt>
      <trkpt lat="43.42913" lon="-1.1024">
        <ele>175</ele>
        <time>2022-09-11T09:44:58Z</time>
      </trkpt>
      <trkpt lat="43.42919" lon="-1.1025">
        <ele>175.6</ele>
        <time>2022-09-11T09:45:02Z</time>
      </trkpt>
      <trkpt lat="43.42923" lon="-1.10258">
        <ele>176.2</ele>
        <time>2022-09-11T09:45:05Z</time>
      </trkpt>
      <trkpt lat="43.42929" lon="-1.10272">
        <ele>177.2</ele>
        <time>2022-09-11T09:45:11Z</time>
      </trkpt>
      <trkpt lat="43.42937" lon="-1.10291">
        <ele>178.2</ele>
        <time>2022-09-11T09:45:19Z</time>
      </trkpt>
      <trkpt lat="43.42938" lon="-1.10294">
        <ele>178.2</ele>
        <time>2022-09-11T09:45:20Z</time>
      </trkpt>
      <trkpt lat="43.42943" lon="-1.1031">
        <ele>179.2</ele>
        <time>2022-09-11T09:45:26Z</time>
      </trkpt>
      <trkpt lat="43.42945" lon="-1.10314">
        <ele>179.4</ele>
        <time>2022-09-11T09:45:29Z</time>
      </trkpt>
      <trkpt lat="43.42951" lon="-1.10329">
        <ele>180.4</ele>
        <time>2022-09-11T09:45:35Z</time>
      </trkpt>
      <trkpt lat="43.42955" lon="-1.10341">
        <ele>181.2</ele>
        <time>2022-09-11T09:45:40Z</time>
      </trkpt>
      <trkpt lat="43.42956" lon="-1.10343">
        <ele>181.4</ele>
        <time>2022-09-11T09:45:41Z</time>
      </trkpt>
      <trkpt lat="43.42957" lon="-1.10348">
        <ele>181.4</ele>
        <time>2022-09-11T09:45:43Z</time>
      </trkpt>
      <trkpt lat="43.42959" lon="-1.1035">
        <ele>181.6</ele>
        <time>2022-09-11T09:45:44Z</time>
      </trkpt>
      <trkpt lat="43.42961" lon="-1.10357">
        <ele>182</ele>
        <time>2022-09-11T09:45:47Z</time>
      </trkpt>
      <trkpt lat="43.42964" lon="-1.10366">
        <ele>182.6</ele>
        <time>2022-09-11T09:45:50Z</time>
      </trkpt>
      <trkpt lat="43.42967" lon="-1.10373">
        <ele>183</ele>
        <time>2022-09-11T09:45:53Z</time>
      </trkpt>
      <trkpt lat="43.42972" lon="-1.10385">
        <ele>183.8</ele>
        <time>2022-09-11T09:45:58Z</time>
      </trkpt>
      <trkpt lat="43.42975" lon="-1.10391">
        <ele>184</ele>
        <time>2022-09-11T09:46:00Z</time>
      </trkpt>
      <trkpt lat="43.42985" lon="-1.10411">
        <ele>184.8</ele>
        <time>2022-09-11T09:46:08Z</time>
      </trkpt>
      <trkpt lat="43.42986" lon="-1.10413">
        <ele>184.8</ele>
        <time>2022-09-11T09:46:09Z</time>
      </trkpt>
      <trkpt lat="43.42996" lon="-1.10431">
        <ele>185.6</ele>
        <time>2022-09-11T09:46:16Z</time>
      </trkpt>
      <trkpt lat="43.43" lon="-1.10438">
        <ele>185.8</ele>
        <time>2022-09-11T09:46:19Z</time>
      </trkpt>
      <trkpt lat="43.43014" lon="-1.10457">
        <ele>186.2</ele>
        <time>2022-09-11T09:46:27Z</time>
      </trkpt>
      <trkpt lat="43.43038" lon="-1.10489">
        <ele>186.4</ele>
        <time>2022-09-11T09:46:37Z</time>
      </trkpt>
      <trkpt lat="43.43047" lon="-1.105">
        <ele>186.8</ele>
        <time>2022-09-11T09:46:40Z</time>
      </trkpt>
      <trkpt lat="43.43063" lon="-1.10523">
        <ele>186.8</ele>
        <time>2022-09-11T09:46:46Z</time>
      </trkpt>
      <trkpt lat="43.43084" lon="-1.10557">
        <ele>186.8</ele>
        <time>2022-09-11T09:46:54Z</time>
      </trkpt>
      <trkpt lat="43.43099" lon="-1.10585">
        <ele>186.4</ele>
        <time>2022-09-11T09:47:00Z</time>
      </trkpt>
      <trkpt lat="43.43099" lon="-1.10591">
        <ele>186.4</ele>
        <time>2022-09-11T09:47:01Z</time>
      </trkpt>
      <trkpt lat="43.43095" lon="-1.1061">
        <ele>186.4</ele>
        <time>2022-09-11T09:47:04Z</time>
      </trkpt>
      <trkpt lat="43.43089" lon="-1.1062">
        <ele>186.2</ele>
        <time>2022-09-11T09:47:06Z</time>
      </trkpt>
      <trkpt lat="43.43081" lon="-1.10635">
        <ele>185.6</ele>
        <time>2022-09-11T09:47:09Z</time>
      </trkpt>
      <trkpt lat="43.43062" lon="-1.10671">
        <ele>185.6</ele>
        <time>2022-09-11T09:47:17Z</time>
      </trkpt>
      <trkpt lat="43.43034" lon="-1.10711">
        <ele>184.8</ele>
        <time>2022-09-11T09:47:25Z</time>
      </trkpt>
      <trkpt lat="43.43026" lon="-1.10722">
        <ele>184.6</ele>
        <time>2022-09-11T09:47:27Z</time>
      </trkpt>
      <trkpt lat="43.43011" lon="-1.10751">
        <ele>183.4</ele>
        <time>2022-09-11T09:47:31Z</time>
      </trkpt>
      <trkpt lat="43.43001" lon="-1.10777">
        <ele>182.4</ele>
        <time>2022-09-11T09:47:34Z</time>
      </trkpt>
      <trkpt lat="43.4299" lon="-1.10805">
        <ele>181.8</ele>
        <time>2022-09-11T09:47:37Z</time>
      </trkpt>
      <trkpt lat="43.42983" lon="-1.10824">
        <ele>181.4</ele>
        <time>2022-09-11T09:47:39Z</time>
      </trkpt>
      <trkpt lat="43.42969" lon="-1.10861">
        <ele>180.2</ele>
        <time>2022-09-11T09:47:43Z</time>
      </trkpt>
      <trkpt lat="43.42962" lon="-1.10878">
        <ele>179.8</ele>
        <time>2022-09-11T09:47:45Z</time>
      </trkpt>
      <trkpt lat="43.42945" lon="-1.10924">
        <ele>179.8</ele>
        <time>2022-09-11T09:47:51Z</time>
      </trkpt>
      <trkpt lat="43.42931" lon="-1.1097">
        <ele>181</ele>
        <time>2022-09-11T09:47:58Z</time>
      </trkpt>
      <trkpt lat="43.4292" lon="-1.11024">
        <ele>180.8</ele>
        <time>2022-09-11T09:48:07Z</time>
      </trkpt>
      <trkpt lat="43.42915" lon="-1.11053">
        <ele>180.6</ele>
        <time>2022-09-11T09:48:13Z</time>
      </trkpt>
      <trkpt lat="43.42912" lon="-1.11084">
        <ele>180.6</ele>
        <time>2022-09-11T09:48:20Z</time>
      </trkpt>
      <trkpt lat="43.42911" lon="-1.11122">
        <ele>181</ele>
        <time>2022-09-11T09:48:28Z</time>
      </trkpt>
      <trkpt lat="43.4291" lon="-1.11142">
        <ele>181.2</ele>
        <time>2022-09-11T09:48:32Z</time>
      </trkpt>
      <trkpt lat="43.4291" lon="-1.11148">
        <ele>181.4</ele>
        <time>2022-09-11T09:48:33Z</time>
      </trkpt>
      <trkpt lat="43.42908" lon="-1.11178">
        <ele>181.8</ele>
        <time>2022-09-11T09:48:39Z</time>
      </trkpt>
      <trkpt lat="43.42906" lon="-1.11198">
        <ele>182.2</ele>
        <time>2022-09-11T09:48:43Z</time>
      </trkpt>
      <trkpt lat="43.42905" lon="-1.11222">
        <ele>183.4</ele>
        <time>2022-09-11T09:48:48Z</time>
      </trkpt>
      <trkpt lat="43.42905" lon="-1.11227">
        <ele>183.4</ele>
        <time>2022-09-11T09:48:49Z</time>
      </trkpt>
      <trkpt lat="43.42906" lon="-1.11262">
        <ele>184.4</ele>
        <time>2022-09-11T09:48:57Z</time>
      </trkpt>
      <trkpt lat="43.42906" lon="-1.11266">
        <ele>184.6</ele>
        <time>2022-09-11T09:48:58Z</time>
      </trkpt>
      <trkpt lat="43.42907" lon="-1.11293">
        <ele>185.4</ele>
        <time>2022-09-11T09:49:04Z</time>
      </trkpt>
      <trkpt lat="43.42907" lon="-1.11296">
        <ele>185.6</ele>
        <time>2022-09-11T09:49:05Z</time>
      </trkpt>
      <trkpt lat="43.42903" lon="-1.1132">
        <ele>186.6</ele>
        <time>2022-09-11T09:49:11Z</time>
      </trkpt>
      <trkpt lat="43.429" lon="-1.11327">
        <ele>187</ele>
        <time>2022-09-11T09:49:13Z</time>
      </trkpt>
      <trkpt lat="43.42894" lon="-1.11343">
        <ele>187.8</ele>
        <time>2022-09-11T09:49:18Z</time>
      </trkpt>
      <trkpt lat="43.4289" lon="-1.11351">
        <ele>188</ele>
        <time>2022-09-11T09:49:21Z</time>
      </trkpt>
      <trkpt lat="43.42886" lon="-1.11365">
        <ele>188.2</ele>
        <time>2022-09-11T09:49:27Z</time>
      </trkpt>
      <trkpt lat="43.42882" lon="-1.11387">
        <ele>188.2</ele>
        <time>2022-09-11T09:49:35Z</time>
      </trkpt>
      <trkpt lat="43.4288" lon="-1.1141">
        <ele>187.8</ele>
        <time>2022-09-11T09:49:40Z</time>
      </trkpt>
      <trkpt lat="43.42877" lon="-1.11431">
        <ele>186.6</ele>
        <time>2022-09-11T09:49:45Z</time>
      </trkpt>
      <trkpt lat="43.42874" lon="-1.11441">
        <ele>185.8</ele>
        <time>2022-09-11T09:50:27Z</time>
      </trkpt>
      <trkpt lat="43.42874" lon="-1.11443">
        <ele>185.6</ele>
        <time>2022-09-11T09:50:28Z</time>
      </trkpt>
      <trkpt lat="43.42869" lon="-1.11464">
        <ele>184.6</ele>
        <time>2022-09-11T09:50:31Z</time>
      </trkpt>
      <trkpt lat="43.42867" lon="-1.11472">
        <ele>184.2</ele>
        <time>2022-09-11T09:50:32Z</time>
      </trkpt>
      <trkpt lat="43.42857" lon="-1.11501">
        <ele>183.2</ele>
        <time>2022-09-11T09:50:35Z</time>
      </trkpt>
      <trkpt lat="43.42848" lon="-1.11532">
        <ele>182.2</ele>
        <time>2022-09-11T09:50:38Z</time>
      </trkpt>
      <trkpt lat="43.42841" lon="-1.11566">
        <ele>181.8</ele>
        <time>2022-09-11T09:50:41Z</time>
      </trkpt>
      <trkpt lat="43.42838" lon="-1.11588">
        <ele>181</ele>
        <time>2022-09-11T09:50:43Z</time>
      </trkpt>
      <trkpt lat="43.42837" lon="-1.116">
        <ele>180.8</ele>
        <time>2022-09-11T09:50:44Z</time>
      </trkpt>
      <trkpt lat="43.42839" lon="-1.11611">
        <ele>180.8</ele>
        <time>2022-09-11T09:50:45Z</time>
      </trkpt>
      <trkpt lat="43.42846" lon="-1.11632">
        <ele>179.8</ele>
        <time>2022-09-11T09:50:47Z</time>
      </trkpt>
      <trkpt lat="43.42851" lon="-1.11642">
        <ele>179.8</ele>
        <time>2022-09-11T09:50:48Z</time>
      </trkpt>
      <trkpt lat="43.42881" lon="-1.11703">
        <ele>179</ele>
        <time>2022-09-11T09:50:55Z</time>
      </trkpt>
      <trkpt lat="43.42889" lon="-1.11718">
        <ele>178.8</ele>
        <time>2022-09-11T09:50:57Z</time>
      </trkpt>
      <trkpt lat="43.42903" lon="-1.11745">
        <ele>178.8</ele>
        <time>2022-09-11T09:51:01Z</time>
      </trkpt>
      <trkpt lat="43.42912" lon="-1.11768">
        <ele>178.6</ele>
        <time>2022-09-11T09:51:06Z</time>
      </trkpt>
      <trkpt lat="43.42912" lon="-1.1177">
        <ele>178.4</ele>
        <time>2022-09-11T09:51:07Z</time>
      </trkpt>
      <trkpt lat="43.42912" lon="-1.11771">
        <ele>178.4</ele>
        <time>2022-09-11T09:51:09Z</time>
      </trkpt>
      <trkpt lat="43.42911" lon="-1.1177">
        <ele>178.4</ele>
        <time>2022-09-11T09:51:10Z</time>
      </trkpt>
      <trkpt lat="43.42909" lon="-1.11765">
        <ele>178.6</ele>
        <time>2022-09-11T09:51:13Z</time>
      </trkpt>
      <trkpt lat="43.42907" lon="-1.11758">
        <ele>178.6</ele>
        <time>2022-09-11T09:51:16Z</time>
      </trkpt>
      <trkpt lat="43.42904" lon="-1.11752">
        <ele>178.4</ele>
        <time>2022-09-11T09:51:20Z</time>
      </trkpt>
      <trkpt lat="43.42908" lon="-1.11757">
        <ele>178</ele>
        <time>2022-09-11T09:52:41Z</time>
      </trkpt>
      <trkpt lat="43.4291" lon="-1.1176">
        <ele>178</ele>
        <time>2022-09-11T09:52:43Z</time>
      </trkpt>
      <trkpt lat="43.42915" lon="-1.11779">
        <ele>178</ele>
        <time>2022-09-11T09:52:49Z</time>
      </trkpt>
      <trkpt lat="43.42923" lon="-1.11806">
        <ele>178.4</ele>
        <time>2022-09-11T09:52:56Z</time>
      </trkpt>
      <trkpt lat="43.42936" lon="-1.11849">
        <ele>178.6</ele>
        <time>2022-09-11T09:53:06Z</time>
      </trkpt>
      <trkpt lat="43.42947" lon="-1.11885">
        <ele>179.4</ele>
        <time>2022-09-11T09:53:15Z</time>
      </trkpt>
      <trkpt lat="43.42949" lon="-1.11906">
        <ele>179.8</ele>
        <time>2022-09-11T09:53:21Z</time>
      </trkpt>
      <trkpt lat="43.42947" lon="-1.11933">
        <ele>180</ele>
        <time>2022-09-11T09:53:28Z</time>
      </trkpt>
      <trkpt lat="43.42945" lon="-1.1197">
        <ele>179</ele>
        <time>2022-09-11T09:53:35Z</time>
      </trkpt>
      <trkpt lat="43.42944" lon="-1.11977">
        <ele>178.8</ele>
        <time>2022-09-11T09:53:36Z</time>
      </trkpt>
      <trkpt lat="43.4294" lon="-1.12002">
        <ele>178</ele>
        <time>2022-09-11T09:53:39Z</time>
      </trkpt>
      <trkpt lat="43.42937" lon="-1.12011">
        <ele>177.6</ele>
        <time>2022-09-11T09:53:40Z</time>
      </trkpt>
      <trkpt lat="43.42921" lon="-1.12039">
        <ele>177.8</ele>
        <time>2022-09-11T09:53:44Z</time>
      </trkpt>
      <trkpt lat="43.42897" lon="-1.12086">
        <ele>176.8</ele>
        <time>2022-09-11T09:53:51Z</time>
      </trkpt>
      <trkpt lat="43.42895" lon="-1.12091">
        <ele>176.4</ele>
        <time>2022-09-11T09:53:52Z</time>
      </trkpt>
      <trkpt lat="43.42894" lon="-1.12109">
        <ele>176</ele>
        <time>2022-09-11T09:53:55Z</time>
      </trkpt>
      <trkpt lat="43.42895" lon="-1.12132">
        <ele>175.4</ele>
        <time>2022-09-11T09:53:58Z</time>
      </trkpt>
      <trkpt lat="43.42898" lon="-1.12147">
        <ele>174.6</ele>
        <time>2022-09-11T09:54:00Z</time>
      </trkpt>
      <trkpt lat="43.42907" lon="-1.12169">
        <ele>174.2</ele>
        <time>2022-09-11T09:54:03Z</time>
      </trkpt>
      <trkpt lat="43.42912" lon="-1.12176">
        <ele>174</ele>
        <time>2022-09-11T09:54:04Z</time>
      </trkpt>
      <trkpt lat="43.42917" lon="-1.12184">
        <ele>173.6</ele>
        <time>2022-09-11T09:54:05Z</time>
      </trkpt>
      <trkpt lat="43.42922" lon="-1.12191">
        <ele>173</ele>
        <time>2022-09-11T09:54:06Z</time>
      </trkpt>
      <trkpt lat="43.42941" lon="-1.12216">
        <ele>171.6</ele>
        <time>2022-09-11T09:54:09Z</time>
      </trkpt>
      <trkpt lat="43.42955" lon="-1.12235">
        <ele>170.6</ele>
        <time>2022-09-11T09:54:11Z</time>
      </trkpt>
      <trkpt lat="43.4297" lon="-1.12255">
        <ele>169.6</ele>
        <time>2022-09-11T09:54:13Z</time>
      </trkpt>
      <trkpt lat="43.42977" lon="-1.12265">
        <ele>169</ele>
        <time>2022-09-11T09:54:14Z</time>
      </trkpt>
      <trkpt lat="43.42985" lon="-1.12274">
        <ele>168.4</ele>
        <time>2022-09-11T09:54:15Z</time>
      </trkpt>
      <trkpt lat="43.43001" lon="-1.12292">
        <ele>167.2</ele>
        <time>2022-09-11T09:54:17Z</time>
      </trkpt>
      <trkpt lat="43.43023" lon="-1.12318">
        <ele>166.4</ele>
        <time>2022-09-11T09:54:20Z</time>
      </trkpt>
      <trkpt lat="43.43034" lon="-1.12338">
        <ele>166.2</ele>
        <time>2022-09-11T09:54:22Z</time>
      </trkpt>
      <trkpt lat="43.43039" lon="-1.12348">
        <ele>165.8</ele>
        <time>2022-09-11T09:54:23Z</time>
      </trkpt>
      <trkpt lat="43.43044" lon="-1.12359">
        <ele>165.4</ele>
        <time>2022-09-11T09:54:24Z</time>
      </trkpt>
      <trkpt lat="43.43053" lon="-1.1238">
        <ele>164.6</ele>
        <time>2022-09-11T09:54:26Z</time>
      </trkpt>
      <trkpt lat="43.43059" lon="-1.12389">
        <ele>164.2</ele>
        <time>2022-09-11T09:54:27Z</time>
      </trkpt>
      <trkpt lat="43.43075" lon="-1.12405">
        <ele>163.8</ele>
        <time>2022-09-11T09:54:29Z</time>
      </trkpt>
      <trkpt lat="43.43084" lon="-1.12411">
        <ele>163.6</ele>
        <time>2022-09-11T09:54:30Z</time>
      </trkpt>
      <trkpt lat="43.43093" lon="-1.12416">
        <ele>163.2</ele>
        <time>2022-09-11T09:54:31Z</time>
      </trkpt>
      <trkpt lat="43.43101" lon="-1.12424">
        <ele>162.8</ele>
        <time>2022-09-11T09:54:32Z</time>
      </trkpt>
      <trkpt lat="43.43109" lon="-1.12434">
        <ele>162.6</ele>
        <time>2022-09-11T09:54:33Z</time>
      </trkpt>
      <trkpt lat="43.43117" lon="-1.12443">
        <ele>162.4</ele>
        <time>2022-09-11T09:54:34Z</time>
      </trkpt>
      <trkpt lat="43.43144" lon="-1.12481">
        <ele>161.2</ele>
        <time>2022-09-11T09:54:38Z</time>
      </trkpt>
      <trkpt lat="43.43156" lon="-1.125">
        <ele>160.6</ele>
        <time>2022-09-11T09:54:40Z</time>
      </trkpt>
      <trkpt lat="43.43163" lon="-1.12521">
        <ele>160</ele>
        <time>2022-09-11T09:54:42Z</time>
      </trkpt>
      <trkpt lat="43.43167" lon="-1.12542">
        <ele>160</ele>
        <time>2022-09-11T09:54:44Z</time>
      </trkpt>
      <trkpt lat="43.4317" lon="-1.1256">
        <ele>160</ele>
        <time>2022-09-11T09:54:46Z</time>
      </trkpt>
      <trkpt lat="43.43169" lon="-1.12599">
        <ele>160.4</ele>
        <time>2022-09-11T09:54:51Z</time>
      </trkpt>
      <trkpt lat="43.4317" lon="-1.12632">
        <ele>161.2</ele>
        <time>2022-09-11T09:54:56Z</time>
      </trkpt>
      <trkpt lat="43.43171" lon="-1.12638">
        <ele>161.6</ele>
        <time>2022-09-11T09:54:57Z</time>
      </trkpt>
      <trkpt lat="43.43172" lon="-1.12649">
        <ele>162.2</ele>
        <time>2022-09-11T09:54:59Z</time>
      </trkpt>
      <trkpt lat="43.43174" lon="-1.12673">
        <ele>163.2</ele>
        <time>2022-09-11T09:55:04Z</time>
      </trkpt>
      <trkpt lat="43.43174" lon="-1.12677">
        <ele>163.4</ele>
        <time>2022-09-11T09:55:05Z</time>
      </trkpt>
      <trkpt lat="43.43171" lon="-1.12717">
        <ele>163</ele>
        <time>2022-09-11T09:55:13Z</time>
      </trkpt>
      <trkpt lat="43.43168" lon="-1.12749">
        <ele>162.2</ele>
        <time>2022-09-11T09:55:17Z</time>
      </trkpt>
      <trkpt lat="43.43167" lon="-1.12758">
        <ele>162</ele>
        <time>2022-09-11T09:55:18Z</time>
      </trkpt>
      <trkpt lat="43.43165" lon="-1.12815">
        <ele>161.2</ele>
        <time>2022-09-11T09:55:24Z</time>
      </trkpt>
      <trkpt lat="43.43168" lon="-1.1287">
        <ele>160.2</ele>
        <time>2022-09-11T09:55:30Z</time>
      </trkpt>
      <trkpt lat="43.43169" lon="-1.12888">
        <ele>160</ele>
        <time>2022-09-11T09:55:32Z</time>
      </trkpt>
      <trkpt lat="43.43174" lon="-1.12947">
        <ele>159.6</ele>
        <time>2022-09-11T09:55:39Z</time>
      </trkpt>
      <trkpt lat="43.43175" lon="-1.12961">
        <ele>159.4</ele>
        <time>2022-09-11T09:55:41Z</time>
      </trkpt>
      <trkpt lat="43.43178" lon="-1.12981">
        <ele>159.4</ele>
        <time>2022-09-11T09:55:44Z</time>
      </trkpt>
      <trkpt lat="43.43181" lon="-1.13016">
        <ele>159.6</ele>
        <time>2022-09-11T09:55:49Z</time>
      </trkpt>
      <trkpt lat="43.43181" lon="-1.13022">
        <ele>159.8</ele>
        <time>2022-09-11T09:55:50Z</time>
      </trkpt>
      <trkpt lat="43.43179" lon="-1.13057">
        <ele>160.4</ele>
        <time>2022-09-11T09:55:55Z</time>
      </trkpt>
      <trkpt lat="43.43178" lon="-1.1307">
        <ele>160.6</ele>
        <time>2022-09-11T09:55:57Z</time>
      </trkpt>
      <trkpt lat="43.43169" lon="-1.13109">
        <ele>161</ele>
        <time>2022-09-11T09:56:03Z</time>
      </trkpt>
      <trkpt lat="43.43167" lon="-1.13116">
        <ele>161.2</ele>
        <time>2022-09-11T09:56:04Z</time>
      </trkpt>
      <trkpt lat="43.43162" lon="-1.13136">
        <ele>162.2</ele>
        <time>2022-09-11T09:56:08Z</time>
      </trkpt>
      <trkpt lat="43.43156" lon="-1.13155">
        <ele>163.4</ele>
        <time>2022-09-11T09:56:13Z</time>
      </trkpt>
      <trkpt lat="43.43155" lon="-1.13158">
        <ele>163.6</ele>
        <time>2022-09-11T09:56:14Z</time>
      </trkpt>
      <trkpt lat="43.43152" lon="-1.13169">
        <ele>164.4</ele>
        <time>2022-09-11T09:56:18Z</time>
      </trkpt>
      <trkpt lat="43.4315" lon="-1.13176">
        <ele>165</ele>
        <time>2022-09-11T09:56:21Z</time>
      </trkpt>
      <trkpt lat="43.43146" lon="-1.13186">
        <ele>165.4</ele>
        <time>2022-09-11T09:56:25Z</time>
      </trkpt>
      <trkpt lat="43.43145" lon="-1.13189">
        <ele>165.6</ele>
        <time>2022-09-11T09:56:26Z</time>
      </trkpt>
      <trkpt lat="43.43145" lon="-1.13191">
        <ele>165.6</ele>
        <time>2022-09-11T09:56:27Z</time>
      </trkpt>
      <trkpt lat="43.4314" lon="-1.13207">
        <ele>166.4</ele>
        <time>2022-09-11T09:56:34Z</time>
      </trkpt>
      <trkpt lat="43.43139" lon="-1.1321">
        <ele>166.6</ele>
        <time>2022-09-11T09:56:35Z</time>
      </trkpt>
      <trkpt lat="43.43136" lon="-1.13224">
        <ele>167.2</ele>
        <time>2022-09-11T09:56:40Z</time>
      </trkpt>
      <trkpt lat="43.43134" lon="-1.1323">
        <ele>167.6</ele>
        <time>2022-09-11T09:56:43Z</time>
      </trkpt>
      <trkpt lat="43.43133" lon="-1.13235">
        <ele>167.8</ele>
        <time>2022-09-11T09:56:45Z</time>
      </trkpt>
      <trkpt lat="43.43126" lon="-1.13253">
        <ele>168.8</ele>
        <time>2022-09-11T09:56:52Z</time>
      </trkpt>
      <trkpt lat="43.43119" lon="-1.13268">
        <ele>169.2</ele>
        <time>2022-09-11T09:56:58Z</time>
      </trkpt>
      <trkpt lat="43.43109" lon="-1.13285">
        <ele>169.2</ele>
        <time>2022-09-11T09:57:04Z</time>
      </trkpt>
      <trkpt lat="43.43093" lon="-1.13307">
        <ele>168.6</ele>
        <time>2022-09-11T09:57:10Z</time>
      </trkpt>
      <trkpt lat="43.43076" lon="-1.1334">
        <ele>167.4</ele>
        <time>2022-09-11T09:57:16Z</time>
      </trkpt>
      <trkpt lat="43.43063" lon="-1.13373">
        <ele>166.4</ele>
        <time>2022-09-11T09:57:21Z</time>
      </trkpt>
      <trkpt lat="43.43061" lon="-1.1338">
        <ele>166</ele>
        <time>2022-09-11T09:57:22Z</time>
      </trkpt>
      <trkpt lat="43.43056" lon="-1.13399">
        <ele>165.2</ele>
        <time>2022-09-11T09:57:25Z</time>
      </trkpt>
      <trkpt lat="43.43058" lon="-1.13413">
        <ele>164.6</ele>
        <time>2022-09-11T09:57:27Z</time>
      </trkpt>
      <trkpt lat="43.4307" lon="-1.13427">
        <ele>164.4</ele>
        <time>2022-09-11T09:57:30Z</time>
      </trkpt>
      <trkpt lat="43.43083" lon="-1.13433">
        <ele>164.4</ele>
        <time>2022-09-11T09:57:33Z</time>
      </trkpt>
      <trkpt lat="43.43092" lon="-1.13437">
        <ele>164.4</ele>
        <time>2022-09-11T09:57:35Z</time>
      </trkpt>
      <trkpt lat="43.43104" lon="-1.13443">
        <ele>164.4</ele>
        <time>2022-09-11T09:57:38Z</time>
      </trkpt>
      <trkpt lat="43.43111" lon="-1.1345">
        <ele>164</ele>
        <time>2022-09-11T09:57:40Z</time>
      </trkpt>
      <trkpt lat="43.43119" lon="-1.13476">
        <ele>163.4</ele>
        <time>2022-09-11T09:57:44Z</time>
      </trkpt>
      <trkpt lat="43.43114" lon="-1.13494">
        <ele>162.8</ele>
        <time>2022-09-11T09:57:46Z</time>
      </trkpt>
      <trkpt lat="43.4311" lon="-1.13503">
        <ele>162.2</ele>
        <time>2022-09-11T09:57:47Z</time>
      </trkpt>
      <trkpt lat="43.43105" lon="-1.13513">
        <ele>161.4</ele>
        <time>2022-09-11T09:57:48Z</time>
      </trkpt>
      <trkpt lat="43.431" lon="-1.13522">
        <ele>160.8</ele>
        <time>2022-09-11T09:57:49Z</time>
      </trkpt>
      <trkpt lat="43.43089" lon="-1.13543">
        <ele>160.2</ele>
        <time>2022-09-11T09:57:51Z</time>
      </trkpt>
      <trkpt lat="43.43076" lon="-1.13564">
        <ele>159</ele>
        <time>2022-09-11T09:57:53Z</time>
      </trkpt>
      <trkpt lat="43.43063" lon="-1.13586">
        <ele>157.2</ele>
        <time>2022-09-11T09:57:55Z</time>
      </trkpt>
      <trkpt lat="43.43056" lon="-1.136">
        <ele>155.8</ele>
        <time>2022-09-11T09:57:56Z</time>
      </trkpt>
      <trkpt lat="43.43049" lon="-1.13612">
        <ele>154.6</ele>
        <time>2022-09-11T09:57:57Z</time>
      </trkpt>
      <trkpt lat="43.43034" lon="-1.13639">
        <ele>152.8</ele>
        <time>2022-09-11T09:57:59Z</time>
      </trkpt>
      <trkpt lat="43.43026" lon="-1.13653">
        <ele>149.6</ele>
        <time>2022-09-11T09:58:00Z</time>
      </trkpt>
      <trkpt lat="43.43019" lon="-1.13669">
        <ele>148.6</ele>
        <time>2022-09-11T09:58:01Z</time>
      </trkpt>
      <trkpt lat="43.43005" lon="-1.137">
        <ele>147</ele>
        <time>2022-09-11T09:58:03Z</time>
      </trkpt>
      <trkpt lat="43.42997" lon="-1.13716">
        <ele>145.8</ele>
        <time>2022-09-11T09:58:04Z</time>
      </trkpt>
      <trkpt lat="43.42989" lon="-1.13732">
        <ele>144.6</ele>
        <time>2022-09-11T09:58:05Z</time>
      </trkpt>
      <trkpt lat="43.42982" lon="-1.13747">
        <ele>143.2</ele>
        <time>2022-09-11T09:58:06Z</time>
      </trkpt>
      <trkpt lat="43.42975" lon="-1.13764">
        <ele>142</ele>
        <time>2022-09-11T09:58:07Z</time>
      </trkpt>
      <trkpt lat="43.42967" lon="-1.13779">
        <ele>140.8</ele>
        <time>2022-09-11T09:58:08Z</time>
      </trkpt>
      <trkpt lat="43.4296" lon="-1.13794">
        <ele>139.6</ele>
        <time>2022-09-11T09:58:09Z</time>
      </trkpt>
      <trkpt lat="43.42945" lon="-1.13824">
        <ele>138.2</ele>
        <time>2022-09-11T09:58:11Z</time>
      </trkpt>
      <trkpt lat="43.4293" lon="-1.13855">
        <ele>136.8</ele>
        <time>2022-09-11T09:58:13Z</time>
      </trkpt>
      <trkpt lat="43.42923" lon="-1.1387">
        <ele>135.4</ele>
        <time>2022-09-11T09:58:14Z</time>
      </trkpt>
      <trkpt lat="43.42915" lon="-1.13885">
        <ele>134.6</ele>
        <time>2022-09-11T09:58:15Z</time>
      </trkpt>
      <trkpt lat="43.42907" lon="-1.13899">
        <ele>133.6</ele>
        <time>2022-09-11T09:58:16Z</time>
      </trkpt>
      <trkpt lat="43.4289" lon="-1.13928">
        <ele>131.2</ele>
        <time>2022-09-11T09:58:18Z</time>
      </trkpt>
      <trkpt lat="43.42881" lon="-1.13943">
        <ele>130</ele>
        <time>2022-09-11T09:58:19Z</time>
      </trkpt>
      <trkpt lat="43.42874" lon="-1.13957">
        <ele>129</ele>
        <time>2022-09-11T09:58:20Z</time>
      </trkpt>
      <trkpt lat="43.42865" lon="-1.1397">
        <ele>128.2</ele>
        <time>2022-09-11T09:58:21Z</time>
      </trkpt>
      <trkpt lat="43.42848" lon="-1.13996">
        <ele>127</ele>
        <time>2022-09-11T09:58:23Z</time>
      </trkpt>
      <trkpt lat="43.42841" lon="-1.14008">
        <ele>125.8</ele>
        <time>2022-09-11T09:58:24Z</time>
      </trkpt>
      <trkpt lat="43.42827" lon="-1.14029">
        <ele>123.8</ele>
        <time>2022-09-11T09:58:26Z</time>
      </trkpt>
      <trkpt lat="43.42816" lon="-1.14048">
        <ele>122.6</ele>
        <time>2022-09-11T09:58:28Z</time>
      </trkpt>
      <trkpt lat="43.42807" lon="-1.1407">
        <ele>121.8</ele>
        <time>2022-09-11T09:58:30Z</time>
      </trkpt>
      <trkpt lat="43.42803" lon="-1.14081">
        <ele>121.4</ele>
        <time>2022-09-11T09:58:31Z</time>
      </trkpt>
      <trkpt lat="43.42793" lon="-1.14105">
        <ele>120.6</ele>
        <time>2022-09-11T09:58:33Z</time>
      </trkpt>
      <trkpt lat="43.42791" lon="-1.14118">
        <ele>120</ele>
        <time>2022-09-11T09:58:34Z</time>
      </trkpt>
      <trkpt lat="43.42789" lon="-1.14143">
        <ele>119.2</ele>
        <time>2022-09-11T09:58:36Z</time>
      </trkpt>
      <trkpt lat="43.42789" lon="-1.14157">
        <ele>118.8</ele>
        <time>2022-09-11T09:58:37Z</time>
      </trkpt>
      <trkpt lat="43.42789" lon="-1.14198">
        <ele>117</ele>
        <time>2022-09-11T09:58:40Z</time>
      </trkpt>
      <trkpt lat="43.4279" lon="-1.14211">
        <ele>116.2</ele>
        <time>2022-09-11T09:58:41Z</time>
      </trkpt>
      <trkpt lat="43.42791" lon="-1.14226">
        <ele>115.6</ele>
        <time>2022-09-11T09:58:42Z</time>
      </trkpt>
      <trkpt lat="43.42793" lon="-1.14255">
        <ele>114</ele>
        <time>2022-09-11T09:58:44Z</time>
      </trkpt>
      <trkpt lat="43.42796" lon="-1.14281">
        <ele>112.6</ele>
        <time>2022-09-11T09:58:46Z</time>
      </trkpt>
      <trkpt lat="43.42801" lon="-1.14306">
        <ele>110.8</ele>
        <time>2022-09-11T09:58:48Z</time>
      </trkpt>
      <trkpt lat="43.42811" lon="-1.14329">
        <ele>109.6</ele>
        <time>2022-09-11T09:58:50Z</time>
      </trkpt>
      <trkpt lat="43.42827" lon="-1.14349">
        <ele>108</ele>
        <time>2022-09-11T09:58:52Z</time>
      </trkpt>
      <trkpt lat="43.42834" lon="-1.1436">
        <ele>107</ele>
        <time>2022-09-11T09:58:53Z</time>
      </trkpt>
      <trkpt lat="43.42845" lon="-1.14367">
        <ele>106.4</ele>
        <time>2022-09-11T09:58:54Z</time>
      </trkpt>
      <trkpt lat="43.42864" lon="-1.14384">
        <ele>104.6</ele>
        <time>2022-09-11T09:58:56Z</time>
      </trkpt>
      <trkpt lat="43.42887" lon="-1.14397">
        <ele>102.8</ele>
        <time>2022-09-11T09:58:58Z</time>
      </trkpt>
      <trkpt lat="43.42898" lon="-1.14403">
        <ele>101.6</ele>
        <time>2022-09-11T09:58:59Z</time>
      </trkpt>
      <trkpt lat="43.4291" lon="-1.14408">
        <ele>99.4</ele>
        <time>2022-09-11T09:59:00Z</time>
      </trkpt>
      <trkpt lat="43.4292" lon="-1.14414">
        <ele>97.4</ele>
        <time>2022-09-11T09:59:01Z</time>
      </trkpt>
      <trkpt lat="43.4293" lon="-1.14418">
        <ele>95.4</ele>
        <time>2022-09-11T09:59:02Z</time>
      </trkpt>
      <trkpt lat="43.4294" lon="-1.14423">
        <ele>94</ele>
        <time>2022-09-11T09:59:03Z</time>
      </trkpt>
      <trkpt lat="43.4295" lon="-1.14427">
        <ele>92.8</ele>
        <time>2022-09-11T09:59:04Z</time>
      </trkpt>
      <trkpt lat="43.42959" lon="-1.14432">
        <ele>91.6</ele>
        <time>2022-09-11T09:59:05Z</time>
      </trkpt>
      <trkpt lat="43.42968" lon="-1.14434">
        <ele>90.4</ele>
        <time>2022-09-11T09:59:06Z</time>
      </trkpt>
      <trkpt lat="43.42977" lon="-1.14435">
        <ele>89.2</ele>
        <time>2022-09-11T09:59:07Z</time>
      </trkpt>
      <trkpt lat="43.42986" lon="-1.14433">
        <ele>88</ele>
        <time>2022-09-11T09:59:08Z</time>
      </trkpt>
      <trkpt lat="43.42994" lon="-1.1443">
        <ele>86.8</ele>
        <time>2022-09-11T09:59:09Z</time>
      </trkpt>
      <trkpt lat="43.43001" lon="-1.14426">
        <ele>85.6</ele>
        <time>2022-09-11T09:59:10Z</time>
      </trkpt>
      <trkpt lat="43.43007" lon="-1.14422">
        <ele>84.4</ele>
        <time>2022-09-11T09:59:11Z</time>
      </trkpt>
      <trkpt lat="43.43011" lon="-1.14422">
        <ele>82.2</ele>
        <time>2022-09-11T09:59:12Z</time>
      </trkpt>
      <trkpt lat="43.43015" lon="-1.14422">
        <ele>81.4</ele>
        <time>2022-09-11T09:59:13Z</time>
      </trkpt>
      <trkpt lat="43.43019" lon="-1.14424">
        <ele>81</ele>
        <time>2022-09-11T09:59:14Z</time>
      </trkpt>
      <trkpt lat="43.43026" lon="-1.14434">
        <ele>79.6</ele>
        <time>2022-09-11T09:59:17Z</time>
      </trkpt>
      <trkpt lat="43.43031" lon="-1.14449">
        <ele>78.4</ele>
        <time>2022-09-11T09:59:20Z</time>
      </trkpt>
      <trkpt lat="43.43034" lon="-1.14455">
        <ele>78.2</ele>
        <time>2022-09-11T09:59:21Z</time>
      </trkpt>
      <trkpt lat="43.43037" lon="-1.14462">
        <ele>78.2</ele>
        <time>2022-09-11T09:59:22Z</time>
      </trkpt>
      <trkpt lat="43.43048" lon="-1.14482">
        <ele>77.2</ele>
        <time>2022-09-11T09:59:25Z</time>
      </trkpt>
      <trkpt lat="43.43053" lon="-1.14503">
        <ele>77</ele>
        <time>2022-09-11T09:59:27Z</time>
      </trkpt>
      <trkpt lat="43.43055" lon="-1.14515">
        <ele>76.8</ele>
        <time>2022-09-11T09:59:28Z</time>
      </trkpt>
      <trkpt lat="43.43058" lon="-1.14571">
        <ele>76.2</ele>
        <time>2022-09-11T09:59:33Z</time>
      </trkpt>
      <trkpt lat="43.43061" lon="-1.14599">
        <ele>75.8</ele>
        <time>2022-09-11T09:59:36Z</time>
      </trkpt>
      <trkpt lat="43.43064" lon="-1.14616">
        <ele>75.2</ele>
        <time>2022-09-11T09:59:38Z</time>
      </trkpt>
      <trkpt lat="43.43079" lon="-1.14665">
        <ele>74</ele>
        <time>2022-09-11T09:59:43Z</time>
      </trkpt>
      <trkpt lat="43.43087" lon="-1.14696">
        <ele>72.8</ele>
        <time>2022-09-11T09:59:46Z</time>
      </trkpt>
      <trkpt lat="43.43093" lon="-1.14719">
        <ele>71.6</ele>
        <time>2022-09-11T09:59:48Z</time>
      </trkpt>
      <trkpt lat="43.43099" lon="-1.14744">
        <ele>70</ele>
        <time>2022-09-11T09:59:50Z</time>
      </trkpt>
      <trkpt lat="43.43104" lon="-1.14767">
        <ele>68.6</ele>
        <time>2022-09-11T09:59:52Z</time>
      </trkpt>
      <trkpt lat="43.43105" lon="-1.1478">
        <ele>68</ele>
        <time>2022-09-11T09:59:53Z</time>
      </trkpt>
      <trkpt lat="43.43107" lon="-1.14794">
        <ele>67.2</ele>
        <time>2022-09-11T09:59:54Z</time>
      </trkpt>
      <trkpt lat="43.43111" lon="-1.14818">
        <ele>66</ele>
        <time>2022-09-11T09:59:56Z</time>
      </trkpt>
      <trkpt lat="43.43114" lon="-1.14838">
        <ele>64.4</ele>
        <time>2022-09-11T09:59:58Z</time>
      </trkpt>
      <trkpt lat="43.43119" lon="-1.14855">
        <ele>62.8</ele>
        <time>2022-09-11T10:00:00Z</time>
      </trkpt>
      <trkpt lat="43.43123" lon="-1.14871">
        <ele>61.4</ele>
        <time>2022-09-11T10:00:02Z</time>
      </trkpt>
      <trkpt lat="43.43128" lon="-1.14885">
        <ele>60</ele>
        <time>2022-09-11T10:00:04Z</time>
      </trkpt>
      <trkpt lat="43.43131" lon="-1.14899">
        <ele>59</ele>
        <time>2022-09-11T10:00:06Z</time>
      </trkpt>
      <trkpt lat="43.43137" lon="-1.1492">
        <ele>57.6</ele>
        <time>2022-09-11T10:00:09Z</time>
      </trkpt>
      <trkpt lat="43.4314" lon="-1.14928">
        <ele>57</ele>
        <time>2022-09-11T10:00:10Z</time>
      </trkpt>
      <trkpt lat="43.43141" lon="-1.14937">
        <ele>56.2</ele>
        <time>2022-09-11T10:00:11Z</time>
      </trkpt>
      <trkpt lat="43.4314" lon="-1.14959">
        <ele>55</ele>
        <time>2022-09-11T10:00:13Z</time>
      </trkpt>
      <trkpt lat="43.43138" lon="-1.1497">
        <ele>54.6</ele>
        <time>2022-09-11T10:00:14Z</time>
      </trkpt>
      <trkpt lat="43.43129" lon="-1.14999">
        <ele>53.6</ele>
        <time>2022-09-11T10:00:17Z</time>
      </trkpt>
      <trkpt lat="43.43126" lon="-1.15011">
        <ele>53.2</ele>
        <time>2022-09-11T10:00:18Z</time>
      </trkpt>
      <trkpt lat="43.43119" lon="-1.15035">
        <ele>52.2</ele>
        <time>2022-09-11T10:00:20Z</time>
      </trkpt>
      <trkpt lat="43.43113" lon="-1.15061">
        <ele>51.4</ele>
        <time>2022-09-11T10:00:22Z</time>
      </trkpt>
      <trkpt lat="43.43113" lon="-1.15074">
        <ele>51</ele>
        <time>2022-09-11T10:00:23Z</time>
      </trkpt>
      <trkpt lat="43.43113" lon="-1.15099">
        <ele>49.8</ele>
        <time>2022-09-11T10:00:25Z</time>
      </trkpt>
      <trkpt lat="43.43109" lon="-1.15124">
        <ele>49.4</ele>
        <time>2022-09-11T10:00:27Z</time>
      </trkpt>
      <trkpt lat="43.43102" lon="-1.15159">
        <ele>48.4</ele>
        <time>2022-09-11T10:00:30Z</time>
      </trkpt>
      <trkpt lat="43.43099" lon="-1.1517">
        <ele>47.8</ele>
        <time>2022-09-11T10:00:31Z</time>
      </trkpt>
      <trkpt lat="43.43096" lon="-1.15181">
        <ele>47.4</ele>
        <time>2022-09-11T10:00:32Z</time>
      </trkpt>
      <trkpt lat="43.43094" lon="-1.15203">
        <ele>46.8</ele>
        <time>2022-09-11T10:00:34Z</time>
      </trkpt>
      <trkpt lat="43.43095" lon="-1.15226">
        <ele>46.4</ele>
        <time>2022-09-11T10:00:36Z</time>
      </trkpt>
      <trkpt lat="43.43096" lon="-1.15257">
        <ele>46.4</ele>
        <time>2022-09-11T10:00:39Z</time>
      </trkpt>
      <trkpt lat="43.43096" lon="-1.15274">
        <ele>46</ele>
        <time>2022-09-11T10:00:41Z</time>
      </trkpt>
      <trkpt lat="43.43096" lon="-1.15281">
        <ele>46</ele>
        <time>2022-09-11T10:00:42Z</time>
      </trkpt>
      <trkpt lat="43.43098" lon="-1.15324">
        <ele>45.4</ele>
        <time>2022-09-11T10:00:47Z</time>
      </trkpt>
      <trkpt lat="43.43099" lon="-1.15334">
        <ele>45.2</ele>
        <time>2022-09-11T10:00:48Z</time>
      </trkpt>
      <trkpt lat="43.431" lon="-1.15353">
        <ele>45.2</ele>
        <time>2022-09-11T10:00:50Z</time>
      </trkpt>
      <trkpt lat="43.43102" lon="-1.15369">
        <ele>45</ele>
        <time>2022-09-11T10:00:52Z</time>
      </trkpt>
      <trkpt lat="43.43105" lon="-1.154">
        <ele>45.2</ele>
        <time>2022-09-11T10:00:57Z</time>
      </trkpt>
      <trkpt lat="43.43105" lon="-1.15408">
        <ele>46.2</ele>
        <time>2022-09-11T10:01:01Z</time>
      </trkpt>
      <trkpt lat="43.43107" lon="-1.15414">
        <ele>46.2</ele>
        <time>2022-09-11T10:01:03Z</time>
      </trkpt>
      <trkpt lat="43.43109" lon="-1.15416">
        <ele>46.4</ele>
        <time>2022-09-11T10:01:04Z</time>
      </trkpt>
      <trkpt lat="43.4311" lon="-1.15422">
        <ele>46.4</ele>
        <time>2022-09-11T10:01:06Z</time>
      </trkpt>
      <trkpt lat="43.43114" lon="-1.15437">
        <ele>46.4</ele>
        <time>2022-09-11T10:01:12Z</time>
      </trkpt>
      <trkpt lat="43.43121" lon="-1.15446">
        <ele>46.4</ele>
        <time>2022-09-11T10:01:18Z</time>
      </trkpt>
      <trkpt lat="43.43128" lon="-1.15455">
        <ele>46.4</ele>
        <time>2022-09-11T10:01:23Z</time>
      </trkpt>
      <trkpt lat="43.43137" lon="-1.15461">
        <ele>46.4</ele>
        <time>2022-09-11T10:01:27Z</time>
      </trkpt>
      <trkpt lat="43.4315" lon="-1.15471">
        <ele>46.6</ele>
        <time>2022-09-11T10:01:32Z</time>
      </trkpt>
      <trkpt lat="43.43165" lon="-1.15482">
        <ele>46.6</ele>
        <time>2022-09-11T10:01:38Z</time>
      </trkpt>
      <trkpt lat="43.43183" lon="-1.15495">
        <ele>47</ele>
        <time>2022-09-11T10:01:45Z</time>
      </trkpt>
      <trkpt lat="43.43197" lon="-1.15504">
        <ele>47.2</ele>
        <time>2022-09-11T10:01:50Z</time>
      </trkpt>
      <trkpt lat="43.43208" lon="-1.15512">
        <ele>47.4</ele>
        <time>2022-09-11T10:01:54Z</time>
      </trkpt>
      <trkpt lat="43.4321" lon="-1.15514">
        <ele>47.6</ele>
        <time>2022-09-11T10:01:55Z</time>
      </trkpt>
      <trkpt lat="43.43226" lon="-1.15525">
        <ele>48.2</ele>
        <time>2022-09-11T10:02:00Z</time>
      </trkpt>
      <trkpt lat="43.4324" lon="-1.15541">
        <ele>48.4</ele>
        <time>2022-09-11T10:02:06Z</time>
      </trkpt>
      <trkpt lat="43.43255" lon="-1.15557">
        <ele>48.6</ele>
        <time>2022-09-11T10:02:11Z</time>
      </trkpt>
      <trkpt lat="43.43283" lon="-1.15574">
        <ele>49.2</ele>
        <time>2022-09-11T10:02:17Z</time>
      </trkpt>
      <trkpt lat="43.43291" lon="-1.15584">
        <ele>49.4</ele>
        <time>2022-09-11T10:02:20Z</time>
      </trkpt>
      <trkpt lat="43.43302" lon="-1.15592">
        <ele>49.8</ele>
        <time>2022-09-11T10:02:23Z</time>
      </trkpt>
      <trkpt lat="43.43318" lon="-1.1561">
        <ele>49.8</ele>
        <time>2022-09-11T10:02:29Z</time>
      </trkpt>
      <trkpt lat="43.43328" lon="-1.1562">
        <ele>49.8</ele>
        <time>2022-09-11T10:02:33Z</time>
      </trkpt>
      <trkpt lat="43.43347" lon="-1.15639">
        <ele>49</ele>
        <time>2022-09-11T10:02:38Z</time>
      </trkpt>
      <trkpt lat="43.43354" lon="-1.15649">
        <ele>48.4</ele>
        <time>2022-09-11T10:02:40Z</time>
      </trkpt>
      <trkpt lat="43.43368" lon="-1.15667">
        <ele>47.6</ele>
        <time>2022-09-11T10:02:43Z</time>
      </trkpt>
      <trkpt lat="43.43373" lon="-1.15673">
        <ele>47.2</ele>
        <time>2022-09-11T10:02:44Z</time>
      </trkpt>
      <trkpt lat="43.43393" lon="-1.15702">
        <ele>46.2</ele>
        <time>2022-09-11T10:02:48Z</time>
      </trkpt>
      <trkpt lat="43.43419" lon="-1.15737">
        <ele>45.2</ele>
        <time>2022-09-11T10:02:53Z</time>
      </trkpt>
      <trkpt lat="43.43425" lon="-1.15744">
        <ele>45</ele>
        <time>2022-09-11T10:02:54Z</time>
      </trkpt>
      <trkpt lat="43.43445" lon="-1.1576">
        <ele>44.4</ele>
        <time>2022-09-11T10:02:57Z</time>
      </trkpt>
      <trkpt lat="43.43452" lon="-1.15765">
        <ele>44</ele>
        <time>2022-09-11T10:02:58Z</time>
      </trkpt>
      <trkpt lat="43.43477" lon="-1.15784">
        <ele>43.2</ele>
        <time>2022-09-11T10:03:02Z</time>
      </trkpt>
      <trkpt lat="43.43482" lon="-1.15788">
        <ele>43.2</ele>
        <time>2022-09-11T10:03:03Z</time>
      </trkpt>
      <trkpt lat="43.43499" lon="-1.15799">
        <ele>43.4</ele>
        <time>2022-09-11T10:03:06Z</time>
      </trkpt>
      <trkpt lat="43.43509" lon="-1.15808">
        <ele>43.8</ele>
        <time>2022-09-11T10:03:08Z</time>
      </trkpt>
      <trkpt lat="43.4353" lon="-1.15826">
        <ele>44.4</ele>
        <time>2022-09-11T10:03:13Z</time>
      </trkpt>
      <trkpt lat="43.43534" lon="-1.15829">
        <ele>44.4</ele>
        <time>2022-09-11T10:03:14Z</time>
      </trkpt>
      <trkpt lat="43.43555" lon="-1.15847">
        <ele>44.2</ele>
        <time>2022-09-11T10:03:19Z</time>
      </trkpt>
      <trkpt lat="43.43571" lon="-1.15867">
        <ele>43.8</ele>
        <time>2022-09-11T10:03:23Z</time>
      </trkpt>
      <trkpt lat="43.43574" lon="-1.15873">
        <ele>43.8</ele>
        <time>2022-09-11T10:03:24Z</time>
      </trkpt>
      <trkpt lat="43.43589" lon="-1.15896">
        <ele>43.2</ele>
        <time>2022-09-11T10:03:28Z</time>
      </trkpt>
      <trkpt lat="43.43593" lon="-1.15901">
        <ele>43</ele>
        <time>2022-09-11T10:03:29Z</time>
      </trkpt>
      <trkpt lat="43.43596" lon="-1.15906">
        <ele>43</ele>
        <time>2022-09-11T10:03:30Z</time>
      </trkpt>
      <trkpt lat="43.43616" lon="-1.15933">
        <ele>43.8</ele>
        <time>2022-09-11T10:03:36Z</time>
      </trkpt>
      <trkpt lat="43.43619" lon="-1.15937">
        <ele>44</ele>
        <time>2022-09-11T10:03:37Z</time>
      </trkpt>
      <trkpt lat="43.43625" lon="-1.15947">
        <ele>44.2</ele>
        <time>2022-09-11T10:03:39Z</time>
      </trkpt>
      <trkpt lat="43.43636" lon="-1.15965">
        <ele>44.6</ele>
        <time>2022-09-11T10:03:43Z</time>
      </trkpt>
      <trkpt lat="43.43654" lon="-1.15985">
        <ele>44.8</ele>
        <time>2022-09-11T10:03:48Z</time>
      </trkpt>
      <trkpt lat="43.4368" lon="-1.1602">
        <ele>44.6</ele>
        <time>2022-09-11T10:03:56Z</time>
      </trkpt>
      <trkpt lat="43.43686" lon="-1.16031">
        <ele>44.4</ele>
        <time>2022-09-11T10:03:58Z</time>
      </trkpt>
      <trkpt lat="43.43694" lon="-1.16049">
        <ele>43.8</ele>
        <time>2022-09-11T10:04:01Z</time>
      </trkpt>
      <trkpt lat="43.43709" lon="-1.16076">
        <ele>42.8</ele>
        <time>2022-09-11T10:04:05Z</time>
      </trkpt>
      <trkpt lat="43.43713" lon="-1.16084">
        <ele>42.6</ele>
        <time>2022-09-11T10:04:06Z</time>
      </trkpt>
      <trkpt lat="43.43722" lon="-1.16099">
        <ele>42</ele>
        <time>2022-09-11T10:04:08Z</time>
      </trkpt>
      <trkpt lat="43.43726" lon="-1.16107">
        <ele>41.6</ele>
        <time>2022-09-11T10:04:09Z</time>
      </trkpt>
      <trkpt lat="43.43735" lon="-1.16123">
        <ele>40.8</ele>
        <time>2022-09-11T10:04:11Z</time>
      </trkpt>
      <trkpt lat="43.4374" lon="-1.16131">
        <ele>40.6</ele>
        <time>2022-09-11T10:04:12Z</time>
      </trkpt>
      <trkpt lat="43.43756" lon="-1.16147">
        <ele>40</ele>
        <time>2022-09-11T10:04:15Z</time>
      </trkpt>
      <trkpt lat="43.43761" lon="-1.1615">
        <ele>40.2</ele>
        <time>2022-09-11T10:04:16Z</time>
      </trkpt>
      <trkpt lat="43.43784" lon="-1.16154">
        <ele>40.4</ele>
        <time>2022-09-11T10:04:20Z</time>
      </trkpt>
      <trkpt lat="43.43789" lon="-1.16155">
        <ele>40.2</ele>
        <time>2022-09-11T10:04:21Z</time>
      </trkpt>
      <trkpt lat="43.43804" lon="-1.16165">
        <ele>40.2</ele>
        <time>2022-09-11T10:04:24Z</time>
      </trkpt>
      <trkpt lat="43.43819" lon="-1.1618">
        <ele>40.4</ele>
        <time>2022-09-11T10:04:27Z</time>
      </trkpt>
      <trkpt lat="43.43841" lon="-1.16193">
        <ele>40.2</ele>
        <time>2022-09-11T10:04:30Z</time>
      </trkpt>
      <trkpt lat="43.43889" lon="-1.16229">
        <ele>40.2</ele>
        <time>2022-09-11T10:04:38Z</time>
      </trkpt>
      <trkpt lat="43.43894" lon="-1.16234">
        <ele>40.2</ele>
        <time>2022-09-11T10:04:39Z</time>
      </trkpt>
      <trkpt lat="43.43932" lon="-1.16266">
        <ele>40</ele>
        <time>2022-09-11T10:04:47Z</time>
      </trkpt>
      <trkpt lat="43.43945" lon="-1.16273">
        <ele>40.6</ele>
        <time>2022-09-11T10:04:50Z</time>
      </trkpt>
      <trkpt lat="43.43956" lon="-1.16277">
        <ele>40.8</ele>
        <time>2022-09-11T10:04:53Z</time>
      </trkpt>
      <trkpt lat="43.43969" lon="-1.16281">
        <ele>40.6</ele>
        <time>2022-09-11T10:04:56Z</time>
      </trkpt>
      <trkpt lat="43.43983" lon="-1.16285">
        <ele>40.4</ele>
        <time>2022-09-11T10:04:59Z</time>
      </trkpt>
      <trkpt lat="43.43997" lon="-1.16288">
        <ele>40.2</ele>
        <time>2022-09-11T10:05:02Z</time>
      </trkpt>
      <trkpt lat="43.44001" lon="-1.16289">
        <ele>40</ele>
        <time>2022-09-11T10:05:03Z</time>
      </trkpt>
      <trkpt lat="43.44021" lon="-1.16294">
        <ele>39.6</ele>
        <time>2022-09-11T10:05:08Z</time>
      </trkpt>
      <trkpt lat="43.4403" lon="-1.16295">
        <ele>39.6</ele>
        <time>2022-09-11T10:05:10Z</time>
      </trkpt>
      <trkpt lat="43.44045" lon="-1.16297">
        <ele>39</ele>
        <time>2022-09-11T10:05:14Z</time>
      </trkpt>
      <trkpt lat="43.44074" lon="-1.16304">
        <ele>39</ele>
        <time>2022-09-11T10:05:20Z</time>
      </trkpt>
      <trkpt lat="43.44099" lon="-1.16309">
        <ele>39.2</ele>
        <time>2022-09-11T10:05:25Z</time>
      </trkpt>
      <trkpt lat="43.44141" lon="-1.16309">
        <ele>39.2</ele>
        <time>2022-09-11T10:05:32Z</time>
      </trkpt>
      <trkpt lat="43.44186" lon="-1.16308">
        <ele>39.4</ele>
        <time>2022-09-11T10:05:40Z</time>
      </trkpt>
      <trkpt lat="43.44226" lon="-1.163">
        <ele>40.2</ele>
        <time>2022-09-11T10:05:48Z</time>
      </trkpt>
      <trkpt lat="43.4425" lon="-1.16285">
        <ele>40</ele>
        <time>2022-09-11T10:05:54Z</time>
      </trkpt>
      <trkpt lat="43.44254" lon="-1.16282">
        <ele>40</ele>
        <time>2022-09-11T10:05:55Z</time>
      </trkpt>
      <trkpt lat="43.44286" lon="-1.16256">
        <ele>39.4</ele>
        <time>2022-09-11T10:06:03Z</time>
      </trkpt>
      <trkpt lat="43.44315" lon="-1.16234">
        <ele>39.2</ele>
        <time>2022-09-11T10:06:10Z</time>
      </trkpt>
      <trkpt lat="43.44338" lon="-1.16215">
        <ele>38.4</ele>
        <time>2022-09-11T10:06:15Z</time>
      </trkpt>
      <trkpt lat="43.44356" lon="-1.162">
        <ele>38.2</ele>
        <time>2022-09-11T10:06:19Z</time>
      </trkpt>
      <trkpt lat="43.4439" lon="-1.16173">
        <ele>38.2</ele>
        <time>2022-09-11T10:06:27Z</time>
      </trkpt>
      <trkpt lat="43.44393" lon="-1.1617">
        <ele>38.4</ele>
        <time>2022-09-11T10:06:28Z</time>
      </trkpt>
      <trkpt lat="43.44407" lon="-1.16158">
        <ele>39</ele>
        <time>2022-09-11T10:06:32Z</time>
      </trkpt>
      <trkpt lat="43.44415" lon="-1.16148">
        <ele>39.6</ele>
        <time>2022-09-11T10:06:35Z</time>
      </trkpt>
      <trkpt lat="43.44423" lon="-1.16138">
        <ele>40</ele>
        <time>2022-09-11T10:06:38Z</time>
      </trkpt>
      <trkpt lat="43.44437" lon="-1.16106">
        <ele>39.6</ele>
        <time>2022-09-11T10:06:45Z</time>
      </trkpt>
      <trkpt lat="43.44441" lon="-1.16095">
        <ele>39.4</ele>
        <time>2022-09-11T10:06:47Z</time>
      </trkpt>
      <trkpt lat="43.44453" lon="-1.16068">
        <ele>39.2</ele>
        <time>2022-09-11T10:06:52Z</time>
      </trkpt>
      <trkpt lat="43.44475" lon="-1.16033">
        <ele>39.6</ele>
        <time>2022-09-11T10:06:59Z</time>
      </trkpt>
      <trkpt lat="43.44486" lon="-1.16022">
        <ele>40</ele>
        <time>2022-09-11T10:07:02Z</time>
      </trkpt>
      <trkpt lat="43.445" lon="-1.16014">
        <ele>39.8</ele>
        <time>2022-09-11T10:07:05Z</time>
      </trkpt>
      <trkpt lat="43.44538" lon="-1.15999">
        <ele>39.8</ele>
        <time>2022-09-11T10:07:13Z</time>
      </trkpt>
      <trkpt lat="43.44574" lon="-1.15976">
        <ele>39.6</ele>
        <time>2022-09-11T10:07:21Z</time>
      </trkpt>
      <trkpt lat="43.44618" lon="-1.15941">
        <ele>39</ele>
        <time>2022-09-11T10:07:31Z</time>
      </trkpt>
      <trkpt lat="43.44654" lon="-1.15913">
        <ele>39.2</ele>
        <time>2022-09-11T10:07:39Z</time>
      </trkpt>
      <trkpt lat="43.44688" lon="-1.15884">
        <ele>39.2</ele>
        <time>2022-09-11T10:07:47Z</time>
      </trkpt>
      <trkpt lat="43.44693" lon="-1.15881">
        <ele>39</ele>
        <time>2022-09-11T10:07:48Z</time>
      </trkpt>
      <trkpt lat="43.44711" lon="-1.15866">
        <ele>38.4</ele>
        <time>2022-09-11T10:07:52Z</time>
      </trkpt>
      <trkpt lat="43.44737" lon="-1.1585">
        <ele>38.2</ele>
        <time>2022-09-11T10:07:57Z</time>
      </trkpt>
      <trkpt lat="43.44763" lon="-1.15835">
        <ele>37.4</ele>
        <time>2022-09-11T10:08:02Z</time>
      </trkpt>
      <trkpt lat="43.44774" lon="-1.15828">
        <ele>37.2</ele>
        <time>2022-09-11T10:08:04Z</time>
      </trkpt>
      <trkpt lat="43.44823" lon="-1.15799">
        <ele>36.8</ele>
        <time>2022-09-11T10:08:13Z</time>
      </trkpt>
      <trkpt lat="43.44858" lon="-1.15778">
        <ele>37.4</ele>
        <time>2022-09-11T10:08:20Z</time>
      </trkpt>
      <trkpt lat="43.44897" lon="-1.15757">
        <ele>37.4</ele>
        <time>2022-09-11T10:08:28Z</time>
      </trkpt>
      <trkpt lat="43.44933" lon="-1.15751">
        <ele>37.8</ele>
        <time>2022-09-11T10:08:35Z</time>
      </trkpt>
      <trkpt lat="43.4496" lon="-1.15751">
        <ele>36.8</ele>
        <time>2022-09-11T10:08:40Z</time>
      </trkpt>
      <trkpt lat="43.44965" lon="-1.15751">
        <ele>36.8</ele>
        <time>2022-09-11T10:08:41Z</time>
      </trkpt>
      <trkpt lat="43.45005" lon="-1.15756">
        <ele>37.2</ele>
        <time>2022-09-11T10:08:49Z</time>
      </trkpt>
      <trkpt lat="43.45022" lon="-1.15747">
        <ele>38</ele>
        <time>2022-09-11T10:08:53Z</time>
      </trkpt>
      <trkpt lat="43.45025" lon="-1.15744">
        <ele>37.8</ele>
        <time>2022-09-11T10:08:54Z</time>
      </trkpt>
      <trkpt lat="43.45045" lon="-1.15729">
        <ele>37.6</ele>
        <time>2022-09-11T10:08:59Z</time>
      </trkpt>
      <trkpt lat="43.45054" lon="-1.15723">
        <ele>37.2</ele>
        <time>2022-09-11T10:09:01Z</time>
      </trkpt>
      <trkpt lat="43.45076" lon="-1.15706">
        <ele>36.6</ele>
        <time>2022-09-11T10:09:06Z</time>
      </trkpt>
      <trkpt lat="43.45107" lon="-1.15683">
        <ele>36.6</ele>
        <time>2022-09-11T10:09:12Z</time>
      </trkpt>
      <trkpt lat="43.45118" lon="-1.15676">
        <ele>36</ele>
        <time>2022-09-11T10:09:14Z</time>
      </trkpt>
      <trkpt lat="43.45148" lon="-1.15651">
        <ele>35.6</ele>
        <time>2022-09-11T10:09:20Z</time>
      </trkpt>
      <trkpt lat="43.45155" lon="-1.15639">
        <ele>35.4</ele>
        <time>2022-09-11T10:09:22Z</time>
      </trkpt>
      <trkpt lat="43.45163" lon="-1.1561">
        <ele>35.6</ele>
        <time>2022-09-11T10:09:26Z</time>
      </trkpt>
      <trkpt lat="43.45164" lon="-1.15595">
        <ele>35.6</ele>
        <time>2022-09-11T10:09:28Z</time>
      </trkpt>
      <trkpt lat="43.45165" lon="-1.15566">
        <ele>35.2</ele>
        <time>2022-09-11T10:09:32Z</time>
      </trkpt>
      <trkpt lat="43.45169" lon="-1.15526">
        <ele>35.4</ele>
        <time>2022-09-11T10:09:38Z</time>
      </trkpt>
      <trkpt lat="43.4517" lon="-1.155">
        <ele>35.2</ele>
        <time>2022-09-11T10:09:42Z</time>
      </trkpt>
      <trkpt lat="43.45167" lon="-1.15481">
        <ele>35.2</ele>
        <time>2022-09-11T10:09:45Z</time>
      </trkpt>
      <trkpt lat="43.45165" lon="-1.15476">
        <ele>35</ele>
        <time>2022-09-11T10:09:46Z</time>
      </trkpt>
      <trkpt lat="43.45163" lon="-1.1547">
        <ele>35</ele>
        <time>2022-09-11T10:09:47Z</time>
      </trkpt>
      <trkpt lat="43.45156" lon="-1.15446">
        <ele>34.8</ele>
        <time>2022-09-11T10:09:51Z</time>
      </trkpt>
      <trkpt lat="43.45139" lon="-1.15387">
        <ele>34.4</ele>
        <time>2022-09-11T10:10:00Z</time>
      </trkpt>
      <trkpt lat="43.45124" lon="-1.1534">
        <ele>34.2</ele>
        <time>2022-09-11T10:10:08Z</time>
      </trkpt>
      <trkpt lat="43.45121" lon="-1.15328">
        <ele>34</ele>
        <time>2022-09-11T10:10:10Z</time>
      </trkpt>
      <trkpt lat="43.45118" lon="-1.15315">
        <ele>34.4</ele>
        <time>2022-09-11T10:10:12Z</time>
      </trkpt>
      <trkpt lat="43.45118" lon="-1.15301">
        <ele>35</ele>
        <time>2022-09-11T10:10:14Z</time>
      </trkpt>
      <trkpt lat="43.45128" lon="-1.15282">
        <ele>34.4</ele>
        <time>2022-09-11T10:10:18Z</time>
      </trkpt>
      <trkpt lat="43.45131" lon="-1.15278">
        <ele>34.6</ele>
        <time>2022-09-11T10:10:19Z</time>
      </trkpt>
      <trkpt lat="43.45143" lon="-1.1527">
        <ele>34.8</ele>
        <time>2022-09-11T10:10:23Z</time>
      </trkpt>
      <trkpt lat="43.45146" lon="-1.15269">
        <ele>35.2</ele>
        <time>2022-09-11T10:10:24Z</time>
      </trkpt>
      <trkpt lat="43.4516" lon="-1.15265">
        <ele>35.4</ele>
        <time>2022-09-11T10:10:29Z</time>
      </trkpt>
      <trkpt lat="43.4519" lon="-1.1526">
        <ele>34.6</ele>
        <time>2022-09-11T10:10:36Z</time>
      </trkpt>
      <trkpt lat="43.45225" lon="-1.15252">
        <ele>34.2</ele>
        <time>2022-09-11T10:10:42Z</time>
      </trkpt>
      <trkpt lat="43.45254" lon="-1.15241">
        <ele>33.2</ele>
        <time>2022-09-11T10:10:47Z</time>
      </trkpt>
      <trkpt lat="43.45259" lon="-1.15237">
        <ele>33</ele>
        <time>2022-09-11T10:10:48Z</time>
      </trkpt>
      <trkpt lat="43.45264" lon="-1.15232">
        <ele>33</ele>
        <time>2022-09-11T10:10:49Z</time>
      </trkpt>
      <trkpt lat="43.45277" lon="-1.15206">
        <ele>32.8</ele>
        <time>2022-09-11T10:10:53Z</time>
      </trkpt>
      <trkpt lat="43.4528" lon="-1.152">
        <ele>32.6</ele>
        <time>2022-09-11T10:10:54Z</time>
      </trkpt>
      <trkpt lat="43.45293" lon="-1.15161">
        <ele>32.6</ele>
        <time>2022-09-11T10:11:00Z</time>
      </trkpt>
      <trkpt lat="43.45299" lon="-1.15143">
        <ele>32</ele>
        <time>2022-09-11T10:11:03Z</time>
      </trkpt>
      <trkpt lat="43.45308" lon="-1.15114">
        <ele>32.2</ele>
        <time>2022-09-11T10:11:08Z</time>
      </trkpt>
      <trkpt lat="43.45315" lon="-1.15088">
        <ele>32.6</ele>
        <time>2022-09-11T10:11:13Z</time>
      </trkpt>
      <trkpt lat="43.4532" lon="-1.15071">
        <ele>33</ele>
        <time>2022-09-11T10:11:16Z</time>
      </trkpt>
      <trkpt lat="43.45326" lon="-1.15051">
        <ele>33.4</ele>
        <time>2022-09-11T10:11:21Z</time>
      </trkpt>
      <trkpt lat="43.45338" lon="-1.15027">
        <ele>33</ele>
        <time>2022-09-11T10:11:27Z</time>
      </trkpt>
      <trkpt lat="43.45344" lon="-1.15015">
        <ele>32.6</ele>
        <time>2022-09-11T10:11:31Z</time>
      </trkpt>
      <trkpt lat="43.45346" lon="-1.15016">
        <ele>32.2</ele>
        <time>2022-09-11T10:11:32Z</time>
      </trkpt>
      <trkpt lat="43.45347" lon="-1.15018">
        <ele>32</ele>
        <time>2022-09-11T10:11:33Z</time>
      </trkpt>
      <trkpt lat="43.45346" lon="-1.1502">
        <ele>31.8</ele>
        <time>2022-09-11T10:11:34Z</time>
      </trkpt>
      <trkpt lat="43.45341" lon="-1.15028">
        <ele>32</ele>
        <time>2022-09-11T10:11:37Z</time>
      </trkpt>
      <trkpt lat="43.4534" lon="-1.1503">
        <ele>32</ele>
        <time>2022-09-11T10:11:38Z</time>
      </trkpt>
      <trkpt lat="43.45333" lon="-1.15044">
        <ele>32.8</ele>
        <time>2022-09-11T10:11:45Z</time>
      </trkpt>
      <trkpt lat="43.45332" lon="-1.15047">
        <ele>32.8</ele>
        <time>2022-09-11T10:11:47Z</time>
      </trkpt>
      <trkpt lat="43.45334" lon="-1.15042">
        <ele>33.2</ele>
        <time>2022-09-11T10:16:06Z</time>
      </trkpt>
      <trkpt lat="43.45344" lon="-1.15024">
        <ele>32.6</ele>
        <time>2022-09-11T10:16:12Z</time>
      </trkpt>
      <trkpt lat="43.45346" lon="-1.1502">
        <ele>32.6</ele>
        <time>2022-09-11T10:16:13Z</time>
      </trkpt>
      <trkpt lat="43.4536" lon="-1.14992">
        <ele>32.4</ele>
        <time>2022-09-11T10:16:19Z</time>
      </trkpt>
      <trkpt lat="43.45363" lon="-1.14987">
        <ele>32.2</ele>
        <time>2022-09-11T10:16:20Z</time>
      </trkpt>
      <trkpt lat="43.4538" lon="-1.14956">
        <ele>31.4</ele>
        <time>2022-09-11T10:16:26Z</time>
      </trkpt>
      <trkpt lat="43.45409" lon="-1.149">
        <ele>31.4</ele>
        <time>2022-09-11T10:16:36Z</time>
      </trkpt>
      <trkpt lat="43.45422" lon="-1.14877">
        <ele>31.2</ele>
        <time>2022-09-11T10:16:40Z</time>
      </trkpt>
      <trkpt lat="43.45439" lon="-1.14843">
        <ele>31</ele>
        <time>2022-09-11T10:16:46Z</time>
      </trkpt>
      <trkpt lat="43.45457" lon="-1.14801">
        <ele>30.6</ele>
        <time>2022-09-11T10:16:53Z</time>
      </trkpt>
      <trkpt lat="43.45473" lon="-1.14761">
        <ele>30.8</ele>
        <time>2022-09-11T10:17:00Z</time>
      </trkpt>
      <trkpt lat="43.45476" lon="-1.14756">
        <ele>30.8</ele>
        <time>2022-09-11T10:17:01Z</time>
      </trkpt>
      <trkpt lat="43.45479" lon="-1.14752">
        <ele>30.6</ele>
        <time>2022-09-11T10:17:02Z</time>
      </trkpt>
      <trkpt lat="43.45497" lon="-1.14729">
        <ele>30.6</ele>
        <time>2022-09-11T10:17:07Z</time>
      </trkpt>
      <trkpt lat="43.45535" lon="-1.14685">
        <ele>30.6</ele>
        <time>2022-09-11T10:17:18Z</time>
      </trkpt>
      <trkpt lat="43.4556" lon="-1.14656">
        <ele>30.6</ele>
        <time>2022-09-11T10:17:26Z</time>
      </trkpt>
      <trkpt lat="43.4558" lon="-1.14632">
        <ele>30.4</ele>
        <time>2022-09-11T10:17:33Z</time>
      </trkpt>
      <trkpt lat="43.45608" lon="-1.146">
        <ele>30.8</ele>
        <time>2022-09-11T10:17:42Z</time>
      </trkpt>
      <trkpt lat="43.45639" lon="-1.14563">
        <ele>30.4</ele>
        <time>2022-09-11T10:17:51Z</time>
      </trkpt>
      <trkpt lat="43.45677" lon="-1.14518">
        <ele>30.4</ele>
        <time>2022-09-11T10:18:01Z</time>
      </trkpt>
      <trkpt lat="43.45714" lon="-1.1448">
        <ele>30</ele>
        <time>2022-09-11T10:18:10Z</time>
      </trkpt>
      <trkpt lat="43.45742" lon="-1.14455">
        <ele>30.8</ele>
        <time>2022-09-11T10:18:17Z</time>
      </trkpt>
      <trkpt lat="43.45763" lon="-1.14444">
        <ele>31</ele>
        <time>2022-09-11T10:18:22Z</time>
      </trkpt>
      <trkpt lat="43.45776" lon="-1.14439">
        <ele>31.4</ele>
        <time>2022-09-11T10:18:25Z</time>
      </trkpt>
      <trkpt lat="43.45806" lon="-1.14429">
        <ele>31.2</ele>
        <time>2022-09-11T10:18:33Z</time>
      </trkpt>
      <trkpt lat="43.45837" lon="-1.14423">
        <ele>31.2</ele>
        <time>2022-09-11T10:18:41Z</time>
      </trkpt>
      <trkpt lat="43.45846" lon="-1.14424">
        <ele>31.4</ele>
        <time>2022-09-11T10:18:43Z</time>
      </trkpt>
      <trkpt lat="43.45862" lon="-1.14425">
        <ele>31</ele>
        <time>2022-09-11T10:18:47Z</time>
      </trkpt>
      <trkpt lat="43.45895" lon="-1.14431">
        <ele>30.2</ele>
        <time>2022-09-11T10:18:55Z</time>
      </trkpt>
      <trkpt lat="43.45899" lon="-1.14432">
        <ele>30</ele>
        <time>2022-09-11T10:18:56Z</time>
      </trkpt>
      <trkpt lat="43.4593" lon="-1.14433">
        <ele>29.6</ele>
        <time>2022-09-11T10:19:03Z</time>
      </trkpt>
      <trkpt lat="43.45939" lon="-1.14431">
        <ele>29.4</ele>
        <time>2022-09-11T10:19:05Z</time>
      </trkpt>
      <trkpt lat="43.4595" lon="-1.14429">
        <ele>29.2</ele>
        <time>2022-09-11T10:19:07Z</time>
      </trkpt>
      <trkpt lat="43.45956" lon="-1.14427">
        <ele>29</ele>
        <time>2022-09-11T10:19:08Z</time>
      </trkpt>
      <trkpt lat="43.45993" lon="-1.14409">
        <ele>28.8</ele>
        <time>2022-09-11T10:19:15Z</time>
      </trkpt>
      <trkpt lat="43.46005" lon="-1.144">
        <ele>28.8</ele>
        <time>2022-09-11T10:19:18Z</time>
      </trkpt>
      <trkpt lat="43.46022" lon="-1.1439">
        <ele>28.6</ele>
        <time>2022-09-11T10:19:22Z</time>
      </trkpt>
      <trkpt lat="43.4603" lon="-1.14382">
        <ele>29</ele>
        <time>2022-09-11T10:19:26Z</time>
      </trkpt>
      <trkpt lat="43.46038" lon="-1.1438">
        <ele>29.4</ele>
        <time>2022-09-11T10:19:44Z</time>
      </trkpt>
      <trkpt lat="43.46051" lon="-1.14391">
        <ele>29.2</ele>
        <time>2022-09-11T10:19:48Z</time>
      </trkpt>
      <trkpt lat="43.46081" lon="-1.14415">
        <ele>29.8</ele>
        <time>2022-09-11T10:19:56Z</time>
      </trkpt>
      <trkpt lat="43.46093" lon="-1.14424">
        <ele>30</ele>
        <time>2022-09-11T10:19:59Z</time>
      </trkpt>
      <trkpt lat="43.46115" lon="-1.14439">
        <ele>30</ele>
        <time>2022-09-11T10:20:04Z</time>
      </trkpt>
      <trkpt lat="43.4616" lon="-1.14459">
        <ele>30.2</ele>
        <time>2022-09-11T10:20:13Z</time>
      </trkpt>
      <trkpt lat="43.46208" lon="-1.1447">
        <ele>30.4</ele>
        <time>2022-09-11T10:20:22Z</time>
      </trkpt>
      <trkpt lat="43.46251" lon="-1.1447">
        <ele>30.8</ele>
        <time>2022-09-11T10:20:30Z</time>
      </trkpt>
      <trkpt lat="43.46272" lon="-1.14468">
        <ele>31</ele>
        <time>2022-09-11T10:20:34Z</time>
      </trkpt>
      <trkpt lat="43.46282" lon="-1.14466">
        <ele>31</ele>
        <time>2022-09-11T10:20:36Z</time>
      </trkpt>
      <trkpt lat="43.46314" lon="-1.14456">
        <ele>30.8</ele>
        <time>2022-09-11T10:20:42Z</time>
      </trkpt>
      <trkpt lat="43.46354" lon="-1.14441">
        <ele>31</ele>
        <time>2022-09-11T10:20:50Z</time>
      </trkpt>
      <trkpt lat="43.46378" lon="-1.1443">
        <ele>30.8</ele>
        <time>2022-09-11T10:20:56Z</time>
      </trkpt>
      <trkpt lat="43.46378" lon="-1.14424">
        <ele>30.6</ele>
        <time>2022-09-11T10:20:59Z</time>
      </trkpt>
      <trkpt lat="43.46375" lon="-1.14419">
        <ele>30.8</ele>
        <time>2022-09-11T10:21:25Z</time>
      </trkpt>
      <trkpt lat="43.46373" lon="-1.14418">
        <ele>30.8</ele>
        <time>2022-09-11T10:21:26Z</time>
      </trkpt>
      <trkpt lat="43.46363" lon="-1.1441">
        <ele>31.4</ele>
        <time>2022-09-11T10:21:31Z</time>
      </trkpt>
      <trkpt lat="43.46358" lon="-1.14402">
        <ele>32</ele>
        <time>2022-09-11T10:21:35Z</time>
      </trkpt>
      <trkpt lat="43.46355" lon="-1.14396">
        <ele>33</ele>
        <time>2022-09-11T10:21:38Z</time>
      </trkpt>
      <trkpt lat="43.46355" lon="-1.14394">
        <ele>33.2</ele>
        <time>2022-09-11T10:21:39Z</time>
      </trkpt>
      <trkpt lat="43.46356" lon="-1.14384">
        <ele>33.8</ele>
        <time>2022-09-11T10:21:43Z</time>
      </trkpt>
      <trkpt lat="43.46356" lon="-1.14382">
        <ele>34</ele>
        <time>2022-09-11T10:21:44Z</time>
      </trkpt>
      <trkpt lat="43.46356" lon="-1.14377">
        <ele>34.4</ele>
        <time>2022-09-11T10:21:46Z</time>
      </trkpt>
      <trkpt lat="43.46356" lon="-1.14368">
        <ele>35</ele>
        <time>2022-09-11T10:21:50Z</time>
      </trkpt>
      <trkpt lat="43.46355" lon="-1.14365">
        <ele>35.6</ele>
        <time>2022-09-11T10:21:52Z</time>
      </trkpt>
      <trkpt lat="43.46355" lon="-1.14354">
        <ele>36.6</ele>
        <time>2022-09-11T10:21:57Z</time>
      </trkpt>
      <trkpt lat="43.46355" lon="-1.14352">
        <ele>36.8</ele>
        <time>2022-09-11T10:21:58Z</time>
      </trkpt>
      <trkpt lat="43.46356" lon="-1.14335">
        <ele>37.6</ele>
        <time>2022-09-11T10:22:05Z</time>
      </trkpt>
      <trkpt lat="43.46355" lon="-1.1433">
        <ele>38</ele>
        <time>2022-09-11T10:22:07Z</time>
      </trkpt>
      <trkpt lat="43.46354" lon="-1.14322">
        <ele>38.6</ele>
        <time>2022-09-11T10:22:10Z</time>
      </trkpt>
      <trkpt lat="43.46351" lon="-1.14312">
        <ele>39.2</ele>
        <time>2022-09-11T10:22:14Z</time>
      </trkpt>
      <trkpt lat="43.46348" lon="-1.143">
        <ele>39.8</ele>
        <time>2022-09-11T10:22:19Z</time>
      </trkpt>
      <trkpt lat="43.46347" lon="-1.14295">
        <ele>39.8</ele>
        <time>2022-09-11T10:22:21Z</time>
      </trkpt>
      <trkpt lat="43.46341" lon="-1.14277">
        <ele>40.8</ele>
        <time>2022-09-11T10:22:29Z</time>
      </trkpt>
      <trkpt lat="43.46335" lon="-1.14261">
        <ele>41.4</ele>
        <time>2022-09-11T10:22:37Z</time>
      </trkpt>
      <trkpt lat="43.46329" lon="-1.14249">
        <ele>41.8</ele>
        <time>2022-09-11T10:22:43Z</time>
      </trkpt>
      <trkpt lat="43.46325" lon="-1.14243">
        <ele>42.4</ele>
        <time>2022-09-11T10:22:46Z</time>
      </trkpt>
      <trkpt lat="43.46321" lon="-1.14233">
        <ele>43</ele>
        <time>2022-09-11T10:22:50Z</time>
      </trkpt>
      <trkpt lat="43.46318" lon="-1.14226">
        <ele>43.2</ele>
        <time>2022-09-11T10:22:53Z</time>
      </trkpt>
      <trkpt lat="43.46311" lon="-1.14213">
        <ele>44</ele>
        <time>2022-09-11T10:23:00Z</time>
      </trkpt>
      <trkpt lat="43.4631" lon="-1.14211">
        <ele>44.2</ele>
        <time>2022-09-11T10:23:01Z</time>
      </trkpt>
      <trkpt lat="43.46305" lon="-1.14196">
        <ele>45</ele>
        <time>2022-09-11T10:23:08Z</time>
      </trkpt>
      <trkpt lat="43.463" lon="-1.14185">
        <ele>46.2</ele>
        <time>2022-09-11T10:23:14Z</time>
      </trkpt>
      <trkpt lat="43.46299" lon="-1.14179">
        <ele>46.6</ele>
        <time>2022-09-11T10:23:17Z</time>
      </trkpt>
      <trkpt lat="43.46297" lon="-1.14174">
        <ele>47.2</ele>
        <time>2022-09-11T10:23:20Z</time>
      </trkpt>
      <trkpt lat="43.46296" lon="-1.14164">
        <ele>48.2</ele>
        <time>2022-09-11T10:23:25Z</time>
      </trkpt>
      <trkpt lat="43.46295" lon="-1.14162">
        <ele>48.4</ele>
        <time>2022-09-11T10:23:26Z</time>
      </trkpt>
      <trkpt lat="43.46292" lon="-1.14157">
        <ele>49</ele>
        <time>2022-09-11T10:23:29Z</time>
      </trkpt>
      <trkpt lat="43.46291" lon="-1.14153">
        <ele>49.4</ele>
        <time>2022-09-11T10:23:31Z</time>
      </trkpt>
      <trkpt lat="43.46291" lon="-1.14151">
        <ele>49.6</ele>
        <time>2022-09-11T10:23:32Z</time>
      </trkpt>
      <trkpt lat="43.4629" lon="-1.14143">
        <ele>50.6</ele>
        <time>2022-09-11T10:23:36Z</time>
      </trkpt>
      <trkpt lat="43.46289" lon="-1.14133">
        <ele>51.6</ele>
        <time>2022-09-11T10:23:41Z</time>
      </trkpt>
      <trkpt lat="43.46288" lon="-1.14131">
        <ele>51.8</ele>
        <time>2022-09-11T10:23:42Z</time>
      </trkpt>
      <trkpt lat="43.46287" lon="-1.14123">
        <ele>52.8</ele>
        <time>2022-09-11T10:23:47Z</time>
      </trkpt>
      <trkpt lat="43.46287" lon="-1.14118">
        <ele>53.4</ele>
        <time>2022-09-11T10:23:50Z</time>
      </trkpt>
      <trkpt lat="43.46287" lon="-1.14114">
        <ele>53.8</ele>
        <time>2022-09-11T10:23:53Z</time>
      </trkpt>
      <trkpt lat="43.46286" lon="-1.14109">
        <ele>54.4</ele>
        <time>2022-09-11T10:23:56Z</time>
      </trkpt>
      <trkpt lat="43.46287" lon="-1.14105">
        <ele>55</ele>
        <time>2022-09-11T10:23:59Z</time>
      </trkpt>
      <trkpt lat="43.46287" lon="-1.14104">
        <ele>55.2</ele>
        <time>2022-09-11T10:24:00Z</time>
      </trkpt>
      <trkpt lat="43.46288" lon="-1.141">
        <ele>55.8</ele>
        <time>2022-09-11T10:24:02Z</time>
      </trkpt>
      <trkpt lat="43.46288" lon="-1.14098">
        <ele>56</ele>
        <time>2022-09-11T10:24:03Z</time>
      </trkpt>
      <trkpt lat="43.46288" lon="-1.14089">
        <ele>57.2</ele>
        <time>2022-09-11T10:24:08Z</time>
      </trkpt>
      <trkpt lat="43.46288" lon="-1.14078">
        <ele>58.2</ele>
        <time>2022-09-11T10:24:14Z</time>
      </trkpt>
      <trkpt lat="43.46289" lon="-1.14072">
        <ele>59</ele>
        <time>2022-09-11T10:24:18Z</time>
      </trkpt>
      <trkpt lat="43.46289" lon="-1.1407">
        <ele>59.2</ele>
        <time>2022-09-11T10:24:19Z</time>
      </trkpt>
      <trkpt lat="43.46288" lon="-1.14069">
        <ele>59.4</ele>
        <time>2022-09-11T10:24:20Z</time>
      </trkpt>
      <trkpt lat="43.46288" lon="-1.14067">
        <ele>59.4</ele>
        <time>2022-09-11T10:24:21Z</time>
      </trkpt>
      <trkpt lat="43.46287" lon="-1.14066">
        <ele>59.6</ele>
        <time>2022-09-11T10:24:22Z</time>
      </trkpt>
      <trkpt lat="43.46289" lon="-1.1406">
        <ele>60.4</ele>
        <time>2022-09-11T10:24:26Z</time>
      </trkpt>
      <trkpt lat="43.46289" lon="-1.14058">
        <ele>60.6</ele>
        <time>2022-09-11T10:24:27Z</time>
      </trkpt>
      <trkpt lat="43.46287" lon="-1.14051">
        <ele>61.4</ele>
        <time>2022-09-11T10:24:32Z</time>
      </trkpt>
      <trkpt lat="43.46287" lon="-1.1405">
        <ele>61.6</ele>
        <time>2022-09-11T10:24:33Z</time>
      </trkpt>
      <trkpt lat="43.46288" lon="-1.14044">
        <ele>62.2</ele>
        <time>2022-09-11T10:24:37Z</time>
      </trkpt>
      <trkpt lat="43.46287" lon="-1.14038">
        <ele>62.8</ele>
        <time>2022-09-11T10:24:40Z</time>
      </trkpt>
      <trkpt lat="43.46288" lon="-1.14033">
        <ele>63.2</ele>
        <time>2022-09-11T10:24:43Z</time>
      </trkpt>
      <trkpt lat="43.46289" lon="-1.14029">
        <ele>63.6</ele>
        <time>2022-09-11T10:24:45Z</time>
      </trkpt>
      <trkpt lat="43.46288" lon="-1.14027">
        <ele>63.8</ele>
        <time>2022-09-11T10:24:46Z</time>
      </trkpt>
      <trkpt lat="43.46288" lon="-1.14024">
        <ele>64</ele>
        <time>2022-09-11T10:24:48Z</time>
      </trkpt>
      <trkpt lat="43.46289" lon="-1.1402">
        <ele>64.4</ele>
        <time>2022-09-11T10:24:50Z</time>
      </trkpt>
      <trkpt lat="43.46289" lon="-1.14016">
        <ele>64.8</ele>
        <time>2022-09-11T10:24:52Z</time>
      </trkpt>
      <trkpt lat="43.46289" lon="-1.14011">
        <ele>65.2</ele>
        <time>2022-09-11T10:24:55Z</time>
      </trkpt>
      <trkpt lat="43.46291" lon="-1.14005">
        <ele>65.6</ele>
        <time>2022-09-11T10:24:58Z</time>
      </trkpt>
      <trkpt lat="43.46292" lon="-1.14001">
        <ele>65.8</ele>
        <time>2022-09-11T10:25:00Z</time>
      </trkpt>
      <trkpt lat="43.46291" lon="-1.13987">
        <ele>66.4</ele>
        <time>2022-09-11T10:25:06Z</time>
      </trkpt>
      <trkpt lat="43.46286" lon="-1.13971">
        <ele>67</ele>
        <time>2022-09-11T10:25:13Z</time>
      </trkpt>
      <trkpt lat="43.4628" lon="-1.13947">
        <ele>67</ele>
        <time>2022-09-11T10:25:21Z</time>
      </trkpt>
      <trkpt lat="43.46274" lon="-1.13919">
        <ele>67.2</ele>
        <time>2022-09-11T10:25:29Z</time>
      </trkpt>
      <trkpt lat="43.46268" lon="-1.13892">
        <ele>67.2</ele>
        <time>2022-09-11T10:25:36Z</time>
      </trkpt>
      <trkpt lat="43.4626" lon="-1.13855">
        <ele>67.8</ele>
        <time>2022-09-11T10:25:46Z</time>
      </trkpt>
      <trkpt lat="43.46258" lon="-1.13847">
        <ele>68</ele>
        <time>2022-09-11T10:25:48Z</time>
      </trkpt>
      <trkpt lat="43.46252" lon="-1.1382">
        <ele>68.6</ele>
        <time>2022-09-11T10:25:54Z</time>
      </trkpt>
      <trkpt lat="43.46244" lon="-1.1378">
        <ele>69</ele>
        <time>2022-09-11T10:26:03Z</time>
      </trkpt>
      <trkpt lat="43.46243" lon="-1.13776">
        <ele>69</ele>
        <time>2022-09-11T10:26:04Z</time>
      </trkpt>
      <trkpt lat="43.46239" lon="-1.13753">
        <ele>69.6</ele>
        <time>2022-09-11T10:26:10Z</time>
      </trkpt>
      <trkpt lat="43.46235" lon="-1.13743">
        <ele>70.2</ele>
        <time>2022-09-11T10:26:13Z</time>
      </trkpt>
      <trkpt lat="43.46229" lon="-1.13736">
        <ele>70.4</ele>
        <time>2022-09-11T10:26:16Z</time>
      </trkpt>
      <trkpt lat="43.46215" lon="-1.13733">
        <ele>71</ele>
        <time>2022-09-11T10:26:22Z</time>
      </trkpt>
      <trkpt lat="43.46194" lon="-1.13733">
        <ele>70.6</ele>
        <time>2022-09-11T10:26:30Z</time>
      </trkpt>
      <trkpt lat="43.46171" lon="-1.13725">
        <ele>71.2</ele>
        <time>2022-09-11T10:26:38Z</time>
      </trkpt>
      <trkpt lat="43.46169" lon="-1.13724">
        <ele>71.2</ele>
        <time>2022-09-11T10:26:39Z</time>
      </trkpt>
      <trkpt lat="43.46157" lon="-1.13719">
        <ele>72.4</ele>
        <time>2022-09-11T10:26:45Z</time>
      </trkpt>
      <trkpt lat="43.46156" lon="-1.13719">
        <ele>72.6</ele>
        <time>2022-09-11T10:26:46Z</time>
      </trkpt>
      <trkpt lat="43.46151" lon="-1.13716">
        <ele>73.4</ele>
        <time>2022-09-11T10:26:49Z</time>
      </trkpt>
      <trkpt lat="43.46147" lon="-1.13714">
        <ele>74.6</ele>
        <time>2022-09-11T10:26:52Z</time>
      </trkpt>
      <trkpt lat="43.46141" lon="-1.13712">
        <ele>75.6</ele>
        <time>2022-09-11T10:26:56Z</time>
      </trkpt>
      <trkpt lat="43.46135" lon="-1.13708">
        <ele>76.6</ele>
        <time>2022-09-11T10:27:00Z</time>
      </trkpt>
      <trkpt lat="43.46129" lon="-1.13704">
        <ele>78</ele>
        <time>2022-09-11T10:27:04Z</time>
      </trkpt>
      <trkpt lat="43.46126" lon="-1.13702">
        <ele>78.4</ele>
        <time>2022-09-11T10:27:06Z</time>
      </trkpt>
      <trkpt lat="43.46123" lon="-1.13698">
        <ele>79</ele>
        <time>2022-09-11T10:27:09Z</time>
      </trkpt>
      <trkpt lat="43.46117" lon="-1.13692">
        <ele>80.2</ele>
        <time>2022-09-11T10:27:14Z</time>
      </trkpt>
      <trkpt lat="43.46115" lon="-1.13689">
        <ele>80.8</ele>
        <time>2022-09-11T10:27:16Z</time>
      </trkpt>
      <trkpt lat="43.46112" lon="-1.13684">
        <ele>81.4</ele>
        <time>2022-09-11T10:27:20Z</time>
      </trkpt>
      <trkpt lat="43.46111" lon="-1.13683">
        <ele>81.6</ele>
        <time>2022-09-11T10:27:21Z</time>
      </trkpt>
      <trkpt lat="43.46106" lon="-1.13672">
        <ele>82.4</ele>
        <time>2022-09-11T10:27:27Z</time>
      </trkpt>
      <trkpt lat="43.46106" lon="-1.1367">
        <ele>82.6</ele>
        <time>2022-09-11T10:27:28Z</time>
      </trkpt>
      <trkpt lat="43.46103" lon="-1.13667">
        <ele>83</ele>
        <time>2022-09-11T10:27:30Z</time>
      </trkpt>
      <trkpt lat="43.46101" lon="-1.13662">
        <ele>83.4</ele>
        <time>2022-09-11T10:27:33Z</time>
      </trkpt>
      <trkpt lat="43.46101" lon="-1.1366">
        <ele>83.6</ele>
        <time>2022-09-11T10:27:34Z</time>
      </trkpt>
      <trkpt lat="43.461" lon="-1.13657">
        <ele>83.8</ele>
        <time>2022-09-11T10:27:36Z</time>
      </trkpt>
      <trkpt lat="43.46098" lon="-1.13651">
        <ele>84.4</ele>
        <time>2022-09-11T10:27:39Z</time>
      </trkpt>
      <trkpt lat="43.46096" lon="-1.13647">
        <ele>84.8</ele>
        <time>2022-09-11T10:27:41Z</time>
      </trkpt>
      <trkpt lat="43.46092" lon="-1.1364">
        <ele>85.4</ele>
        <time>2022-09-11T10:27:45Z</time>
      </trkpt>
      <trkpt lat="43.46091" lon="-1.13631">
        <ele>85.8</ele>
        <time>2022-09-11T10:27:49Z</time>
      </trkpt>
      <trkpt lat="43.46089" lon="-1.13627">
        <ele>86</ele>
        <time>2022-09-11T10:27:51Z</time>
      </trkpt>
      <trkpt lat="43.46084" lon="-1.13618">
        <ele>86.6</ele>
        <time>2022-09-11T10:27:56Z</time>
      </trkpt>
      <trkpt lat="43.46083" lon="-1.13613">
        <ele>87</ele>
        <time>2022-09-11T10:27:58Z</time>
      </trkpt>
      <trkpt lat="43.46076" lon="-1.13599">
        <ele>87.8</ele>
        <time>2022-09-11T10:28:05Z</time>
      </trkpt>
      <trkpt lat="43.46075" lon="-1.13593">
        <ele>88</ele>
        <time>2022-09-11T10:28:07Z</time>
      </trkpt>
      <trkpt lat="43.46073" lon="-1.13583">
        <ele>88.4</ele>
        <time>2022-09-11T10:28:11Z</time>
      </trkpt>
      <trkpt lat="43.46068" lon="-1.13568">
        <ele>89</ele>
        <time>2022-09-11T10:28:17Z</time>
      </trkpt>
      <trkpt lat="43.46066" lon="-1.13563">
        <ele>89.2</ele>
        <time>2022-09-11T10:28:19Z</time>
      </trkpt>
      <trkpt lat="43.4606" lon="-1.13544">
        <ele>89.6</ele>
        <time>2022-09-11T10:28:26Z</time>
      </trkpt>
      <trkpt lat="43.46055" lon="-1.13527">
        <ele>90</ele>
        <time>2022-09-11T10:28:32Z</time>
      </trkpt>
      <trkpt lat="43.46054" lon="-1.13521">
        <ele>90.2</ele>
        <time>2022-09-11T10:28:34Z</time>
      </trkpt>
      <trkpt lat="43.46048" lon="-1.13499">
        <ele>90.4</ele>
        <time>2022-09-11T10:28:41Z</time>
      </trkpt>
      <trkpt lat="43.46039" lon="-1.13469">
        <ele>91.2</ele>
        <time>2022-09-11T10:28:50Z</time>
      </trkpt>
      <trkpt lat="43.4603" lon="-1.13439">
        <ele>91.8</ele>
        <time>2022-09-11T10:28:59Z</time>
      </trkpt>
      <trkpt lat="43.46027" lon="-1.13427">
        <ele>92.2</ele>
        <time>2022-09-11T10:29:03Z</time>
      </trkpt>
      <trkpt lat="43.46024" lon="-1.13417">
        <ele>92.4</ele>
        <time>2022-09-11T10:29:06Z</time>
      </trkpt>
      <trkpt lat="43.46019" lon="-1.13397">
        <ele>92.8</ele>
        <time>2022-09-11T10:29:12Z</time>
      </trkpt>
      <trkpt lat="43.46015" lon="-1.13372">
        <ele>92.6</ele>
        <time>2022-09-11T10:29:20Z</time>
      </trkpt>
      <trkpt lat="43.4601" lon="-1.13339">
        <ele>92.2</ele>
        <time>2022-09-11T10:29:28Z</time>
      </trkpt>
      <trkpt lat="43.46003" lon="-1.13309">
        <ele>92</ele>
        <time>2022-09-11T10:29:34Z</time>
      </trkpt>
      <trkpt lat="43.46001" lon="-1.13304">
        <ele>91.8</ele>
        <time>2022-09-11T10:29:35Z</time>
      </trkpt>
      <trkpt lat="43.45987" lon="-1.13269">
        <ele>91.4</ele>
        <time>2022-09-11T10:29:42Z</time>
      </trkpt>
      <trkpt lat="43.45976" lon="-1.13239">
        <ele>91.2</ele>
        <time>2022-09-11T10:29:47Z</time>
      </trkpt>
      <trkpt lat="43.4597" lon="-1.13223">
        <ele>91.4</ele>
        <time>2022-09-11T10:29:50Z</time>
      </trkpt>
      <trkpt lat="43.45958" lon="-1.13183">
        <ele>92.2</ele>
        <time>2022-09-11T10:29:58Z</time>
      </trkpt>
      <trkpt lat="43.45957" lon="-1.13179">
        <ele>92.4</ele>
        <time>2022-09-11T10:29:59Z</time>
      </trkpt>
      <trkpt lat="43.45955" lon="-1.13151">
        <ele>93.4</ele>
        <time>2022-09-11T10:30:05Z</time>
      </trkpt>
      <trkpt lat="43.45955" lon="-1.13142">
        <ele>93.8</ele>
        <time>2022-09-11T10:30:07Z</time>
      </trkpt>
      <trkpt lat="43.45957" lon="-1.1312">
        <ele>94.4</ele>
        <time>2022-09-11T10:30:12Z</time>
      </trkpt>
      <trkpt lat="43.45959" lon="-1.131">
        <ele>95.2</ele>
        <time>2022-09-11T10:30:17Z</time>
      </trkpt>
      <trkpt lat="43.45961" lon="-1.13089">
        <ele>95.4</ele>
        <time>2022-09-11T10:30:20Z</time>
      </trkpt>
      <trkpt lat="43.45963" lon="-1.13066">
        <ele>96.2</ele>
        <time>2022-09-11T10:30:26Z</time>
      </trkpt>
      <trkpt lat="43.45965" lon="-1.13059">
        <ele>96.4</ele>
        <time>2022-09-11T10:30:28Z</time>
      </trkpt>
      <trkpt lat="43.4597" lon="-1.13048">
        <ele>96.4</ele>
        <time>2022-09-11T10:30:32Z</time>
      </trkpt>
      <trkpt lat="43.45973" lon="-1.13046">
        <ele>96.4</ele>
        <time>2022-09-11T10:30:33Z</time>
      </trkpt>
      <trkpt lat="43.45985" lon="-1.13047">
        <ele>96.8</ele>
        <time>2022-09-11T10:30:38Z</time>
      </trkpt>
      <trkpt lat="43.45992" lon="-1.13049">
        <ele>97.2</ele>
        <time>2022-09-11T10:30:41Z</time>
      </trkpt>
      <trkpt lat="43.45995" lon="-1.13051">
        <ele>97.6</ele>
        <time>2022-09-11T10:30:43Z</time>
      </trkpt>
      <trkpt lat="43.45998" lon="-1.13052">
        <ele>98</ele>
        <time>2022-09-11T10:30:45Z</time>
      </trkpt>
      <trkpt lat="43.46002" lon="-1.13052">
        <ele>98.8</ele>
        <time>2022-09-11T10:30:48Z</time>
      </trkpt>
      <trkpt lat="43.46006" lon="-1.13049">
        <ele>99.6</ele>
        <time>2022-09-11T10:30:51Z</time>
      </trkpt>
      <trkpt lat="43.46007" lon="-1.13049">
        <ele>99.8</ele>
        <time>2022-09-11T10:30:52Z</time>
      </trkpt>
      <trkpt lat="43.46009" lon="-1.1305">
        <ele>100</ele>
        <time>2022-09-11T10:30:53Z</time>
      </trkpt>
      <trkpt lat="43.46012" lon="-1.13051">
        <ele>100.6</ele>
        <time>2022-09-11T10:30:56Z</time>
      </trkpt>
      <trkpt lat="43.46016" lon="-1.13049">
        <ele>101</ele>
        <time>2022-09-11T10:30:59Z</time>
      </trkpt>
      <trkpt lat="43.46018" lon="-1.1305">
        <ele>101.4</ele>
        <time>2022-09-11T10:31:01Z</time>
      </trkpt>
      <trkpt lat="43.46021" lon="-1.13051">
        <ele>101.8</ele>
        <time>2022-09-11T10:31:03Z</time>
      </trkpt>
      <trkpt lat="43.46022" lon="-1.1305">
        <ele>102</ele>
        <time>2022-09-11T10:31:04Z</time>
      </trkpt>
      <trkpt lat="43.46024" lon="-1.13048">
        <ele>102.2</ele>
        <time>2022-09-11T10:31:06Z</time>
      </trkpt>
      <trkpt lat="43.46029" lon="-1.13051">
        <ele>103</ele>
        <time>2022-09-11T10:31:10Z</time>
      </trkpt>
      <trkpt lat="43.4603" lon="-1.1305">
        <ele>103</ele>
        <time>2022-09-11T10:31:11Z</time>
      </trkpt>
      <trkpt lat="43.46035" lon="-1.13048">
        <ele>104</ele>
        <time>2022-09-11T10:31:15Z</time>
      </trkpt>
      <trkpt lat="43.46041" lon="-1.13049">
        <ele>104.8</ele>
        <time>2022-09-11T10:31:19Z</time>
      </trkpt>
      <trkpt lat="43.46045" lon="-1.1305">
        <ele>105.2</ele>
        <time>2022-09-11T10:31:22Z</time>
      </trkpt>
      <trkpt lat="43.46047" lon="-1.13048">
        <ele>105.4</ele>
        <time>2022-09-11T10:31:24Z</time>
      </trkpt>
      <trkpt lat="43.46048" lon="-1.13047">
        <ele>105.6</ele>
        <time>2022-09-11T10:31:25Z</time>
      </trkpt>
      <trkpt lat="43.46053" lon="-1.13046">
        <ele>106.2</ele>
        <time>2022-09-11T10:31:29Z</time>
      </trkpt>
      <trkpt lat="43.46055" lon="-1.13047">
        <ele>106.4</ele>
        <time>2022-09-11T10:31:31Z</time>
      </trkpt>
      <trkpt lat="43.4606" lon="-1.13045">
        <ele>107.2</ele>
        <time>2022-09-11T10:31:35Z</time>
      </trkpt>
      <trkpt lat="43.46061" lon="-1.13045">
        <ele>107.4</ele>
        <time>2022-09-11T10:31:36Z</time>
      </trkpt>
      <trkpt lat="43.46066" lon="-1.13044">
        <ele>108.2</ele>
        <time>2022-09-11T10:31:41Z</time>
      </trkpt>
      <trkpt lat="43.46067" lon="-1.13044">
        <ele>108.6</ele>
        <time>2022-09-11T10:31:42Z</time>
      </trkpt>
      <trkpt lat="43.46069" lon="-1.13044">
        <ele>108.8</ele>
        <time>2022-09-11T10:31:44Z</time>
      </trkpt>
      <trkpt lat="43.46072" lon="-1.13043">
        <ele>109.2</ele>
        <time>2022-09-11T10:31:47Z</time>
      </trkpt>
      <trkpt lat="43.46073" lon="-1.13043">
        <ele>109.4</ele>
        <time>2022-09-11T10:31:48Z</time>
      </trkpt>
      <trkpt lat="43.46092" lon="-1.13043">
        <ele>111.4</ele>
        <time>2022-09-11T10:32:03Z</time>
      </trkpt>
      <trkpt lat="43.46095" lon="-1.13043">
        <ele>111.6</ele>
        <time>2022-09-11T10:32:05Z</time>
      </trkpt>
      <trkpt lat="43.46106" lon="-1.13043">
        <ele>112.4</ele>
        <time>2022-09-11T10:32:12Z</time>
      </trkpt>
      <trkpt lat="43.46109" lon="-1.13043">
        <ele>112.6</ele>
        <time>2022-09-11T10:32:14Z</time>
      </trkpt>
      <trkpt lat="43.46116" lon="-1.13044">
        <ele>112.8</ele>
        <time>2022-09-11T10:32:18Z</time>
      </trkpt>
      <trkpt lat="43.46131" lon="-1.13044">
        <ele>113.4</ele>
        <time>2022-09-11T10:32:26Z</time>
      </trkpt>
      <trkpt lat="43.46133" lon="-1.13043">
        <ele>113.6</ele>
        <time>2022-09-11T10:32:27Z</time>
      </trkpt>
      <trkpt lat="43.46145" lon="-1.13038">
        <ele>114.2</ele>
        <time>2022-09-11T10:32:33Z</time>
      </trkpt>
      <trkpt lat="43.46165" lon="-1.13033">
        <ele>114</ele>
        <time>2022-09-11T10:32:40Z</time>
      </trkpt>
      <trkpt lat="43.46187" lon="-1.13027">
        <ele>112.8</ele>
        <time>2022-09-11T10:32:44Z</time>
      </trkpt>
      <trkpt lat="43.46203" lon="-1.13026">
        <ele>112.6</ele>
        <time>2022-09-11T10:32:47Z</time>
      </trkpt>
      <trkpt lat="43.46217" lon="-1.13025">
        <ele>112.8</ele>
        <time>2022-09-11T10:32:50Z</time>
      </trkpt>
      <trkpt lat="43.46232" lon="-1.13024">
        <ele>113.6</ele>
        <time>2022-09-11T10:32:54Z</time>
      </trkpt>
      <trkpt lat="43.46235" lon="-1.13024">
        <ele>113.6</ele>
        <time>2022-09-11T10:32:55Z</time>
      </trkpt>
      <trkpt lat="43.46268" lon="-1.13024">
        <ele>113.6</ele>
        <time>2022-09-11T10:33:04Z</time>
      </trkpt>
      <trkpt lat="43.46299" lon="-1.13022">
        <ele>113.6</ele>
        <time>2022-09-11T10:33:12Z</time>
      </trkpt>
      <trkpt lat="43.46331" lon="-1.13021">
        <ele>114</ele>
        <time>2022-09-11T10:33:20Z</time>
      </trkpt>
      <trkpt lat="43.46353" lon="-1.13017">
        <ele>114.2</ele>
        <time>2022-09-11T10:33:26Z</time>
      </trkpt>
      <trkpt lat="43.46364" lon="-1.13015">
        <ele>114.6</ele>
        <time>2022-09-11T10:33:29Z</time>
      </trkpt>
      <trkpt lat="43.46382" lon="-1.1301">
        <ele>115</ele>
        <time>2022-09-11T10:33:34Z</time>
      </trkpt>
      <trkpt lat="43.46398" lon="-1.13004">
        <ele>115.8</ele>
        <time>2022-09-11T10:33:39Z</time>
      </trkpt>
      <trkpt lat="43.46404" lon="-1.13003">
        <ele>115.8</ele>
        <time>2022-09-11T10:33:41Z</time>
      </trkpt>
      <trkpt lat="43.46425" lon="-1.13">
        <ele>116.4</ele>
        <time>2022-09-11T10:33:47Z</time>
      </trkpt>
      <trkpt lat="43.46441" lon="-1.13001">
        <ele>116.8</ele>
        <time>2022-09-11T10:33:52Z</time>
      </trkpt>
      <trkpt lat="43.46445" lon="-1.13001">
        <ele>117</ele>
        <time>2022-09-11T10:33:53Z</time>
      </trkpt>
      <trkpt lat="43.46463" lon="-1.13002">
        <ele>117.4</ele>
        <time>2022-09-11T10:33:59Z</time>
      </trkpt>
      <trkpt lat="43.46487" lon="-1.13008">
        <ele>117.8</ele>
        <time>2022-09-11T10:34:07Z</time>
      </trkpt>
      <trkpt lat="43.46502" lon="-1.13011">
        <ele>117.4</ele>
        <time>2022-09-11T10:34:11Z</time>
      </trkpt>
      <trkpt lat="43.46506" lon="-1.13013">
        <ele>117.4</ele>
        <time>2022-09-11T10:34:12Z</time>
      </trkpt>
      <trkpt lat="43.46529" lon="-1.13023">
        <ele>117</ele>
        <time>2022-09-11T10:34:18Z</time>
      </trkpt>
      <trkpt lat="43.46536" lon="-1.13024">
        <ele>116.6</ele>
        <time>2022-09-11T10:34:22Z</time>
      </trkpt>
      <trkpt lat="43.46543" lon="-1.13025">
        <ele>116.2</ele>
        <time>2022-09-11T10:35:48Z</time>
      </trkpt>
      <trkpt lat="43.46546" lon="-1.13026">
        <ele>116.4</ele>
        <time>2022-09-11T10:35:49Z</time>
      </trkpt>
      <trkpt lat="43.46565" lon="-1.13026">
        <ele>115.8</ele>
        <time>2022-09-11T10:35:54Z</time>
      </trkpt>
      <trkpt lat="43.46601" lon="-1.13019">
        <ele>115</ele>
        <time>2022-09-11T10:36:01Z</time>
      </trkpt>
      <trkpt lat="43.46607" lon="-1.13018">
        <ele>114.8</ele>
        <time>2022-09-11T10:36:02Z</time>
      </trkpt>
      <trkpt lat="43.46627" lon="-1.13011">
        <ele>113.8</ele>
        <time>2022-09-11T10:36:05Z</time>
      </trkpt>
      <trkpt lat="43.46639" lon="-1.13006">
        <ele>112.8</ele>
        <time>2022-09-11T10:36:07Z</time>
      </trkpt>
      <trkpt lat="43.46645" lon="-1.13004">
        <ele>112.2</ele>
        <time>2022-09-11T10:36:08Z</time>
      </trkpt>
      <trkpt lat="43.46652" lon="-1.13">
        <ele>111.8</ele>
        <time>2022-09-11T10:36:09Z</time>
      </trkpt>
      <trkpt lat="43.46672" lon="-1.12989">
        <ele>110.8</ele>
        <time>2022-09-11T10:36:12Z</time>
      </trkpt>
      <trkpt lat="43.46688" lon="-1.12979">
        <ele>109.6</ele>
        <time>2022-09-11T10:36:14Z</time>
      </trkpt>
      <trkpt lat="43.46704" lon="-1.12968">
        <ele>108.2</ele>
        <time>2022-09-11T10:36:16Z</time>
      </trkpt>
      <trkpt lat="43.46711" lon="-1.12962">
        <ele>107.2</ele>
        <time>2022-09-11T10:36:17Z</time>
      </trkpt>
      <trkpt lat="43.46718" lon="-1.12956">
        <ele>106</ele>
        <time>2022-09-11T10:36:18Z</time>
      </trkpt>
      <trkpt lat="43.46732" lon="-1.12947">
        <ele>104.6</ele>
        <time>2022-09-11T10:36:20Z</time>
      </trkpt>
      <trkpt lat="43.46747" lon="-1.12945">
        <ele>104.6</ele>
        <time>2022-09-11T10:36:22Z</time>
      </trkpt>
      <trkpt lat="43.46762" lon="-1.12949">
        <ele>103.6</ele>
        <time>2022-09-11T10:36:24Z</time>
      </trkpt>
      <trkpt lat="43.46769" lon="-1.12951">
        <ele>103.2</ele>
        <time>2022-09-11T10:36:25Z</time>
      </trkpt>
      <trkpt lat="43.46776" lon="-1.12954">
        <ele>103</ele>
        <time>2022-09-11T10:36:26Z</time>
      </trkpt>
      <trkpt lat="43.46796" lon="-1.12959">
        <ele>103.6</ele>
        <time>2022-09-11T10:36:29Z</time>
      </trkpt>
      <trkpt lat="43.46807" lon="-1.12958">
        <ele>104</ele>
        <time>2022-09-11T10:36:31Z</time>
      </trkpt>
      <trkpt lat="43.46816" lon="-1.12955">
        <ele>104.6</ele>
        <time>2022-09-11T10:36:33Z</time>
      </trkpt>
      <trkpt lat="43.46827" lon="-1.12951">
        <ele>105.2</ele>
        <time>2022-09-11T10:36:36Z</time>
      </trkpt>
      <trkpt lat="43.46854" lon="-1.12941">
        <ele>104.4</ele>
        <time>2022-09-11T10:36:42Z</time>
      </trkpt>
      <trkpt lat="43.46866" lon="-1.12936">
        <ele>103.6</ele>
        <time>2022-09-11T10:36:44Z</time>
      </trkpt>
      <trkpt lat="43.46887" lon="-1.12925">
        <ele>102.4</ele>
        <time>2022-09-11T10:36:47Z</time>
      </trkpt>
      <trkpt lat="43.46894" lon="-1.12922">
        <ele>101.2</ele>
        <time>2022-09-11T10:36:48Z</time>
      </trkpt>
      <trkpt lat="43.46901" lon="-1.12919">
        <ele>100.2</ele>
        <time>2022-09-11T10:36:49Z</time>
      </trkpt>
      <trkpt lat="43.46914" lon="-1.12912">
        <ele>98.4</ele>
        <time>2022-09-11T10:36:51Z</time>
      </trkpt>
      <trkpt lat="43.4692" lon="-1.12909">
        <ele>96.6</ele>
        <time>2022-09-11T10:36:52Z</time>
      </trkpt>
      <trkpt lat="43.46926" lon="-1.12907">
        <ele>96</ele>
        <time>2022-09-11T10:36:53Z</time>
      </trkpt>
      <trkpt lat="43.46931" lon="-1.12904">
        <ele>95.4</ele>
        <time>2022-09-11T10:36:54Z</time>
      </trkpt>
      <trkpt lat="43.46942" lon="-1.12899">
        <ele>94.2</ele>
        <time>2022-09-11T10:36:56Z</time>
      </trkpt>
      <trkpt lat="43.46955" lon="-1.12893">
        <ele>92.2</ele>
        <time>2022-09-11T10:36:58Z</time>
      </trkpt>
      <trkpt lat="43.46961" lon="-1.1289">
        <ele>91.2</ele>
        <time>2022-09-11T10:36:59Z</time>
      </trkpt>
      <trkpt lat="43.46967" lon="-1.12886">
        <ele>90</ele>
        <time>2022-09-11T10:37:00Z</time>
      </trkpt>
      <trkpt lat="43.46973" lon="-1.12883">
        <ele>89</ele>
        <time>2022-09-11T10:37:01Z</time>
      </trkpt>
      <trkpt lat="43.46979" lon="-1.12879">
        <ele>87.8</ele>
        <time>2022-09-11T10:37:02Z</time>
      </trkpt>
      <trkpt lat="43.46991" lon="-1.12869">
        <ele>86</ele>
        <time>2022-09-11T10:37:04Z</time>
      </trkpt>
      <trkpt lat="43.46996" lon="-1.12862">
        <ele>85</ele>
        <time>2022-09-11T10:37:05Z</time>
      </trkpt>
      <trkpt lat="43.47003" lon="-1.12847">
        <ele>83.4</ele>
        <time>2022-09-11T10:37:07Z</time>
      </trkpt>
      <trkpt lat="43.47007" lon="-1.12838">
        <ele>82.8</ele>
        <time>2022-09-11T10:37:08Z</time>
      </trkpt>
      <trkpt lat="43.47011" lon="-1.12828">
        <ele>81.6</ele>
        <time>2022-09-11T10:37:09Z</time>
      </trkpt>
      <trkpt lat="43.4702" lon="-1.12808">
        <ele>79.8</ele>
        <time>2022-09-11T10:37:11Z</time>
      </trkpt>
      <trkpt lat="43.47029" lon="-1.12789">
        <ele>78</ele>
        <time>2022-09-11T10:37:13Z</time>
      </trkpt>
      <trkpt lat="43.47033" lon="-1.12779">
        <ele>76.6</ele>
        <time>2022-09-11T10:37:14Z</time>
      </trkpt>
      <trkpt lat="43.47038" lon="-1.1277">
        <ele>75.4</ele>
        <time>2022-09-11T10:37:15Z</time>
      </trkpt>
      <trkpt lat="43.47042" lon="-1.12762">
        <ele>73.2</ele>
        <time>2022-09-11T10:37:16Z</time>
      </trkpt>
      <trkpt lat="43.47045" lon="-1.12754">
        <ele>72.2</ele>
        <time>2022-09-11T10:37:17Z</time>
      </trkpt>
      <trkpt lat="43.47048" lon="-1.12746">
        <ele>71.2</ele>
        <time>2022-09-11T10:37:18Z</time>
      </trkpt>
      <trkpt lat="43.47049" lon="-1.12738">
        <ele>70.2</ele>
        <time>2022-09-11T10:37:19Z</time>
      </trkpt>
      <trkpt lat="43.47051" lon="-1.1273">
        <ele>69.4</ele>
        <time>2022-09-11T10:37:20Z</time>
      </trkpt>
      <trkpt lat="43.47054" lon="-1.12723">
        <ele>69</ele>
        <time>2022-09-11T10:37:21Z</time>
      </trkpt>
      <trkpt lat="43.47063" lon="-1.1272">
        <ele>68.4</ele>
        <time>2022-09-11T10:37:23Z</time>
      </trkpt>
      <trkpt lat="43.47067" lon="-1.12721">
        <ele>68.2</ele>
        <time>2022-09-11T10:37:24Z</time>
      </trkpt>
      <trkpt lat="43.47078" lon="-1.12726">
        <ele>68.6</ele>
        <time>2022-09-11T10:37:27Z</time>
      </trkpt>
      <trkpt lat="43.47089" lon="-1.12727">
        <ele>69.6</ele>
        <time>2022-09-11T10:37:30Z</time>
      </trkpt>
      <trkpt lat="43.47095" lon="-1.12727">
        <ele>70.2</ele>
        <time>2022-09-11T10:37:32Z</time>
      </trkpt>
      <trkpt lat="43.47101" lon="-1.12727">
        <ele>70.8</ele>
        <time>2022-09-11T10:37:34Z</time>
      </trkpt>
      <trkpt lat="43.47105" lon="-1.12726">
        <ele>71.4</ele>
        <time>2022-09-11T10:37:37Z</time>
      </trkpt>
      <trkpt lat="43.47108" lon="-1.12726">
        <ele>72</ele>
        <time>2022-09-11T10:37:39Z</time>
      </trkpt>
      <trkpt lat="43.47115" lon="-1.12725">
        <ele>73.2</ele>
        <time>2022-09-11T10:37:43Z</time>
      </trkpt>
      <trkpt lat="43.47126" lon="-1.1272">
        <ele>74.4</ele>
        <time>2022-09-11T10:37:50Z</time>
      </trkpt>
      <trkpt lat="43.47127" lon="-1.12719">
        <ele>74.6</ele>
        <time>2022-09-11T10:37:51Z</time>
      </trkpt>
      <trkpt lat="43.47135" lon="-1.12714">
        <ele>75.6</ele>
        <time>2022-09-11T10:37:56Z</time>
      </trkpt>
      <trkpt lat="43.47138" lon="-1.12712">
        <ele>76.2</ele>
        <time>2022-09-11T10:37:58Z</time>
      </trkpt>
      <trkpt lat="43.47142" lon="-1.12709">
        <ele>76.6</ele>
        <time>2022-09-11T10:38:01Z</time>
      </trkpt>
      <trkpt lat="43.47149" lon="-1.12706">
        <ele>77.8</ele>
        <time>2022-09-11T10:38:05Z</time>
      </trkpt>
      <trkpt lat="43.47156" lon="-1.12702">
        <ele>78.2</ele>
        <time>2022-09-11T10:38:09Z</time>
      </trkpt>
      <trkpt lat="43.47159" lon="-1.127">
        <ele>78.2</ele>
        <time>2022-09-11T10:38:11Z</time>
      </trkpt>
      <trkpt lat="43.47169" lon="-1.12701">
        <ele>77.8</ele>
        <time>2022-09-11T10:38:15Z</time>
      </trkpt>
      <trkpt lat="43.47174" lon="-1.12703">
        <ele>77.6</ele>
        <time>2022-09-11T10:38:16Z</time>
      </trkpt>
      <trkpt lat="43.47184" lon="-1.12709">
        <ele>77.2</ele>
        <time>2022-09-11T10:38:18Z</time>
      </trkpt>
      <trkpt lat="43.4719" lon="-1.12713">
        <ele>76.6</ele>
        <time>2022-09-11T10:38:19Z</time>
      </trkpt>
      <trkpt lat="43.47206" lon="-1.12724">
        <ele>75</ele>
        <time>2022-09-11T10:38:21Z</time>
      </trkpt>
      <trkpt lat="43.47223" lon="-1.12734">
        <ele>73.8</ele>
        <time>2022-09-11T10:38:23Z</time>
      </trkpt>
      <trkpt lat="43.47249" lon="-1.12753">
        <ele>72.6</ele>
        <time>2022-09-11T10:38:26Z</time>
      </trkpt>
      <trkpt lat="43.47265" lon="-1.12768">
        <ele>71.8</ele>
        <time>2022-09-11T10:38:28Z</time>
      </trkpt>
      <trkpt lat="43.47277" lon="-1.12785">
        <ele>71.6</ele>
        <time>2022-09-11T10:38:30Z</time>
      </trkpt>
      <trkpt lat="43.4731" lon="-1.12838">
        <ele>70.6</ele>
        <time>2022-09-11T10:38:36Z</time>
      </trkpt>
      <trkpt lat="43.47316" lon="-1.12848">
        <ele>70.2</ele>
        <time>2022-09-11T10:38:37Z</time>
      </trkpt>
      <trkpt lat="43.47338" lon="-1.12888">
        <ele>68.6</ele>
        <time>2022-09-11T10:38:41Z</time>
      </trkpt>
      <trkpt lat="43.47349" lon="-1.12908">
        <ele>68</ele>
        <time>2022-09-11T10:38:43Z</time>
      </trkpt>
      <trkpt lat="43.47376" lon="-1.12955">
        <ele>67.6</ele>
        <time>2022-09-11T10:38:48Z</time>
      </trkpt>
      <trkpt lat="43.47385" lon="-1.12973">
        <ele>67.2</ele>
        <time>2022-09-11T10:38:50Z</time>
      </trkpt>
      <trkpt lat="43.47423" lon="-1.13029">
        <ele>67.4</ele>
        <time>2022-09-11T10:38:57Z</time>
      </trkpt>
      <trkpt lat="43.47448" lon="-1.13065">
        <ele>66.4</ele>
        <time>2022-09-11T10:39:02Z</time>
      </trkpt>
      <trkpt lat="43.47457" lon="-1.13077">
        <ele>66.6</ele>
        <time>2022-09-11T10:39:04Z</time>
      </trkpt>
      <trkpt lat="43.47466" lon="-1.13089">
        <ele>66.6</ele>
        <time>2022-09-11T10:39:06Z</time>
      </trkpt>
      <trkpt lat="43.47486" lon="-1.13111">
        <ele>66.8</ele>
        <time>2022-09-11T10:39:10Z</time>
      </trkpt>
      <trkpt lat="43.47517" lon="-1.1314">
        <ele>67.2</ele>
        <time>2022-09-11T10:39:17Z</time>
      </trkpt>
      <trkpt lat="43.47547" lon="-1.13163">
        <ele>67.2</ele>
        <time>2022-09-11T10:39:24Z</time>
      </trkpt>
      <trkpt lat="43.4755" lon="-1.13167">
        <ele>67</ele>
        <time>2022-09-11T10:39:25Z</time>
      </trkpt>
      <trkpt lat="43.47557" lon="-1.13175">
        <ele>66.6</ele>
        <time>2022-09-11T10:39:27Z</time>
      </trkpt>
      <trkpt lat="43.47566" lon="-1.13194">
        <ele>66.2</ele>
        <time>2022-09-11T10:39:30Z</time>
      </trkpt>
      <trkpt lat="43.47586" lon="-1.13228">
        <ele>65.2</ele>
        <time>2022-09-11T10:39:35Z</time>
      </trkpt>
      <trkpt lat="43.47592" lon="-1.13234">
        <ele>65</ele>
        <time>2022-09-11T10:39:36Z</time>
      </trkpt>
      <trkpt lat="43.47613" lon="-1.13247">
        <ele>64.4</ele>
        <time>2022-09-11T10:39:39Z</time>
      </trkpt>
      <trkpt lat="43.47627" lon="-1.13255">
        <ele>64.4</ele>
        <time>2022-09-11T10:39:41Z</time>
      </trkpt>
      <trkpt lat="43.47642" lon="-1.13264">
        <ele>64</ele>
        <time>2022-09-11T10:39:43Z</time>
      </trkpt>
      <trkpt lat="43.47669" lon="-1.13281">
        <ele>62.8</ele>
        <time>2022-09-11T10:39:47Z</time>
      </trkpt>
      <trkpt lat="43.47693" lon="-1.13293">
        <ele>62</ele>
        <time>2022-09-11T10:39:50Z</time>
      </trkpt>
      <trkpt lat="43.47702" lon="-1.13296">
        <ele>61.4</ele>
        <time>2022-09-11T10:39:51Z</time>
      </trkpt>
      <trkpt lat="43.47718" lon="-1.13299">
        <ele>60.2</ele>
        <time>2022-09-11T10:39:53Z</time>
      </trkpt>
      <trkpt lat="43.47731" lon="-1.13302">
        <ele>59</ele>
        <time>2022-09-11T10:39:55Z</time>
      </trkpt>
      <trkpt lat="43.47742" lon="-1.13302">
        <ele>58.4</ele>
        <time>2022-09-11T10:39:57Z</time>
      </trkpt>
      <trkpt lat="43.47752" lon="-1.13297">
        <ele>58.6</ele>
        <time>2022-09-11T10:39:59Z</time>
      </trkpt>
      <trkpt lat="43.47762" lon="-1.13289">
        <ele>58</ele>
        <time>2022-09-11T10:40:01Z</time>
      </trkpt>
      <trkpt lat="43.47778" lon="-1.13281">
        <ele>56</ele>
        <time>2022-09-11T10:40:04Z</time>
      </trkpt>
      <trkpt lat="43.47783" lon="-1.13282">
        <ele>53.8</ele>
        <time>2022-09-11T10:40:05Z</time>
      </trkpt>
      <trkpt lat="43.47793" lon="-1.1329">
        <ele>52.4</ele>
        <time>2022-09-11T10:40:07Z</time>
      </trkpt>
      <trkpt lat="43.47802" lon="-1.13301">
        <ele>51.2</ele>
        <time>2022-09-11T10:40:09Z</time>
      </trkpt>
      <trkpt lat="43.47811" lon="-1.13308">
        <ele>49.4</ele>
        <time>2022-09-11T10:40:11Z</time>
      </trkpt>
      <trkpt lat="43.47821" lon="-1.13305">
        <ele>48</ele>
        <time>2022-09-11T10:40:13Z</time>
      </trkpt>
      <trkpt lat="43.47825" lon="-1.13299">
        <ele>47.4</ele>
        <time>2022-09-11T10:40:14Z</time>
      </trkpt>
      <trkpt lat="43.47827" lon="-1.1329">
        <ele>46.4</ele>
        <time>2022-09-11T10:40:15Z</time>
      </trkpt>
      <trkpt lat="43.47827" lon="-1.13282">
        <ele>45.4</ele>
        <time>2022-09-11T10:40:16Z</time>
      </trkpt>
      <trkpt lat="43.47827" lon="-1.13273">
        <ele>44.4</ele>
        <time>2022-09-11T10:40:17Z</time>
      </trkpt>
      <trkpt lat="43.47829" lon="-1.13267">
        <ele>43.6</ele>
        <time>2022-09-11T10:40:18Z</time>
      </trkpt>
      <trkpt lat="43.47832" lon="-1.13262">
        <ele>42.8</ele>
        <time>2022-09-11T10:40:19Z</time>
      </trkpt>
      <trkpt lat="43.47837" lon="-1.1326">
        <ele>41.8</ele>
        <time>2022-09-11T10:40:20Z</time>
      </trkpt>
      <trkpt lat="43.47843" lon="-1.1326">
        <ele>40.8</ele>
        <time>2022-09-11T10:40:21Z</time>
      </trkpt>
      <trkpt lat="43.47849" lon="-1.13263">
        <ele>39.8</ele>
        <time>2022-09-11T10:40:22Z</time>
      </trkpt>
      <trkpt lat="43.47862" lon="-1.1327">
        <ele>38.4</ele>
        <time>2022-09-11T10:40:24Z</time>
      </trkpt>
      <trkpt lat="43.47876" lon="-1.13273">
        <ele>37</ele>
        <time>2022-09-11T10:40:26Z</time>
      </trkpt>
      <trkpt lat="43.47883" lon="-1.13276">
        <ele>36.2</ele>
        <time>2022-09-11T10:40:27Z</time>
      </trkpt>
      <trkpt lat="43.4789" lon="-1.1328">
        <ele>35.4</ele>
        <time>2022-09-11T10:40:28Z</time>
      </trkpt>
      <trkpt lat="43.47895" lon="-1.13285">
        <ele>33.2</ele>
        <time>2022-09-11T10:40:29Z</time>
      </trkpt>
      <trkpt lat="43.47902" lon="-1.13292">
        <ele>31.4</ele>
        <time>2022-09-11T10:40:31Z</time>
      </trkpt>
      <trkpt lat="43.47908" lon="-1.13302">
        <ele>30.2</ele>
        <time>2022-09-11T10:40:33Z</time>
      </trkpt>
      <trkpt lat="43.47914" lon="-1.13317">
        <ele>29.4</ele>
        <time>2022-09-11T10:40:35Z</time>
      </trkpt>
      <trkpt lat="43.47918" lon="-1.13326">
        <ele>29.2</ele>
        <time>2022-09-11T10:40:36Z</time>
      </trkpt>
      <trkpt lat="43.47929" lon="-1.13352">
        <ele>28.8</ele>
        <time>2022-09-11T10:40:39Z</time>
      </trkpt>
      <trkpt lat="43.47932" lon="-1.13362">
        <ele>28.4</ele>
        <time>2022-09-11T10:40:40Z</time>
      </trkpt>
      <trkpt lat="43.47939" lon="-1.13404">
        <ele>28.6</ele>
        <time>2022-09-11T10:40:45Z</time>
      </trkpt>
      <trkpt lat="43.47952" lon="-1.13455">
        <ele>29</ele>
        <time>2022-09-11T10:40:52Z</time>
      </trkpt>
      <trkpt lat="43.47966" lon="-1.13488">
        <ele>29.2</ele>
        <time>2022-09-11T10:40:57Z</time>
      </trkpt>
      <trkpt lat="43.4797" lon="-1.13501">
        <ele>29.4</ele>
        <time>2022-09-11T10:40:59Z</time>
      </trkpt>
      <trkpt lat="43.4798" lon="-1.13547">
        <ele>30.2</ele>
        <time>2022-09-11T10:41:07Z</time>
      </trkpt>
      <trkpt lat="43.4798" lon="-1.13568">
        <ele>31.4</ele>
        <time>2022-09-11T10:41:12Z</time>
      </trkpt>
      <trkpt lat="43.4798" lon="-1.13572">
        <ele>31.8</ele>
        <time>2022-09-11T10:41:13Z</time>
      </trkpt>
      <trkpt lat="43.47979" lon="-1.13583">
        <ele>32.4</ele>
        <time>2022-09-11T10:41:16Z</time>
      </trkpt>
      <trkpt lat="43.47979" lon="-1.13594">
        <ele>33.4</ele>
        <time>2022-09-11T10:41:20Z</time>
      </trkpt>
      <trkpt lat="43.47979" lon="-1.13597">
        <ele>33.6</ele>
        <time>2022-09-11T10:41:21Z</time>
      </trkpt>
      <trkpt lat="43.47977" lon="-1.1361">
        <ele>34.4</ele>
        <time>2022-09-11T10:41:26Z</time>
      </trkpt>
      <trkpt lat="43.47977" lon="-1.13612">
        <ele>34.6</ele>
        <time>2022-09-11T10:41:27Z</time>
      </trkpt>
      <trkpt lat="43.47976" lon="-1.13615">
        <ele>34.8</ele>
        <time>2022-09-11T10:41:28Z</time>
      </trkpt>
      <trkpt lat="43.47973" lon="-1.13623">
        <ele>35.2</ele>
        <time>2022-09-11T10:41:31Z</time>
      </trkpt>
      <trkpt lat="43.4797" lon="-1.13638">
        <ele>35.6</ele>
        <time>2022-09-11T10:41:36Z</time>
      </trkpt>
      <trkpt lat="43.47968" lon="-1.13641">
        <ele>35.8</ele>
        <time>2022-09-11T10:41:37Z</time>
      </trkpt>
      <trkpt lat="43.47965" lon="-1.13656">
        <ele>36.4</ele>
        <time>2022-09-11T10:41:42Z</time>
      </trkpt>
      <trkpt lat="43.47964" lon="-1.13659">
        <ele>36.4</ele>
        <time>2022-09-11T10:41:43Z</time>
      </trkpt>
      <trkpt lat="43.4796" lon="-1.13677">
        <ele>36.8</ele>
        <time>2022-09-11T10:41:49Z</time>
      </trkpt>
      <trkpt lat="43.4796" lon="-1.1368">
        <ele>36.8</ele>
        <time>2022-09-11T10:41:50Z</time>
      </trkpt>
      <trkpt lat="43.47956" lon="-1.13705">
        <ele>36.2</ele>
        <time>2022-09-11T10:41:55Z</time>
      </trkpt>
      <trkpt lat="43.47955" lon="-1.13725">
        <ele>35.6</ele>
        <time>2022-09-11T10:41:58Z</time>
      </trkpt>
      <trkpt lat="43.47955" lon="-1.13741">
        <ele>35.2</ele>
        <time>2022-09-11T10:42:00Z</time>
      </trkpt>
      <trkpt lat="43.47957" lon="-1.1376">
        <ele>34.4</ele>
        <time>2022-09-11T10:42:02Z</time>
      </trkpt>
      <trkpt lat="43.47963" lon="-1.13778">
        <ele>33.6</ele>
        <time>2022-09-11T10:42:04Z</time>
      </trkpt>
      <trkpt lat="43.47967" lon="-1.13787">
        <ele>32.8</ele>
        <time>2022-09-11T10:42:05Z</time>
      </trkpt>
      <trkpt lat="43.47972" lon="-1.13796">
        <ele>32.4</ele>
        <time>2022-09-11T10:42:06Z</time>
      </trkpt>
      <trkpt lat="43.47983" lon="-1.13814">
        <ele>31.6</ele>
        <time>2022-09-11T10:42:08Z</time>
      </trkpt>
      <trkpt lat="43.48002" lon="-1.1384">
        <ele>30.6</ele>
        <time>2022-09-11T10:42:11Z</time>
      </trkpt>
      <trkpt lat="43.48021" lon="-1.13867">
        <ele>29.2</ele>
        <time>2022-09-11T10:42:14Z</time>
      </trkpt>
      <trkpt lat="43.48028" lon="-1.13876">
        <ele>29.2</ele>
        <time>2022-09-11T10:42:15Z</time>
      </trkpt>
      <trkpt lat="43.48057" lon="-1.1391">
        <ele>28</ele>
        <time>2022-09-11T10:42:19Z</time>
      </trkpt>
      <trkpt lat="43.48072" lon="-1.13925">
        <ele>27.4</ele>
        <time>2022-09-11T10:42:21Z</time>
      </trkpt>
      <trkpt lat="43.48101" lon="-1.13946">
        <ele>26.6</ele>
        <time>2022-09-11T10:42:25Z</time>
      </trkpt>
      <trkpt lat="43.48125" lon="-1.13957">
        <ele>27</ele>
        <time>2022-09-11T10:42:29Z</time>
      </trkpt>
      <trkpt lat="43.48146" lon="-1.13969">
        <ele>26.6</ele>
        <time>2022-09-11T10:42:33Z</time>
      </trkpt>
      <trkpt lat="43.48151" lon="-1.13975">
        <ele>27</ele>
        <time>2022-09-11T10:42:35Z</time>
      </trkpt>
      <trkpt lat="43.48157" lon="-1.13981">
        <ele>27.8</ele>
        <time>2022-09-11T10:42:38Z</time>
      </trkpt>
      <trkpt lat="43.4816" lon="-1.13984">
        <ele>28.4</ele>
        <time>2022-09-11T10:42:40Z</time>
      </trkpt>
      <trkpt lat="43.48163" lon="-1.13986">
        <ele>28.8</ele>
        <time>2022-09-11T10:42:42Z</time>
      </trkpt>
      <trkpt lat="43.4817" lon="-1.13991">
        <ele>30</ele>
        <time>2022-09-11T10:42:46Z</time>
      </trkpt>
      <trkpt lat="43.48174" lon="-1.13995">
        <ele>30.6</ele>
        <time>2022-09-11T10:42:49Z</time>
      </trkpt>
      <trkpt lat="43.48177" lon="-1.13998">
        <ele>31</ele>
        <time>2022-09-11T10:42:51Z</time>
      </trkpt>
      <trkpt lat="43.48181" lon="-1.14002">
        <ele>32</ele>
        <time>2022-09-11T10:42:54Z</time>
      </trkpt>
      <trkpt lat="43.48183" lon="-1.14006">
        <ele>32.6</ele>
        <time>2022-09-11T10:42:56Z</time>
      </trkpt>
      <trkpt lat="43.48186" lon="-1.14008">
        <ele>33.2</ele>
        <time>2022-09-11T10:42:58Z</time>
      </trkpt>
      <trkpt lat="43.48191" lon="-1.14016">
        <ele>34.2</ele>
        <time>2022-09-11T10:43:03Z</time>
      </trkpt>
      <trkpt lat="43.48199" lon="-1.14027">
        <ele>35.4</ele>
        <time>2022-09-11T10:43:10Z</time>
      </trkpt>
      <trkpt lat="43.48201" lon="-1.14028">
        <ele>35.6</ele>
        <time>2022-09-11T10:43:11Z</time>
      </trkpt>
      <trkpt lat="43.48208" lon="-1.14033">
        <ele>36.6</ele>
        <time>2022-09-11T10:43:17Z</time>
      </trkpt>
      <trkpt lat="43.48211" lon="-1.14034">
        <ele>36.8</ele>
        <time>2022-09-11T10:43:19Z</time>
      </trkpt>
      <trkpt lat="43.48215" lon="-1.14038">
        <ele>37.4</ele>
        <time>2022-09-11T10:43:23Z</time>
      </trkpt>
      <trkpt lat="43.48215" lon="-1.14043">
        <ele>37.4</ele>
        <time>2022-09-11T10:43:26Z</time>
      </trkpt>
      <trkpt lat="43.48214" lon="-1.14047">
        <ele>37.8</ele>
        <time>2022-09-11T10:43:28Z</time>
      </trkpt>
      <trkpt lat="43.48216" lon="-1.14053">
        <ele>38.2</ele>
        <time>2022-09-11T10:43:31Z</time>
      </trkpt>
      <trkpt lat="43.48219" lon="-1.14062">
        <ele>38.8</ele>
        <time>2022-09-11T10:43:36Z</time>
      </trkpt>
      <trkpt lat="43.48219" lon="-1.14064">
        <ele>39</ele>
        <time>2022-09-11T10:43:37Z</time>
      </trkpt>
      <trkpt lat="43.4822" lon="-1.14065">
        <ele>39</ele>
        <time>2022-09-11T10:43:38Z</time>
      </trkpt>
      <trkpt lat="43.48225" lon="-1.14079">
        <ele>39.8</ele>
        <time>2022-09-11T10:43:45Z</time>
      </trkpt>
      <trkpt lat="43.48226" lon="-1.14084">
        <ele>40</ele>
        <time>2022-09-11T10:43:47Z</time>
      </trkpt>
      <trkpt lat="43.48228" lon="-1.14089">
        <ele>40.4</ele>
        <time>2022-09-11T10:43:50Z</time>
      </trkpt>
      <trkpt lat="43.48231" lon="-1.14097">
        <ele>41</ele>
        <time>2022-09-11T10:43:54Z</time>
      </trkpt>
      <trkpt lat="43.48235" lon="-1.1411">
        <ele>42</ele>
        <time>2022-09-11T10:44:01Z</time>
      </trkpt>
      <trkpt lat="43.48236" lon="-1.14112">
        <ele>42</ele>
        <time>2022-09-11T10:44:02Z</time>
      </trkpt>
      <trkpt lat="43.48238" lon="-1.1412">
        <ele>43</ele>
        <time>2022-09-11T10:44:07Z</time>
      </trkpt>
      <trkpt lat="43.48238" lon="-1.14121">
        <ele>43.2</ele>
        <time>2022-09-11T10:44:08Z</time>
      </trkpt>
      <trkpt lat="43.4824" lon="-1.14121">
        <ele>43.4</ele>
        <time>2022-09-11T10:44:09Z</time>
      </trkpt>
      <trkpt lat="43.48249" lon="-1.14125">
        <ele>43.8</ele>
        <time>2022-09-11T10:44:30Z</time>
      </trkpt>
      <trkpt lat="43.48249" lon="-1.14133">
        <ele>43.8</ele>
        <time>2022-09-11T10:44:34Z</time>
      </trkpt>
      <trkpt lat="43.4825" lon="-1.14133">
        <ele>44</ele>
        <time>2022-09-11T10:44:35Z</time>
      </trkpt>
      <trkpt lat="43.48249" lon="-1.14124">
        <ele>47.2</ele>
        <time>2022-09-11T11:29:39Z</time>
      </trkpt>
      <trkpt lat="43.48248" lon="-1.14123">
        <ele>47.2</ele>
        <time>2022-09-11T11:29:41Z</time>
      </trkpt>
      <trkpt lat="43.48229" lon="-1.14169">
        <ele>50.6</ele>
        <time>2022-09-11T11:30:36Z</time>
      </trkpt>
      <trkpt lat="43.48227" lon="-1.14176">
        <ele>51</ele>
        <time>2022-09-11T11:30:40Z</time>
      </trkpt>
      <trkpt lat="43.48222" lon="-1.14188">
        <ele>51.4</ele>
        <time>2022-09-11T11:30:46Z</time>
      </trkpt>
      <trkpt lat="43.48219" lon="-1.14194">
        <ele>51.6</ele>
        <time>2022-09-11T11:30:49Z</time>
      </trkpt>
      <trkpt lat="43.48216" lon="-1.14203">
        <ele>52</ele>
        <time>2022-09-11T11:30:53Z</time>
      </trkpt>
      <trkpt lat="43.4821" lon="-1.14219">
        <ele>52.6</ele>
        <time>2022-09-11T11:31:01Z</time>
      </trkpt>
      <trkpt lat="43.4821" lon="-1.14224">
        <ele>52.6</ele>
        <time>2022-09-11T11:31:03Z</time>
      </trkpt>
      <trkpt lat="43.48205" lon="-1.14234">
        <ele>52.8</ele>
        <time>2022-09-11T11:31:08Z</time>
      </trkpt>
      <trkpt lat="43.482" lon="-1.1425">
        <ele>53.4</ele>
        <time>2022-09-11T11:31:15Z</time>
      </trkpt>
      <trkpt lat="43.48199" lon="-1.14255">
        <ele>53.8</ele>
        <time>2022-09-11T11:31:17Z</time>
      </trkpt>
      <trkpt lat="43.48194" lon="-1.14271">
        <ele>54.4</ele>
        <time>2022-09-11T11:31:24Z</time>
      </trkpt>
      <trkpt lat="43.48191" lon="-1.14282">
        <ele>54.8</ele>
        <time>2022-09-11T11:31:29Z</time>
      </trkpt>
      <trkpt lat="43.48191" lon="-1.14285">
        <ele>54.8</ele>
        <time>2022-09-11T11:31:30Z</time>
      </trkpt>
      <trkpt lat="43.48191" lon="-1.14287">
        <ele>55</ele>
        <time>2022-09-11T11:31:31Z</time>
      </trkpt>
      <trkpt lat="43.4819" lon="-1.14306">
        <ele>55.8</ele>
        <time>2022-09-11T11:31:39Z</time>
      </trkpt>
      <trkpt lat="43.4819" lon="-1.14309">
        <ele>56</ele>
        <time>2022-09-11T11:31:40Z</time>
      </trkpt>
      <trkpt lat="43.4819" lon="-1.14326">
        <ele>56.8</ele>
        <time>2022-09-11T11:31:47Z</time>
      </trkpt>
      <trkpt lat="43.4819" lon="-1.14331">
        <ele>57</ele>
        <time>2022-09-11T11:31:49Z</time>
      </trkpt>
      <trkpt lat="43.48188" lon="-1.14344">
        <ele>58</ele>
        <time>2022-09-11T11:31:55Z</time>
      </trkpt>
      <trkpt lat="43.48188" lon="-1.14347">
        <ele>58</ele>
        <time>2022-09-11T11:31:56Z</time>
      </trkpt>
      <trkpt lat="43.48186" lon="-1.14362">
        <ele>59</ele>
        <time>2022-09-11T11:32:03Z</time>
      </trkpt>
      <trkpt lat="43.48186" lon="-1.14364">
        <ele>59.2</ele>
        <time>2022-09-11T11:32:04Z</time>
      </trkpt>
      <trkpt lat="43.48183" lon="-1.14374">
        <ele>60.4</ele>
        <time>2022-09-11T11:32:09Z</time>
      </trkpt>
      <trkpt lat="43.48183" lon="-1.14378">
        <ele>60.8</ele>
        <time>2022-09-11T11:32:11Z</time>
      </trkpt>
      <trkpt lat="43.48181" lon="-1.14385">
        <ele>61.4</ele>
        <time>2022-09-11T11:32:16Z</time>
      </trkpt>
      <trkpt lat="43.4818" lon="-1.14386">
        <ele>61.6</ele>
        <time>2022-09-11T11:32:17Z</time>
      </trkpt>
      <trkpt lat="43.48183" lon="-1.14391">
        <ele>62.2</ele>
        <time>2022-09-11T11:32:21Z</time>
      </trkpt>
      <trkpt lat="43.4819" lon="-1.14396">
        <ele>62.4</ele>
        <time>2022-09-11T11:32:26Z</time>
      </trkpt>
      <trkpt lat="43.48194" lon="-1.14395">
        <ele>62.6</ele>
        <time>2022-09-11T11:32:28Z</time>
      </trkpt>
      <trkpt lat="43.48206" lon="-1.14394">
        <ele>62.8</ele>
        <time>2022-09-11T11:32:34Z</time>
      </trkpt>
      <trkpt lat="43.48219" lon="-1.14393">
        <ele>63</ele>
        <time>2022-09-11T11:32:41Z</time>
      </trkpt>
      <trkpt lat="43.48234" lon="-1.14382">
        <ele>62.6</ele>
        <time>2022-09-11T11:32:47Z</time>
      </trkpt>
      <trkpt lat="43.48252" lon="-1.14377">
        <ele>62.8</ele>
        <time>2022-09-11T11:32:53Z</time>
      </trkpt>
      <trkpt lat="43.48273" lon="-1.14385">
        <ele>63</ele>
        <time>2022-09-11T11:33:00Z</time>
      </trkpt>
      <trkpt lat="43.48279" lon="-1.14404">
        <ele>62.8</ele>
        <time>2022-09-11T11:33:04Z</time>
      </trkpt>
      <trkpt lat="43.48278" lon="-1.1441">
        <ele>62.6</ele>
        <time>2022-09-11T11:33:05Z</time>
      </trkpt>
      <trkpt lat="43.48274" lon="-1.1442">
        <ele>62.4</ele>
        <time>2022-09-11T11:33:07Z</time>
      </trkpt>
      <trkpt lat="43.48274" lon="-1.1443">
        <ele>62.6</ele>
        <time>2022-09-11T11:33:11Z</time>
      </trkpt>
      <trkpt lat="43.48279" lon="-1.14436">
        <ele>61.8</ele>
        <time>2022-09-11T11:33:14Z</time>
      </trkpt>
      <trkpt lat="43.48282" lon="-1.14441">
        <ele>61.2</ele>
        <time>2022-09-11T11:33:16Z</time>
      </trkpt>
      <trkpt lat="43.48283" lon="-1.14442">
        <ele>60.8</ele>
        <time>2022-09-11T11:33:17Z</time>
      </trkpt>
      <trkpt lat="43.48288" lon="-1.14447">
        <ele>59.8</ele>
        <time>2022-09-11T11:33:35Z</time>
      </trkpt>
      <trkpt lat="43.48295" lon="-1.14455">
        <ele>59</ele>
        <time>2022-09-11T11:33:38Z</time>
      </trkpt>
      <trkpt lat="43.48303" lon="-1.1446">
        <ele>58.8</ele>
        <time>2022-09-11T11:33:40Z</time>
      </trkpt>
      <trkpt lat="43.48319" lon="-1.14476">
        <ele>58</ele>
        <time>2022-09-11T11:33:44Z</time>
      </trkpt>
      <trkpt lat="43.48329" lon="-1.14485">
        <ele>57.2</ele>
        <time>2022-09-11T11:33:46Z</time>
      </trkpt>
      <trkpt lat="43.48338" lon="-1.14496">
        <ele>56.4</ele>
        <time>2022-09-11T11:33:48Z</time>
      </trkpt>
      <trkpt lat="43.48349" lon="-1.14508">
        <ele>55.4</ele>
        <time>2022-09-11T11:33:50Z</time>
      </trkpt>
      <trkpt lat="43.48362" lon="-1.14522">
        <ele>54.8</ele>
        <time>2022-09-11T11:33:52Z</time>
      </trkpt>
      <trkpt lat="43.48369" lon="-1.1453">
        <ele>54.2</ele>
        <time>2022-09-11T11:33:53Z</time>
      </trkpt>
      <trkpt lat="43.48383" lon="-1.1455">
        <ele>52.8</ele>
        <time>2022-09-11T11:33:55Z</time>
      </trkpt>
      <trkpt lat="43.4839" lon="-1.14561">
        <ele>52</ele>
        <time>2022-09-11T11:33:56Z</time>
      </trkpt>
      <trkpt lat="43.48397" lon="-1.14572">
        <ele>51</ele>
        <time>2022-09-11T11:33:57Z</time>
      </trkpt>
      <trkpt lat="43.48405" lon="-1.14584">
        <ele>49.8</ele>
        <time>2022-09-11T11:33:58Z</time>
      </trkpt>
      <trkpt lat="43.48412" lon="-1.14596">
        <ele>48.8</ele>
        <time>2022-09-11T11:33:59Z</time>
      </trkpt>
      <trkpt lat="43.48421" lon="-1.14607">
        <ele>47.6</ele>
        <time>2022-09-11T11:34:00Z</time>
      </trkpt>
      <trkpt lat="43.48442" lon="-1.14624">
        <ele>46.2</ele>
        <time>2022-09-11T11:34:02Z</time>
      </trkpt>
      <trkpt lat="43.48452" lon="-1.14631">
        <ele>45.6</ele>
        <time>2022-09-11T11:34:03Z</time>
      </trkpt>
      <trkpt lat="43.48463" lon="-1.14637">
        <ele>44.6</ele>
        <time>2022-09-11T11:34:04Z</time>
      </trkpt>
      <trkpt lat="43.48475" lon="-1.14642">
        <ele>43.6</ele>
        <time>2022-09-11T11:34:05Z</time>
      </trkpt>
      <trkpt lat="43.48497" lon="-1.14648">
        <ele>42.6</ele>
        <time>2022-09-11T11:34:07Z</time>
      </trkpt>
      <trkpt lat="43.48507" lon="-1.14654">
        <ele>42.4</ele>
        <time>2022-09-11T11:34:08Z</time>
      </trkpt>
      <trkpt lat="43.48516" lon="-1.1466">
        <ele>41</ele>
        <time>2022-09-11T11:34:09Z</time>
      </trkpt>
      <trkpt lat="43.48524" lon="-1.14667">
        <ele>40.2</ele>
        <time>2022-09-11T11:34:10Z</time>
      </trkpt>
      <trkpt lat="43.48532" lon="-1.14674">
        <ele>39.4</ele>
        <time>2022-09-11T11:34:11Z</time>
      </trkpt>
      <trkpt lat="43.48545" lon="-1.14686">
        <ele>37.8</ele>
        <time>2022-09-11T11:34:13Z</time>
      </trkpt>
      <trkpt lat="43.48551" lon="-1.14692">
        <ele>37</ele>
        <time>2022-09-11T11:34:14Z</time>
      </trkpt>
      <trkpt lat="43.48557" lon="-1.14698">
        <ele>36.6</ele>
        <time>2022-09-11T11:34:15Z</time>
      </trkpt>
      <trkpt lat="43.48572" lon="-1.14711">
        <ele>34.8</ele>
        <time>2022-09-11T11:34:17Z</time>
      </trkpt>
      <trkpt lat="43.48586" lon="-1.14721">
        <ele>32.8</ele>
        <time>2022-09-11T11:34:19Z</time>
      </trkpt>
      <trkpt lat="43.48594" lon="-1.14724">
        <ele>32</ele>
        <time>2022-09-11T11:34:20Z</time>
      </trkpt>
      <trkpt lat="43.48602" lon="-1.14724">
        <ele>31</ele>
        <time>2022-09-11T11:34:21Z</time>
      </trkpt>
      <trkpt lat="43.4861" lon="-1.14722">
        <ele>30.6</ele>
        <time>2022-09-11T11:34:22Z</time>
      </trkpt>
      <trkpt lat="43.48618" lon="-1.14719">
        <ele>30</ele>
        <time>2022-09-11T11:34:23Z</time>
      </trkpt>
      <trkpt lat="43.48639" lon="-1.14708">
        <ele>29</ele>
        <time>2022-09-11T11:34:26Z</time>
      </trkpt>
      <trkpt lat="43.48646" lon="-1.14704">
        <ele>29</ele>
        <time>2022-09-11T11:34:27Z</time>
      </trkpt>
      <trkpt lat="43.4868" lon="-1.14683">
        <ele>27.8</ele>
        <time>2022-09-11T11:34:32Z</time>
      </trkpt>
      <trkpt lat="43.48686" lon="-1.14678">
        <ele>27.8</ele>
        <time>2022-09-11T11:34:33Z</time>
      </trkpt>
      <trkpt lat="43.48696" lon="-1.14668">
        <ele>27.2</ele>
        <time>2022-09-11T11:34:35Z</time>
      </trkpt>
      <trkpt lat="43.487" lon="-1.14663">
        <ele>26.6</ele>
        <time>2022-09-11T11:34:36Z</time>
      </trkpt>
      <trkpt lat="43.48704" lon="-1.14659">
        <ele>26.4</ele>
        <time>2022-09-11T11:34:37Z</time>
      </trkpt>
      <trkpt lat="43.48714" lon="-1.14646">
        <ele>25.6</ele>
        <time>2022-09-11T11:34:41Z</time>
      </trkpt>
      <trkpt lat="43.48719" lon="-1.14641">
        <ele>25.6</ele>
        <time>2022-09-11T11:34:44Z</time>
      </trkpt>
      <trkpt lat="43.48721" lon="-1.14642">
        <ele>25.4</ele>
        <time>2022-09-11T11:34:45Z</time>
      </trkpt>
      <trkpt lat="43.48723" lon="-1.14644">
        <ele>25.2</ele>
        <time>2022-09-11T11:34:46Z</time>
      </trkpt>
      <trkpt lat="43.48727" lon="-1.1465">
        <ele>25</ele>
        <time>2022-09-11T11:34:49Z</time>
      </trkpt>
      <trkpt lat="43.48729" lon="-1.14658">
        <ele>24.8</ele>
        <time>2022-09-11T11:34:53Z</time>
      </trkpt>
      <trkpt lat="43.48733" lon="-1.14674">
        <ele>25.8</ele>
        <time>2022-09-11T11:35:01Z</time>
      </trkpt>
      <trkpt lat="43.48735" lon="-1.14679">
        <ele>26.8</ele>
        <time>2022-09-11T11:35:05Z</time>
      </trkpt>
      <trkpt lat="43.48737" lon="-1.14686">
        <ele>27.2</ele>
        <time>2022-09-11T11:35:09Z</time>
      </trkpt>
      <trkpt lat="43.48742" lon="-1.147">
        <ele>27</ele>
        <time>2022-09-11T11:35:16Z</time>
      </trkpt>
      <trkpt lat="43.48749" lon="-1.14718">
        <ele>27.2</ele>
        <time>2022-09-11T11:35:23Z</time>
      </trkpt>
      <trkpt lat="43.48759" lon="-1.14739">
        <ele>27.2</ele>
        <time>2022-09-11T11:35:29Z</time>
      </trkpt>
      <trkpt lat="43.48775" lon="-1.14771">
        <ele>27.2</ele>
        <time>2022-09-11T11:35:36Z</time>
      </trkpt>
      <trkpt lat="43.48797" lon="-1.14805">
        <ele>27.4</ele>
        <time>2022-09-11T11:35:43Z</time>
      </trkpt>
      <trkpt lat="43.48825" lon="-1.14836">
        <ele>27.6</ele>
        <time>2022-09-11T11:35:50Z</time>
      </trkpt>
      <trkpt lat="43.48862" lon="-1.14864">
        <ele>27.8</ele>
        <time>2022-09-11T11:35:58Z</time>
      </trkpt>
      <trkpt lat="43.48898" lon="-1.14884">
        <ele>27.4</ele>
        <time>2022-09-11T11:36:05Z</time>
      </trkpt>
      <trkpt lat="43.48945" lon="-1.14906">
        <ele>27.8</ele>
        <time>2022-09-11T11:36:14Z</time>
      </trkpt>
      <trkpt lat="43.48993" lon="-1.14919">
        <ele>27.2</ele>
        <time>2022-09-11T11:36:23Z</time>
      </trkpt>
      <trkpt lat="43.49034" lon="-1.14925">
        <ele>27.6</ele>
        <time>2022-09-11T11:36:31Z</time>
      </trkpt>
      <trkpt lat="43.49083" lon="-1.14925">
        <ele>27.4</ele>
        <time>2022-09-11T11:36:40Z</time>
      </trkpt>
      <trkpt lat="43.49133" lon="-1.14923">
        <ele>27.6</ele>
        <time>2022-09-11T11:36:49Z</time>
      </trkpt>
      <trkpt lat="43.49189" lon="-1.14924">
        <ele>27.8</ele>
        <time>2022-09-11T11:36:59Z</time>
      </trkpt>
      <trkpt lat="43.49244" lon="-1.14929">
        <ele>27.8</ele>
        <time>2022-09-11T11:37:09Z</time>
      </trkpt>
      <trkpt lat="43.49287" lon="-1.14932">
        <ele>27.8</ele>
        <time>2022-09-11T11:37:17Z</time>
      </trkpt>
      <trkpt lat="43.49329" lon="-1.14937">
        <ele>27.6</ele>
        <time>2022-09-11T11:37:25Z</time>
      </trkpt>
      <trkpt lat="43.49371" lon="-1.14943">
        <ele>28</ele>
        <time>2022-09-11T11:37:33Z</time>
      </trkpt>
      <trkpt lat="43.49417" lon="-1.14956">
        <ele>27.4</ele>
        <time>2022-09-11T11:37:42Z</time>
      </trkpt>
      <trkpt lat="43.49463" lon="-1.14975">
        <ele>27.4</ele>
        <time>2022-09-11T11:37:51Z</time>
      </trkpt>
      <trkpt lat="43.49498" lon="-1.14994">
        <ele>27.8</ele>
        <time>2022-09-11T11:37:58Z</time>
      </trkpt>
      <trkpt lat="43.49531" lon="-1.15022">
        <ele>27.6</ele>
        <time>2022-09-11T11:38:05Z</time>
      </trkpt>
      <trkpt lat="43.49563" lon="-1.15063">
        <ele>27.6</ele>
        <time>2022-09-11T11:38:13Z</time>
      </trkpt>
      <trkpt lat="43.49592" lon="-1.15108">
        <ele>27.6</ele>
        <time>2022-09-11T11:38:21Z</time>
      </trkpt>
      <trkpt lat="43.49618" lon="-1.15165">
        <ele>27.6</ele>
        <time>2022-09-11T11:38:30Z</time>
      </trkpt>
      <trkpt lat="43.4964" lon="-1.15225">
        <ele>27.6</ele>
        <time>2022-09-11T11:38:39Z</time>
      </trkpt>
      <trkpt lat="43.49655" lon="-1.15282">
        <ele>27.6</ele>
        <time>2022-09-11T11:38:47Z</time>
      </trkpt>
      <trkpt lat="43.49667" lon="-1.1535">
        <ele>27.2</ele>
        <time>2022-09-11T11:38:56Z</time>
      </trkpt>
      <trkpt lat="43.49674" lon="-1.15395">
        <ele>27.2</ele>
        <time>2022-09-11T11:39:02Z</time>
      </trkpt>
      <trkpt lat="43.49679" lon="-1.15458">
        <ele>27.2</ele>
        <time>2022-09-11T11:39:10Z</time>
      </trkpt>
      <trkpt lat="43.49679" lon="-1.15512">
        <ele>27.2</ele>
        <time>2022-09-11T11:39:17Z</time>
      </trkpt>
      <trkpt lat="43.49672" lon="-1.15562">
        <ele>27.6</ele>
        <time>2022-09-11T11:39:24Z</time>
      </trkpt>
      <trkpt lat="43.49659" lon="-1.15611">
        <ele>27.6</ele>
        <time>2022-09-11T11:39:31Z</time>
      </trkpt>
      <trkpt lat="43.49644" lon="-1.15652">
        <ele>27.8</ele>
        <time>2022-09-11T11:39:37Z</time>
      </trkpt>
      <trkpt lat="43.49619" lon="-1.15703">
        <ele>28</ele>
        <time>2022-09-11T11:39:45Z</time>
      </trkpt>
      <trkpt lat="43.4959" lon="-1.1575">
        <ele>27.8</ele>
        <time>2022-09-11T11:39:53Z</time>
      </trkpt>
      <trkpt lat="43.49561" lon="-1.1579">
        <ele>27.6</ele>
        <time>2022-09-11T11:40:00Z</time>
      </trkpt>
      <trkpt lat="43.49524" lon="-1.1584">
        <ele>27.8</ele>
        <time>2022-09-11T11:40:09Z</time>
      </trkpt>
      <trkpt lat="43.49496" lon="-1.15875">
        <ele>27.8</ele>
        <time>2022-09-11T11:40:16Z</time>
      </trkpt>
      <trkpt lat="43.49461" lon="-1.15913">
        <ele>27.6</ele>
        <time>2022-09-11T11:40:24Z</time>
      </trkpt>
      <trkpt lat="43.49427" lon="-1.1595">
        <ele>28</ele>
        <time>2022-09-11T11:40:32Z</time>
      </trkpt>
      <trkpt lat="43.49417" lon="-1.15959">
        <ele>27.8</ele>
        <time>2022-09-11T11:40:34Z</time>
      </trkpt>
      <trkpt lat="43.49395" lon="-1.15982">
        <ele>28</ele>
        <time>2022-09-11T11:40:39Z</time>
      </trkpt>
      <trkpt lat="43.49355" lon="-1.16022">
        <ele>27.8</ele>
        <time>2022-09-11T11:40:48Z</time>
      </trkpt>
      <trkpt lat="43.49318" lon="-1.16059">
        <ele>27.8</ele>
        <time>2022-09-11T11:40:56Z</time>
      </trkpt>
      <trkpt lat="43.49289" lon="-1.16083">
        <ele>28</ele>
        <time>2022-09-11T11:41:02Z</time>
      </trkpt>
      <trkpt lat="43.49271" lon="-1.16099">
        <ele>28</ele>
        <time>2022-09-11T11:41:06Z</time>
      </trkpt>
      <trkpt lat="43.49262" lon="-1.16108">
        <ele>27.8</ele>
        <time>2022-09-11T11:41:08Z</time>
      </trkpt>
      <trkpt lat="43.49237" lon="-1.16134">
        <ele>28</ele>
        <time>2022-09-11T11:41:14Z</time>
      </trkpt>
      <trkpt lat="43.49227" lon="-1.16143">
        <ele>28</ele>
        <time>2022-09-11T11:41:16Z</time>
      </trkpt>
      <trkpt lat="43.49183" lon="-1.16185">
        <ele>27.8</ele>
        <time>2022-09-11T11:41:26Z</time>
      </trkpt>
      <trkpt lat="43.49151" lon="-1.16222">
        <ele>27.8</ele>
        <time>2022-09-11T11:41:34Z</time>
      </trkpt>
      <trkpt lat="43.49125" lon="-1.16265">
        <ele>27.8</ele>
        <time>2022-09-11T11:41:42Z</time>
      </trkpt>
      <trkpt lat="43.49123" lon="-1.16271">
        <ele>27.6</ele>
        <time>2022-09-11T11:41:43Z</time>
      </trkpt>
      <trkpt lat="43.49111" lon="-1.16299">
        <ele>27.6</ele>
        <time>2022-09-11T11:41:48Z</time>
      </trkpt>
      <trkpt lat="43.49093" lon="-1.1633">
        <ele>27.8</ele>
        <time>2022-09-11T11:41:55Z</time>
      </trkpt>
      <trkpt lat="43.49076" lon="-1.1637">
        <ele>27.6</ele>
        <time>2022-09-11T11:42:02Z</time>
      </trkpt>
      <trkpt lat="43.49068" lon="-1.1641">
        <ele>27.8</ele>
        <time>2022-09-11T11:42:08Z</time>
      </trkpt>
      <trkpt lat="43.49064" lon="-1.16461">
        <ele>28.2</ele>
        <time>2022-09-11T11:42:15Z</time>
      </trkpt>
      <trkpt lat="43.49058" lon="-1.16521">
        <ele>28</ele>
        <time>2022-09-11T11:42:23Z</time>
      </trkpt>
      <trkpt lat="43.49064" lon="-1.16575">
        <ele>28</ele>
        <time>2022-09-11T11:42:30Z</time>
      </trkpt>
      <trkpt lat="43.49076" lon="-1.16628">
        <ele>28.2</ele>
        <time>2022-09-11T11:42:37Z</time>
      </trkpt>
      <trkpt lat="43.49095" lon="-1.1668">
        <ele>27.6</ele>
        <time>2022-09-11T11:42:45Z</time>
      </trkpt>
      <trkpt lat="43.49107" lon="-1.16725">
        <ele>27.6</ele>
        <time>2022-09-11T11:42:52Z</time>
      </trkpt>
      <trkpt lat="43.49124" lon="-1.16766">
        <ele>27.6</ele>
        <time>2022-09-11T11:42:58Z</time>
      </trkpt>
      <trkpt lat="43.49161" lon="-1.16828">
        <ele>27.8</ele>
        <time>2022-09-11T11:43:08Z</time>
      </trkpt>
      <trkpt lat="43.49186" lon="-1.16869">
        <ele>28</ele>
        <time>2022-09-11T11:43:15Z</time>
      </trkpt>
      <trkpt lat="43.49223" lon="-1.16927">
        <ele>28.4</ele>
        <time>2022-09-11T11:43:25Z</time>
      </trkpt>
      <trkpt lat="43.49259" lon="-1.16974">
        <ele>28.4</ele>
        <time>2022-09-11T11:43:34Z</time>
      </trkpt>
      <trkpt lat="43.49301" lon="-1.17019">
        <ele>28.2</ele>
        <time>2022-09-11T11:43:43Z</time>
      </trkpt>
      <trkpt lat="43.49339" lon="-1.17053">
        <ele>28.4</ele>
        <time>2022-09-11T11:43:51Z</time>
      </trkpt>
      <trkpt lat="43.49368" lon="-1.17071">
        <ele>28</ele>
        <time>2022-09-11T11:43:57Z</time>
      </trkpt>
      <trkpt lat="43.49406" lon="-1.17091">
        <ele>28</ele>
        <time>2022-09-11T11:44:05Z</time>
      </trkpt>
      <trkpt lat="43.49437" lon="-1.17098">
        <ele>28</ele>
        <time>2022-09-11T11:44:11Z</time>
      </trkpt>
      <trkpt lat="43.49475" lon="-1.17101">
        <ele>28.6</ele>
        <time>2022-09-11T11:44:18Z</time>
      </trkpt>
      <trkpt lat="43.49512" lon="-1.17095">
        <ele>28</ele>
        <time>2022-09-11T11:44:25Z</time>
      </trkpt>
      <trkpt lat="43.49551" lon="-1.17082">
        <ele>28.4</ele>
        <time>2022-09-11T11:44:32Z</time>
      </trkpt>
      <trkpt lat="43.4959" lon="-1.1707">
        <ele>28.6</ele>
        <time>2022-09-11T11:44:39Z</time>
      </trkpt>
      <trkpt lat="43.49628" lon="-1.17055">
        <ele>28.6</ele>
        <time>2022-09-11T11:44:46Z</time>
      </trkpt>
      <trkpt lat="43.49676" lon="-1.17037">
        <ele>28</ele>
        <time>2022-09-11T11:44:55Z</time>
      </trkpt>
      <trkpt lat="43.49701" lon="-1.17026">
        <ele>27.6</ele>
        <time>2022-09-11T11:45:00Z</time>
      </trkpt>
      <trkpt lat="43.49711" lon="-1.17022">
        <ele>27.6</ele>
        <time>2022-09-11T11:45:02Z</time>
      </trkpt>
      <trkpt lat="43.49745" lon="-1.17006">
        <ele>27.8</ele>
        <time>2022-09-11T11:45:09Z</time>
      </trkpt>
      <trkpt lat="43.4978" lon="-1.1699">
        <ele>27.8</ele>
        <time>2022-09-11T11:45:17Z</time>
      </trkpt>
      <trkpt lat="43.49807" lon="-1.16976">
        <ele>28</ele>
        <time>2022-09-11T11:45:23Z</time>
      </trkpt>
      <trkpt lat="43.49846" lon="-1.16956">
        <ele>28.6</ele>
        <time>2022-09-11T11:45:31Z</time>
      </trkpt>
      <trkpt lat="43.49879" lon="-1.16938">
        <ele>28.2</ele>
        <time>2022-09-11T11:45:38Z</time>
      </trkpt>
      <trkpt lat="43.49915" lon="-1.16922">
        <ele>28.4</ele>
        <time>2022-09-11T11:45:45Z</time>
      </trkpt>
      <trkpt lat="43.49919" lon="-1.1692">
        <ele>28.6</ele>
        <time>2022-09-11T11:45:46Z</time>
      </trkpt>
      <trkpt lat="43.4995" lon="-1.16908">
        <ele>28</ele>
        <time>2022-09-11T11:45:53Z</time>
      </trkpt>
      <trkpt lat="43.49984" lon="-1.16894">
        <ele>28.4</ele>
        <time>2022-09-11T11:46:00Z</time>
      </trkpt>
      <trkpt lat="43.50031" lon="-1.16877">
        <ele>28.6</ele>
        <time>2022-09-11T11:46:09Z</time>
      </trkpt>
      <trkpt lat="43.50075" lon="-1.16871">
        <ele>28.6</ele>
        <time>2022-09-11T11:46:17Z</time>
      </trkpt>
      <trkpt lat="43.50119" lon="-1.16876">
        <ele>28.6</ele>
        <time>2022-09-11T11:46:25Z</time>
      </trkpt>
      <trkpt lat="43.50152" lon="-1.16894">
        <ele>28.2</ele>
        <time>2022-09-11T11:46:31Z</time>
      </trkpt>
      <trkpt lat="43.50183" lon="-1.16922">
        <ele>28.4</ele>
        <time>2022-09-11T11:46:37Z</time>
      </trkpt>
      <trkpt lat="43.50226" lon="-1.16972">
        <ele>28.6</ele>
        <time>2022-09-11T11:46:46Z</time>
      </trkpt>
      <trkpt lat="43.5023" lon="-1.16977">
        <ele>28.8</ele>
        <time>2022-09-11T11:46:47Z</time>
      </trkpt>
      <trkpt lat="43.50248" lon="-1.17">
        <ele>28.8</ele>
        <time>2022-09-11T11:46:51Z</time>
      </trkpt>
      <trkpt lat="43.50271" lon="-1.17029">
        <ele>28.4</ele>
        <time>2022-09-11T11:46:56Z</time>
      </trkpt>
      <trkpt lat="43.50313" lon="-1.17081">
        <ele>28.4</ele>
        <time>2022-09-11T11:47:05Z</time>
      </trkpt>
      <trkpt lat="43.50322" lon="-1.17093">
        <ele>28.2</ele>
        <time>2022-09-11T11:47:07Z</time>
      </trkpt>
      <trkpt lat="43.50364" lon="-1.1714">
        <ele>28.2</ele>
        <time>2022-09-11T11:47:16Z</time>
      </trkpt>
      <trkpt lat="43.50409" lon="-1.17178">
        <ele>28.6</ele>
        <time>2022-09-11T11:47:25Z</time>
      </trkpt>
      <trkpt lat="43.50451" lon="-1.17205">
        <ele>29</ele>
        <time>2022-09-11T11:47:33Z</time>
      </trkpt>
      <trkpt lat="43.50482" lon="-1.17214">
        <ele>28.4</ele>
        <time>2022-09-11T11:47:39Z</time>
      </trkpt>
      <trkpt lat="43.50522" lon="-1.17215">
        <ele>28.4</ele>
        <time>2022-09-11T11:47:47Z</time>
      </trkpt>
      <trkpt lat="43.50545" lon="-1.17203">
        <ele>28.4</ele>
        <time>2022-09-11T11:47:53Z</time>
      </trkpt>
      <trkpt lat="43.50564" lon="-1.17192">
        <ele>28.6</ele>
        <time>2022-09-11T11:47:58Z</time>
      </trkpt>
      <trkpt lat="43.50572" lon="-1.17193">
        <ele>28.6</ele>
        <time>2022-09-11T11:48:00Z</time>
      </trkpt>
      <trkpt lat="43.50578" lon="-1.17194">
        <ele>28.8</ele>
        <time>2022-09-11T11:48:02Z</time>
      </trkpt>
      <trkpt lat="43.50589" lon="-1.17189">
        <ele>29.4</ele>
        <time>2022-09-11T11:48:06Z</time>
      </trkpt>
      <trkpt lat="43.50603" lon="-1.17169">
        <ele>28.8</ele>
        <time>2022-09-11T11:48:12Z</time>
      </trkpt>
      <trkpt lat="43.5062" lon="-1.17135">
        <ele>28.2</ele>
        <time>2022-09-11T11:48:18Z</time>
      </trkpt>
      <trkpt lat="43.50624" lon="-1.17124">
        <ele>28.2</ele>
        <time>2022-09-11T11:48:20Z</time>
      </trkpt>
      <trkpt lat="43.50629" lon="-1.17105">
        <ele>28.4</ele>
        <time>2022-09-11T11:48:23Z</time>
      </trkpt>
      <trkpt lat="43.50639" lon="-1.17065">
        <ele>27.8</ele>
        <time>2022-09-11T11:48:29Z</time>
      </trkpt>
      <trkpt lat="43.50651" lon="-1.17019">
        <ele>28</ele>
        <time>2022-09-11T11:48:36Z</time>
      </trkpt>
      <trkpt lat="43.50668" lon="-1.16953">
        <ele>28.8</ele>
        <time>2022-09-11T11:48:46Z</time>
      </trkpt>
      <trkpt lat="43.50681" lon="-1.169">
        <ele>28.8</ele>
        <time>2022-09-11T11:48:54Z</time>
      </trkpt>
      <trkpt lat="43.50693" lon="-1.16851">
        <ele>28.8</ele>
        <time>2022-09-11T11:49:01Z</time>
      </trkpt>
      <trkpt lat="43.50703" lon="-1.16811">
        <ele>28.8</ele>
        <time>2022-09-11T11:49:07Z</time>
      </trkpt>
      <trkpt lat="43.50718" lon="-1.16768">
        <ele>28.8</ele>
        <time>2022-09-11T11:49:14Z</time>
      </trkpt>
      <trkpt lat="43.5074" lon="-1.16709">
        <ele>29.6</ele>
        <time>2022-09-11T11:49:23Z</time>
      </trkpt>
      <trkpt lat="43.50742" lon="-1.16702">
        <ele>29.8</ele>
        <time>2022-09-11T11:49:24Z</time>
      </trkpt>
      <trkpt lat="43.50762" lon="-1.16651">
        <ele>28.8</ele>
        <time>2022-09-11T11:49:32Z</time>
      </trkpt>
      <trkpt lat="43.5079" lon="-1.16597">
        <ele>29.8</ele>
        <time>2022-09-11T11:49:41Z</time>
      </trkpt>
      <trkpt lat="43.50808" lon="-1.1657">
        <ele>30</ele>
        <time>2022-09-11T11:49:46Z</time>
      </trkpt>
      <trkpt lat="43.50824" lon="-1.16552">
        <ele>29.8</ele>
        <time>2022-09-11T11:49:50Z</time>
      </trkpt>
      <trkpt lat="43.50866" lon="-1.1651">
        <ele>29</ele>
        <time>2022-09-11T11:50:00Z</time>
      </trkpt>
      <trkpt lat="43.50904" lon="-1.16482">
        <ele>28.8</ele>
        <time>2022-09-11T11:50:08Z</time>
      </trkpt>
      <trkpt lat="43.50954" lon="-1.16455">
        <ele>29</ele>
        <time>2022-09-11T11:50:18Z</time>
      </trkpt>
      <trkpt lat="43.50959" lon="-1.16452">
        <ele>29.2</ele>
        <time>2022-09-11T11:50:19Z</time>
      </trkpt>
      <trkpt lat="43.51005" lon="-1.16429">
        <ele>28.8</ele>
        <time>2022-09-11T11:50:28Z</time>
      </trkpt>
      <trkpt lat="43.51051" lon="-1.16411">
        <ele>28.8</ele>
        <time>2022-09-11T11:50:37Z</time>
      </trkpt>
      <trkpt lat="43.51099" lon="-1.16401">
        <ele>29</ele>
        <time>2022-09-11T11:50:46Z</time>
      </trkpt>
      <trkpt lat="43.51142" lon="-1.16399">
        <ele>28.8</ele>
        <time>2022-09-11T11:50:54Z</time>
      </trkpt>
      <trkpt lat="43.51183" lon="-1.16405">
        <ele>28.8</ele>
        <time>2022-09-11T11:51:01Z</time>
      </trkpt>
      <trkpt lat="43.51222" lon="-1.16421">
        <ele>28.6</ele>
        <time>2022-09-11T11:51:08Z</time>
      </trkpt>
      <trkpt lat="43.51253" lon="-1.16448">
        <ele>28.8</ele>
        <time>2022-09-11T11:51:14Z</time>
      </trkpt>
      <trkpt lat="43.51257" lon="-1.16453">
        <ele>29</ele>
        <time>2022-09-11T11:51:15Z</time>
      </trkpt>
      <trkpt lat="43.51292" lon="-1.16507">
        <ele>28.6</ele>
        <time>2022-09-11T11:51:24Z</time>
      </trkpt>
      <trkpt lat="43.51317" lon="-1.16553">
        <ele>28.6</ele>
        <time>2022-09-11T11:51:31Z</time>
      </trkpt>
      <trkpt lat="43.51342" lon="-1.16613">
        <ele>28.8</ele>
        <time>2022-09-11T11:51:39Z</time>
      </trkpt>
      <trkpt lat="43.51366" lon="-1.16673">
        <ele>28.8</ele>
        <time>2022-09-11T11:51:47Z</time>
      </trkpt>
      <trkpt lat="43.51387" lon="-1.16735">
        <ele>28.8</ele>
        <time>2022-09-11T11:51:55Z</time>
      </trkpt>
      <trkpt lat="43.51406" lon="-1.16797">
        <ele>28.8</ele>
        <time>2022-09-11T11:52:03Z</time>
      </trkpt>
      <trkpt lat="43.51428" lon="-1.16867">
        <ele>29</ele>
        <time>2022-09-11T11:52:12Z</time>
      </trkpt>
      <trkpt lat="43.51432" lon="-1.16882">
        <ele>29</ele>
        <time>2022-09-11T11:52:14Z</time>
      </trkpt>
      <trkpt lat="43.5145" lon="-1.16935">
        <ele>29</ele>
        <time>2022-09-11T11:52:21Z</time>
      </trkpt>
      <trkpt lat="43.51469" lon="-1.16984">
        <ele>29.4</ele>
        <time>2022-09-11T11:52:28Z</time>
      </trkpt>
      <trkpt lat="43.51494" lon="-1.17043">
        <ele>29.4</ele>
        <time>2022-09-11T11:52:36Z</time>
      </trkpt>
      <trkpt lat="43.51512" lon="-1.17083">
        <ele>29.4</ele>
        <time>2022-09-11T11:52:42Z</time>
      </trkpt>
      <trkpt lat="43.51521" lon="-1.17101">
        <ele>29.2</ele>
        <time>2022-09-11T11:52:45Z</time>
      </trkpt>
      <trkpt lat="43.51528" lon="-1.17111">
        <ele>29</ele>
        <time>2022-09-11T11:52:47Z</time>
      </trkpt>
      <trkpt lat="43.51535" lon="-1.17121">
        <ele>29</ele>
        <time>2022-09-11T11:52:49Z</time>
      </trkpt>
      <trkpt lat="43.51548" lon="-1.17145">
        <ele>28.8</ele>
        <time>2022-09-11T11:52:54Z</time>
      </trkpt>
      <trkpt lat="43.51571" lon="-1.17179">
        <ele>29.4</ele>
        <time>2022-09-11T11:53:01Z</time>
      </trkpt>
      <trkpt lat="43.51587" lon="-1.17201">
        <ele>29.2</ele>
        <time>2022-09-11T11:53:06Z</time>
      </trkpt>
      <trkpt lat="43.51593" lon="-1.1721">
        <ele>29.2</ele>
        <time>2022-09-11T11:53:08Z</time>
      </trkpt>
      <trkpt lat="43.5161" lon="-1.17231">
        <ele>29</ele>
        <time>2022-09-11T11:53:13Z</time>
      </trkpt>
      <trkpt lat="43.51618" lon="-1.17244">
        <ele>29.2</ele>
        <time>2022-09-11T11:53:16Z</time>
      </trkpt>
      <trkpt lat="43.51643" lon="-1.17278">
        <ele>28.8</ele>
        <time>2022-09-11T11:53:23Z</time>
      </trkpt>
      <trkpt lat="43.51667" lon="-1.17313">
        <ele>29.2</ele>
        <time>2022-09-11T11:53:30Z</time>
      </trkpt>
      <trkpt lat="43.51694" lon="-1.1735">
        <ele>28.8</ele>
        <time>2022-09-11T11:53:37Z</time>
      </trkpt>
      <trkpt lat="43.5171" lon="-1.17372">
        <ele>29</ele>
        <time>2022-09-11T11:53:41Z</time>
      </trkpt>
      <trkpt lat="43.51718" lon="-1.17382">
        <ele>28.8</ele>
        <time>2022-09-11T11:53:43Z</time>
      </trkpt>
      <trkpt lat="43.51733" lon="-1.17405">
        <ele>29.2</ele>
        <time>2022-09-11T11:53:47Z</time>
      </trkpt>
      <trkpt lat="43.5174" lon="-1.17417">
        <ele>29</ele>
        <time>2022-09-11T11:53:49Z</time>
      </trkpt>
      <trkpt lat="43.51759" lon="-1.17449">
        <ele>28.8</ele>
        <time>2022-09-11T11:53:55Z</time>
      </trkpt>
      <trkpt lat="43.51775" lon="-1.17478">
        <ele>28.8</ele>
        <time>2022-09-11T11:54:00Z</time>
      </trkpt>
      <trkpt lat="43.51782" lon="-1.1749">
        <ele>28.8</ele>
        <time>2022-09-11T11:54:02Z</time>
      </trkpt>
      <trkpt lat="43.51799" lon="-1.17529">
        <ele>29</ele>
        <time>2022-09-11T11:54:08Z</time>
      </trkpt>
      <trkpt lat="43.51814" lon="-1.17568">
        <ele>28.8</ele>
        <time>2022-09-11T11:54:14Z</time>
      </trkpt>
      <trkpt lat="43.51819" lon="-1.1758">
        <ele>28.8</ele>
        <time>2022-09-11T11:54:16Z</time>
      </trkpt>
      <trkpt lat="43.5183" lon="-1.17613">
        <ele>29</ele>
        <time>2022-09-11T11:54:21Z</time>
      </trkpt>
      <trkpt lat="43.51844" lon="-1.17653">
        <ele>29.2</ele>
        <time>2022-09-11T11:54:27Z</time>
      </trkpt>
      <trkpt lat="43.5185" lon="-1.17673">
        <ele>29.2</ele>
        <time>2022-09-11T11:54:30Z</time>
      </trkpt>
      <trkpt lat="43.51871" lon="-1.17738">
        <ele>29.6</ele>
        <time>2022-09-11T11:54:39Z</time>
      </trkpt>
      <trkpt lat="43.51891" lon="-1.17802">
        <ele>29.4</ele>
        <time>2022-09-11T11:54:48Z</time>
      </trkpt>
      <trkpt lat="43.51906" lon="-1.1785">
        <ele>29.2</ele>
        <time>2022-09-11T11:54:55Z</time>
      </trkpt>
      <trkpt lat="43.51924" lon="-1.17892">
        <ele>29</ele>
        <time>2022-09-11T11:55:02Z</time>
      </trkpt>
      <trkpt lat="43.51927" lon="-1.17898">
        <ele>29</ele>
        <time>2022-09-11T11:55:03Z</time>
      </trkpt>
      <trkpt lat="43.5194" lon="-1.17928">
        <ele>29</ele>
        <time>2022-09-11T11:55:08Z</time>
      </trkpt>
      <trkpt lat="43.51966" lon="-1.17987">
        <ele>29.2</ele>
        <time>2022-09-11T11:55:17Z</time>
      </trkpt>
      <trkpt lat="43.5199" lon="-1.18031">
        <ele>29.2</ele>
        <time>2022-09-11T11:55:24Z</time>
      </trkpt>
      <trkpt lat="43.52015" lon="-1.18072">
        <ele>29.2</ele>
        <time>2022-09-11T11:55:31Z</time>
      </trkpt>
      <trkpt lat="43.52049" lon="-1.18121">
        <ele>29.4</ele>
        <time>2022-09-11T11:55:40Z</time>
      </trkpt>
      <trkpt lat="43.52072" lon="-1.18147">
        <ele>29.2</ele>
        <time>2022-09-11T11:55:46Z</time>
      </trkpt>
      <trkpt lat="43.52095" lon="-1.18169">
        <ele>28.8</ele>
        <time>2022-09-11T11:55:52Z</time>
      </trkpt>
      <trkpt lat="43.521" lon="-1.18173">
        <ele>28.8</ele>
        <time>2022-09-11T11:55:53Z</time>
      </trkpt>
      <trkpt lat="43.52126" lon="-1.18196">
        <ele>29.2</ele>
        <time>2022-09-11T11:55:59Z</time>
      </trkpt>
      <trkpt lat="43.52148" lon="-1.18214">
        <ele>29.2</ele>
        <time>2022-09-11T11:56:04Z</time>
      </trkpt>
      <trkpt lat="43.52157" lon="-1.18219">
        <ele>29.2</ele>
        <time>2022-09-11T11:56:06Z</time>
      </trkpt>
      <trkpt lat="43.5219" lon="-1.18239">
        <ele>29.4</ele>
        <time>2022-09-11T11:56:13Z</time>
      </trkpt>
      <trkpt lat="43.52237" lon="-1.18264">
        <ele>29.2</ele>
        <time>2022-09-11T11:56:22Z</time>
      </trkpt>
      <trkpt lat="43.52291" lon="-1.18289">
        <ele>29.2</ele>
        <time>2022-09-11T11:56:32Z</time>
      </trkpt>
      <trkpt lat="43.52344" lon="-1.18315">
        <ele>29</ele>
        <time>2022-09-11T11:56:42Z</time>
      </trkpt>
      <trkpt lat="43.52391" lon="-1.18339">
        <ele>29</ele>
        <time>2022-09-11T11:56:51Z</time>
      </trkpt>
      <trkpt lat="43.52431" lon="-1.18362">
        <ele>28.8</ele>
        <time>2022-09-11T11:56:59Z</time>
      </trkpt>
      <trkpt lat="43.52464" lon="-1.18386">
        <ele>28.8</ele>
        <time>2022-09-11T11:57:06Z</time>
      </trkpt>
      <trkpt lat="43.52507" lon="-1.18424">
        <ele>29</ele>
        <time>2022-09-11T11:57:15Z</time>
      </trkpt>
      <trkpt lat="43.52538" lon="-1.18459">
        <ele>28.8</ele>
        <time>2022-09-11T11:57:22Z</time>
      </trkpt>
      <trkpt lat="43.52561" lon="-1.18498">
        <ele>28.8</ele>
        <time>2022-09-11T11:57:29Z</time>
      </trkpt>
      <trkpt lat="43.52581" lon="-1.18553">
        <ele>29</ele>
        <time>2022-09-11T11:57:37Z</time>
      </trkpt>
      <trkpt lat="43.52596" lon="-1.18626">
        <ele>29</ele>
        <time>2022-09-11T11:57:47Z</time>
      </trkpt>
      <trkpt lat="43.52599" lon="-1.18689">
        <ele>28.8</ele>
        <time>2022-09-11T11:57:55Z</time>
      </trkpt>
      <trkpt lat="43.526" lon="-1.18764">
        <ele>28.8</ele>
        <time>2022-09-11T11:58:04Z</time>
      </trkpt>
      <trkpt lat="43.52597" lon="-1.18845">
        <ele>29.4</ele>
        <time>2022-09-11T11:58:13Z</time>
      </trkpt>
      <trkpt lat="43.52596" lon="-1.18863">
        <ele>29.2</ele>
        <time>2022-09-11T11:58:15Z</time>
      </trkpt>
      <trkpt lat="43.52591" lon="-1.18942">
        <ele>29.2</ele>
        <time>2022-09-11T11:58:24Z</time>
      </trkpt>
      <trkpt lat="43.52581" lon="-1.19003">
        <ele>29</ele>
        <time>2022-09-11T11:58:31Z</time>
      </trkpt>
      <trkpt lat="43.52569" lon="-1.19081">
        <ele>29.2</ele>
        <time>2022-09-11T11:58:40Z</time>
      </trkpt>
      <trkpt lat="43.52559" lon="-1.19149">
        <ele>29</ele>
        <time>2022-09-11T11:58:48Z</time>
      </trkpt>
      <trkpt lat="43.52547" lon="-1.19204">
        <ele>29.4</ele>
        <time>2022-09-11T11:58:55Z</time>
      </trkpt>
      <trkpt lat="43.52532" lon="-1.19253">
        <ele>29.4</ele>
        <time>2022-09-11T11:59:02Z</time>
      </trkpt>
      <trkpt lat="43.52515" lon="-1.19287">
        <ele>29.4</ele>
        <time>2022-09-11T11:59:08Z</time>
      </trkpt>
      <trkpt lat="43.52491" lon="-1.19324">
        <ele>29.2</ele>
        <time>2022-09-11T11:59:15Z</time>
      </trkpt>
      <trkpt lat="43.52463" lon="-1.19364">
        <ele>29.4</ele>
        <time>2022-09-11T11:59:22Z</time>
      </trkpt>
      <trkpt lat="43.52434" lon="-1.19404">
        <ele>29.6</ele>
        <time>2022-09-11T11:59:29Z</time>
      </trkpt>
      <trkpt lat="43.52404" lon="-1.19444">
        <ele>29.8</ele>
        <time>2022-09-11T11:59:36Z</time>
      </trkpt>
      <trkpt lat="43.524" lon="-1.1945">
        <ele>30.2</ele>
        <time>2022-09-11T11:59:37Z</time>
      </trkpt>
      <trkpt lat="43.52368" lon="-1.19495">
        <ele>30</ele>
        <time>2022-09-11T11:59:45Z</time>
      </trkpt>
      <trkpt lat="43.52356" lon="-1.19512">
        <ele>29</ele>
        <time>2022-09-11T11:59:48Z</time>
      </trkpt>
      <trkpt lat="43.52342" lon="-1.19533">
        <ele>29</ele>
        <time>2022-09-11T11:59:52Z</time>
      </trkpt>
      <trkpt lat="43.52324" lon="-1.19561">
        <ele>29.2</ele>
        <time>2022-09-11T11:59:58Z</time>
      </trkpt>
      <trkpt lat="43.52304" lon="-1.19594">
        <ele>29.8</ele>
        <time>2022-09-11T12:00:04Z</time>
      </trkpt>
      <trkpt lat="43.52282" lon="-1.19633">
        <ele>29.6</ele>
        <time>2022-09-11T12:00:11Z</time>
      </trkpt>
      <trkpt lat="43.52263" lon="-1.19669">
        <ele>29.8</ele>
        <time>2022-09-11T12:00:18Z</time>
      </trkpt>
      <trkpt lat="43.52257" lon="-1.1968">
        <ele>30</ele>
        <time>2022-09-11T12:00:21Z</time>
      </trkpt>
      <trkpt lat="43.52255" lon="-1.19684">
        <ele>30.4</ele>
        <time>2022-09-11T12:00:23Z</time>
      </trkpt>
      <trkpt lat="43.52248" lon="-1.19699">
        <ele>30.4</ele>
        <time>2022-09-11T12:00:28Z</time>
      </trkpt>
      <trkpt lat="43.52235" lon="-1.19723">
        <ele>29</ele>
        <time>2022-09-11T12:00:32Z</time>
      </trkpt>
      <trkpt lat="43.52216" lon="-1.19764">
        <ele>29</ele>
        <time>2022-09-11T12:00:39Z</time>
      </trkpt>
      <trkpt lat="43.52212" lon="-1.19776">
        <ele>29.4</ele>
        <time>2022-09-11T12:00:41Z</time>
      </trkpt>
      <trkpt lat="43.5221" lon="-1.19794">
        <ele>29.2</ele>
        <time>2022-09-11T12:00:44Z</time>
      </trkpt>
      <trkpt lat="43.52209" lon="-1.19807">
        <ele>29</ele>
        <time>2022-09-11T12:00:46Z</time>
      </trkpt>
      <trkpt lat="43.52209" lon="-1.19833">
        <ele>29.6</ele>
        <time>2022-09-11T12:00:50Z</time>
      </trkpt>
      <trkpt lat="43.52208" lon="-1.19867">
        <ele>29.4</ele>
        <time>2022-09-11T12:00:55Z</time>
      </trkpt>
      <trkpt lat="43.52209" lon="-1.19873">
        <ele>29.4</ele>
        <time>2022-09-11T12:00:56Z</time>
      </trkpt>
      <trkpt lat="43.52211" lon="-1.19898">
        <ele>30</ele>
        <time>2022-09-11T12:01:00Z</time>
      </trkpt>
      <trkpt lat="43.52215" lon="-1.19917">
        <ele>30.4</ele>
        <time>2022-09-11T12:01:03Z</time>
      </trkpt>
      <trkpt lat="43.52227" lon="-1.19968">
        <ele>30.6</ele>
        <time>2022-09-11T12:01:11Z</time>
      </trkpt>
      <trkpt lat="43.52234" lon="-1.2">
        <ele>31.2</ele>
        <time>2022-09-11T12:01:16Z</time>
      </trkpt>
      <trkpt lat="43.52241" lon="-1.20028">
        <ele>31.6</ele>
        <time>2022-09-11T12:01:21Z</time>
      </trkpt>
      <trkpt lat="43.52244" lon="-1.20043">
        <ele>32.2</ele>
        <time>2022-09-11T12:01:24Z</time>
      </trkpt>
      <trkpt lat="43.52251" lon="-1.20075">
        <ele>32.2</ele>
        <time>2022-09-11T12:01:30Z</time>
      </trkpt>
      <trkpt lat="43.52259" lon="-1.20114">
        <ele>31.6</ele>
        <time>2022-09-11T12:01:36Z</time>
      </trkpt>
      <trkpt lat="43.52268" lon="-1.20167">
        <ele>31.2</ele>
        <time>2022-09-11T12:01:43Z</time>
      </trkpt>
      <trkpt lat="43.52273" lon="-1.20213">
        <ele>30</ele>
        <time>2022-09-11T12:01:49Z</time>
      </trkpt>
      <trkpt lat="43.52277" lon="-1.20235">
        <ele>30</ele>
        <time>2022-09-11T12:01:52Z</time>
      </trkpt>
      <trkpt lat="43.52282" lon="-1.20272">
        <ele>29.8</ele>
        <time>2022-09-11T12:01:57Z</time>
      </trkpt>
      <trkpt lat="43.52281" lon="-1.20279">
        <ele>29.8</ele>
        <time>2022-09-11T12:01:58Z</time>
      </trkpt>
      <trkpt lat="43.52279" lon="-1.20332">
        <ele>30.2</ele>
        <time>2022-09-11T12:02:06Z</time>
      </trkpt>
      <trkpt lat="43.52281" lon="-1.20348">
        <ele>30.6</ele>
        <time>2022-09-11T12:02:09Z</time>
      </trkpt>
      <trkpt lat="43.52283" lon="-1.20353">
        <ele>30.6</ele>
        <time>2022-09-11T12:02:10Z</time>
      </trkpt>
      <trkpt lat="43.52302" lon="-1.20386">
        <ele>30.2</ele>
        <time>2022-09-11T12:02:16Z</time>
      </trkpt>
      <trkpt lat="43.52322" lon="-1.20426">
        <ele>29.8</ele>
        <time>2022-09-11T12:02:23Z</time>
      </trkpt>
      <trkpt lat="43.52342" lon="-1.20473">
        <ele>30</ele>
        <time>2022-09-11T12:02:30Z</time>
      </trkpt>
      <trkpt lat="43.52367" lon="-1.20546">
        <ele>29.6</ele>
        <time>2022-09-11T12:02:40Z</time>
      </trkpt>
      <trkpt lat="43.52372" lon="-1.2056">
        <ele>29.4</ele>
        <time>2022-09-11T12:02:42Z</time>
      </trkpt>
      <trkpt lat="43.52383" lon="-1.2059">
        <ele>29</ele>
        <time>2022-09-11T12:02:46Z</time>
      </trkpt>
      <trkpt lat="43.52385" lon="-1.20598">
        <ele>29</ele>
        <time>2022-09-11T12:02:47Z</time>
      </trkpt>
      <trkpt lat="43.52391" lon="-1.20615">
        <ele>28.8</ele>
        <time>2022-09-11T12:02:49Z</time>
      </trkpt>
      <trkpt lat="43.524" lon="-1.20638">
        <ele>28.6</ele>
        <time>2022-09-11T12:02:52Z</time>
      </trkpt>
      <trkpt lat="43.5241" lon="-1.20661">
        <ele>28.6</ele>
        <time>2022-09-11T12:02:55Z</time>
      </trkpt>
      <trkpt lat="43.52421" lon="-1.20682">
        <ele>28.6</ele>
        <time>2022-09-11T12:02:58Z</time>
      </trkpt>
      <trkpt lat="43.52452" lon="-1.20734">
        <ele>29.6</ele>
        <time>2022-09-11T12:03:06Z</time>
      </trkpt>
      <trkpt lat="43.5247" lon="-1.2077">
        <ele>30</ele>
        <time>2022-09-11T12:03:12Z</time>
      </trkpt>
      <trkpt lat="43.5248" lon="-1.20789">
        <ele>30</ele>
        <time>2022-09-11T12:03:15Z</time>
      </trkpt>
      <trkpt lat="43.52503" lon="-1.2084">
        <ele>29.8</ele>
        <time>2022-09-11T12:03:23Z</time>
      </trkpt>
      <trkpt lat="43.52522" lon="-1.20883">
        <ele>30</ele>
        <time>2022-09-11T12:03:30Z</time>
      </trkpt>
      <trkpt lat="43.52551" lon="-1.20941">
        <ele>29.6</ele>
        <time>2022-09-11T12:03:40Z</time>
      </trkpt>
      <trkpt lat="43.52571" lon="-1.20978">
        <ele>29.6</ele>
        <time>2022-09-11T12:03:48Z</time>
      </trkpt>
      <trkpt lat="43.5258" lon="-1.20994">
        <ele>29.6</ele>
        <time>2022-09-11T12:03:53Z</time>
      </trkpt>
      <trkpt lat="43.5258" lon="-1.21">
        <ele>29.4</ele>
        <time>2022-09-11T12:04:02Z</time>
      </trkpt>
      <trkpt lat="43.52578" lon="-1.21017">
        <ele>29.2</ele>
        <time>2022-09-11T12:04:06Z</time>
      </trkpt>
      <trkpt lat="43.52564" lon="-1.21038">
        <ele>29.2</ele>
        <time>2022-09-11T12:04:11Z</time>
      </trkpt>
      <trkpt lat="43.52561" lon="-1.21043">
        <ele>29.2</ele>
        <time>2022-09-11T12:04:12Z</time>
      </trkpt>
      <trkpt lat="43.52555" lon="-1.21053">
        <ele>29</ele>
        <time>2022-09-11T12:04:14Z</time>
      </trkpt>
      <trkpt lat="43.52539" lon="-1.21076">
        <ele>28.8</ele>
        <time>2022-09-11T12:04:19Z</time>
      </trkpt>
      <trkpt lat="43.52517" lon="-1.21108">
        <ele>28.4</ele>
        <time>2022-09-11T12:04:26Z</time>
      </trkpt>
      <trkpt lat="43.52493" lon="-1.21146">
        <ele>28.6</ele>
        <time>2022-09-11T12:04:33Z</time>
      </trkpt>
      <trkpt lat="43.52462" lon="-1.21195">
        <ele>28.8</ele>
        <time>2022-09-11T12:04:41Z</time>
      </trkpt>
      <trkpt lat="43.52425" lon="-1.21251">
        <ele>28.8</ele>
        <time>2022-09-11T12:04:50Z</time>
      </trkpt>
      <trkpt lat="43.5239" lon="-1.21306">
        <ele>28.8</ele>
        <time>2022-09-11T12:04:59Z</time>
      </trkpt>
      <trkpt lat="43.52354" lon="-1.21365">
        <ele>28.6</ele>
        <time>2022-09-11T12:05:09Z</time>
      </trkpt>
      <trkpt lat="43.5235" lon="-1.2137">
        <ele>28.4</ele>
        <time>2022-09-11T12:05:10Z</time>
      </trkpt>
      <trkpt lat="43.52321" lon="-1.21418">
        <ele>27.8</ele>
        <time>2022-09-11T12:05:18Z</time>
      </trkpt>
      <trkpt lat="43.52318" lon="-1.21423">
        <ele>28</ele>
        <time>2022-09-11T12:05:19Z</time>
      </trkpt>
      <trkpt lat="43.52302" lon="-1.21452">
        <ele>28.4</ele>
        <time>2022-09-11T12:05:25Z</time>
      </trkpt>
      <trkpt lat="43.52309" lon="-1.21463">
        <ele>27.2</ele>
        <time>2022-09-11T12:05:28Z</time>
      </trkpt>
      <trkpt lat="43.52333" lon="-1.2149">
        <ele>27.4</ele>
        <time>2022-09-11T12:05:35Z</time>
      </trkpt>
      <trkpt lat="43.52359" lon="-1.21523">
        <ele>27.4</ele>
        <time>2022-09-11T12:05:42Z</time>
      </trkpt>
      <trkpt lat="43.52391" lon="-1.21564">
        <ele>27.8</ele>
        <time>2022-09-11T12:05:50Z</time>
      </trkpt>
      <trkpt lat="43.52433" lon="-1.21617">
        <ele>27.6</ele>
        <time>2022-09-11T12:06:00Z</time>
      </trkpt>
      <trkpt lat="43.52471" lon="-1.21665">
        <ele>27.6</ele>
        <time>2022-09-11T12:06:09Z</time>
      </trkpt>
      <trkpt lat="43.525" lon="-1.21702">
        <ele>27.8</ele>
        <time>2022-09-11T12:06:16Z</time>
      </trkpt>
      <trkpt lat="43.52538" lon="-1.21749">
        <ele>27.6</ele>
        <time>2022-09-11T12:06:25Z</time>
      </trkpt>
      <trkpt lat="43.5255" lon="-1.21765">
        <ele>27.6</ele>
        <time>2022-09-11T12:06:28Z</time>
      </trkpt>
      <trkpt lat="43.52553" lon="-1.21778">
        <ele>27.8</ele>
        <time>2022-09-11T12:06:30Z</time>
      </trkpt>
      <trkpt lat="43.52547" lon="-1.218">
        <ele>27.6</ele>
        <time>2022-09-11T12:06:33Z</time>
      </trkpt>
      <trkpt lat="43.52538" lon="-1.21812">
        <ele>27.8</ele>
        <time>2022-09-11T12:06:35Z</time>
      </trkpt>
      <trkpt lat="43.52517" lon="-1.21845">
        <ele>27.8</ele>
        <time>2022-09-11T12:06:40Z</time>
      </trkpt>
      <trkpt lat="43.52479" lon="-1.21905">
        <ele>27.8</ele>
        <time>2022-09-11T12:06:49Z</time>
      </trkpt>
      <trkpt lat="43.5247" lon="-1.21918">
        <ele>28</ele>
        <time>2022-09-11T12:06:51Z</time>
      </trkpt>
      <trkpt lat="43.52431" lon="-1.21978">
        <ele>27.8</ele>
        <time>2022-09-11T12:07:00Z</time>
      </trkpt>
      <trkpt lat="43.52427" lon="-1.21985">
        <ele>27.8</ele>
        <time>2022-09-11T12:07:01Z</time>
      </trkpt>
      <trkpt lat="43.5239" lon="-1.22042">
        <ele>28.4</ele>
        <time>2022-09-11T12:07:09Z</time>
      </trkpt>
      <trkpt lat="43.5238" lon="-1.22057">
        <ele>28</ele>
        <time>2022-09-11T12:07:11Z</time>
      </trkpt>
      <trkpt lat="43.52343" lon="-1.22113">
        <ele>28.2</ele>
        <time>2022-09-11T12:07:19Z</time>
      </trkpt>
      <trkpt lat="43.52326" lon="-1.22141">
        <ele>28.2</ele>
        <time>2022-09-11T12:07:23Z</time>
      </trkpt>
      <trkpt lat="43.52288" lon="-1.22197">
        <ele>28</ele>
        <time>2022-09-11T12:07:32Z</time>
      </trkpt>
      <trkpt lat="43.5225" lon="-1.22255">
        <ele>27.8</ele>
        <time>2022-09-11T12:07:41Z</time>
      </trkpt>
      <trkpt lat="43.52246" lon="-1.22262">
        <ele>27.8</ele>
        <time>2022-09-11T12:07:42Z</time>
      </trkpt>
      <trkpt lat="43.52212" lon="-1.22314">
        <ele>27.4</ele>
        <time>2022-09-11T12:07:50Z</time>
      </trkpt>
      <trkpt lat="43.52173" lon="-1.22371">
        <ele>27.8</ele>
        <time>2022-09-11T12:07:59Z</time>
      </trkpt>
      <trkpt lat="43.52138" lon="-1.22418">
        <ele>27.6</ele>
        <time>2022-09-11T12:08:07Z</time>
      </trkpt>
      <trkpt lat="43.52104" lon="-1.22463">
        <ele>27</ele>
        <time>2022-09-11T12:08:15Z</time>
      </trkpt>
      <trkpt lat="43.52062" lon="-1.22518">
        <ele>27.8</ele>
        <time>2022-09-11T12:08:24Z</time>
      </trkpt>
      <trkpt lat="43.52021" lon="-1.22574">
        <ele>27.6</ele>
        <time>2022-09-11T12:08:33Z</time>
      </trkpt>
      <trkpt lat="43.5198" lon="-1.22629">
        <ele>27.4</ele>
        <time>2022-09-11T12:08:42Z</time>
      </trkpt>
      <trkpt lat="43.51941" lon="-1.22682">
        <ele>28</ele>
        <time>2022-09-11T12:08:51Z</time>
      </trkpt>
      <trkpt lat="43.51904" lon="-1.22729">
        <ele>28</ele>
        <time>2022-09-11T12:09:00Z</time>
      </trkpt>
      <trkpt lat="43.51882" lon="-1.22759">
        <ele>28</ele>
        <time>2022-09-11T12:09:06Z</time>
      </trkpt>
      <trkpt lat="43.51845" lon="-1.22808">
        <ele>27.6</ele>
        <time>2022-09-11T12:09:16Z</time>
      </trkpt>
      <trkpt lat="43.5181" lon="-1.22852">
        <ele>27.6</ele>
        <time>2022-09-11T12:09:26Z</time>
      </trkpt>
      <trkpt lat="43.51794" lon="-1.22874">
        <ele>27.8</ele>
        <time>2022-09-11T12:09:32Z</time>
      </trkpt>
      <trkpt lat="43.51791" lon="-1.22879">
        <ele>27.8</ele>
        <time>2022-09-11T12:09:33Z</time>
      </trkpt>
      <trkpt lat="43.51772" lon="-1.22911">
        <ele>27.8</ele>
        <time>2022-09-11T12:09:39Z</time>
      </trkpt>
      <trkpt lat="43.51748" lon="-1.22954">
        <ele>28</ele>
        <time>2022-09-11T12:09:46Z</time>
      </trkpt>
      <trkpt lat="43.51722" lon="-1.23003">
        <ele>28.2</ele>
        <time>2022-09-11T12:09:53Z</time>
      </trkpt>
      <trkpt lat="43.51688" lon="-1.23068">
        <ele>28</ele>
        <time>2022-09-11T12:10:02Z</time>
      </trkpt>
      <trkpt lat="43.51681" lon="-1.23083">
        <ele>27.8</ele>
        <time>2022-09-11T12:10:04Z</time>
      </trkpt>
      <trkpt lat="43.51648" lon="-1.2315">
        <ele>28</ele>
        <time>2022-09-11T12:10:13Z</time>
      </trkpt>
      <trkpt lat="43.51644" lon="-1.23157">
        <ele>28</ele>
        <time>2022-09-11T12:10:14Z</time>
      </trkpt>
      <trkpt lat="43.5161" lon="-1.23211">
        <ele>28.6</ele>
        <time>2022-09-11T12:10:22Z</time>
      </trkpt>
      <trkpt lat="43.51569" lon="-1.23269">
        <ele>28.8</ele>
        <time>2022-09-11T12:10:31Z</time>
      </trkpt>
      <trkpt lat="43.51565" lon="-1.23276">
        <ele>29</ele>
        <time>2022-09-11T12:10:32Z</time>
      </trkpt>
      <trkpt lat="43.51529" lon="-1.23339">
        <ele>28.6</ele>
        <time>2022-09-11T12:10:41Z</time>
      </trkpt>
      <trkpt lat="43.51499" lon="-1.23409">
        <ele>28.6</ele>
        <time>2022-09-11T12:10:50Z</time>
      </trkpt>
      <trkpt lat="43.51496" lon="-1.23417">
        <ele>28.4</ele>
        <time>2022-09-11T12:10:51Z</time>
      </trkpt>
      <trkpt lat="43.51472" lon="-1.23479">
        <ele>28.4</ele>
        <time>2022-09-11T12:10:59Z</time>
      </trkpt>
      <trkpt lat="43.5145" lon="-1.23549">
        <ele>29</ele>
        <time>2022-09-11T12:11:08Z</time>
      </trkpt>
      <trkpt lat="43.51444" lon="-1.23564">
        <ele>28.6</ele>
        <time>2022-09-11T12:11:10Z</time>
      </trkpt>
      <trkpt lat="43.5143" lon="-1.2359">
        <ele>28.6</ele>
        <time>2022-09-11T12:11:14Z</time>
      </trkpt>
      <trkpt lat="43.51393" lon="-1.23649">
        <ele>28.4</ele>
        <time>2022-09-11T12:11:23Z</time>
      </trkpt>
      <trkpt lat="43.51389" lon="-1.23656">
        <ele>28.6</ele>
        <time>2022-09-11T12:11:24Z</time>
      </trkpt>
      <trkpt lat="43.51354" lon="-1.23706">
        <ele>28.6</ele>
        <time>2022-09-11T12:11:32Z</time>
      </trkpt>
      <trkpt lat="43.51316" lon="-1.23752">
        <ele>28.4</ele>
        <time>2022-09-11T12:11:40Z</time>
      </trkpt>
      <trkpt lat="43.5127" lon="-1.23801">
        <ele>28.4</ele>
        <time>2022-09-11T12:11:49Z</time>
      </trkpt>
      <trkpt lat="43.51265" lon="-1.23807">
        <ele>28.4</ele>
        <time>2022-09-11T12:11:50Z</time>
      </trkpt>
      <trkpt lat="43.51222" lon="-1.23859">
        <ele>29.2</ele>
        <time>2022-09-11T12:11:59Z</time>
      </trkpt>
      <trkpt lat="43.51187" lon="-1.23894">
        <ele>29</ele>
        <time>2022-09-11T12:12:06Z</time>
      </trkpt>
      <trkpt lat="43.51181" lon="-1.23896">
        <ele>28.8</ele>
        <time>2022-09-11T12:12:07Z</time>
      </trkpt>
      <trkpt lat="43.5117" lon="-1.23902">
        <ele>28.8</ele>
        <time>2022-09-11T12:12:09Z</time>
      </trkpt>
      <trkpt lat="43.51162" lon="-1.23912">
        <ele>28.8</ele>
        <time>2022-09-11T12:12:11Z</time>
      </trkpt>
      <trkpt lat="43.51155" lon="-1.23926">
        <ele>28.4</ele>
        <time>2022-09-11T12:12:13Z</time>
      </trkpt>
      <trkpt lat="43.51142" lon="-1.23954">
        <ele>28.4</ele>
        <time>2022-09-11T12:12:17Z</time>
      </trkpt>
      <trkpt lat="43.51118" lon="-1.23995">
        <ele>28.6</ele>
        <time>2022-09-11T12:12:24Z</time>
      </trkpt>
      <trkpt lat="43.51093" lon="-1.24043">
        <ele>28.2</ele>
        <time>2022-09-11T12:12:32Z</time>
      </trkpt>
      <trkpt lat="43.51065" lon="-1.24099">
        <ele>28.2</ele>
        <time>2022-09-11T12:12:41Z</time>
      </trkpt>
      <trkpt lat="43.51039" lon="-1.24149">
        <ele>27.8</ele>
        <time>2022-09-11T12:12:49Z</time>
      </trkpt>
      <trkpt lat="43.51016" lon="-1.2419">
        <ele>28.2</ele>
        <time>2022-09-11T12:12:56Z</time>
      </trkpt>
      <trkpt lat="43.50981" lon="-1.24255">
        <ele>28.4</ele>
        <time>2022-09-11T12:13:07Z</time>
      </trkpt>
      <trkpt lat="43.50955" lon="-1.24303">
        <ele>28.6</ele>
        <time>2022-09-11T12:13:16Z</time>
      </trkpt>
      <trkpt lat="43.50952" lon="-1.24309">
        <ele>28.8</ele>
        <time>2022-09-11T12:13:17Z</time>
      </trkpt>
      <trkpt lat="43.50936" lon="-1.24338">
        <ele>28.8</ele>
        <time>2022-09-11T12:13:23Z</time>
      </trkpt>
      <trkpt lat="43.50928" lon="-1.24351">
        <ele>27.6</ele>
        <time>2022-09-11T12:13:26Z</time>
      </trkpt>
      <trkpt lat="43.50919" lon="-1.24363">
        <ele>28</ele>
        <time>2022-09-11T12:13:30Z</time>
      </trkpt>
      <trkpt lat="43.50912" lon="-1.24372">
        <ele>28.8</ele>
        <time>2022-09-11T12:17:29Z</time>
      </trkpt>
      <trkpt lat="43.50908" lon="-1.24377">
        <ele>28.8</ele>
        <time>2022-09-11T12:17:31Z</time>
      </trkpt>
      <trkpt lat="43.50891" lon="-1.24399">
        <ele>28.8</ele>
        <time>2022-09-11T12:17:38Z</time>
      </trkpt>
      <trkpt lat="43.50871" lon="-1.24432">
        <ele>29.2</ele>
        <time>2022-09-11T12:17:46Z</time>
      </trkpt>
      <trkpt lat="43.50852" lon="-1.24468">
        <ele>29.4</ele>
        <time>2022-09-11T12:17:54Z</time>
      </trkpt>
      <trkpt lat="43.50849" lon="-1.24471">
        <ele>29.4</ele>
        <time>2022-09-11T12:17:55Z</time>
      </trkpt>
      <trkpt lat="43.50831" lon="-1.24489">
        <ele>29.6</ele>
        <time>2022-09-11T12:18:00Z</time>
      </trkpt>
      <trkpt lat="43.50825" lon="-1.24498">
        <ele>29.4</ele>
        <time>2022-09-11T12:18:02Z</time>
      </trkpt>
      <trkpt lat="43.50818" lon="-1.24514">
        <ele>29.4</ele>
        <time>2022-09-11T12:18:05Z</time>
      </trkpt>
      <trkpt lat="43.50816" lon="-1.24519">
        <ele>29.6</ele>
        <time>2022-09-11T12:18:06Z</time>
      </trkpt>
      <trkpt lat="43.50817" lon="-1.24541">
        <ele>29.6</ele>
        <time>2022-09-11T12:18:09Z</time>
      </trkpt>
      <trkpt lat="43.50817" lon="-1.24548">
        <ele>29.6</ele>
        <time>2022-09-11T12:18:10Z</time>
      </trkpt>
      <trkpt lat="43.5082" lon="-1.24595">
        <ele>29.8</ele>
        <time>2022-09-11T12:18:16Z</time>
      </trkpt>
      <trkpt lat="43.50822" lon="-1.24603">
        <ele>30</ele>
        <time>2022-09-11T12:18:17Z</time>
      </trkpt>
      <trkpt lat="43.5083" lon="-1.24632">
        <ele>29.8</ele>
        <time>2022-09-11T12:18:21Z</time>
      </trkpt>
      <trkpt lat="43.50831" lon="-1.2464">
        <ele>30.2</ele>
        <time>2022-09-11T12:18:22Z</time>
      </trkpt>
      <trkpt lat="43.50829" lon="-1.24654">
        <ele>30.2</ele>
        <time>2022-09-11T12:18:24Z</time>
      </trkpt>
      <trkpt lat="43.50818" lon="-1.24679">
        <ele>30</ele>
        <time>2022-09-11T12:18:28Z</time>
      </trkpt>
      <trkpt lat="43.50805" lon="-1.24692">
        <ele>30</ele>
        <time>2022-09-11T12:18:31Z</time>
      </trkpt>
      <trkpt lat="43.50796" lon="-1.247">
        <ele>30</ele>
        <time>2022-09-11T12:18:33Z</time>
      </trkpt>
      <trkpt lat="43.50792" lon="-1.24705">
        <ele>29.8</ele>
        <time>2022-09-11T12:18:34Z</time>
      </trkpt>
      <trkpt lat="43.50778" lon="-1.24729">
        <ele>30</ele>
        <time>2022-09-11T12:18:38Z</time>
      </trkpt>
      <trkpt lat="43.50771" lon="-1.24741">
        <ele>30</ele>
        <time>2022-09-11T12:18:40Z</time>
      </trkpt>
      <trkpt lat="43.50757" lon="-1.24752">
        <ele>29.6</ele>
        <time>2022-09-11T12:18:43Z</time>
      </trkpt>
      <trkpt lat="43.50746" lon="-1.24755">
        <ele>29.8</ele>
        <time>2022-09-11T12:18:45Z</time>
      </trkpt>
      <trkpt lat="43.5074" lon="-1.24755">
        <ele>30.2</ele>
        <time>2022-09-11T12:18:46Z</time>
      </trkpt>
      <trkpt lat="43.5073" lon="-1.24754">
        <ele>30.6</ele>
        <time>2022-09-11T12:18:48Z</time>
      </trkpt>
      <trkpt lat="43.50708" lon="-1.24751">
        <ele>30.2</ele>
        <time>2022-09-11T12:18:52Z</time>
      </trkpt>
      <trkpt lat="43.50693" lon="-1.24757">
        <ele>30</ele>
        <time>2022-09-11T12:18:55Z</time>
      </trkpt>
      <trkpt lat="43.50671" lon="-1.24777">
        <ele>30</ele>
        <time>2022-09-11T12:19:00Z</time>
      </trkpt>
      <trkpt lat="43.50664" lon="-1.24787">
        <ele>30</ele>
        <time>2022-09-11T12:19:02Z</time>
      </trkpt>
      <trkpt lat="43.50646" lon="-1.24817">
        <ele>30</ele>
        <time>2022-09-11T12:19:07Z</time>
      </trkpt>
      <trkpt lat="43.50622" lon="-1.24854">
        <ele>29.8</ele>
        <time>2022-09-11T12:19:14Z</time>
      </trkpt>
      <trkpt lat="43.50592" lon="-1.24882">
        <ele>30.2</ele>
        <time>2022-09-11T12:19:21Z</time>
      </trkpt>
      <trkpt lat="43.50555" lon="-1.24903">
        <ele>29.6</ele>
        <time>2022-09-11T12:19:29Z</time>
      </trkpt>
      <trkpt lat="43.50533" lon="-1.24918">
        <ele>29.2</ele>
        <time>2022-09-11T12:19:34Z</time>
      </trkpt>
      <trkpt lat="43.50527" lon="-1.24929">
        <ele>29.2</ele>
        <time>2022-09-11T12:19:36Z</time>
      </trkpt>
      <trkpt lat="43.50521" lon="-1.2495">
        <ele>29.2</ele>
        <time>2022-09-11T12:19:39Z</time>
      </trkpt>
      <trkpt lat="43.5052" lon="-1.24956">
        <ele>29.2</ele>
        <time>2022-09-11T12:19:40Z</time>
      </trkpt>
      <trkpt lat="43.50509" lon="-1.2501">
        <ele>29</ele>
        <time>2022-09-11T12:19:48Z</time>
      </trkpt>
      <trkpt lat="43.50505" lon="-1.25029">
        <ele>29.2</ele>
        <time>2022-09-11T12:19:51Z</time>
      </trkpt>
      <trkpt lat="43.50508" lon="-1.25041">
        <ele>29.2</ele>
        <time>2022-09-11T12:19:53Z</time>
      </trkpt>
      <trkpt lat="43.50513" lon="-1.25053">
        <ele>29.4</ele>
        <time>2022-09-11T12:19:55Z</time>
      </trkpt>
      <trkpt lat="43.50515" lon="-1.25072">
        <ele>29.6</ele>
        <time>2022-09-11T12:19:58Z</time>
      </trkpt>
      <trkpt lat="43.50515" lon="-1.25079">
        <ele>29.6</ele>
        <time>2022-09-11T12:19:59Z</time>
      </trkpt>
      <trkpt lat="43.50519" lon="-1.25126">
        <ele>29.8</ele>
        <time>2022-09-11T12:20:06Z</time>
      </trkpt>
      <trkpt lat="43.50523" lon="-1.25138">
        <ele>29.8</ele>
        <time>2022-09-11T12:20:08Z</time>
      </trkpt>
      <trkpt lat="43.50532" lon="-1.25161">
        <ele>29.8</ele>
        <time>2022-09-11T12:20:12Z</time>
      </trkpt>
      <trkpt lat="43.50555" lon="-1.2521">
        <ele>30</ele>
        <time>2022-09-11T12:20:20Z</time>
      </trkpt>
      <trkpt lat="43.50582" lon="-1.25274">
        <ele>30</ele>
        <time>2022-09-11T12:20:30Z</time>
      </trkpt>
      <trkpt lat="43.50609" lon="-1.25336">
        <ele>30.2</ele>
        <time>2022-09-11T12:20:40Z</time>
      </trkpt>
      <trkpt lat="43.50625" lon="-1.25374">
        <ele>30.2</ele>
        <time>2022-09-11T12:20:46Z</time>
      </trkpt>
      <trkpt lat="43.50627" lon="-1.2538">
        <ele>30.2</ele>
        <time>2022-09-11T12:20:47Z</time>
      </trkpt>
      <trkpt lat="43.50639" lon="-1.25419">
        <ele>30.2</ele>
        <time>2022-09-11T12:20:53Z</time>
      </trkpt>
      <trkpt lat="43.50649" lon="-1.25454">
        <ele>30.4</ele>
        <time>2022-09-11T12:20:58Z</time>
      </trkpt>
      <trkpt lat="43.50648" lon="-1.25469">
        <ele>30.6</ele>
        <time>2022-09-11T12:21:00Z</time>
      </trkpt>
      <trkpt lat="43.50642" lon="-1.25489">
        <ele>30.4</ele>
        <time>2022-09-11T12:21:03Z</time>
      </trkpt>
      <trkpt lat="43.50638" lon="-1.25503">
        <ele>30.6</ele>
        <time>2022-09-11T12:21:05Z</time>
      </trkpt>
      <trkpt lat="43.50634" lon="-1.25514">
        <ele>30.8</ele>
        <time>2022-09-11T12:21:07Z</time>
      </trkpt>
      <trkpt lat="43.50631" lon="-1.25518">
        <ele>31.2</ele>
        <time>2022-09-11T12:21:08Z</time>
      </trkpt>
      <trkpt lat="43.50628" lon="-1.25521">
        <ele>31.4</ele>
        <time>2022-09-11T12:21:09Z</time>
      </trkpt>
      <trkpt lat="43.50615" lon="-1.25527">
        <ele>32</ele>
        <time>2022-09-11T12:21:13Z</time>
      </trkpt>
      <trkpt lat="43.50611" lon="-1.25529">
        <ele>32</ele>
        <time>2022-09-11T12:21:14Z</time>
      </trkpt>
      <trkpt lat="43.50586" lon="-1.25533">
        <ele>31.8</ele>
        <time>2022-09-11T12:21:20Z</time>
      </trkpt>
      <trkpt lat="43.50554" lon="-1.25527">
        <ele>32.2</ele>
        <time>2022-09-11T12:21:27Z</time>
      </trkpt>
      <trkpt lat="43.50549" lon="-1.25525">
        <ele>32.2</ele>
        <time>2022-09-11T12:21:28Z</time>
      </trkpt>
      <trkpt lat="43.50522" lon="-1.25509">
        <ele>32</ele>
        <time>2022-09-11T12:21:34Z</time>
      </trkpt>
      <trkpt lat="43.50481" lon="-1.2548">
        <ele>31.8</ele>
        <time>2022-09-11T12:21:43Z</time>
      </trkpt>
      <trkpt lat="43.50466" lon="-1.25474">
        <ele>32</ele>
        <time>2022-09-11T12:21:46Z</time>
      </trkpt>
      <trkpt lat="43.50456" lon="-1.25475">
        <ele>31.8</ele>
        <time>2022-09-11T12:21:48Z</time>
      </trkpt>
      <trkpt lat="43.50438" lon="-1.25487">
        <ele>32</ele>
        <time>2022-09-11T12:21:52Z</time>
      </trkpt>
      <trkpt lat="43.50428" lon="-1.2551">
        <ele>31.6</ele>
        <time>2022-09-11T12:21:56Z</time>
      </trkpt>
      <trkpt lat="43.50428" lon="-1.25532">
        <ele>31.4</ele>
        <time>2022-09-11T12:21:59Z</time>
      </trkpt>
      <trkpt lat="43.50429" lon="-1.25546">
        <ele>31.4</ele>
        <time>2022-09-11T12:22:01Z</time>
      </trkpt>
      <trkpt lat="43.50435" lon="-1.25609">
        <ele>31.8</ele>
        <time>2022-09-11T12:22:10Z</time>
      </trkpt>
      <trkpt lat="43.50436" lon="-1.25674">
        <ele>32</ele>
        <time>2022-09-11T12:22:19Z</time>
      </trkpt>
      <trkpt lat="43.50435" lon="-1.25681">
        <ele>32</ele>
        <time>2022-09-11T12:22:20Z</time>
      </trkpt>
      <trkpt lat="43.50428" lon="-1.25716">
        <ele>31.6</ele>
        <time>2022-09-11T12:22:25Z</time>
      </trkpt>
      <trkpt lat="43.5042" lon="-1.25766">
        <ele>31.8</ele>
        <time>2022-09-11T12:22:32Z</time>
      </trkpt>
      <trkpt lat="43.5041" lon="-1.25822">
        <ele>32.2</ele>
        <time>2022-09-11T12:22:40Z</time>
      </trkpt>
      <trkpt lat="43.50403" lon="-1.25863">
        <ele>32</ele>
        <time>2022-09-11T12:22:46Z</time>
      </trkpt>
      <trkpt lat="43.50392" lon="-1.25914">
        <ele>32.4</ele>
        <time>2022-09-11T12:22:53Z</time>
      </trkpt>
      <trkpt lat="43.50378" lon="-1.25956">
        <ele>32.2</ele>
        <time>2022-09-11T12:22:59Z</time>
      </trkpt>
      <trkpt lat="43.50363" lon="-1.25993">
        <ele>32</ele>
        <time>2022-09-11T12:23:05Z</time>
      </trkpt>
      <trkpt lat="43.5034" lon="-1.26038">
        <ele>31.8</ele>
        <time>2022-09-11T12:23:12Z</time>
      </trkpt>
      <trkpt lat="43.50307" lon="-1.26098">
        <ele>32</ele>
        <time>2022-09-11T12:23:22Z</time>
      </trkpt>
      <trkpt lat="43.50297" lon="-1.26117">
        <ele>31.8</ele>
        <time>2022-09-11T12:23:25Z</time>
      </trkpt>
      <trkpt lat="43.50286" lon="-1.26143">
        <ele>31.8</ele>
        <time>2022-09-11T12:23:29Z</time>
      </trkpt>
      <trkpt lat="43.50264" lon="-1.26197">
        <ele>31.6</ele>
        <time>2022-09-11T12:23:37Z</time>
      </trkpt>
      <trkpt lat="43.50244" lon="-1.26234">
        <ele>32</ele>
        <time>2022-09-11T12:23:43Z</time>
      </trkpt>
      <trkpt lat="43.50222" lon="-1.26276">
        <ele>32</ele>
        <time>2022-09-11T12:23:50Z</time>
      </trkpt>
      <trkpt lat="43.50197" lon="-1.26317">
        <ele>32.2</ele>
        <time>2022-09-11T12:23:57Z</time>
      </trkpt>
      <trkpt lat="43.50166" lon="-1.2637">
        <ele>32.2</ele>
        <time>2022-09-11T12:24:06Z</time>
      </trkpt>
      <trkpt lat="43.50143" lon="-1.26418">
        <ele>31.8</ele>
        <time>2022-09-11T12:24:14Z</time>
      </trkpt>
      <trkpt lat="43.50122" lon="-1.26455">
        <ele>32.2</ele>
        <time>2022-09-11T12:24:20Z</time>
      </trkpt>
      <trkpt lat="43.50103" lon="-1.26492">
        <ele>31.4</ele>
        <time>2022-09-11T12:24:26Z</time>
      </trkpt>
      <trkpt lat="43.5008" lon="-1.2653">
        <ele>31.4</ele>
        <time>2022-09-11T12:24:33Z</time>
      </trkpt>
      <trkpt lat="43.50055" lon="-1.26568">
        <ele>31.6</ele>
        <time>2022-09-11T12:24:40Z</time>
      </trkpt>
      <trkpt lat="43.50028" lon="-1.26607">
        <ele>32.2</ele>
        <time>2022-09-11T12:24:47Z</time>
      </trkpt>
      <trkpt lat="43.49999" lon="-1.2665">
        <ele>31.8</ele>
        <time>2022-09-11T12:24:55Z</time>
      </trkpt>
      <trkpt lat="43.49971" lon="-1.26697">
        <ele>32.2</ele>
        <time>2022-09-11T12:25:03Z</time>
      </trkpt>
      <trkpt lat="43.49942" lon="-1.26746">
        <ele>32.2</ele>
        <time>2022-09-11T12:25:12Z</time>
      </trkpt>
      <trkpt lat="43.49939" lon="-1.26751">
        <ele>32.2</ele>
        <time>2022-09-11T12:25:13Z</time>
      </trkpt>
      <trkpt lat="43.49929" lon="-1.26771">
        <ele>32</ele>
        <time>2022-09-11T12:25:17Z</time>
      </trkpt>
      <trkpt lat="43.499" lon="-1.26813">
        <ele>32.6</ele>
        <time>2022-09-11T12:25:25Z</time>
      </trkpt>
      <trkpt lat="43.49872" lon="-1.26857">
        <ele>32</ele>
        <time>2022-09-11T12:25:33Z</time>
      </trkpt>
      <trkpt lat="43.49852" lon="-1.2689">
        <ele>32</ele>
        <time>2022-09-11T12:25:39Z</time>
      </trkpt>
      <trkpt lat="43.49825" lon="-1.26936">
        <ele>32</ele>
        <time>2022-09-11T12:25:47Z</time>
      </trkpt>
      <trkpt lat="43.49806" lon="-1.26981">
        <ele>32</ele>
        <time>2022-09-11T12:25:54Z</time>
      </trkpt>
      <trkpt lat="43.49788" lon="-1.27033">
        <ele>32.2</ele>
        <time>2022-09-11T12:26:02Z</time>
      </trkpt>
      <trkpt lat="43.49768" lon="-1.27099">
        <ele>32.4</ele>
        <time>2022-09-11T12:26:12Z</time>
      </trkpt>
      <trkpt lat="43.49756" lon="-1.27147">
        <ele>32.4</ele>
        <time>2022-09-11T12:26:19Z</time>
      </trkpt>
      <trkpt lat="43.49746" lon="-1.27196">
        <ele>32.4</ele>
        <time>2022-09-11T12:26:26Z</time>
      </trkpt>
      <trkpt lat="43.49744" lon="-1.27203">
        <ele>32.6</ele>
        <time>2022-09-11T12:26:27Z</time>
      </trkpt>
      <trkpt lat="43.49731" lon="-1.2726">
        <ele>32.2</ele>
        <time>2022-09-11T12:26:35Z</time>
      </trkpt>
      <trkpt lat="43.49724" lon="-1.27314">
        <ele>32.4</ele>
        <time>2022-09-11T12:26:42Z</time>
      </trkpt>
      <trkpt lat="43.49725" lon="-1.27368">
        <ele>32.4</ele>
        <time>2022-09-11T12:26:49Z</time>
      </trkpt>
      <trkpt lat="43.4973" lon="-1.27444">
        <ele>32.8</ele>
        <time>2022-09-11T12:26:59Z</time>
      </trkpt>
      <trkpt lat="43.49732" lon="-1.27496">
        <ele>32.4</ele>
        <time>2022-09-11T12:27:06Z</time>
      </trkpt>
      <trkpt lat="43.49732" lon="-1.27557">
        <ele>32.6</ele>
        <time>2022-09-11T12:27:14Z</time>
      </trkpt>
      <trkpt lat="43.49737" lon="-1.27627">
        <ele>32.4</ele>
        <time>2022-09-11T12:27:23Z</time>
      </trkpt>
      <trkpt lat="43.49738" lon="-1.27677">
        <ele>32.4</ele>
        <time>2022-09-11T12:27:30Z</time>
      </trkpt>
      <trkpt lat="43.49743" lon="-1.27742">
        <ele>32.6</ele>
        <time>2022-09-11T12:27:39Z</time>
      </trkpt>
      <trkpt lat="43.49747" lon="-1.27803">
        <ele>32.6</ele>
        <time>2022-09-11T12:27:47Z</time>
      </trkpt>
      <trkpt lat="43.49754" lon="-1.27854">
        <ele>32.6</ele>
        <time>2022-09-11T12:27:54Z</time>
      </trkpt>
      <trkpt lat="43.4976" lon="-1.27912">
        <ele>32.8</ele>
        <time>2022-09-11T12:28:02Z</time>
      </trkpt>
      <trkpt lat="43.49764" lon="-1.27971">
        <ele>32.8</ele>
        <time>2022-09-11T12:28:10Z</time>
      </trkpt>
      <trkpt lat="43.4977" lon="-1.28027">
        <ele>32.8</ele>
        <time>2022-09-11T12:28:18Z</time>
      </trkpt>
      <trkpt lat="43.49771" lon="-1.28085">
        <ele>32.8</ele>
        <time>2022-09-11T12:28:26Z</time>
      </trkpt>
      <trkpt lat="43.49767" lon="-1.28143">
        <ele>32.8</ele>
        <time>2022-09-11T12:28:34Z</time>
      </trkpt>
      <trkpt lat="43.49761" lon="-1.28207">
        <ele>32.8</ele>
        <time>2022-09-11T12:28:43Z</time>
      </trkpt>
      <trkpt lat="43.49759" lon="-1.28238">
        <ele>32.8</ele>
        <time>2022-09-11T12:28:48Z</time>
      </trkpt>
      <trkpt lat="43.49754" lon="-1.28283">
        <ele>32.8</ele>
        <time>2022-09-11T12:28:54Z</time>
      </trkpt>
      <trkpt lat="43.49742" lon="-1.28353">
        <ele>32.8</ele>
        <time>2022-09-11T12:29:03Z</time>
      </trkpt>
      <trkpt lat="43.49727" lon="-1.28428">
        <ele>33.2</ele>
        <time>2022-09-11T12:29:13Z</time>
      </trkpt>
      <trkpt lat="43.49725" lon="-1.28435">
        <ele>33</ele>
        <time>2022-09-11T12:29:14Z</time>
      </trkpt>
      <trkpt lat="43.49715" lon="-1.28482">
        <ele>32.6</ele>
        <time>2022-09-11T12:29:21Z</time>
      </trkpt>
      <trkpt lat="43.49701" lon="-1.28538">
        <ele>32.8</ele>
        <time>2022-09-11T12:29:29Z</time>
      </trkpt>
      <trkpt lat="43.49679" lon="-1.28597">
        <ele>32.8</ele>
        <time>2022-09-11T12:29:38Z</time>
      </trkpt>
      <trkpt lat="43.49659" lon="-1.28646">
        <ele>32.6</ele>
        <time>2022-09-11T12:29:46Z</time>
      </trkpt>
      <trkpt lat="43.4964" lon="-1.28691">
        <ele>32.8</ele>
        <time>2022-09-11T12:29:53Z</time>
      </trkpt>
      <trkpt lat="43.49637" lon="-1.28696">
        <ele>32.6</ele>
        <time>2022-09-11T12:29:54Z</time>
      </trkpt>
      <trkpt lat="43.49617" lon="-1.28736">
        <ele>32.6</ele>
        <time>2022-09-11T12:30:01Z</time>
      </trkpt>
      <trkpt lat="43.49615" lon="-1.28742">
        <ele>32.6</ele>
        <time>2022-09-11T12:30:02Z</time>
      </trkpt>
      <trkpt lat="43.49611" lon="-1.28766">
        <ele>32.6</ele>
        <time>2022-09-11T12:30:06Z</time>
      </trkpt>
      <trkpt lat="43.49611" lon="-1.28777">
        <ele>32.8</ele>
        <time>2022-09-11T12:30:08Z</time>
      </trkpt>
      <trkpt lat="43.49607" lon="-1.28806">
        <ele>32.2</ele>
        <time>2022-09-11T12:30:14Z</time>
      </trkpt>
      <trkpt lat="43.49607" lon="-1.28818">
        <ele>32.2</ele>
        <time>2022-09-11T12:32:04Z</time>
      </trkpt>
      <trkpt lat="43.49607" lon="-1.28824">
        <ele>32.2</ele>
        <time>2022-09-11T12:32:06Z</time>
      </trkpt>
      <trkpt lat="43.49608" lon="-1.28849">
        <ele>32.2</ele>
        <time>2022-09-11T12:32:12Z</time>
      </trkpt>
      <trkpt lat="43.49607" lon="-1.28885">
        <ele>32.2</ele>
        <time>2022-09-11T12:32:19Z</time>
      </trkpt>
      <trkpt lat="43.49608" lon="-1.28924">
        <ele>32.2</ele>
        <time>2022-09-11T12:32:26Z</time>
      </trkpt>
      <trkpt lat="43.49609" lon="-1.28958">
        <ele>32.2</ele>
        <time>2022-09-11T12:32:32Z</time>
      </trkpt>
      <trkpt lat="43.49609" lon="-1.28964">
        <ele>32.4</ele>
        <time>2022-09-11T12:32:33Z</time>
      </trkpt>
      <trkpt lat="43.4961" lon="-1.28976">
        <ele>32.6</ele>
        <time>2022-09-11T12:32:35Z</time>
      </trkpt>
      <trkpt lat="43.49613" lon="-1.28994">
        <ele>32.6</ele>
        <time>2022-09-11T12:32:38Z</time>
      </trkpt>
      <trkpt lat="43.49621" lon="-1.29025">
        <ele>32.6</ele>
        <time>2022-09-11T12:32:43Z</time>
      </trkpt>
      <trkpt lat="43.49626" lon="-1.29035">
        <ele>32.8</ele>
        <time>2022-09-11T12:32:45Z</time>
      </trkpt>
      <trkpt lat="43.49634" lon="-1.2905">
        <ele>32.6</ele>
        <time>2022-09-11T12:32:48Z</time>
      </trkpt>
      <trkpt lat="43.49639" lon="-1.29071">
        <ele>32.2</ele>
        <time>2022-09-11T12:32:51Z</time>
      </trkpt>
      <trkpt lat="43.49641" lon="-1.29078">
        <ele>32.4</ele>
        <time>2022-09-11T12:32:52Z</time>
      </trkpt>
      <trkpt lat="43.49655" lon="-1.29124">
        <ele>32.4</ele>
        <time>2022-09-11T12:32:59Z</time>
      </trkpt>
      <trkpt lat="43.49668" lon="-1.2917">
        <ele>32.6</ele>
        <time>2022-09-11T12:33:06Z</time>
      </trkpt>
      <trkpt lat="43.49683" lon="-1.29215">
        <ele>32.2</ele>
        <time>2022-09-11T12:33:14Z</time>
      </trkpt>
      <trkpt lat="43.49694" lon="-1.29245">
        <ele>32.4</ele>
        <time>2022-09-11T12:33:20Z</time>
      </trkpt>
      <trkpt lat="43.49706" lon="-1.29274">
        <ele>32.4</ele>
        <time>2022-09-11T12:33:27Z</time>
      </trkpt>
      <trkpt lat="43.49717" lon="-1.29285">
        <ele>32.6</ele>
        <time>2022-09-11T12:33:32Z</time>
      </trkpt>
      <trkpt lat="43.49719" lon="-1.29301">
        <ele>33</ele>
        <time>2022-09-11T12:33:36Z</time>
      </trkpt>
      <trkpt lat="43.4972" lon="-1.29311">
        <ele>33.4</ele>
        <time>2022-09-11T12:33:38Z</time>
      </trkpt>
      <trkpt lat="43.49723" lon="-1.29336">
        <ele>34.2</ele>
        <time>2022-09-11T12:33:44Z</time>
      </trkpt>
      <trkpt lat="43.49724" lon="-1.29348">
        <ele>34.4</ele>
        <time>2022-09-11T12:33:47Z</time>
      </trkpt>
      <trkpt lat="43.49726" lon="-1.29379">
        <ele>34.4</ele>
        <time>2022-09-11T12:33:54Z</time>
      </trkpt>
      <trkpt lat="43.49728" lon="-1.29419">
        <ele>34.2</ele>
        <time>2022-09-11T12:34:02Z</time>
      </trkpt>
      <trkpt lat="43.49726" lon="-1.29433">
        <ele>34.4</ele>
        <time>2022-09-11T12:34:07Z</time>
      </trkpt>
      <trkpt lat="43.49719" lon="-1.2943">
        <ele>34.8</ele>
        <time>2022-09-11T12:34:11Z</time>
      </trkpt>
      <trkpt lat="43.49713" lon="-1.29424">
        <ele>35</ele>
        <time>2022-09-11T12:34:17Z</time>
      </trkpt>
      <trkpt lat="43.49706" lon="-1.29407">
        <ele>34.6</ele>
        <time>2022-09-11T12:34:22Z</time>
      </trkpt>
      <trkpt lat="43.49702" lon="-1.29389">
        <ele>33.4</ele>
        <time>2022-09-11T12:34:26Z</time>
      </trkpt>
      <trkpt lat="43.497" lon="-1.29384">
        <ele>33.2</ele>
        <time>2022-09-11T12:34:27Z</time>
      </trkpt>
      <trkpt lat="43.49693" lon="-1.29372">
        <ele>32.4</ele>
        <time>2022-09-11T12:34:31Z</time>
      </trkpt>
      <trkpt lat="43.49692" lon="-1.2937">
        <ele>32.2</ele>
        <time>2022-09-11T12:34:33Z</time>
      </trkpt>
      <trkpt lat="43.49688" lon="-1.29364">
        <ele>32</ele>
        <time>2022-09-11T12:35:43Z</time>
      </trkpt>
      <trkpt lat="43.49685" lon="-1.29357">
        <ele>32.2</ele>
        <time>2022-09-11T12:35:46Z</time>
      </trkpt>
      <trkpt lat="43.49687" lon="-1.2936">
        <ele>33</ele>
        <time>2022-09-11T12:39:40Z</time>
      </trkpt>
      <trkpt lat="43.4969" lon="-1.29365">
        <ele>33</ele>
        <time>2022-09-11T12:39:42Z</time>
      </trkpt>
      <trkpt lat="43.49693" lon="-1.29371">
        <ele>32.8</ele>
        <time>2022-09-11T12:39:44Z</time>
      </trkpt>
      <trkpt lat="43.49701" lon="-1.29389">
        <ele>33.4</ele>
        <time>2022-09-11T12:39:50Z</time>
      </trkpt>
      <trkpt lat="43.49706" lon="-1.29402">
        <ele>34.4</ele>
        <time>2022-09-11T12:39:55Z</time>
      </trkpt>
      <trkpt lat="43.49708" lon="-1.29409">
        <ele>34.8</ele>
        <time>2022-09-11T12:39:58Z</time>
      </trkpt>
      <trkpt lat="43.49712" lon="-1.29421">
        <ele>35.6</ele>
        <time>2022-09-11T12:40:04Z</time>
      </trkpt>
      <trkpt lat="43.49715" lon="-1.29425">
        <ele>35.8</ele>
        <time>2022-09-11T12:40:07Z</time>
      </trkpt>
      <trkpt lat="43.49723" lon="-1.2943">
        <ele>36</ele>
        <time>2022-09-11T12:40:13Z</time>
      </trkpt>
      <trkpt lat="43.49728" lon="-1.29431">
        <ele>35.4</ele>
        <time>2022-09-11T12:40:19Z</time>
      </trkpt>
      <trkpt lat="43.49729" lon="-1.29433">
        <ele>35.4</ele>
        <time>2022-09-11T12:40:20Z</time>
      </trkpt>
      <trkpt lat="43.49737" lon="-1.29443">
        <ele>35.6</ele>
        <time>2022-09-11T12:40:24Z</time>
      </trkpt>
      <trkpt lat="43.49752" lon="-1.29469">
        <ele>36</ele>
        <time>2022-09-11T12:40:32Z</time>
      </trkpt>
      <trkpt lat="43.49764" lon="-1.29491">
        <ele>36.6</ele>
        <time>2022-09-11T12:40:38Z</time>
      </trkpt>
      <trkpt lat="43.49776" lon="-1.29513">
        <ele>37.6</ele>
        <time>2022-09-11T12:40:45Z</time>
      </trkpt>
      <trkpt lat="43.49778" lon="-1.29516">
        <ele>37.8</ele>
        <time>2022-09-11T12:40:46Z</time>
      </trkpt>
      <trkpt lat="43.4979" lon="-1.29536">
        <ele>38.6</ele>
        <time>2022-09-11T12:40:53Z</time>
      </trkpt>
      <trkpt lat="43.49793" lon="-1.29541">
        <ele>38.8</ele>
        <time>2022-09-11T12:40:55Z</time>
      </trkpt>
      <trkpt lat="43.49804" lon="-1.29559">
        <ele>39.4</ele>
        <time>2022-09-11T12:41:02Z</time>
      </trkpt>
      <trkpt lat="43.4981" lon="-1.29568">
        <ele>40</ele>
        <time>2022-09-11T12:41:06Z</time>
      </trkpt>
      <trkpt lat="43.49816" lon="-1.29573">
        <ele>40.6</ele>
        <time>2022-09-11T12:41:10Z</time>
      </trkpt>
      <trkpt lat="43.49819" lon="-1.29571">
        <ele>40.8</ele>
        <time>2022-09-11T12:41:11Z</time>
      </trkpt>
      <trkpt lat="43.49822" lon="-1.29568">
        <ele>41</ele>
        <time>2022-09-11T12:41:12Z</time>
      </trkpt>
      <trkpt lat="43.49824" lon="-1.29564">
        <ele>41.4</ele>
        <time>2022-09-11T12:41:13Z</time>
      </trkpt>
      <trkpt lat="43.49845" lon="-1.29537">
        <ele>40.8</ele>
        <time>2022-09-11T12:41:20Z</time>
      </trkpt>
      <trkpt lat="43.49881" lon="-1.29495">
        <ele>41</ele>
        <time>2022-09-11T12:41:30Z</time>
      </trkpt>
      <trkpt lat="43.49919" lon="-1.29451">
        <ele>40.6</ele>
        <time>2022-09-11T12:41:40Z</time>
      </trkpt>
      <trkpt lat="43.49943" lon="-1.29424">
        <ele>40.4</ele>
        <time>2022-09-11T12:41:47Z</time>
      </trkpt>
      <trkpt lat="43.49959" lon="-1.29404">
        <ele>39.4</ele>
        <time>2022-09-11T12:41:51Z</time>
      </trkpt>
      <trkpt lat="43.4997" lon="-1.29394">
        <ele>38.6</ele>
        <time>2022-09-11T12:41:53Z</time>
      </trkpt>
      <trkpt lat="43.49987" lon="-1.29378">
        <ele>38.4</ele>
        <time>2022-09-11T12:41:56Z</time>
      </trkpt>
      <trkpt lat="43.50006" lon="-1.29365">
        <ele>37.4</ele>
        <time>2022-09-11T12:41:59Z</time>
      </trkpt>
      <trkpt lat="43.50013" lon="-1.29361">
        <ele>37.4</ele>
        <time>2022-09-11T12:42:00Z</time>
      </trkpt>
      <trkpt lat="43.50049" lon="-1.29347">
        <ele>36.6</ele>
        <time>2022-09-11T12:42:05Z</time>
      </trkpt>
      <trkpt lat="43.50055" lon="-1.29345">
        <ele>36.4</ele>
        <time>2022-09-11T12:42:06Z</time>
      </trkpt>
      <trkpt lat="43.50065" lon="-1.29342">
        <ele>35.2</ele>
        <time>2022-09-11T12:42:08Z</time>
      </trkpt>
      <trkpt lat="43.50073" lon="-1.29338">
        <ele>34</ele>
        <time>2022-09-11T12:42:10Z</time>
      </trkpt>
      <trkpt lat="43.50081" lon="-1.29335">
        <ele>33.2</ele>
        <time>2022-09-11T12:42:14Z</time>
      </trkpt>
      <trkpt lat="43.50081" lon="-1.29335">
        <ele>32.8</ele>
        <time>2022-09-11T12:42:15Z</time>
      </trkpt>
      <trkpt lat="43.50086" lon="-1.29335">
        <ele>33.2</ele>
        <time>2022-09-11T12:42:44Z</time>
      </trkpt>
      <trkpt lat="43.50089" lon="-1.29334">
        <ele>33.4</ele>
        <time>2022-09-11T12:42:45Z</time>
      </trkpt>
      <trkpt lat="43.50095" lon="-1.29332">
        <ele>33.8</ele>
        <time>2022-09-11T12:42:47Z</time>
      </trkpt>
      <trkpt lat="43.5011" lon="-1.29326">
        <ele>33.4</ele>
        <time>2022-09-11T12:42:51Z</time>
      </trkpt>
      <trkpt lat="43.50147" lon="-1.29314">
        <ele>33</ele>
        <time>2022-09-11T12:42:59Z</time>
      </trkpt>
      <trkpt lat="43.50177" lon="-1.29304">
        <ele>32.8</ele>
        <time>2022-09-11T12:43:05Z</time>
      </trkpt>
      <trkpt lat="43.50187" lon="-1.29301">
        <ele>33</ele>
        <time>2022-09-11T12:43:07Z</time>
      </trkpt>
      <trkpt lat="43.50232" lon="-1.29286">
        <ele>33</ele>
        <time>2022-09-11T12:43:16Z</time>
      </trkpt>
      <trkpt lat="43.50272" lon="-1.29275">
        <ele>32.4</ele>
        <time>2022-09-11T12:43:24Z</time>
      </trkpt>
      <trkpt lat="43.50304" lon="-1.29262">
        <ele>32.4</ele>
        <time>2022-09-11T12:43:31Z</time>
      </trkpt>
      <trkpt lat="43.50312" lon="-1.29274">
        <ele>32.2</ele>
        <time>2022-09-11T12:43:34Z</time>
      </trkpt>
      <trkpt lat="43.50314" lon="-1.29294">
        <ele>32.4</ele>
        <time>2022-09-11T12:43:37Z</time>
      </trkpt>
      <trkpt lat="43.50311" lon="-1.29355">
        <ele>32.2</ele>
        <time>2022-09-11T12:43:45Z</time>
      </trkpt>
      <trkpt lat="43.5031" lon="-1.29428">
        <ele>32.4</ele>
        <time>2022-09-11T12:43:54Z</time>
      </trkpt>
      <trkpt lat="43.50311" lon="-1.29499">
        <ele>32.4</ele>
        <time>2022-09-11T12:44:03Z</time>
      </trkpt>
      <trkpt lat="43.50313" lon="-1.2956">
        <ele>32.4</ele>
        <time>2022-09-11T12:44:11Z</time>
      </trkpt>
      <trkpt lat="43.50314" lon="-1.29616">
        <ele>32.8</ele>
        <time>2022-09-11T12:44:18Z</time>
      </trkpt>
      <trkpt lat="43.50308" lon="-1.29681">
        <ele>32.6</ele>
        <time>2022-09-11T12:44:26Z</time>
      </trkpt>
      <trkpt lat="43.50301" lon="-1.2975">
        <ele>32.6</ele>
        <time>2022-09-11T12:44:35Z</time>
      </trkpt>
      <trkpt lat="43.50308" lon="-1.29779">
        <ele>32.8</ele>
        <time>2022-09-11T12:44:39Z</time>
      </trkpt>
      <trkpt lat="43.50315" lon="-1.2979">
        <ele>32.8</ele>
        <time>2022-09-11T12:44:41Z</time>
      </trkpt>
      <trkpt lat="43.50326" lon="-1.29806">
        <ele>33.2</ele>
        <time>2022-09-11T12:44:44Z</time>
      </trkpt>
      <trkpt lat="43.50331" lon="-1.29818">
        <ele>33.2</ele>
        <time>2022-09-11T12:44:46Z</time>
      </trkpt>
      <trkpt lat="43.50334" lon="-1.29832">
        <ele>33.2</ele>
        <time>2022-09-11T12:44:48Z</time>
      </trkpt>
      <trkpt lat="43.50335" lon="-1.29839">
        <ele>33.2</ele>
        <time>2022-09-11T12:44:49Z</time>
      </trkpt>
      <trkpt lat="43.5034" lon="-1.29866">
        <ele>33</ele>
        <time>2022-09-11T12:44:53Z</time>
      </trkpt>
      <trkpt lat="43.50349" lon="-1.29928">
        <ele>33.2</ele>
        <time>2022-09-11T12:45:02Z</time>
      </trkpt>
      <trkpt lat="43.50351" lon="-1.29949">
        <ele>33.2</ele>
        <time>2022-09-11T12:45:05Z</time>
      </trkpt>
      <trkpt lat="43.50354" lon="-1.29969">
        <ele>33.2</ele>
        <time>2022-09-11T12:45:08Z</time>
      </trkpt>
      <trkpt lat="43.50366" lon="-1.30023">
        <ele>33</ele>
        <time>2022-09-11T12:45:15Z</time>
      </trkpt>
      <trkpt lat="43.50371" lon="-1.30038">
        <ele>32.8</ele>
        <time>2022-09-11T12:45:17Z</time>
      </trkpt>
      <trkpt lat="43.50382" lon="-1.30083">
        <ele>33</ele>
        <time>2022-09-11T12:45:23Z</time>
      </trkpt>
      <trkpt lat="43.50383" lon="-1.3009">
        <ele>33</ele>
        <time>2022-09-11T12:45:24Z</time>
      </trkpt>
      <trkpt lat="43.50378" lon="-1.30121">
        <ele>33.4</ele>
        <time>2022-09-11T12:45:28Z</time>
      </trkpt>
      <trkpt lat="43.50363" lon="-1.30144">
        <ele>33.2</ele>
        <time>2022-09-11T12:45:32Z</time>
      </trkpt>
      <trkpt lat="43.5036" lon="-1.30149">
        <ele>33.2</ele>
        <time>2022-09-11T12:45:33Z</time>
      </trkpt>
      <trkpt lat="43.50353" lon="-1.3017">
        <ele>33.2</ele>
        <time>2022-09-11T12:45:36Z</time>
      </trkpt>
      <trkpt lat="43.50353" lon="-1.30185">
        <ele>33.4</ele>
        <time>2022-09-11T12:45:38Z</time>
      </trkpt>
      <trkpt lat="43.50355" lon="-1.30201">
        <ele>33.4</ele>
        <time>2022-09-11T12:45:40Z</time>
      </trkpt>
      <trkpt lat="43.50359" lon="-1.30223">
        <ele>33.2</ele>
        <time>2022-09-11T12:45:43Z</time>
      </trkpt>
      <trkpt lat="43.50364" lon="-1.30244">
        <ele>33.2</ele>
        <time>2022-09-11T12:45:46Z</time>
      </trkpt>
      <trkpt lat="43.50372" lon="-1.30297">
        <ele>33.4</ele>
        <time>2022-09-11T12:45:53Z</time>
      </trkpt>
      <trkpt lat="43.50382" lon="-1.30358">
        <ele>33.4</ele>
        <time>2022-09-11T12:46:01Z</time>
      </trkpt>
      <trkpt lat="43.50394" lon="-1.30436">
        <ele>33</ele>
        <time>2022-09-11T12:46:11Z</time>
      </trkpt>
      <trkpt lat="43.50402" lon="-1.30498">
        <ele>33.2</ele>
        <time>2022-09-11T12:46:19Z</time>
      </trkpt>
      <trkpt lat="43.50413" lon="-1.30565">
        <ele>33</ele>
        <time>2022-09-11T12:46:28Z</time>
      </trkpt>
      <trkpt lat="43.50416" lon="-1.30612">
        <ele>33.2</ele>
        <time>2022-09-11T12:46:34Z</time>
      </trkpt>
      <trkpt lat="43.50422" lon="-1.30692">
        <ele>33.2</ele>
        <time>2022-09-11T12:46:44Z</time>
      </trkpt>
      <trkpt lat="43.50426" lon="-1.30753">
        <ele>33.6</ele>
        <time>2022-09-11T12:46:52Z</time>
      </trkpt>
      <trkpt lat="43.50428" lon="-1.30808">
        <ele>33.2</ele>
        <time>2022-09-11T12:46:59Z</time>
      </trkpt>
      <trkpt lat="43.50431" lon="-1.30884">
        <ele>33.8</ele>
        <time>2022-09-11T12:47:08Z</time>
      </trkpt>
      <trkpt lat="43.50431" lon="-1.30893">
        <ele>33.6</ele>
        <time>2022-09-11T12:47:09Z</time>
      </trkpt>
      <trkpt lat="43.50434" lon="-1.30974">
        <ele>33.4</ele>
        <time>2022-09-11T12:47:18Z</time>
      </trkpt>
      <trkpt lat="43.50434" lon="-1.30992">
        <ele>33.6</ele>
        <time>2022-09-11T12:47:20Z</time>
      </trkpt>
      <trkpt lat="43.5044" lon="-1.31062">
        <ele>33</ele>
        <time>2022-09-11T12:47:28Z</time>
      </trkpt>
      <trkpt lat="43.5045" lon="-1.31138">
        <ele>33.2</ele>
        <time>2022-09-11T12:47:37Z</time>
      </trkpt>
      <trkpt lat="43.50459" lon="-1.31206">
        <ele>33.2</ele>
        <time>2022-09-11T12:47:45Z</time>
      </trkpt>
      <trkpt lat="43.50468" lon="-1.31281">
        <ele>33.2</ele>
        <time>2022-09-11T12:47:54Z</time>
      </trkpt>
      <trkpt lat="43.50469" lon="-1.3129">
        <ele>33.4</ele>
        <time>2022-09-11T12:47:55Z</time>
      </trkpt>
      <trkpt lat="43.50477" lon="-1.31356">
        <ele>33.2</ele>
        <time>2022-09-11T12:48:03Z</time>
      </trkpt>
      <trkpt lat="43.50488" lon="-1.31422">
        <ele>33.2</ele>
        <time>2022-09-11T12:48:12Z</time>
      </trkpt>
      <trkpt lat="43.50495" lon="-1.31485">
        <ele>33.4</ele>
        <time>2022-09-11T12:48:20Z</time>
      </trkpt>
      <trkpt lat="43.50496" lon="-1.31567">
        <ele>33.6</ele>
        <time>2022-09-11T12:48:30Z</time>
      </trkpt>
      <trkpt lat="43.50498" lon="-1.31624">
        <ele>33.4</ele>
        <time>2022-09-11T12:48:37Z</time>
      </trkpt>
      <trkpt lat="43.50503" lon="-1.31675">
        <ele>33</ele>
        <time>2022-09-11T12:48:44Z</time>
      </trkpt>
      <trkpt lat="43.5051" lon="-1.3172">
        <ele>33.2</ele>
        <time>2022-09-11T12:48:50Z</time>
      </trkpt>
      <trkpt lat="43.50518" lon="-1.31789">
        <ele>33.6</ele>
        <time>2022-09-11T12:48:59Z</time>
      </trkpt>
      <trkpt lat="43.50519" lon="-1.31804">
        <ele>33.2</ele>
        <time>2022-09-11T12:49:01Z</time>
      </trkpt>
      <trkpt lat="43.50523" lon="-1.31839">
        <ele>33.2</ele>
        <time>2022-09-11T12:49:06Z</time>
      </trkpt>
      <trkpt lat="43.50531" lon="-1.31904">
        <ele>33.2</ele>
        <time>2022-09-11T12:49:15Z</time>
      </trkpt>
      <trkpt lat="43.50538" lon="-1.3195">
        <ele>33</ele>
        <time>2022-09-11T12:49:22Z</time>
      </trkpt>
      <trkpt lat="43.50545" lon="-1.32009">
        <ele>33.2</ele>
        <time>2022-09-11T12:49:31Z</time>
      </trkpt>
      <trkpt lat="43.50551" lon="-1.32061">
        <ele>33.4</ele>
        <time>2022-09-11T12:49:39Z</time>
      </trkpt>
      <trkpt lat="43.50561" lon="-1.32135">
        <ele>33.6</ele>
        <time>2022-09-11T12:49:50Z</time>
      </trkpt>
      <trkpt lat="43.50562" lon="-1.32141">
        <ele>33.6</ele>
        <time>2022-09-11T12:49:51Z</time>
      </trkpt>
      <trkpt lat="43.50564" lon="-1.32148">
        <ele>33.8</ele>
        <time>2022-09-11T12:49:52Z</time>
      </trkpt>
      <trkpt lat="43.50567" lon="-1.32159">
        <ele>33.8</ele>
        <time>2022-09-11T12:49:54Z</time>
      </trkpt>
      <trkpt lat="43.50573" lon="-1.32175">
        <ele>33.8</ele>
        <time>2022-09-11T12:49:57Z</time>
      </trkpt>
      <trkpt lat="43.50581" lon="-1.32204">
        <ele>33.6</ele>
        <time>2022-09-11T12:50:03Z</time>
      </trkpt>
      <trkpt lat="43.50583" lon="-1.32227">
        <ele>33.8</ele>
        <time>2022-09-11T12:50:07Z</time>
      </trkpt>
      <trkpt lat="43.50582" lon="-1.32239">
        <ele>33.6</ele>
        <time>2022-09-11T12:50:09Z</time>
      </trkpt>
      <trkpt lat="43.50576" lon="-1.32283">
        <ele>33.8</ele>
        <time>2022-09-11T12:50:16Z</time>
      </trkpt>
      <trkpt lat="43.50574" lon="-1.32326">
        <ele>33.8</ele>
        <time>2022-09-11T12:50:23Z</time>
      </trkpt>
      <trkpt lat="43.50575" lon="-1.32332">
        <ele>33.8</ele>
        <time>2022-09-11T12:50:24Z</time>
      </trkpt>
      <trkpt lat="43.50578" lon="-1.3235">
        <ele>33.8</ele>
        <time>2022-09-11T12:50:28Z</time>
      </trkpt>
      <trkpt lat="43.5058" lon="-1.32368">
        <ele>33.6</ele>
        <time>2022-09-11T12:50:32Z</time>
      </trkpt>
      <trkpt lat="43.50581" lon="-1.32399">
        <ele>33.8</ele>
        <time>2022-09-11T12:50:38Z</time>
      </trkpt>
      <trkpt lat="43.50583" lon="-1.32417">
        <ele>33.4</ele>
        <time>2022-09-11T12:50:44Z</time>
      </trkpt>
      <trkpt lat="43.50583" lon="-1.32427">
        <ele>33.4</ele>
        <time>2022-09-11T12:52:19Z</time>
      </trkpt>
      <trkpt lat="43.50582" lon="-1.32431">
        <ele>33.4</ele>
        <time>2022-09-11T12:52:21Z</time>
      </trkpt>
      <trkpt lat="43.50582" lon="-1.32452">
        <ele>33.8</ele>
        <time>2022-09-11T12:52:26Z</time>
      </trkpt>
      <trkpt lat="43.50586" lon="-1.32484">
        <ele>33.8</ele>
        <time>2022-09-11T12:52:32Z</time>
      </trkpt>
      <trkpt lat="43.50589" lon="-1.32506">
        <ele>33.8</ele>
        <time>2022-09-11T12:52:36Z</time>
      </trkpt>
      <trkpt lat="43.50588" lon="-1.32517">
        <ele>33.8</ele>
        <time>2022-09-11T12:52:38Z</time>
      </trkpt>
      <trkpt lat="43.50582" lon="-1.32539">
        <ele>34</ele>
        <time>2022-09-11T12:52:42Z</time>
      </trkpt>
      <trkpt lat="43.5058" lon="-1.32544">
        <ele>34</ele>
        <time>2022-09-11T12:52:43Z</time>
      </trkpt>
      <trkpt lat="43.50565" lon="-1.32591">
        <ele>33.8</ele>
        <time>2022-09-11T12:52:51Z</time>
      </trkpt>
      <trkpt lat="43.50561" lon="-1.32609">
        <ele>34</ele>
        <time>2022-09-11T12:52:54Z</time>
      </trkpt>
      <trkpt lat="43.50559" lon="-1.32622">
        <ele>34.2</ele>
        <time>2022-09-11T12:52:56Z</time>
      </trkpt>
      <trkpt lat="43.50551" lon="-1.32671">
        <ele>34.2</ele>
        <time>2022-09-11T12:53:03Z</time>
      </trkpt>
      <trkpt lat="43.50539" lon="-1.32719">
        <ele>34.4</ele>
        <time>2022-09-11T12:53:10Z</time>
      </trkpt>
      <trkpt lat="43.50536" lon="-1.32751">
        <ele>34.2</ele>
        <time>2022-09-11T12:53:15Z</time>
      </trkpt>
      <trkpt lat="43.50532" lon="-1.3279">
        <ele>34.4</ele>
        <time>2022-09-11T12:53:21Z</time>
      </trkpt>
      <trkpt lat="43.50526" lon="-1.32841">
        <ele>34.2</ele>
        <time>2022-09-11T12:53:28Z</time>
      </trkpt>
      <trkpt lat="43.5052" lon="-1.3289">
        <ele>34.6</ele>
        <time>2022-09-11T12:53:34Z</time>
      </trkpt>
      <trkpt lat="43.50514" lon="-1.32928">
        <ele>34.4</ele>
        <time>2022-09-11T12:53:39Z</time>
      </trkpt>
      <trkpt lat="43.50512" lon="-1.32936">
        <ele>34.4</ele>
        <time>2022-09-11T12:53:40Z</time>
      </trkpt>
      <trkpt lat="43.50499" lon="-1.33006">
        <ele>34.4</ele>
        <time>2022-09-11T12:53:49Z</time>
      </trkpt>
      <trkpt lat="43.5049" lon="-1.33053">
        <ele>34.6</ele>
        <time>2022-09-11T12:53:55Z</time>
      </trkpt>
      <trkpt lat="43.50479" lon="-1.33113">
        <ele>34.6</ele>
        <time>2022-09-11T12:54:03Z</time>
      </trkpt>
      <trkpt lat="43.50464" lon="-1.33183">
        <ele>34.4</ele>
        <time>2022-09-11T12:54:12Z</time>
      </trkpt>
      <trkpt lat="43.50456" lon="-1.33228">
        <ele>34.2</ele>
        <time>2022-09-11T12:54:18Z</time>
      </trkpt>
      <trkpt lat="43.50451" lon="-1.33278">
        <ele>34.4</ele>
        <time>2022-09-11T12:54:25Z</time>
      </trkpt>
      <trkpt lat="43.50444" lon="-1.3333">
        <ele>34.4</ele>
        <time>2022-09-11T12:54:32Z</time>
      </trkpt>
      <trkpt lat="43.50441" lon="-1.33345">
        <ele>34.6</ele>
        <time>2022-09-11T12:54:34Z</time>
      </trkpt>
      <trkpt lat="43.50437" lon="-1.33375">
        <ele>34.6</ele>
        <time>2022-09-11T12:54:38Z</time>
      </trkpt>
      <trkpt lat="43.50434" lon="-1.33413">
        <ele>34.4</ele>
        <time>2022-09-11T12:54:43Z</time>
      </trkpt>
      <trkpt lat="43.50433" lon="-1.33438">
        <ele>34.6</ele>
        <time>2022-09-11T12:54:46Z</time>
      </trkpt>
      <trkpt lat="43.50429" lon="-1.33471">
        <ele>35</ele>
        <time>2022-09-11T12:54:50Z</time>
      </trkpt>
      <trkpt lat="43.50426" lon="-1.33502">
        <ele>34.6</ele>
        <time>2022-09-11T12:54:54Z</time>
      </trkpt>
      <trkpt lat="43.50418" lon="-1.33566">
        <ele>34.8</ele>
        <time>2022-09-11T12:55:02Z</time>
      </trkpt>
      <trkpt lat="43.50409" lon="-1.33636">
        <ele>34.8</ele>
        <time>2022-09-11T12:55:11Z</time>
      </trkpt>
      <trkpt lat="43.504" lon="-1.33688">
        <ele>34.4</ele>
        <time>2022-09-11T12:55:18Z</time>
      </trkpt>
      <trkpt lat="43.50398" lon="-1.33695">
        <ele>34.6</ele>
        <time>2022-09-11T12:55:19Z</time>
      </trkpt>
      <trkpt lat="43.50387" lon="-1.33711">
        <ele>34.8</ele>
        <time>2022-09-11T12:55:22Z</time>
      </trkpt>
      <trkpt lat="43.50382" lon="-1.33716">
        <ele>34.8</ele>
        <time>2022-09-11T12:55:23Z</time>
      </trkpt>
      <trkpt lat="43.50379" lon="-1.33722">
        <ele>35</ele>
        <time>2022-09-11T12:55:24Z</time>
      </trkpt>
      <trkpt lat="43.50371" lon="-1.33742">
        <ele>34.8</ele>
        <time>2022-09-11T12:55:27Z</time>
      </trkpt>
      <trkpt lat="43.50368" lon="-1.33758">
        <ele>34.4</ele>
        <time>2022-09-11T12:55:29Z</time>
      </trkpt>
      <trkpt lat="43.50366" lon="-1.33774">
        <ele>34.4</ele>
        <time>2022-09-11T12:55:31Z</time>
      </trkpt>
      <trkpt lat="43.50365" lon="-1.3379">
        <ele>34.6</ele>
        <time>2022-09-11T12:55:33Z</time>
      </trkpt>
      <trkpt lat="43.50356" lon="-1.33854">
        <ele>35</ele>
        <time>2022-09-11T12:55:41Z</time>
      </trkpt>
      <trkpt lat="43.50353" lon="-1.33869">
        <ele>34.8</ele>
        <time>2022-09-11T12:55:43Z</time>
      </trkpt>
      <trkpt lat="43.5035" lon="-1.339">
        <ele>34.8</ele>
        <time>2022-09-11T12:55:47Z</time>
      </trkpt>
      <trkpt lat="43.50343" lon="-1.33961">
        <ele>34.2</ele>
        <time>2022-09-11T12:55:55Z</time>
      </trkpt>
      <trkpt lat="43.50332" lon="-1.34029">
        <ele>34.4</ele>
        <time>2022-09-11T12:56:04Z</time>
      </trkpt>
      <trkpt lat="43.5032" lon="-1.34089">
        <ele>34.4</ele>
        <time>2022-09-11T12:56:12Z</time>
      </trkpt>
      <trkpt lat="43.50299" lon="-1.3416">
        <ele>34.4</ele>
        <time>2022-09-11T12:56:22Z</time>
      </trkpt>
      <trkpt lat="43.50295" lon="-1.34175">
        <ele>34.4</ele>
        <time>2022-09-11T12:56:24Z</time>
      </trkpt>
      <trkpt lat="43.50282" lon="-1.34225">
        <ele>34.6</ele>
        <time>2022-09-11T12:56:31Z</time>
      </trkpt>
      <trkpt lat="43.50272" lon="-1.34277">
        <ele>34.6</ele>
        <time>2022-09-11T12:56:38Z</time>
      </trkpt>
      <trkpt lat="43.5026" lon="-1.34303">
        <ele>34.8</ele>
        <time>2022-09-11T12:56:42Z</time>
      </trkpt>
      <trkpt lat="43.50256" lon="-1.3431">
        <ele>34.8</ele>
        <time>2022-09-11T12:56:43Z</time>
      </trkpt>
      <trkpt lat="43.50244" lon="-1.34335">
        <ele>34.6</ele>
        <time>2022-09-11T12:56:47Z</time>
      </trkpt>
      <trkpt lat="43.50239" lon="-1.34355">
        <ele>34.8</ele>
        <time>2022-09-11T12:56:50Z</time>
      </trkpt>
      <trkpt lat="43.50238" lon="-1.34361">
        <ele>34.6</ele>
        <time>2022-09-11T12:56:51Z</time>
      </trkpt>
      <trkpt lat="43.50231" lon="-1.3441">
        <ele>35</ele>
        <time>2022-09-11T12:56:58Z</time>
      </trkpt>
      <trkpt lat="43.50218" lon="-1.34463">
        <ele>35</ele>
        <time>2022-09-11T12:57:06Z</time>
      </trkpt>
      <trkpt lat="43.50204" lon="-1.34515">
        <ele>34.8</ele>
        <time>2022-09-11T12:57:14Z</time>
      </trkpt>
      <trkpt lat="43.50196" lon="-1.3457">
        <ele>34.8</ele>
        <time>2022-09-11T12:57:22Z</time>
      </trkpt>
      <trkpt lat="43.5018" lon="-1.34641">
        <ele>34.4</ele>
        <time>2022-09-11T12:57:32Z</time>
      </trkpt>
      <trkpt lat="43.50166" lon="-1.34712">
        <ele>34.4</ele>
        <time>2022-09-11T12:57:42Z</time>
      </trkpt>
      <trkpt lat="43.50154" lon="-1.34783">
        <ele>35.2</ele>
        <time>2022-09-11T12:57:52Z</time>
      </trkpt>
      <trkpt lat="43.50139" lon="-1.3485">
        <ele>35.4</ele>
        <time>2022-09-11T12:58:01Z</time>
      </trkpt>
      <trkpt lat="43.50124" lon="-1.34921">
        <ele>34.4</ele>
        <time>2022-09-11T12:58:10Z</time>
      </trkpt>
      <trkpt lat="43.50108" lon="-1.35">
        <ele>34.4</ele>
        <time>2022-09-11T12:58:20Z</time>
      </trkpt>
      <trkpt lat="43.50097" lon="-1.35076">
        <ele>34.6</ele>
        <time>2022-09-11T12:58:29Z</time>
      </trkpt>
      <trkpt lat="43.50096" lon="-1.35085">
        <ele>34.8</ele>
        <time>2022-09-11T12:58:30Z</time>
      </trkpt>
      <trkpt lat="43.50091" lon="-1.35152">
        <ele>34.6</ele>
        <time>2022-09-11T12:58:38Z</time>
      </trkpt>
      <trkpt lat="43.50088" lon="-1.35225">
        <ele>35</ele>
        <time>2022-09-11T12:58:47Z</time>
      </trkpt>
      <trkpt lat="43.50087" lon="-1.35293">
        <ele>34.6</ele>
        <time>2022-09-11T12:58:56Z</time>
      </trkpt>
      <trkpt lat="43.50085" lon="-1.35341">
        <ele>35</ele>
        <time>2022-09-11T12:59:03Z</time>
      </trkpt>
      <trkpt lat="43.50085" lon="-1.35396">
        <ele>35.4</ele>
        <time>2022-09-11T12:59:11Z</time>
      </trkpt>
      <trkpt lat="43.50085" lon="-1.3544">
        <ele>34.8</ele>
        <time>2022-09-11T12:59:17Z</time>
      </trkpt>
      <trkpt lat="43.50078" lon="-1.35494">
        <ele>35</ele>
        <time>2022-09-11T12:59:24Z</time>
      </trkpt>
      <trkpt lat="43.50071" lon="-1.35558">
        <ele>35</ele>
        <time>2022-09-11T12:59:33Z</time>
      </trkpt>
      <trkpt lat="43.50062" lon="-1.35617">
        <ele>34.8</ele>
        <time>2022-09-11T12:59:42Z</time>
      </trkpt>
      <trkpt lat="43.50048" lon="-1.35676">
        <ele>34.8</ele>
        <time>2022-09-11T12:59:50Z</time>
      </trkpt>
      <trkpt lat="43.50035" lon="-1.35742">
        <ele>34.6</ele>
        <time>2022-09-11T12:59:59Z</time>
      </trkpt>
      <trkpt lat="43.50024" lon="-1.35807">
        <ele>34.6</ele>
        <time>2022-09-11T13:00:08Z</time>
      </trkpt>
      <trkpt lat="43.50015" lon="-1.35866">
        <ele>34.6</ele>
        <time>2022-09-11T13:00:16Z</time>
      </trkpt>
      <trkpt lat="43.50005" lon="-1.35932">
        <ele>34.8</ele>
        <time>2022-09-11T13:00:25Z</time>
      </trkpt>
      <trkpt lat="43.49998" lon="-1.35981">
        <ele>34.8</ele>
        <time>2022-09-11T13:00:32Z</time>
      </trkpt>
      <trkpt lat="43.49991" lon="-1.36039">
        <ele>34.4</ele>
        <time>2022-09-11T13:00:40Z</time>
      </trkpt>
      <trkpt lat="43.49979" lon="-1.36095">
        <ele>34.4</ele>
        <time>2022-09-11T13:00:48Z</time>
      </trkpt>
      <trkpt lat="43.49962" lon="-1.36145">
        <ele>34.8</ele>
        <time>2022-09-11T13:00:56Z</time>
      </trkpt>
      <trkpt lat="43.49942" lon="-1.3619">
        <ele>34.4</ele>
        <time>2022-09-11T13:01:04Z</time>
      </trkpt>
      <trkpt lat="43.49922" lon="-1.36225">
        <ele>34.2</ele>
        <time>2022-09-11T13:01:12Z</time>
      </trkpt>
      <trkpt lat="43.4991" lon="-1.36245">
        <ele>34.4</ele>
        <time>2022-09-11T13:01:18Z</time>
      </trkpt>
      <trkpt lat="43.49906" lon="-1.36251">
        <ele>34.2</ele>
        <time>2022-09-11T13:01:22Z</time>
      </trkpt>
      <trkpt lat="43.49903" lon="-1.36256">
        <ele>34.8</ele>
        <time>2022-09-11T13:03:42Z</time>
      </trkpt>
      <trkpt lat="43.499" lon="-1.3626">
        <ele>34.8</ele>
        <time>2022-09-11T13:03:44Z</time>
      </trkpt>
      <trkpt lat="43.49885" lon="-1.3628">
        <ele>35</ele>
        <time>2022-09-11T13:03:51Z</time>
      </trkpt>
      <trkpt lat="43.4987" lon="-1.36304">
        <ele>35.2</ele>
        <time>2022-09-11T13:03:59Z</time>
      </trkpt>
      <trkpt lat="43.49855" lon="-1.36327">
        <ele>34.8</ele>
        <time>2022-09-11T13:04:08Z</time>
      </trkpt>
      <trkpt lat="43.4985" lon="-1.36334">
        <ele>35</ele>
        <time>2022-09-11T13:06:16Z</time>
      </trkpt>
      <trkpt lat="43.49847" lon="-1.36339">
        <ele>35</ele>
        <time>2022-09-11T13:06:18Z</time>
      </trkpt>
      <trkpt lat="43.49832" lon="-1.36359">
        <ele>35.2</ele>
        <time>2022-09-11T13:06:25Z</time>
      </trkpt>
      <trkpt lat="43.49813" lon="-1.36387">
        <ele>35.4</ele>
        <time>2022-09-11T13:06:33Z</time>
      </trkpt>
      <trkpt lat="43.49791" lon="-1.36419">
        <ele>35.2</ele>
        <time>2022-09-11T13:06:41Z</time>
      </trkpt>
      <trkpt lat="43.49764" lon="-1.3646">
        <ele>35.4</ele>
        <time>2022-09-11T13:06:50Z</time>
      </trkpt>
      <trkpt lat="43.49725" lon="-1.36518">
        <ele>35.8</ele>
        <time>2022-09-11T13:07:02Z</time>
      </trkpt>
      <trkpt lat="43.49722" lon="-1.36523">
        <ele>35.8</ele>
        <time>2022-09-11T13:07:03Z</time>
      </trkpt>
      <trkpt lat="43.49706" lon="-1.36546">
        <ele>36</ele>
        <time>2022-09-11T13:07:08Z</time>
      </trkpt>
      <trkpt lat="43.49697" lon="-1.36561">
        <ele>35.8</ele>
        <time>2022-09-11T13:07:11Z</time>
      </trkpt>
      <trkpt lat="43.49687" lon="-1.36584">
        <ele>35.8</ele>
        <time>2022-09-11T13:07:15Z</time>
      </trkpt>
      <trkpt lat="43.49681" lon="-1.36604">
        <ele>36</ele>
        <time>2022-09-11T13:07:18Z</time>
      </trkpt>
      <trkpt lat="43.4967" lon="-1.36657">
        <ele>36.2</ele>
        <time>2022-09-11T13:07:25Z</time>
      </trkpt>
      <trkpt lat="43.49663" lon="-1.36729">
        <ele>36</ele>
        <time>2022-09-11T13:07:34Z</time>
      </trkpt>
      <trkpt lat="43.49654" lon="-1.3681">
        <ele>35.8</ele>
        <time>2022-09-11T13:07:44Z</time>
      </trkpt>
      <trkpt lat="43.49647" lon="-1.36881">
        <ele>35.4</ele>
        <time>2022-09-11T13:07:53Z</time>
      </trkpt>
      <trkpt lat="43.49648" lon="-1.36927">
        <ele>35.8</ele>
        <time>2022-09-11T13:07:59Z</time>
      </trkpt>
      <trkpt lat="43.49651" lon="-1.36995">
        <ele>35.8</ele>
        <time>2022-09-11T13:08:08Z</time>
      </trkpt>
      <trkpt lat="43.49654" lon="-1.37059">
        <ele>35.6</ele>
        <time>2022-09-11T13:08:16Z</time>
      </trkpt>
      <trkpt lat="43.49658" lon="-1.37133">
        <ele>35.2</ele>
        <time>2022-09-11T13:08:25Z</time>
      </trkpt>
      <trkpt lat="43.49663" lon="-1.37198">
        <ele>35.4</ele>
        <time>2022-09-11T13:08:33Z</time>
      </trkpt>
      <trkpt lat="43.49671" lon="-1.37261">
        <ele>35.4</ele>
        <time>2022-09-11T13:08:41Z</time>
      </trkpt>
      <trkpt lat="43.4968" lon="-1.37338">
        <ele>36.2</ele>
        <time>2022-09-11T13:08:50Z</time>
      </trkpt>
      <trkpt lat="43.49689" lon="-1.37417">
        <ele>36</ele>
        <time>2022-09-11T13:08:59Z</time>
      </trkpt>
      <trkpt lat="43.4969" lon="-1.37426">
        <ele>36</ele>
        <time>2022-09-11T13:09:00Z</time>
      </trkpt>
      <trkpt lat="43.497" lon="-1.37503">
        <ele>35.8</ele>
        <time>2022-09-11T13:09:09Z</time>
      </trkpt>
      <trkpt lat="43.49709" lon="-1.3756">
        <ele>36</ele>
        <time>2022-09-11T13:09:16Z</time>
      </trkpt>
      <trkpt lat="43.49718" lon="-1.37641">
        <ele>35.8</ele>
        <time>2022-09-11T13:09:26Z</time>
      </trkpt>
      <trkpt lat="43.49728" lon="-1.37718">
        <ele>36</ele>
        <time>2022-09-11T13:09:35Z</time>
      </trkpt>
      <trkpt lat="43.49731" lon="-1.37734">
        <ele>35.8</ele>
        <time>2022-09-11T13:09:37Z</time>
      </trkpt>
      <trkpt lat="43.49743" lon="-1.37808">
        <ele>35.6</ele>
        <time>2022-09-11T13:09:46Z</time>
      </trkpt>
      <trkpt lat="43.49745" lon="-1.37816">
        <ele>35.8</ele>
        <time>2022-09-11T13:09:47Z</time>
      </trkpt>
      <trkpt lat="43.49758" lon="-1.3789">
        <ele>35.8</ele>
        <time>2022-09-11T13:09:56Z</time>
      </trkpt>
      <trkpt lat="43.4976" lon="-1.37897">
        <ele>36</ele>
        <time>2022-09-11T13:09:57Z</time>
      </trkpt>
      <trkpt lat="43.49772" lon="-1.37943">
        <ele>36.6</ele>
        <time>2022-09-11T13:10:04Z</time>
      </trkpt>
      <trkpt lat="43.49776" lon="-1.37961">
        <ele>36.6</ele>
        <time>2022-09-11T13:10:07Z</time>
      </trkpt>
      <trkpt lat="43.49777" lon="-1.3798">
        <ele>36.4</ele>
        <time>2022-09-11T13:10:10Z</time>
      </trkpt>
      <trkpt lat="43.4978" lon="-1.38042">
        <ele>36.2</ele>
        <time>2022-09-11T13:10:19Z</time>
      </trkpt>
      <trkpt lat="43.49782" lon="-1.38098">
        <ele>35.8</ele>
        <time>2022-09-11T13:10:27Z</time>
      </trkpt>
      <trkpt lat="43.49786" lon="-1.38157">
        <ele>35.8</ele>
        <time>2022-09-11T13:10:35Z</time>
      </trkpt>
      <trkpt lat="43.4979" lon="-1.38192">
        <ele>36</ele>
        <time>2022-09-11T13:10:40Z</time>
      </trkpt>
      <trkpt lat="43.49791" lon="-1.38207">
        <ele>36.2</ele>
        <time>2022-09-11T13:10:42Z</time>
      </trkpt>
      <trkpt lat="43.49793" lon="-1.38236">
        <ele>36.4</ele>
        <time>2022-09-11T13:10:46Z</time>
      </trkpt>
      <trkpt lat="43.49791" lon="-1.38258">
        <ele>36.4</ele>
        <time>2022-09-11T13:10:49Z</time>
      </trkpt>
      <trkpt lat="43.49792" lon="-1.38279">
        <ele>36.4</ele>
        <time>2022-09-11T13:10:52Z</time>
      </trkpt>
      <trkpt lat="43.49793" lon="-1.38294">
        <ele>36.4</ele>
        <time>2022-09-11T13:10:54Z</time>
      </trkpt>
      <trkpt lat="43.49798" lon="-1.38315">
        <ele>36.2</ele>
        <time>2022-09-11T13:10:57Z</time>
      </trkpt>
      <trkpt lat="43.498" lon="-1.38321">
        <ele>36.2</ele>
        <time>2022-09-11T13:10:58Z</time>
      </trkpt>
      <trkpt lat="43.49801" lon="-1.38328">
        <ele>36.2</ele>
        <time>2022-09-11T13:10:59Z</time>
      </trkpt>
      <trkpt lat="43.49801" lon="-1.38356">
        <ele>36.2</ele>
        <time>2022-09-11T13:11:03Z</time>
      </trkpt>
      <trkpt lat="43.49796" lon="-1.38423">
        <ele>36.4</ele>
        <time>2022-09-11T13:11:12Z</time>
      </trkpt>
      <trkpt lat="43.49796" lon="-1.38487">
        <ele>36.2</ele>
        <time>2022-09-11T13:11:20Z</time>
      </trkpt>
      <trkpt lat="43.49795" lon="-1.38539">
        <ele>36.2</ele>
        <time>2022-09-11T13:11:27Z</time>
      </trkpt>
      <trkpt lat="43.49791" lon="-1.38582">
        <ele>36.4</ele>
        <time>2022-09-11T13:11:33Z</time>
      </trkpt>
      <trkpt lat="43.49789" lon="-1.38624">
        <ele>36.2</ele>
        <time>2022-09-11T13:11:39Z</time>
      </trkpt>
      <trkpt lat="43.49789" lon="-1.38692">
        <ele>35.8</ele>
        <time>2022-09-11T13:11:48Z</time>
      </trkpt>
      <trkpt lat="43.49791" lon="-1.3877">
        <ele>35.8</ele>
        <time>2022-09-11T13:11:58Z</time>
      </trkpt>
      <trkpt lat="43.49791" lon="-1.38785">
        <ele>35.8</ele>
        <time>2022-09-11T13:12:00Z</time>
      </trkpt>
      <trkpt lat="43.49789" lon="-1.38847">
        <ele>35.8</ele>
        <time>2022-09-11T13:12:08Z</time>
      </trkpt>
      <trkpt lat="43.49787" lon="-1.38863">
        <ele>35.6</ele>
        <time>2022-09-11T13:12:10Z</time>
      </trkpt>
      <trkpt lat="43.49786" lon="-1.38886">
        <ele>35.6</ele>
        <time>2022-09-11T13:12:13Z</time>
      </trkpt>
      <trkpt lat="43.49787" lon="-1.3894">
        <ele>35.6</ele>
        <time>2022-09-11T13:12:20Z</time>
      </trkpt>
      <trkpt lat="43.49782" lon="-1.39006">
        <ele>36.2</ele>
        <time>2022-09-11T13:12:29Z</time>
      </trkpt>
      <trkpt lat="43.4978" lon="-1.39012">
        <ele>36.4</ele>
        <time>2022-09-11T13:12:30Z</time>
      </trkpt>
      <trkpt lat="43.49777" lon="-1.39026">
        <ele>36.4</ele>
        <time>2022-09-11T13:12:32Z</time>
      </trkpt>
      <trkpt lat="43.49776" lon="-1.39034">
        <ele>36.2</ele>
        <time>2022-09-11T13:12:33Z</time>
      </trkpt>
      <trkpt lat="43.49775" lon="-1.39056">
        <ele>36</ele>
        <time>2022-09-11T13:12:36Z</time>
      </trkpt>
      <trkpt lat="43.49776" lon="-1.39071">
        <ele>36</ele>
        <time>2022-09-11T13:12:38Z</time>
      </trkpt>
      <trkpt lat="43.49778" lon="-1.39077">
        <ele>36</ele>
        <time>2022-09-11T13:12:39Z</time>
      </trkpt>
      <trkpt lat="43.4978" lon="-1.391">
        <ele>35.6</ele>
        <time>2022-09-11T13:12:42Z</time>
      </trkpt>
      <trkpt lat="43.4978" lon="-1.39115">
        <ele>35.8</ele>
        <time>2022-09-11T13:12:44Z</time>
      </trkpt>
      <trkpt lat="43.4978" lon="-1.39195">
        <ele>35.6</ele>
        <time>2022-09-11T13:12:54Z</time>
      </trkpt>
      <trkpt lat="43.49777" lon="-1.39258">
        <ele>35.6</ele>
        <time>2022-09-11T13:13:02Z</time>
      </trkpt>
      <trkpt lat="43.49776" lon="-1.39273">
        <ele>35.6</ele>
        <time>2022-09-11T13:13:04Z</time>
      </trkpt>
      <trkpt lat="43.49776" lon="-1.39294">
        <ele>35.6</ele>
        <time>2022-09-11T13:13:07Z</time>
      </trkpt>
      <trkpt lat="43.49775" lon="-1.39316">
        <ele>35.8</ele>
        <time>2022-09-11T13:13:10Z</time>
      </trkpt>
      <trkpt lat="43.49774" lon="-1.39392">
        <ele>35.8</ele>
        <time>2022-09-11T13:13:20Z</time>
      </trkpt>
      <trkpt lat="43.49777" lon="-1.39454">
        <ele>35.8</ele>
        <time>2022-09-11T13:13:28Z</time>
      </trkpt>
      <trkpt lat="43.49785" lon="-1.39531">
        <ele>36</ele>
        <time>2022-09-11T13:13:38Z</time>
      </trkpt>
      <trkpt lat="43.49795" lon="-1.39605">
        <ele>35.8</ele>
        <time>2022-09-11T13:13:48Z</time>
      </trkpt>
      <trkpt lat="43.49806" lon="-1.39663">
        <ele>36</ele>
        <time>2022-09-11T13:13:56Z</time>
      </trkpt>
      <trkpt lat="43.49812" lon="-1.39715">
        <ele>36</ele>
        <time>2022-09-11T13:14:04Z</time>
      </trkpt>
      <trkpt lat="43.49815" lon="-1.3977">
        <ele>36</ele>
        <time>2022-09-11T13:14:12Z</time>
      </trkpt>
      <trkpt lat="43.4982" lon="-1.39818">
        <ele>36.2</ele>
        <time>2022-09-11T13:14:19Z</time>
      </trkpt>
      <trkpt lat="43.49829" lon="-1.39881">
        <ele>36.4</ele>
        <time>2022-09-11T13:14:28Z</time>
      </trkpt>
      <trkpt lat="43.4983" lon="-1.39888">
        <ele>36.6</ele>
        <time>2022-09-11T13:14:29Z</time>
      </trkpt>
      <trkpt lat="43.49836" lon="-1.39935">
        <ele>36.2</ele>
        <time>2022-09-11T13:14:35Z</time>
      </trkpt>
      <trkpt lat="43.49841" lon="-1.39979">
        <ele>36</ele>
        <time>2022-09-11T13:14:41Z</time>
      </trkpt>
      <trkpt lat="43.49846" lon="-1.40028">
        <ele>35.6</ele>
        <time>2022-09-11T13:14:48Z</time>
      </trkpt>
      <trkpt lat="43.49851" lon="-1.40086">
        <ele>35.6</ele>
        <time>2022-09-11T13:14:56Z</time>
      </trkpt>
      <trkpt lat="43.49857" lon="-1.40159">
        <ele>36</ele>
        <time>2022-09-11T13:15:06Z</time>
      </trkpt>
      <trkpt lat="43.49863" lon="-1.40237">
        <ele>36.2</ele>
        <time>2022-09-11T13:15:17Z</time>
      </trkpt>
      <trkpt lat="43.49866" lon="-1.40285">
        <ele>36.2</ele>
        <time>2022-09-11T13:15:24Z</time>
      </trkpt>
      <trkpt lat="43.49869" lon="-1.4031">
        <ele>36.2</ele>
        <time>2022-09-11T13:15:28Z</time>
      </trkpt>
      <trkpt lat="43.49869" lon="-1.40322">
        <ele>36.2</ele>
        <time>2022-09-11T13:15:30Z</time>
      </trkpt>
      <trkpt lat="43.49874" lon="-1.40366">
        <ele>36.4</ele>
        <time>2022-09-11T13:15:38Z</time>
      </trkpt>
      <trkpt lat="43.49879" lon="-1.40423">
        <ele>36.4</ele>
        <time>2022-09-11T13:15:47Z</time>
      </trkpt>
      <trkpt lat="43.49881" lon="-1.40463">
        <ele>36.6</ele>
        <time>2022-09-11T13:15:54Z</time>
      </trkpt>
      <trkpt lat="43.49883" lon="-1.40507">
        <ele>36.6</ele>
        <time>2022-09-11T13:16:02Z</time>
      </trkpt>
      <trkpt lat="43.49884" lon="-1.40566">
        <ele>36.4</ele>
        <time>2022-09-11T13:16:11Z</time>
      </trkpt>
      <trkpt lat="43.49883" lon="-1.40573">
        <ele>36.4</ele>
        <time>2022-09-11T13:16:12Z</time>
      </trkpt>
      <trkpt lat="43.49883" lon="-1.40609">
        <ele>36.4</ele>
        <time>2022-09-11T13:16:17Z</time>
      </trkpt>
      <trkpt lat="43.49882" lon="-1.4066">
        <ele>36.2</ele>
        <time>2022-09-11T13:16:24Z</time>
      </trkpt>
      <trkpt lat="43.49881" lon="-1.40731">
        <ele>36.2</ele>
        <time>2022-09-11T13:16:34Z</time>
      </trkpt>
      <trkpt lat="43.49879" lon="-1.40792">
        <ele>36.4</ele>
        <time>2022-09-11T13:16:43Z</time>
      </trkpt>
      <trkpt lat="43.49876" lon="-1.40853">
        <ele>36.6</ele>
        <time>2022-09-11T13:16:52Z</time>
      </trkpt>
      <trkpt lat="43.49873" lon="-1.40906">
        <ele>36.8</ele>
        <time>2022-09-11T13:17:00Z</time>
      </trkpt>
      <trkpt lat="43.4987" lon="-1.40956">
        <ele>36.8</ele>
        <time>2022-09-11T13:17:08Z</time>
      </trkpt>
      <trkpt lat="43.4987" lon="-1.40993">
        <ele>36.8</ele>
        <time>2022-09-11T13:17:15Z</time>
      </trkpt>
      <trkpt lat="43.49869" lon="-1.4103">
        <ele>36.4</ele>
        <time>2022-09-11T13:17:23Z</time>
      </trkpt>
      <trkpt lat="43.4987" lon="-1.41045">
        <ele>37</ele>
        <time>2022-09-11T13:19:53Z</time>
      </trkpt>
      <trkpt lat="43.49869" lon="-1.41052">
        <ele>37</ele>
        <time>2022-09-11T13:19:55Z</time>
      </trkpt>
      <trkpt lat="43.49868" lon="-1.41082">
        <ele>37.2</ele>
        <time>2022-09-11T13:20:02Z</time>
      </trkpt>
      <trkpt lat="43.49865" lon="-1.41121">
        <ele>37.6</ele>
        <time>2022-09-11T13:20:09Z</time>
      </trkpt>
      <trkpt lat="43.49862" lon="-1.41168">
        <ele>37.4</ele>
        <time>2022-09-11T13:20:17Z</time>
      </trkpt>
      <trkpt lat="43.49858" lon="-1.41211">
        <ele>37.4</ele>
        <time>2022-09-11T13:20:24Z</time>
      </trkpt>
      <trkpt lat="43.49855" lon="-1.41264">
        <ele>37.4</ele>
        <time>2022-09-11T13:20:32Z</time>
      </trkpt>
      <trkpt lat="43.49853" lon="-1.41318">
        <ele>37.8</ele>
        <time>2022-09-11T13:20:40Z</time>
      </trkpt>
      <trkpt lat="43.49851" lon="-1.4138">
        <ele>38</ele>
        <time>2022-09-11T13:20:49Z</time>
      </trkpt>
      <trkpt lat="43.49851" lon="-1.41386">
        <ele>38</ele>
        <time>2022-09-11T13:20:50Z</time>
      </trkpt>
      <trkpt lat="43.49847" lon="-1.41442">
        <ele>38.4</ele>
        <time>2022-09-11T13:20:58Z</time>
      </trkpt>
      <trkpt lat="43.49841" lon="-1.41504">
        <ele>38.4</ele>
        <time>2022-09-11T13:21:07Z</time>
      </trkpt>
      <trkpt lat="43.49834" lon="-1.41567">
        <ele>38</ele>
        <time>2022-09-11T13:21:15Z</time>
      </trkpt>
      <trkpt lat="43.49828" lon="-1.4164">
        <ele>38</ele>
        <time>2022-09-11T13:21:24Z</time>
      </trkpt>
      <trkpt lat="43.4982" lon="-1.4171">
        <ele>38.4</ele>
        <time>2022-09-11T13:21:33Z</time>
      </trkpt>
      <trkpt lat="43.4982" lon="-1.41732">
        <ele>38</ele>
        <time>2022-09-11T13:21:36Z</time>
      </trkpt>
      <trkpt lat="43.49821" lon="-1.41746">
        <ele>37.8</ele>
        <time>2022-09-11T13:21:38Z</time>
      </trkpt>
      <trkpt lat="43.49818" lon="-1.41775">
        <ele>37.8</ele>
        <time>2022-09-11T13:21:42Z</time>
      </trkpt>
      <trkpt lat="43.49818" lon="-1.41782">
        <ele>38</ele>
        <time>2022-09-11T13:21:43Z</time>
      </trkpt>
      <trkpt lat="43.49808" lon="-1.41836">
        <ele>38</ele>
        <time>2022-09-11T13:21:50Z</time>
      </trkpt>
      <trkpt lat="43.498" lon="-1.41905">
        <ele>38.2</ele>
        <time>2022-09-11T13:21:59Z</time>
      </trkpt>
      <trkpt lat="43.498" lon="-1.41952">
        <ele>38.4</ele>
        <time>2022-09-11T13:22:05Z</time>
      </trkpt>
      <trkpt lat="43.49792" lon="-1.41998">
        <ele>38.4</ele>
        <time>2022-09-11T13:22:11Z</time>
      </trkpt>
      <trkpt lat="43.49784" lon="-1.42072">
        <ele>38</ele>
        <time>2022-09-11T13:22:20Z</time>
      </trkpt>
      <trkpt lat="43.49775" lon="-1.42148">
        <ele>37.8</ele>
        <time>2022-09-11T13:22:29Z</time>
      </trkpt>
      <trkpt lat="43.49773" lon="-1.42166">
        <ele>38</ele>
        <time>2022-09-11T13:22:31Z</time>
      </trkpt>
      <trkpt lat="43.49765" lon="-1.42245">
        <ele>38</ele>
        <time>2022-09-11T13:22:40Z</time>
      </trkpt>
      <trkpt lat="43.49754" lon="-1.4232">
        <ele>37.8</ele>
        <time>2022-09-11T13:22:49Z</time>
      </trkpt>
      <trkpt lat="43.49743" lon="-1.42374">
        <ele>37.6</ele>
        <time>2022-09-11T13:22:56Z</time>
      </trkpt>
      <trkpt lat="43.49729" lon="-1.42431">
        <ele>37.8</ele>
        <time>2022-09-11T13:23:04Z</time>
      </trkpt>
      <trkpt lat="43.49716" lon="-1.42482">
        <ele>38</ele>
        <time>2022-09-11T13:23:11Z</time>
      </trkpt>
      <trkpt lat="43.49699" lon="-1.42546">
        <ele>38</ele>
        <time>2022-09-11T13:23:20Z</time>
      </trkpt>
      <trkpt lat="43.49683" lon="-1.42602">
        <ele>38.2</ele>
        <time>2022-09-11T13:23:28Z</time>
      </trkpt>
      <trkpt lat="43.4967" lon="-1.42659">
        <ele>38.2</ele>
        <time>2022-09-11T13:23:36Z</time>
      </trkpt>
      <trkpt lat="43.49672" lon="-1.42702">
        <ele>38.8</ele>
        <time>2022-09-11T13:23:42Z</time>
      </trkpt>
      <trkpt lat="43.49684" lon="-1.42725">
        <ele>38.6</ele>
        <time>2022-09-11T13:23:46Z</time>
      </trkpt>
      <trkpt lat="43.49697" lon="-1.42734">
        <ele>38.6</ele>
        <time>2022-09-11T13:23:49Z</time>
      </trkpt>
      <trkpt lat="43.49702" lon="-1.42736">
        <ele>38.6</ele>
        <time>2022-09-11T13:23:50Z</time>
      </trkpt>
      <trkpt lat="43.49743" lon="-1.42753">
        <ele>38.8</ele>
        <time>2022-09-11T13:23:58Z</time>
      </trkpt>
      <trkpt lat="43.49758" lon="-1.4276">
        <ele>38.8</ele>
        <time>2022-09-11T13:24:01Z</time>
      </trkpt>
      <trkpt lat="43.49767" lon="-1.42766">
        <ele>39</ele>
        <time>2022-09-11T13:24:03Z</time>
      </trkpt>
      <trkpt lat="43.4977" lon="-1.42771">
        <ele>39</ele>
        <time>2022-09-11T13:24:04Z</time>
      </trkpt>
      <trkpt lat="43.49775" lon="-1.42782">
        <ele>39.2</ele>
        <time>2022-09-11T13:24:06Z</time>
      </trkpt>
      <trkpt lat="43.49776" lon="-1.42796">
        <ele>39.4</ele>
        <time>2022-09-11T13:24:08Z</time>
      </trkpt>
      <trkpt lat="43.49776" lon="-1.42803">
        <ele>39.2</ele>
        <time>2022-09-11T13:24:09Z</time>
      </trkpt>
      <trkpt lat="43.49777" lon="-1.42832">
        <ele>39.4</ele>
        <time>2022-09-11T13:24:13Z</time>
      </trkpt>
      <trkpt lat="43.49777" lon="-1.42839">
        <ele>39.4</ele>
        <time>2022-09-11T13:24:14Z</time>
      </trkpt>
      <trkpt lat="43.49777" lon="-1.42873">
        <ele>39.8</ele>
        <time>2022-09-11T13:24:19Z</time>
      </trkpt>
      <trkpt lat="43.49776" lon="-1.42879">
        <ele>40</ele>
        <time>2022-09-11T13:24:20Z</time>
      </trkpt>
      <trkpt lat="43.49767" lon="-1.42892">
        <ele>39.6</ele>
        <time>2022-09-11T13:24:23Z</time>
      </trkpt>
      <trkpt lat="43.49763" lon="-1.42896">
        <ele>39.8</ele>
        <time>2022-09-11T13:24:24Z</time>
      </trkpt>
      <trkpt lat="43.49749" lon="-1.42917">
        <ele>39.8</ele>
        <time>2022-09-11T13:24:28Z</time>
      </trkpt>
      <trkpt lat="43.49745" lon="-1.42944">
        <ele>39.8</ele>
        <time>2022-09-11T13:24:32Z</time>
      </trkpt>
      <trkpt lat="43.49752" lon="-1.42968">
        <ele>40</ele>
        <time>2022-09-11T13:24:36Z</time>
      </trkpt>
      <trkpt lat="43.49753" lon="-1.42975">
        <ele>40.2</ele>
        <time>2022-09-11T13:24:37Z</time>
      </trkpt>
      <trkpt lat="43.49754" lon="-1.42981">
        <ele>40.2</ele>
        <time>2022-09-11T13:24:38Z</time>
      </trkpt>
      <trkpt lat="43.49755" lon="-1.43001">
        <ele>40.4</ele>
        <time>2022-09-11T13:24:41Z</time>
      </trkpt>
      <trkpt lat="43.49756" lon="-1.43023">
        <ele>41.4</ele>
        <time>2022-09-11T13:24:45Z</time>
      </trkpt>
      <trkpt lat="43.49757" lon="-1.43027">
        <ele>41.6</ele>
        <time>2022-09-11T13:24:46Z</time>
      </trkpt>
      <trkpt lat="43.49759" lon="-1.4305">
        <ele>42.4</ele>
        <time>2022-09-11T13:24:52Z</time>
      </trkpt>
      <trkpt lat="43.49761" lon="-1.43068">
        <ele>43.6</ele>
        <time>2022-09-11T13:24:57Z</time>
      </trkpt>
      <trkpt lat="43.49763" lon="-1.43075">
        <ele>44</ele>
        <time>2022-09-11T13:24:59Z</time>
      </trkpt>
      <trkpt lat="43.49765" lon="-1.43088">
        <ele>44.8</ele>
        <time>2022-09-11T13:25:03Z</time>
      </trkpt>
      <trkpt lat="43.49767" lon="-1.43099">
        <ele>45.4</ele>
        <time>2022-09-11T13:25:07Z</time>
      </trkpt>
      <trkpt lat="43.49768" lon="-1.43106">
        <ele>46</ele>
        <time>2022-09-11T13:25:09Z</time>
      </trkpt>
      <trkpt lat="43.49768" lon="-1.43117">
        <ele>46.6</ele>
        <time>2022-09-11T13:25:13Z</time>
      </trkpt>
      <trkpt lat="43.49769" lon="-1.43125">
        <ele>47</ele>
        <time>2022-09-11T13:25:16Z</time>
      </trkpt>
      <trkpt lat="43.4977" lon="-1.43135">
        <ele>47.6</ele>
        <time>2022-09-11T13:25:20Z</time>
      </trkpt>
      <trkpt lat="43.4977" lon="-1.43142">
        <ele>48.2</ele>
        <time>2022-09-11T13:25:23Z</time>
      </trkpt>
      <trkpt lat="43.4977" lon="-1.43149">
        <ele>48.8</ele>
        <time>2022-09-11T13:25:26Z</time>
      </trkpt>
      <trkpt lat="43.4977" lon="-1.43156">
        <ele>49.2</ele>
        <time>2022-09-11T13:25:29Z</time>
      </trkpt>
      <trkpt lat="43.49768" lon="-1.43164">
        <ele>50</ele>
        <time>2022-09-11T13:25:33Z</time>
      </trkpt>
      <trkpt lat="43.49769" lon="-1.43169">
        <ele>50.2</ele>
        <time>2022-09-11T13:25:35Z</time>
      </trkpt>
      <trkpt lat="43.49769" lon="-1.4317">
        <ele>50.2</ele>
        <time>2022-09-11T13:25:36Z</time>
      </trkpt>
      <trkpt lat="43.49769" lon="-1.43173">
        <ele>50.4</ele>
        <time>2022-09-11T13:25:38Z</time>
      </trkpt>
      <trkpt lat="43.4977" lon="-1.43175">
        <ele>50.6</ele>
        <time>2022-09-11T13:25:39Z</time>
      </trkpt>
      <trkpt lat="43.4977" lon="-1.43193">
        <ele>51.6</ele>
        <time>2022-09-11T13:25:49Z</time>
      </trkpt>
      <trkpt lat="43.4977" lon="-1.43197">
        <ele>51.8</ele>
        <time>2022-09-11T13:25:51Z</time>
      </trkpt>
      <trkpt lat="43.49769" lon="-1.43211">
        <ele>52.6</ele>
        <time>2022-09-11T13:25:57Z</time>
      </trkpt>
      <trkpt lat="43.49769" lon="-1.43214">
        <ele>52.6</ele>
        <time>2022-09-11T13:25:58Z</time>
      </trkpt>
      <trkpt lat="43.49765" lon="-1.43233">
        <ele>53.2</ele>
        <time>2022-09-11T13:26:04Z</time>
      </trkpt>
      <trkpt lat="43.49765" lon="-1.43246">
        <ele>53.8</ele>
        <time>2022-09-11T13:26:08Z</time>
      </trkpt>
      <trkpt lat="43.49764" lon="-1.43255">
        <ele>54</ele>
        <time>2022-09-11T13:26:11Z</time>
      </trkpt>
      <trkpt lat="43.49764" lon="-1.43258">
        <ele>54</ele>
        <time>2022-09-11T13:26:12Z</time>
      </trkpt>
      <trkpt lat="43.49759" lon="-1.43276">
        <ele>54.4</ele>
        <time>2022-09-11T13:26:19Z</time>
      </trkpt>
      <trkpt lat="43.49755" lon="-1.43292">
        <ele>54.8</ele>
        <time>2022-09-11T13:26:25Z</time>
      </trkpt>
      <trkpt lat="43.49753" lon="-1.43297">
        <ele>55</ele>
        <time>2022-09-11T13:26:27Z</time>
      </trkpt>
      <trkpt lat="43.49747" lon="-1.43311">
        <ele>55.6</ele>
        <time>2022-09-11T13:26:33Z</time>
      </trkpt>
      <trkpt lat="43.49746" lon="-1.43315">
        <ele>55.8</ele>
        <time>2022-09-11T13:26:35Z</time>
      </trkpt>
      <trkpt lat="43.49748" lon="-1.43321">
        <ele>56.2</ele>
        <time>2022-09-11T13:26:38Z</time>
      </trkpt>
      <trkpt lat="43.49749" lon="-1.43322">
        <ele>56.2</ele>
        <time>2022-09-11T13:26:39Z</time>
      </trkpt>
      <trkpt lat="43.4974" lon="-1.43321">
        <ele>56.8</ele>
        <time>2022-09-11T13:29:14Z</time>
      </trkpt>
      <trkpt lat="43.4974" lon="-1.43323">
        <ele>57</ele>
        <time>2022-09-11T13:29:15Z</time>
      </trkpt>
      <trkpt lat="43.49739" lon="-1.43324">
        <ele>57.2</ele>
        <time>2022-09-11T13:29:16Z</time>
      </trkpt>
      <trkpt lat="43.49734" lon="-1.43332">
        <ele>58.2</ele>
        <time>2022-09-11T13:29:21Z</time>
      </trkpt>
      <trkpt lat="43.4973" lon="-1.43335">
        <ele>58.6</ele>
        <time>2022-09-11T13:29:23Z</time>
      </trkpt>
      <trkpt lat="43.49728" lon="-1.43336">
        <ele>58.6</ele>
        <time>2022-09-11T13:29:24Z</time>
      </trkpt>
      <trkpt lat="43.4972" lon="-1.43337">
        <ele>59.2</ele>
        <time>2022-09-11T13:29:28Z</time>
      </trkpt>
      <trkpt lat="43.49717" lon="-1.43338">
        <ele>59.6</ele>
        <time>2022-09-11T13:29:30Z</time>
      </trkpt>
      <trkpt lat="43.4971" lon="-1.43342">
        <ele>60.2</ele>
        <time>2022-09-11T13:29:34Z</time>
      </trkpt>
      <trkpt lat="43.49704" lon="-1.43345">
        <ele>61.2</ele>
        <time>2022-09-11T13:29:38Z</time>
      </trkpt>
      <trkpt lat="43.49701" lon="-1.43345">
        <ele>61.4</ele>
        <time>2022-09-11T13:29:40Z</time>
      </trkpt>
      <trkpt lat="43.49692" lon="-1.43351">
        <ele>62.2</ele>
        <time>2022-09-11T13:29:46Z</time>
      </trkpt>
      <trkpt lat="43.49691" lon="-1.43352">
        <ele>62.4</ele>
        <time>2022-09-11T13:29:47Z</time>
      </trkpt>
      <trkpt lat="43.49679" lon="-1.43361">
        <ele>63.4</ele>
        <time>2022-09-11T13:29:55Z</time>
      </trkpt>
      <trkpt lat="43.49671" lon="-1.4337">
        <ele>64</ele>
        <time>2022-09-11T13:30:01Z</time>
      </trkpt>
      <trkpt lat="43.49663" lon="-1.43381">
        <ele>64.6</ele>
        <time>2022-09-11T13:30:07Z</time>
      </trkpt>
      <trkpt lat="43.49661" lon="-1.43383">
        <ele>64.8</ele>
        <time>2022-09-11T13:30:08Z</time>
      </trkpt>
      <trkpt lat="43.49655" lon="-1.43396">
        <ele>65.2</ele>
        <time>2022-09-11T13:30:14Z</time>
      </trkpt>
      <trkpt lat="43.49648" lon="-1.43414">
        <ele>65.2</ele>
        <time>2022-09-11T13:30:20Z</time>
      </trkpt>
      <trkpt lat="43.49636" lon="-1.43429">
        <ele>65.2</ele>
        <time>2022-09-11T13:30:25Z</time>
      </trkpt>
      <trkpt lat="43.4962" lon="-1.43451">
        <ele>65</ele>
        <time>2022-09-11T13:30:31Z</time>
      </trkpt>
      <trkpt lat="43.49617" lon="-1.43471">
        <ele>65.2</ele>
        <time>2022-09-11T13:30:35Z</time>
      </trkpt>
      <trkpt lat="43.49617" lon="-1.43515">
        <ele>64.8</ele>
        <time>2022-09-11T13:30:43Z</time>
      </trkpt>
      <trkpt lat="43.49616" lon="-1.4356">
        <ele>64.2</ele>
        <time>2022-09-11T13:30:50Z</time>
      </trkpt>
      <trkpt lat="43.49617" lon="-1.43566">
        <ele>64.2</ele>
        <time>2022-09-11T13:30:51Z</time>
      </trkpt>
      <trkpt lat="43.49616" lon="-1.43613">
        <ele>64.4</ele>
        <time>2022-09-11T13:30:58Z</time>
      </trkpt>
      <trkpt lat="43.49616" lon="-1.43673">
        <ele>64.2</ele>
        <time>2022-09-11T13:31:07Z</time>
      </trkpt>
      <trkpt lat="43.49615" lon="-1.43718">
        <ele>65</ele>
        <time>2022-09-11T13:31:14Z</time>
      </trkpt>
      <trkpt lat="43.49611" lon="-1.43763">
        <ele>65.6</ele>
        <time>2022-09-11T13:31:21Z</time>
      </trkpt>
      <trkpt lat="43.49608" lon="-1.43769">
        <ele>65.6</ele>
        <time>2022-09-11T13:31:22Z</time>
      </trkpt>
      <trkpt lat="43.49595" lon="-1.43786">
        <ele>65.8</ele>
        <time>2022-09-11T13:31:26Z</time>
      </trkpt>
      <trkpt lat="43.49577" lon="-1.43792">
        <ele>66</ele>
        <time>2022-09-11T13:31:30Z</time>
      </trkpt>
      <trkpt lat="43.49572" lon="-1.43792">
        <ele>66.2</ele>
        <time>2022-09-11T13:31:31Z</time>
      </trkpt>
      <trkpt lat="43.49568" lon="-1.43791">
        <ele>66.4</ele>
        <time>2022-09-11T13:31:32Z</time>
      </trkpt>
      <trkpt lat="43.49554" lon="-1.43785">
        <ele>66.2</ele>
        <time>2022-09-11T13:31:35Z</time>
      </trkpt>
      <trkpt lat="43.49525" lon="-1.43776">
        <ele>65.8</ele>
        <time>2022-09-11T13:31:41Z</time>
      </trkpt>
      <trkpt lat="43.4952" lon="-1.43778">
        <ele>65.8</ele>
        <time>2022-09-11T13:31:42Z</time>
      </trkpt>
      <trkpt lat="43.4951" lon="-1.43794">
        <ele>65.8</ele>
        <time>2022-09-11T13:31:45Z</time>
      </trkpt>
      <trkpt lat="43.49507" lon="-1.43823">
        <ele>65.2</ele>
        <time>2022-09-11T13:31:49Z</time>
      </trkpt>
      <trkpt lat="43.49505" lon="-1.43826">
        <ele>65.2</ele>
        <time>2022-09-11T13:31:50Z</time>
      </trkpt>
      <trkpt lat="43.49503" lon="-1.43829">
        <ele>65</ele>
        <time>2022-09-11T13:31:51Z</time>
      </trkpt>
      <trkpt lat="43.49497" lon="-1.43831">
        <ele>64.6</ele>
        <time>2022-09-11T13:31:55Z</time>
      </trkpt>
      <trkpt lat="43.49496" lon="-1.43831">
        <ele>64.6</ele>
        <time>2022-09-11T13:31:56Z</time>
      </trkpt>
      <trkpt lat="43.49489" lon="-1.4383">
        <ele>64.6</ele>
        <time>2022-09-11T13:32:02Z</time>
      </trkpt>
      <trkpt lat="43.49495" lon="-1.43827">
        <ele>64.8</ele>
        <time>2022-09-11T13:32:06Z</time>
      </trkpt>
      <trkpt lat="43.49498" lon="-1.43826">
        <ele>65</ele>
        <time>2022-09-11T13:32:07Z</time>
      </trkpt>
      <trkpt lat="43.49506" lon="-1.43827">
        <ele>64.8</ele>
        <time>2022-09-11T13:32:11Z</time>
      </trkpt>
      <trkpt lat="43.49509" lon="-1.4383">
        <ele>64.6</ele>
        <time>2022-09-11T13:32:12Z</time>
      </trkpt>
      <trkpt lat="43.49515" lon="-1.43851">
        <ele>64.6</ele>
        <time>2022-09-11T13:32:16Z</time>
      </trkpt>
      <trkpt lat="43.49518" lon="-1.43863">
        <ele>64.4</ele>
        <time>2022-09-11T13:32:18Z</time>
      </trkpt>
      <trkpt lat="43.49522" lon="-1.4389">
        <ele>64.6</ele>
        <time>2022-09-11T13:32:22Z</time>
      </trkpt>
      <trkpt lat="43.49523" lon="-1.43898">
        <ele>64.8</ele>
        <time>2022-09-11T13:32:23Z</time>
      </trkpt>
      <trkpt lat="43.49523" lon="-1.43913">
        <ele>64.2</ele>
        <time>2022-09-11T13:32:25Z</time>
      </trkpt>
      <trkpt lat="43.4952" lon="-1.43928">
        <ele>63.8</ele>
        <time>2022-09-11T13:32:27Z</time>
      </trkpt>
      <trkpt lat="43.49517" lon="-1.43943">
        <ele>63.6</ele>
        <time>2022-09-11T13:32:29Z</time>
      </trkpt>
      <trkpt lat="43.49507" lon="-1.43986">
        <ele>62.6</ele>
        <time>2022-09-11T13:32:34Z</time>
      </trkpt>
      <trkpt lat="43.49505" lon="-1.43995">
        <ele>62.4</ele>
        <time>2022-09-11T13:32:35Z</time>
      </trkpt>
      <trkpt lat="43.4949" lon="-1.44057">
        <ele>62.2</ele>
        <time>2022-09-11T13:32:41Z</time>
      </trkpt>
      <trkpt lat="43.49484" lon="-1.44098">
        <ele>61.2</ele>
        <time>2022-09-11T13:32:45Z</time>
      </trkpt>
      <trkpt lat="43.4948" lon="-1.44136">
        <ele>61</ele>
        <time>2022-09-11T13:32:49Z</time>
      </trkpt>
      <trkpt lat="43.49468" lon="-1.44216">
        <ele>62.2</ele>
        <time>2022-09-11T13:32:58Z</time>
      </trkpt>
      <trkpt lat="43.49467" lon="-1.44225">
        <ele>62.2</ele>
        <time>2022-09-11T13:32:59Z</time>
      </trkpt>
      <trkpt lat="43.49456" lon="-1.443">
        <ele>62.2</ele>
        <time>2022-09-11T13:33:08Z</time>
      </trkpt>
      <trkpt lat="43.49444" lon="-1.44369">
        <ele>62.8</ele>
        <time>2022-09-11T13:33:17Z</time>
      </trkpt>
      <trkpt lat="43.4943" lon="-1.44434">
        <ele>63.2</ele>
        <time>2022-09-11T13:33:27Z</time>
      </trkpt>
      <trkpt lat="43.49428" lon="-1.44441">
        <ele>63.4</ele>
        <time>2022-09-11T13:33:28Z</time>
      </trkpt>
      <trkpt lat="43.49416" lon="-1.44489">
        <ele>64.4</ele>
        <time>2022-09-11T13:33:36Z</time>
      </trkpt>
      <trkpt lat="43.49413" lon="-1.44501">
        <ele>64.6</ele>
        <time>2022-09-11T13:33:38Z</time>
      </trkpt>
      <trkpt lat="43.49399" lon="-1.44553">
        <ele>65.4</ele>
        <time>2022-09-11T13:33:47Z</time>
      </trkpt>
      <trkpt lat="43.49398" lon="-1.4456">
        <ele>65.6</ele>
        <time>2022-09-11T13:33:48Z</time>
      </trkpt>
      <trkpt lat="43.49392" lon="-1.44584">
        <ele>65.6</ele>
        <time>2022-09-11T13:33:52Z</time>
      </trkpt>
      <trkpt lat="43.49391" lon="-1.44597">
        <ele>65.4</ele>
        <time>2022-09-11T13:33:54Z</time>
      </trkpt>
      <trkpt lat="43.49389" lon="-1.44603">
        <ele>65.6</ele>
        <time>2022-09-11T13:33:55Z</time>
      </trkpt>
      <trkpt lat="43.49388" lon="-1.4461">
        <ele>65.6</ele>
        <time>2022-09-11T13:33:56Z</time>
      </trkpt>
      <trkpt lat="43.49376" lon="-1.44653">
        <ele>66</ele>
        <time>2022-09-11T13:34:03Z</time>
      </trkpt>
      <trkpt lat="43.49372" lon="-1.44665">
        <ele>66</ele>
        <time>2022-09-11T13:34:05Z</time>
      </trkpt>
      <trkpt lat="43.49367" lon="-1.44676">
        <ele>66</ele>
        <time>2022-09-11T13:34:07Z</time>
      </trkpt>
      <trkpt lat="43.49363" lon="-1.44688">
        <ele>65.8</ele>
        <time>2022-09-11T13:34:09Z</time>
      </trkpt>
      <trkpt lat="43.49348" lon="-1.44728">
        <ele>65</ele>
        <time>2022-09-11T13:34:15Z</time>
      </trkpt>
      <trkpt lat="43.49336" lon="-1.44751">
        <ele>64.4</ele>
        <time>2022-09-11T13:34:18Z</time>
      </trkpt>
      <trkpt lat="43.49327" lon="-1.44767">
        <ele>64</ele>
        <time>2022-09-11T13:34:20Z</time>
      </trkpt>
      <trkpt lat="43.49322" lon="-1.44775">
        <ele>63.4</ele>
        <time>2022-09-11T13:34:21Z</time>
      </trkpt>
      <trkpt lat="43.49308" lon="-1.44803">
        <ele>62.4</ele>
        <time>2022-09-11T13:34:24Z</time>
      </trkpt>
      <trkpt lat="43.49304" lon="-1.44814">
        <ele>61.8</ele>
        <time>2022-09-11T13:34:25Z</time>
      </trkpt>
      <trkpt lat="43.49302" lon="-1.44826">
        <ele>61.4</ele>
        <time>2022-09-11T13:34:26Z</time>
      </trkpt>
      <trkpt lat="43.49298" lon="-1.44852">
        <ele>60</ele>
        <time>2022-09-11T13:34:28Z</time>
      </trkpt>
      <trkpt lat="43.49297" lon="-1.44865">
        <ele>59</ele>
        <time>2022-09-11T13:34:29Z</time>
      </trkpt>
      <trkpt lat="43.49297" lon="-1.44878">
        <ele>58.4</ele>
        <time>2022-09-11T13:34:30Z</time>
      </trkpt>
      <trkpt lat="43.49301" lon="-1.44903">
        <ele>57.2</ele>
        <time>2022-09-11T13:34:32Z</time>
      </trkpt>
      <trkpt lat="43.49304" lon="-1.44915">
        <ele>56.4</ele>
        <time>2022-09-11T13:34:33Z</time>
      </trkpt>
      <trkpt lat="43.49306" lon="-1.44927">
        <ele>56</ele>
        <time>2022-09-11T13:34:34Z</time>
      </trkpt>
      <trkpt lat="43.49315" lon="-1.44963">
        <ele>55</ele>
        <time>2022-09-11T13:34:37Z</time>
      </trkpt>
      <trkpt lat="43.49322" lon="-1.44988">
        <ele>54.4</ele>
        <time>2022-09-11T13:34:39Z</time>
      </trkpt>
      <trkpt lat="43.49327" lon="-1.45">
        <ele>53.8</ele>
        <time>2022-09-11T13:34:40Z</time>
      </trkpt>
      <trkpt lat="43.49334" lon="-1.45013">
        <ele>53</ele>
        <time>2022-09-11T13:34:41Z</time>
      </trkpt>
      <trkpt lat="43.49341" lon="-1.45026">
        <ele>52.2</ele>
        <time>2022-09-11T13:34:42Z</time>
      </trkpt>
      <trkpt lat="43.49348" lon="-1.45039">
        <ele>51.4</ele>
        <time>2022-09-11T13:34:43Z</time>
      </trkpt>
      <trkpt lat="43.49355" lon="-1.45053">
        <ele>50.4</ele>
        <time>2022-09-11T13:34:44Z</time>
      </trkpt>
      <trkpt lat="43.49362" lon="-1.45067">
        <ele>48.2</ele>
        <time>2022-09-11T13:34:45Z</time>
      </trkpt>
      <trkpt lat="43.49368" lon="-1.45082">
        <ele>46.8</ele>
        <time>2022-09-11T13:34:46Z</time>
      </trkpt>
      <trkpt lat="43.49374" lon="-1.45098">
        <ele>46</ele>
        <time>2022-09-11T13:34:47Z</time>
      </trkpt>
      <trkpt lat="43.49378" lon="-1.45113">
        <ele>45</ele>
        <time>2022-09-11T13:34:48Z</time>
      </trkpt>
      <trkpt lat="43.4938" lon="-1.45145">
        <ele>43.2</ele>
        <time>2022-09-11T13:34:50Z</time>
      </trkpt>
      <trkpt lat="43.49369" lon="-1.45186">
        <ele>43</ele>
        <time>2022-09-11T13:34:53Z</time>
      </trkpt>
      <trkpt lat="43.49354" lon="-1.45206">
        <ele>43.2</ele>
        <time>2022-09-11T13:34:55Z</time>
      </trkpt>
      <trkpt lat="43.49346" lon="-1.45215">
        <ele>43</ele>
        <time>2022-09-11T13:34:56Z</time>
      </trkpt>
      <trkpt lat="43.49311" lon="-1.45262">
        <ele>42.2</ele>
        <time>2022-09-11T13:35:01Z</time>
      </trkpt>
      <trkpt lat="43.49306" lon="-1.45272">
        <ele>41.8</ele>
        <time>2022-09-11T13:35:02Z</time>
      </trkpt>
      <trkpt lat="43.49283" lon="-1.45304">
        <ele>41.6</ele>
        <time>2022-09-11T13:35:06Z</time>
      </trkpt>
      <trkpt lat="43.49259" lon="-1.45322">
        <ele>41.8</ele>
        <time>2022-09-11T13:35:10Z</time>
      </trkpt>
      <trkpt lat="43.49214" lon="-1.45342">
        <ele>41</ele>
        <time>2022-09-11T13:35:18Z</time>
      </trkpt>
      <trkpt lat="43.49206" lon="-1.45346">
        <ele>40.8</ele>
        <time>2022-09-11T13:35:20Z</time>
      </trkpt>
      <trkpt lat="43.49202" lon="-1.45347">
        <ele>40.8</ele>
        <time>2022-09-11T13:35:21Z</time>
      </trkpt>
      <trkpt lat="43.49186" lon="-1.45349">
        <ele>40.6</ele>
        <time>2022-09-11T13:35:25Z</time>
      </trkpt>
      <trkpt lat="43.49175" lon="-1.45343">
        <ele>40.6</ele>
        <time>2022-09-11T13:35:28Z</time>
      </trkpt>
      <trkpt lat="43.49172" lon="-1.4534">
        <ele>40.6</ele>
        <time>2022-09-11T13:35:29Z</time>
      </trkpt>
      <trkpt lat="43.49162" lon="-1.45337">
        <ele>40.6</ele>
        <time>2022-09-11T13:35:33Z</time>
      </trkpt>
      <trkpt lat="43.49153" lon="-1.45344">
        <ele>40.6</ele>
        <time>2022-09-11T13:35:38Z</time>
      </trkpt>
      <trkpt lat="43.49157" lon="-1.45359">
        <ele>40.8</ele>
        <time>2022-09-11T13:35:43Z</time>
      </trkpt>
      <trkpt lat="43.49161" lon="-1.45376">
        <ele>40.6</ele>
        <time>2022-09-11T13:35:50Z</time>
      </trkpt>
      <trkpt lat="43.49164" lon="-1.45389">
        <ele>40.6</ele>
        <time>2022-09-11T13:35:55Z</time>
      </trkpt>
      <trkpt lat="43.49166" lon="-1.45403">
        <ele>40</ele>
        <time>2022-09-11T13:35:59Z</time>
      </trkpt>
      <trkpt lat="43.49165" lon="-1.45405">
        <ele>40</ele>
        <time>2022-09-11T13:36:00Z</time>
      </trkpt>
      <trkpt lat="43.49152" lon="-1.45406">
        <ele>40</ele>
        <time>2022-09-11T13:36:04Z</time>
      </trkpt>
      <trkpt lat="43.49149" lon="-1.45408">
        <ele>40.2</ele>
        <time>2022-09-11T13:36:05Z</time>
      </trkpt>
      <trkpt lat="43.49141" lon="-1.45416">
        <ele>40.4</ele>
        <time>2022-09-11T13:36:08Z</time>
      </trkpt>
      <trkpt lat="43.49125" lon="-1.4543">
        <ele>40.6</ele>
        <time>2022-09-11T13:36:14Z</time>
      </trkpt>
      <trkpt lat="43.49115" lon="-1.45436">
        <ele>40.4</ele>
        <time>2022-09-11T13:36:18Z</time>
      </trkpt>
      <trkpt lat="43.49097" lon="-1.45436">
        <ele>41</ele>
        <time>2022-09-11T13:36:24Z</time>
      </trkpt>
      <trkpt lat="43.49094" lon="-1.45439">
        <ele>41</ele>
        <time>2022-09-11T13:36:25Z</time>
      </trkpt>
      <trkpt lat="43.49078" lon="-1.45462">
        <ele>41.4</ele>
        <time>2022-09-11T13:36:31Z</time>
      </trkpt>
      <trkpt lat="43.49061" lon="-1.45492">
        <ele>41.2</ele>
        <time>2022-09-11T13:36:37Z</time>
      </trkpt>
      <trkpt lat="43.49047" lon="-1.45521">
        <ele>41</ele>
        <time>2022-09-11T13:36:42Z</time>
      </trkpt>
      <trkpt lat="43.49039" lon="-1.4554">
        <ele>41</ele>
        <time>2022-09-11T13:36:45Z</time>
      </trkpt>
      <trkpt lat="43.4902" lon="-1.45579">
        <ele>41</ele>
        <time>2022-09-11T13:36:52Z</time>
      </trkpt>
      <trkpt lat="43.49015" lon="-1.45612">
        <ele>40.8</ele>
        <time>2022-09-11T13:36:57Z</time>
      </trkpt>
      <trkpt lat="43.49012" lon="-1.45635">
        <ele>40.8</ele>
        <time>2022-09-11T13:37:01Z</time>
      </trkpt>
      <trkpt lat="43.4901" lon="-1.45645">
        <ele>40.6</ele>
        <time>2022-09-11T13:37:03Z</time>
      </trkpt>
      <trkpt lat="43.49002" lon="-1.45675">
        <ele>40.4</ele>
        <time>2022-09-11T13:37:09Z</time>
      </trkpt>
      <trkpt lat="43.49004" lon="-1.45694">
        <ele>40.6</ele>
        <time>2022-09-11T13:37:13Z</time>
      </trkpt>
      <trkpt lat="43.49012" lon="-1.45724">
        <ele>40.4</ele>
        <time>2022-09-11T13:37:20Z</time>
      </trkpt>
      <trkpt lat="43.49016" lon="-1.4573">
        <ele>40.4</ele>
        <time>2022-09-11T13:37:22Z</time>
      </trkpt>
      <trkpt lat="43.49022" lon="-1.45732">
        <ele>40.2</ele>
        <time>2022-09-11T13:37:24Z</time>
      </trkpt>
      <trkpt lat="43.49024" lon="-1.45733">
        <ele>40.2</ele>
        <time>2022-09-11T13:37:25Z</time>
      </trkpt>
      <trkpt lat="43.49029" lon="-1.45742">
        <ele>40</ele>
        <time>2022-09-11T13:37:28Z</time>
      </trkpt>
      <trkpt lat="43.49028" lon="-1.4575">
        <ele>39.6</ele>
        <time>2022-09-11T13:37:30Z</time>
      </trkpt>
      <trkpt lat="43.49025" lon="-1.45753">
        <ele>39.4</ele>
        <time>2022-09-11T13:37:31Z</time>
      </trkpt>
      <trkpt lat="43.49013" lon="-1.45766">
        <ele>39.4</ele>
        <time>2022-09-11T13:37:35Z</time>
      </trkpt>
      <trkpt lat="43.4901" lon="-1.45788">
        <ele>39.6</ele>
        <time>2022-09-11T13:37:39Z</time>
      </trkpt>
      <trkpt lat="43.49014" lon="-1.45798">
        <ele>39.8</ele>
        <time>2022-09-11T13:37:41Z</time>
      </trkpt>
      <trkpt lat="43.49024" lon="-1.45825">
        <ele>40.4</ele>
        <time>2022-09-11T13:37:46Z</time>
      </trkpt>
      <trkpt lat="43.49039" lon="-1.45863">
        <ele>40</ele>
        <time>2022-09-11T13:37:53Z</time>
      </trkpt>
      <trkpt lat="43.49041" lon="-1.45869">
        <ele>40</ele>
        <time>2022-09-11T13:37:54Z</time>
      </trkpt>
      <trkpt lat="43.49047" lon="-1.45888">
        <ele>40.8</ele>
        <time>2022-09-11T13:37:57Z</time>
      </trkpt>
      <trkpt lat="43.49059" lon="-1.45929">
        <ele>40.6</ele>
        <time>2022-09-11T13:38:04Z</time>
      </trkpt>
      <trkpt lat="43.49061" lon="-1.45935">
        <ele>40.4</ele>
        <time>2022-09-11T13:38:05Z</time>
      </trkpt>
      <trkpt lat="43.4907" lon="-1.45967">
        <ele>40.4</ele>
        <time>2022-09-11T13:38:11Z</time>
      </trkpt>
      <trkpt lat="43.49081" lon="-1.46001">
        <ele>39.8</ele>
        <time>2022-09-11T13:38:18Z</time>
      </trkpt>
      <trkpt lat="43.4908" lon="-1.46021">
        <ele>40</ele>
        <time>2022-09-11T13:38:22Z</time>
      </trkpt>
      <trkpt lat="43.49068" lon="-1.46046">
        <ele>39.8</ele>
        <time>2022-09-11T13:38:27Z</time>
      </trkpt>
      <trkpt lat="43.49065" lon="-1.46052">
        <ele>39.6</ele>
        <time>2022-09-11T13:38:28Z</time>
      </trkpt>
      <trkpt lat="43.4906" lon="-1.46063">
        <ele>39.8</ele>
        <time>2022-09-11T13:38:30Z</time>
      </trkpt>
      <trkpt lat="43.49056" lon="-1.46079">
        <ele>39.8</ele>
        <time>2022-09-11T13:38:33Z</time>
      </trkpt>
      <trkpt lat="43.4905" lon="-1.46117">
        <ele>40.2</ele>
        <time>2022-09-11T13:38:40Z</time>
      </trkpt>
      <trkpt lat="43.4905" lon="-1.46152">
        <ele>40.2</ele>
        <time>2022-09-11T13:38:47Z</time>
      </trkpt>
      <trkpt lat="43.49054" lon="-1.46191">
        <ele>40.4</ele>
        <time>2022-09-11T13:38:55Z</time>
      </trkpt>
      <trkpt lat="43.49062" lon="-1.46222">
        <ele>40.6</ele>
        <time>2022-09-11T13:39:02Z</time>
      </trkpt>
      <trkpt lat="43.49068" lon="-1.46237">
        <ele>40.4</ele>
        <time>2022-09-11T13:39:05Z</time>
      </trkpt>
      <trkpt lat="43.49071" lon="-1.46252">
        <ele>40.4</ele>
        <time>2022-09-11T13:39:08Z</time>
      </trkpt>
      <trkpt lat="43.49065" lon="-1.46262">
        <ele>40.4</ele>
        <time>2022-09-11T13:39:11Z</time>
      </trkpt>
      <trkpt lat="43.49066" lon="-1.46271">
        <ele>40.6</ele>
        <time>2022-09-11T13:39:14Z</time>
      </trkpt>
      <trkpt lat="43.49063" lon="-1.46272">
        <ele>40.6</ele>
        <time>2022-09-11T13:39:17Z</time>
      </trkpt>
      <trkpt lat="43.49059" lon="-1.46262">
        <ele>41.2</ele>
        <time>2022-09-11T13:39:21Z</time>
      </trkpt>
      <trkpt lat="43.49057" lon="-1.46256">
        <ele>41.4</ele>
        <time>2022-09-11T13:39:23Z</time>
      </trkpt>
      <trkpt lat="43.49048" lon="-1.46241">
        <ele>41.8</ele>
        <time>2022-09-11T13:39:29Z</time>
      </trkpt>
      <trkpt lat="43.49039" lon="-1.46242">
        <ele>42.4</ele>
        <time>2022-09-11T13:39:33Z</time>
      </trkpt>
      <trkpt lat="43.49035" lon="-1.46245">
        <ele>43</ele>
        <time>2022-09-11T13:39:35Z</time>
      </trkpt>
      <trkpt lat="43.49029" lon="-1.4625">
        <ele>44</ele>
        <time>2022-09-11T13:39:39Z</time>
      </trkpt>
      <trkpt lat="43.49027" lon="-1.46251">
        <ele>44.2</ele>
        <time>2022-09-11T13:39:40Z</time>
      </trkpt>
      <trkpt lat="43.49018" lon="-1.46259">
        <ele>44.8</ele>
        <time>2022-09-11T13:39:45Z</time>
      </trkpt>
      <trkpt lat="43.49015" lon="-1.46261">
        <ele>45.2</ele>
        <time>2022-09-11T13:39:47Z</time>
      </trkpt>
      <trkpt lat="43.49005" lon="-1.46271">
        <ele>46</ele>
        <time>2022-09-11T13:39:54Z</time>
      </trkpt>
      <trkpt lat="43.49003" lon="-1.46273">
        <ele>46.2</ele>
        <time>2022-09-11T13:39:56Z</time>
      </trkpt>
      <trkpt lat="43.49" lon="-1.46275">
        <ele>46.4</ele>
        <time>2022-09-11T13:40:00Z</time>
      </trkpt>
      <trkpt lat="43.48994" lon="-1.46279">
        <ele>46.6</ele>
        <time>2022-09-11T13:40:07Z</time>
      </trkpt>
      <trkpt lat="43.4898" lon="-1.46293">
        <ele>46.8</ele>
        <time>2022-09-11T13:40:15Z</time>
      </trkpt>
      <trkpt lat="43.48962" lon="-1.46314">
        <ele>46.6</ele>
        <time>2022-09-11T13:40:25Z</time>
      </trkpt>
      <trkpt lat="43.48941" lon="-1.46342">
        <ele>46.8</ele>
        <time>2022-09-11T13:40:35Z</time>
      </trkpt>
      <trkpt lat="43.4892" lon="-1.46374">
        <ele>47</ele>
        <time>2022-09-11T13:40:45Z</time>
      </trkpt>
      <trkpt lat="43.48904" lon="-1.46399">
        <ele>47</ele>
        <time>2022-09-11T13:40:53Z</time>
      </trkpt>
      <trkpt lat="43.48886" lon="-1.46428">
        <ele>47.4</ele>
        <time>2022-09-11T13:41:01Z</time>
      </trkpt>
      <trkpt lat="43.48879" lon="-1.4644">
        <ele>47.4</ele>
        <time>2022-09-11T13:41:04Z</time>
      </trkpt>
      <trkpt lat="43.48856" lon="-1.46483">
        <ele>47.4</ele>
        <time>2022-09-11T13:41:15Z</time>
      </trkpt>
      <trkpt lat="43.48841" lon="-1.46512">
        <ele>47.2</ele>
        <time>2022-09-11T13:41:24Z</time>
      </trkpt>
      <trkpt lat="43.48834" lon="-1.46529">
        <ele>47.4</ele>
        <time>2022-09-11T13:41:30Z</time>
      </trkpt>
      <trkpt lat="43.48836" lon="-1.46531">
        <ele>47.6</ele>
        <time>2022-09-11T13:41:31Z</time>
      </trkpt>
      <trkpt lat="43.48839" lon="-1.46538">
        <ele>48.2</ele>
        <time>2022-09-11T13:41:36Z</time>
      </trkpt>
      <trkpt lat="43.48841" lon="-1.46536">
        <ele>41.2</ele>
        <time>2022-09-11T13:43:20Z</time>
      </trkpt>
      <trkpt lat="43.48843" lon="-1.46534">
        <ele>41.4</ele>
        <time>2022-09-11T13:43:21Z</time>
      </trkpt>
      <trkpt lat="43.48851" lon="-1.46527">
        <ele>41.4</ele>
        <time>2022-09-11T13:43:25Z</time>
      </trkpt>
      <trkpt lat="43.48853" lon="-1.46527">
        <ele>41.4</ele>
        <time>2022-09-11T13:43:26Z</time>
      </trkpt>
      <trkpt lat="43.48861" lon="-1.46535">
        <ele>41.4</ele>
        <time>2022-09-11T13:43:30Z</time>
      </trkpt>
      <trkpt lat="43.4887" lon="-1.46546">
        <ele>41.8</ele>
        <time>2022-09-11T13:43:35Z</time>
      </trkpt>
      <trkpt lat="43.48872" lon="-1.4655">
        <ele>41.8</ele>
        <time>2022-09-11T13:43:37Z</time>
      </trkpt>
      <trkpt lat="43.4888" lon="-1.46564">
        <ele>41.8</ele>
        <time>2022-09-11T13:43:44Z</time>
      </trkpt>
      <trkpt lat="43.48888" lon="-1.46574">
        <ele>42</ele>
        <time>2022-09-11T13:43:49Z</time>
      </trkpt>
      <trkpt lat="43.48897" lon="-1.46588">
        <ele>42.2</ele>
        <time>2022-09-11T13:43:54Z</time>
      </trkpt>
      <trkpt lat="43.48907" lon="-1.46611">
        <ele>42</ele>
        <time>2022-09-11T13:44:00Z</time>
      </trkpt>
      <trkpt lat="43.48917" lon="-1.46628">
        <ele>42</ele>
        <time>2022-09-11T13:44:05Z</time>
      </trkpt>
      <trkpt lat="43.4893" lon="-1.46647">
        <ele>42.2</ele>
        <time>2022-09-11T13:44:11Z</time>
      </trkpt>
      <trkpt lat="43.48932" lon="-1.4665">
        <ele>42.4</ele>
        <time>2022-09-11T13:44:12Z</time>
      </trkpt>
      <trkpt lat="43.48952" lon="-1.46672">
        <ele>42.8</ele>
        <time>2022-09-11T13:44:20Z</time>
      </trkpt>
      <trkpt lat="43.48962" lon="-1.46681">
        <ele>43.4</ele>
        <time>2022-09-11T13:44:24Z</time>
      </trkpt>
      <trkpt lat="43.48975" lon="-1.46692">
        <ele>43.6</ele>
        <time>2022-09-11T13:44:29Z</time>
      </trkpt>
      <trkpt lat="43.48989" lon="-1.46703">
        <ele>43.8</ele>
        <time>2022-09-11T13:44:35Z</time>
      </trkpt>
      <trkpt lat="43.49007" lon="-1.46717">
        <ele>44.2</ele>
        <time>2022-09-11T13:44:42Z</time>
      </trkpt>
      <trkpt lat="43.49018" lon="-1.46725">
        <ele>44.4</ele>
        <time>2022-09-11T13:44:46Z</time>
      </trkpt>
      <trkpt lat="43.49029" lon="-1.46733">
        <ele>44.6</ele>
        <time>2022-09-11T13:44:50Z</time>
      </trkpt>
      <trkpt lat="43.49051" lon="-1.46748">
        <ele>44.6</ele>
        <time>2022-09-11T13:44:58Z</time>
      </trkpt>
      <trkpt lat="43.49074" lon="-1.46767">
        <ele>44.2</ele>
        <time>2022-09-11T13:45:05Z</time>
      </trkpt>
      <trkpt lat="43.49081" lon="-1.46775">
        <ele>43.8</ele>
        <time>2022-09-11T13:45:07Z</time>
      </trkpt>
      <trkpt lat="43.4909" lon="-1.46791">
        <ele>43.4</ele>
        <time>2022-09-11T13:45:10Z</time>
      </trkpt>
      <trkpt lat="43.49113" lon="-1.46838">
        <ele>42.6</ele>
        <time>2022-09-11T13:45:18Z</time>
      </trkpt>
      <trkpt lat="43.49119" lon="-1.46851">
        <ele>42.4</ele>
        <time>2022-09-11T13:45:20Z</time>
      </trkpt>
      <trkpt lat="43.49129" lon="-1.4687">
        <ele>42</ele>
        <time>2022-09-11T13:45:24Z</time>
      </trkpt>
      <trkpt lat="43.49137" lon="-1.46886">
        <ele>41.6</ele>
        <time>2022-09-11T13:45:30Z</time>
      </trkpt>
      <trkpt lat="43.4914" lon="-1.46892">
        <ele>41.8</ele>
        <time>2022-09-11T13:46:04Z</time>
      </trkpt>
      <trkpt lat="43.49141" lon="-1.46894">
        <ele>41.6</ele>
        <time>2022-09-11T13:46:05Z</time>
      </trkpt>
      <trkpt lat="43.49146" lon="-1.46912">
        <ele>41.6</ele>
        <time>2022-09-11T13:46:11Z</time>
      </trkpt>
      <trkpt lat="43.49146" lon="-1.46931">
        <ele>41.8</ele>
        <time>2022-09-11T13:46:16Z</time>
      </trkpt>
      <trkpt lat="43.49145" lon="-1.46945">
        <ele>41.8</ele>
        <time>2022-09-11T13:46:19Z</time>
      </trkpt>
      <trkpt lat="43.4914" lon="-1.46951">
        <ele>42</ele>
        <time>2022-09-11T13:46:21Z</time>
      </trkpt>
      <trkpt lat="43.49133" lon="-1.46955">
        <ele>42</ele>
        <time>2022-09-11T13:46:23Z</time>
      </trkpt>
      <trkpt lat="43.49117" lon="-1.46962">
        <ele>42.4</ele>
        <time>2022-09-11T13:46:28Z</time>
      </trkpt>
      <trkpt lat="43.49098" lon="-1.46973">
        <ele>43</ele>
        <time>2022-09-11T13:46:35Z</time>
      </trkpt>
      <trkpt lat="43.49086" lon="-1.46983">
        <ele>43.4</ele>
        <time>2022-09-11T13:46:39Z</time>
      </trkpt>
      <trkpt lat="43.49081" lon="-1.4699">
        <ele>43.2</ele>
        <time>2022-09-11T13:46:41Z</time>
      </trkpt>
      <trkpt lat="43.49064" lon="-1.47014">
        <ele>43.2</ele>
        <time>2022-09-11T13:46:48Z</time>
      </trkpt>
      <trkpt lat="43.49062" lon="-1.47021">
        <ele>43.4</ele>
        <time>2022-09-11T13:46:50Z</time>
      </trkpt>
      <trkpt lat="43.49064" lon="-1.47024">
        <ele>43.4</ele>
        <time>2022-09-11T13:46:51Z</time>
      </trkpt>
      <trkpt lat="43.49071" lon="-1.47043">
        <ele>43.2</ele>
        <time>2022-09-11T13:46:56Z</time>
      </trkpt>
      <trkpt lat="43.49072" lon="-1.47065">
        <ele>43.2</ele>
        <time>2022-09-11T13:47:01Z</time>
      </trkpt>
      <trkpt lat="43.4907" lon="-1.47095">
        <ele>43.6</ele>
        <time>2022-09-11T13:47:09Z</time>
      </trkpt>
      <trkpt lat="43.49067" lon="-1.47123">
        <ele>43.6</ele>
        <time>2022-09-11T13:47:16Z</time>
      </trkpt>
      <trkpt lat="43.49066" lon="-1.47156">
        <ele>43.4</ele>
        <time>2022-09-11T13:47:24Z</time>
      </trkpt>
      <trkpt lat="43.49066" lon="-1.47161">
        <ele>43.4</ele>
        <time>2022-09-11T13:47:26Z</time>
      </trkpt>
      <trkpt lat="43.49067" lon="-1.47164">
        <ele>43.2</ele>
        <time>2022-09-11T13:47:28Z</time>
      </trkpt>
      <trkpt lat="43.49068" lon="-1.47172">
        <ele>43.4</ele>
        <time>2022-09-11T13:47:42Z</time>
      </trkpt>
      <trkpt lat="43.49068" lon="-1.47175">
        <ele>43.4</ele>
        <time>2022-09-11T13:47:43Z</time>
      </trkpt>
      <trkpt lat="43.49069" lon="-1.47188">
        <ele>43</ele>
        <time>2022-09-11T13:47:46Z</time>
      </trkpt>
      <trkpt lat="43.4907" lon="-1.47202">
        <ele>42.8</ele>
        <time>2022-09-11T13:47:49Z</time>
      </trkpt>
      <trkpt lat="43.49076" lon="-1.47226">
        <ele>42.6</ele>
        <time>2022-09-11T13:47:54Z</time>
      </trkpt>
      <trkpt lat="43.4908" lon="-1.47252">
        <ele>42.4</ele>
        <time>2022-09-11T13:48:00Z</time>
      </trkpt>
      <trkpt lat="43.49081" lon="-1.47256">
        <ele>42.4</ele>
        <time>2022-09-11T13:48:01Z</time>
      </trkpt>
      <trkpt lat="43.4909" lon="-1.4728">
        <ele>42</ele>
        <time>2022-09-11T13:48:07Z</time>
      </trkpt>
      <trkpt lat="43.4909" lon="-1.47301">
        <ele>41.8</ele>
        <time>2022-09-11T13:48:12Z</time>
      </trkpt>
      <trkpt lat="43.49092" lon="-1.47328">
        <ele>41.6</ele>
        <time>2022-09-11T13:48:19Z</time>
      </trkpt>
      <trkpt lat="43.49092" lon="-1.47335">
        <ele>41.8</ele>
        <time>2022-09-11T13:48:22Z</time>
      </trkpt>
      <trkpt lat="43.49091" lon="-1.4734">
        <ele>41.8</ele>
        <time>2022-09-11T13:48:24Z</time>
      </trkpt>
      <trkpt lat="43.49089" lon="-1.47365">
        <ele>42.2</ele>
        <time>2022-09-11T13:48:32Z</time>
      </trkpt>
      <trkpt lat="43.49094" lon="-1.47384">
        <ele>42.6</ele>
        <time>2022-09-11T13:48:39Z</time>
      </trkpt>
      <trkpt lat="43.491" lon="-1.47399">
        <ele>43.4</ele>
        <time>2022-09-11T13:48:44Z</time>
      </trkpt>
      <trkpt lat="43.49101" lon="-1.47402">
        <ele>43.6</ele>
        <time>2022-09-11T13:48:45Z</time>
      </trkpt>
      <trkpt lat="43.49103" lon="-1.47421">
        <ele>44</ele>
        <time>2022-09-11T13:48:51Z</time>
      </trkpt>
      <trkpt lat="43.49104" lon="-1.47444">
        <ele>44.2</ele>
        <time>2022-09-11T13:48:59Z</time>
      </trkpt>
      <trkpt lat="43.49103" lon="-1.47468">
        <ele>43.8</ele>
        <time>2022-09-11T13:49:07Z</time>
      </trkpt>
      <trkpt lat="43.49103" lon="-1.47477">
        <ele>42.8</ele>
        <time>2022-09-11T13:49:12Z</time>
      </trkpt>
      <trkpt lat="43.491" lon="-1.47492">
        <ele>42.6</ele>
        <time>2022-09-11T13:49:17Z</time>
      </trkpt>
      <trkpt lat="43.49099" lon="-1.47497">
        <ele>42.4</ele>
        <time>2022-09-11T13:49:18Z</time>
      </trkpt>
      <trkpt lat="43.49095" lon="-1.47523">
        <ele>42</ele>
        <time>2022-09-11T13:49:24Z</time>
      </trkpt>
      <trkpt lat="43.49096" lon="-1.47531">
        <ele>41.8</ele>
        <time>2022-09-11T13:49:28Z</time>
      </trkpt>
      <trkpt lat="43.49095" lon="-1.47549">
        <ele>42</ele>
        <time>2022-09-11T13:49:37Z</time>
      </trkpt>
      <trkpt lat="43.49094" lon="-1.47554">
        <ele>42.2</ele>
        <time>2022-09-11T13:49:39Z</time>
      </trkpt>
      <trkpt lat="43.49091" lon="-1.47574">
        <ele>42.4</ele>
        <time>2022-09-11T13:49:46Z</time>
      </trkpt>
      <trkpt lat="43.49091" lon="-1.47579">
        <ele>42.6</ele>
        <time>2022-09-11T13:49:47Z</time>
      </trkpt>
      <trkpt lat="43.49092" lon="-1.47589">
        <ele>42.6</ele>
        <time>2022-09-11T13:49:50Z</time>
      </trkpt>
      <trkpt lat="43.49092" lon="-1.47603">
        <ele>43.2</ele>
        <time>2022-09-11T13:49:55Z</time>
      </trkpt>
      <trkpt lat="43.49092" lon="-1.47605">
        <ele>43.4</ele>
        <time>2022-09-11T13:49:56Z</time>
      </trkpt>
      <trkpt lat="43.4909" lon="-1.47613">
        <ele>44</ele>
        <time>2022-09-11T13:50:00Z</time>
      </trkpt>
      <trkpt lat="43.4909" lon="-1.47617">
        <ele>44.4</ele>
        <time>2022-09-11T13:50:02Z</time>
      </trkpt>
      <trkpt lat="43.49088" lon="-1.47637">
        <ele>45.4</ele>
        <time>2022-09-11T13:50:10Z</time>
      </trkpt>
      <trkpt lat="43.49089" lon="-1.47641">
        <ele>45.6</ele>
        <time>2022-09-11T13:50:11Z</time>
      </trkpt>
      <trkpt lat="43.4909" lon="-1.47644">
        <ele>45.8</ele>
        <time>2022-09-11T13:50:12Z</time>
      </trkpt>
      <trkpt lat="43.49089" lon="-1.47658">
        <ele>46.6</ele>
        <time>2022-09-11T13:50:17Z</time>
      </trkpt>
      <trkpt lat="43.49085" lon="-1.47671">
        <ele>47.4</ele>
        <time>2022-09-11T13:50:24Z</time>
      </trkpt>
      <trkpt lat="43.49082" lon="-1.47673">
        <ele>47.6</ele>
        <time>2022-09-11T13:50:26Z</time>
      </trkpt>
      <trkpt lat="43.49082" lon="-1.47674">
        <ele>47.8</ele>
        <time>2022-09-11T13:50:27Z</time>
      </trkpt>
      <trkpt lat="43.49077" lon="-1.47674">
        <ele>48.2</ele>
        <time>2022-09-11T13:50:30Z</time>
      </trkpt>
      <trkpt lat="43.49072" lon="-1.47675">
        <ele>48.6</ele>
        <time>2022-09-11T13:50:34Z</time>
      </trkpt>
      <trkpt lat="43.4907" lon="-1.47676">
        <ele>48.8</ele>
        <time>2022-09-11T13:50:35Z</time>
      </trkpt>
      <trkpt lat="43.49067" lon="-1.47678">
        <ele>49.2</ele>
        <time>2022-09-11T13:50:38Z</time>
      </trkpt>
      <trkpt lat="43.49058" lon="-1.47672">
        <ele>49.2</ele>
        <time>2022-09-11T13:50:45Z</time>
      </trkpt>
      <trkpt lat="43.49051" lon="-1.47673">
        <ele>49.4</ele>
        <time>2022-09-11T13:50:50Z</time>
      </trkpt>
      <trkpt lat="43.49043" lon="-1.47661">
        <ele>50</ele>
        <time>2022-09-11T13:54:02Z</time>
      </trkpt>
      <trkpt lat="43.49041" lon="-1.4766">
        <ele>50</ele>
        <time>2022-09-11T13:54:03Z</time>
      </trkpt>
      <trkpt lat="43.49027" lon="-1.4766">
        <ele>50.6</ele>
        <time>2022-09-11T13:54:10Z</time>
      </trkpt>
      <trkpt lat="43.49025" lon="-1.47662">
        <ele>51</ele>
        <time>2022-09-11T13:54:12Z</time>
      </trkpt>
      <trkpt lat="43.49018" lon="-1.47665">
        <ele>51.2</ele>
        <time>2022-09-11T13:54:17Z</time>
      </trkpt>
      <trkpt lat="43.49016" lon="-1.47668">
        <ele>51.4</ele>
        <time>2022-09-11T13:54:19Z</time>
      </trkpt>
      <trkpt lat="43.49013" lon="-1.47672">
        <ele>51.4</ele>
        <time>2022-09-11T13:54:22Z</time>
      </trkpt>
      <trkpt lat="43.49001" lon="-1.47683">
        <ele>51.8</ele>
        <time>2022-09-11T13:54:31Z</time>
      </trkpt>
      <trkpt lat="43.4899" lon="-1.47688">
        <ele>52</ele>
        <time>2022-09-11T13:54:37Z</time>
      </trkpt>
      <trkpt lat="43.48985" lon="-1.47691">
        <ele>52</ele>
        <time>2022-09-11T13:54:40Z</time>
      </trkpt>
      <trkpt lat="43.48973" lon="-1.47698">
        <ele>52.4</ele>
        <time>2022-09-11T13:54:47Z</time>
      </trkpt>
      <trkpt lat="43.48958" lon="-1.47712">
        <ele>53</ele>
        <time>2022-09-11T13:54:56Z</time>
      </trkpt>
      <trkpt lat="43.48957" lon="-1.47714">
        <ele>53</ele>
        <time>2022-09-11T13:54:57Z</time>
      </trkpt>
      <trkpt lat="43.48945" lon="-1.4772">
        <ele>52.8</ele>
        <time>2022-09-11T13:55:04Z</time>
      </trkpt>
      <trkpt lat="43.48926" lon="-1.47735">
        <ele>52.4</ele>
        <time>2022-09-11T13:55:15Z</time>
      </trkpt>
      <trkpt lat="43.48915" lon="-1.47746">
        <ele>52.2</ele>
        <time>2022-09-11T13:55:24Z</time>
      </trkpt>
      <trkpt lat="43.4891" lon="-1.4775">
        <ele>52.2</ele>
        <time>2022-09-11T13:55:28Z</time>
      </trkpt>
      <trkpt lat="43.48906" lon="-1.47754">
        <ele>52.2</ele>
        <time>2022-09-11T13:55:31Z</time>
      </trkpt>
      <trkpt lat="43.48894" lon="-1.47761">
        <ele>52.4</ele>
        <time>2022-09-11T13:55:40Z</time>
      </trkpt>
      <trkpt lat="43.48891" lon="-1.47761">
        <ele>52.6</ele>
        <time>2022-09-11T13:56:30Z</time>
      </trkpt>
      <trkpt lat="43.48893" lon="-1.4776">
        <ele>52.6</ele>
        <time>2022-09-11T13:56:31Z</time>
      </trkpt>
      <trkpt lat="43.48896" lon="-1.47756">
        <ele>52.6</ele>
        <time>2022-09-11T13:56:33Z</time>
      </trkpt>
      <trkpt lat="43.48906" lon="-1.47741">
        <ele>52.6</ele>
        <time>2022-09-11T13:56:39Z</time>
      </trkpt>
      <trkpt lat="43.48917" lon="-1.47732">
        <ele>52.8</ele>
        <time>2022-09-11T13:56:44Z</time>
      </trkpt>
      <trkpt lat="43.48932" lon="-1.47721">
        <ele>53</ele>
        <time>2022-09-11T13:56:51Z</time>
      </trkpt>
      <trkpt lat="43.4895" lon="-1.47708">
        <ele>53.2</ele>
        <time>2022-09-11T13:56:59Z</time>
      </trkpt>
      <trkpt lat="43.48963" lon="-1.47697">
        <ele>53</ele>
        <time>2022-09-11T13:57:07Z</time>
      </trkpt>
      <trkpt lat="43.48973" lon="-1.4769">
        <ele>52.8</ele>
        <time>2022-09-11T13:57:14Z</time>
      </trkpt>
      <trkpt lat="43.48979" lon="-1.47688">
        <ele>52.6</ele>
        <time>2022-09-11T13:57:18Z</time>
      </trkpt>
      <trkpt lat="43.48983" lon="-1.47685">
        <ele>52.4</ele>
        <time>2022-09-11T13:57:22Z</time>
      </trkpt>
      <trkpt lat="43.48988" lon="-1.47681">
        <ele>52.4</ele>
        <time>2022-09-11T13:57:26Z</time>
      </trkpt>
      <trkpt lat="43.48996" lon="-1.47673">
        <ele>52</ele>
        <time>2022-09-11T13:57:34Z</time>
      </trkpt>
      <trkpt lat="43.49005" lon="-1.47665">
        <ele>52.2</ele>
        <time>2022-09-11T13:57:42Z</time>
      </trkpt>
      <trkpt lat="43.49014" lon="-1.47663">
        <ele>52</ele>
        <time>2022-09-11T13:57:48Z</time>
      </trkpt>
      <trkpt lat="43.49016" lon="-1.47663">
        <ele>52</ele>
        <time>2022-09-11T13:57:49Z</time>
      </trkpt>
      <trkpt lat="43.49023" lon="-1.4766">
        <ele>51.8</ele>
        <time>2022-09-11T13:57:54Z</time>
      </trkpt>
      <trkpt lat="43.49024" lon="-1.4766">
        <ele>51.8</ele>
        <time>2022-09-11T13:57:55Z</time>
      </trkpt>
      <trkpt lat="43.49025" lon="-1.47664">
        <ele>51.6</ele>
        <time>2022-09-11T13:57:58Z</time>
      </trkpt>
      <trkpt lat="43.49026" lon="-1.47667">
        <ele>51.6</ele>
        <time>2022-09-11T13:58:00Z</time>
      </trkpt>
      <trkpt lat="43.49028" lon="-1.47676">
        <ele>51.8</ele>
        <time>2022-09-11T13:58:04Z</time>
      </trkpt>
    </trkseg>
  </trk>
</gpx>